<?xml version="1.0" encoding="UTF-8" standalone="no" ?>
<gpx xmlns="http://www.topografix.com/GPX/1/1" xmlns:xsi="http://www.w3.org/2001/XMLSchema-instance" xsi:schemaLocation="http://www.topografix.com/GPX/1/1 http://www.topografix.com/GPX/1/1/gpx.xsd" version="1.1" creator="VisuGPX - https://www.visugpx.com">
  <metadata>
    <name>Rando VTT Livarot 2018 40 km</name>
    <desc><![CDATA[Trace de la rando VTT 40 km de Livarot
23 septembre 2018
Parcours "tranquille" même dit des 3 vallées !!]]></desc>
  </metadata>
  <trk>
    <name><![CDATA[Rando VTT Livarot 2018 40 km_1]]></name>
    <trkseg>
      <trkpt lat="49.00597" lon="0.14855">
        <ele>50</ele>
        <time>2018-09-23 08:47:51</time>
      </trkpt>
      <trkpt lat="49.00596" lon="0.14851">
        <ele>55</ele>
        <time>2018-09-23 08:48:03</time>
      </trkpt>
      <trkpt lat="49.00595" lon="0.14848">
        <ele>55</ele>
        <time>2018-09-23 08:48:04</time>
      </trkpt>
      <trkpt lat="49.00593" lon="0.14845">
        <ele>55</ele>
        <time>2018-09-23 08:48:05</time>
      </trkpt>
      <trkpt lat="49.0059" lon="0.14839">
        <ele>54</ele>
        <time>2018-09-23 08:48:07</time>
      </trkpt>
      <trkpt lat="49.00585" lon="0.14832">
        <ele>54</ele>
        <time>2018-09-23 08:48:09</time>
      </trkpt>
      <trkpt lat="49.00579" lon="0.14827">
        <ele>55</ele>
        <time>2018-09-23 08:48:11</time>
      </trkpt>
      <trkpt lat="49.00572" lon="0.14825">
        <ele>55</ele>
        <time>2018-09-23 08:48:13</time>
      </trkpt>
      <trkpt lat="49.00564" lon="0.14824">
        <ele>56</ele>
        <time>2018-09-23 08:48:15</time>
      </trkpt>
      <trkpt lat="49.00561" lon="0.14823">
        <ele>56</ele>
        <time>2018-09-23 08:48:16</time>
      </trkpt>
      <trkpt lat="49.00553" lon="0.14819">
        <ele>57</ele>
        <time>2018-09-23 08:48:18</time>
      </trkpt>
      <trkpt lat="49.00546" lon="0.14816">
        <ele>57</ele>
        <time>2018-09-23 08:48:20</time>
      </trkpt>
      <trkpt lat="49.00543" lon="0.14814">
        <ele>58</ele>
        <time>2018-09-23 08:48:21</time>
      </trkpt>
      <trkpt lat="49.00538" lon="0.14812">
        <ele>58</ele>
        <time>2018-09-23 08:48:23</time>
      </trkpt>
      <trkpt lat="49.00535" lon="0.14811">
        <ele>57</ele>
        <time>2018-09-23 08:48:24</time>
      </trkpt>
      <trkpt lat="49.00533" lon="0.1481">
        <ele>57</ele>
        <time>2018-09-23 08:48:25</time>
      </trkpt>
      <trkpt lat="49.00529" lon="0.14809">
        <ele>57</ele>
        <time>2018-09-23 08:48:27</time>
      </trkpt>
      <trkpt lat="49.00526" lon="0.14808">
        <ele>57</ele>
        <time>2018-09-23 08:48:29</time>
      </trkpt>
      <trkpt lat="49.00524" lon="0.14807">
        <ele>58</ele>
        <time>2018-09-23 08:48:31</time>
      </trkpt>
      <trkpt lat="49.00523" lon="0.14807">
        <ele>58</ele>
        <time>2018-09-23 08:48:32</time>
      </trkpt>
      <trkpt lat="49.00523" lon="0.14806">
        <ele>59</ele>
        <time>2018-09-23 08:48:34</time>
      </trkpt>
      <trkpt lat="49.0052" lon="0.14808">
        <ele>63</ele>
        <time>2018-09-23 08:48:37</time>
      </trkpt>
      <trkpt lat="49.00516" lon="0.14807">
        <ele>63</ele>
        <time>2018-09-23 08:48:39</time>
      </trkpt>
      <trkpt lat="49.00514" lon="0.14803">
        <ele>62</ele>
        <time>2018-09-23 08:48:41</time>
      </trkpt>
      <trkpt lat="49.0051" lon="0.14796">
        <ele>62</ele>
        <time>2018-09-23 08:48:43</time>
      </trkpt>
      <trkpt lat="49.00509" lon="0.14791">
        <ele>62</ele>
        <time>2018-09-23 08:48:44</time>
      </trkpt>
      <trkpt lat="49.00505" lon="0.14781">
        <ele>62</ele>
        <time>2018-09-23 08:48:46</time>
      </trkpt>
      <trkpt lat="49.00502" lon="0.14776">
        <ele>62</ele>
        <time>2018-09-23 08:48:47</time>
      </trkpt>
      <trkpt lat="49.00498" lon="0.14771">
        <ele>62</ele>
        <time>2018-09-23 08:48:49</time>
      </trkpt>
      <trkpt lat="49.00495" lon="0.14769">
        <ele>61</ele>
        <time>2018-09-23 08:48:51</time>
      </trkpt>
      <trkpt lat="49.00494" lon="0.14768">
        <ele>61</ele>
        <time>2018-09-23 08:48:53</time>
      </trkpt>
      <trkpt lat="49.00494" lon="0.14769">
        <ele>61</ele>
        <time>2018-09-23 08:48:55</time>
      </trkpt>
      <trkpt lat="49.00493" lon="0.14764">
        <ele>61</ele>
        <time>2018-09-23 08:49:00</time>
      </trkpt>
      <trkpt lat="49.00492" lon="0.14763">
        <ele>61</ele>
        <time>2018-09-23 08:49:01</time>
      </trkpt>
      <trkpt lat="49.00491" lon="0.14761">
        <ele>61</ele>
        <time>2018-09-23 08:49:02</time>
      </trkpt>
      <trkpt lat="49.00489" lon="0.14759">
        <ele>61</ele>
        <time>2018-09-23 08:49:04</time>
      </trkpt>
      <trkpt lat="49.00487" lon="0.14758">
        <ele>60</ele>
        <time>2018-09-23 08:49:05</time>
      </trkpt>
      <trkpt lat="49.00484" lon="0.14756">
        <ele>60</ele>
        <time>2018-09-23 08:49:07</time>
      </trkpt>
      <trkpt lat="49.00482" lon="0.14756">
        <ele>60</ele>
        <time>2018-09-23 08:49:08</time>
      </trkpt>
      <trkpt lat="49.00479" lon="0.14754">
        <ele>60</ele>
        <time>2018-09-23 08:49:10</time>
      </trkpt>
      <trkpt lat="49.00477" lon="0.14754">
        <ele>60</ele>
        <time>2018-09-23 08:49:11</time>
      </trkpt>
      <trkpt lat="49.00474" lon="0.14753">
        <ele>60</ele>
        <time>2018-09-23 08:49:13</time>
      </trkpt>
      <trkpt lat="49.00472" lon="0.14753">
        <ele>60</ele>
        <time>2018-09-23 08:49:14</time>
      </trkpt>
      <trkpt lat="49.00466" lon="0.14753">
        <ele>59</ele>
        <time>2018-09-23 08:49:16</time>
      </trkpt>
      <trkpt lat="49.00459" lon="0.14753">
        <ele>59</ele>
        <time>2018-09-23 08:49:18</time>
      </trkpt>
      <trkpt lat="49.00455" lon="0.14753">
        <ele>59</ele>
        <time>2018-09-23 08:49:19</time>
      </trkpt>
      <trkpt lat="49.00447" lon="0.14752">
        <ele>59</ele>
        <time>2018-09-23 08:49:21</time>
      </trkpt>
      <trkpt lat="49.00439" lon="0.1475">
        <ele>59</ele>
        <time>2018-09-23 08:49:23</time>
      </trkpt>
      <trkpt lat="49.00431" lon="0.14748">
        <ele>59</ele>
        <time>2018-09-23 08:49:25</time>
      </trkpt>
      <trkpt lat="49.00427" lon="0.14747">
        <ele>59</ele>
        <time>2018-09-23 08:49:26</time>
      </trkpt>
      <trkpt lat="49.00419" lon="0.14744">
        <ele>59</ele>
        <time>2018-09-23 08:49:28</time>
      </trkpt>
      <trkpt lat="49.00411" lon="0.14742">
        <ele>58</ele>
        <time>2018-09-23 08:49:30</time>
      </trkpt>
      <trkpt lat="49.00407" lon="0.14741">
        <ele>58</ele>
        <time>2018-09-23 08:49:31</time>
      </trkpt>
      <trkpt lat="49.00403" lon="0.1474">
        <ele>59</ele>
        <time>2018-09-23 08:49:32</time>
      </trkpt>
      <trkpt lat="49.00394" lon="0.14737">
        <ele>59</ele>
        <time>2018-09-23 08:49:34</time>
      </trkpt>
      <trkpt lat="49.00385" lon="0.14735">
        <ele>59</ele>
        <time>2018-09-23 08:49:36</time>
      </trkpt>
      <trkpt lat="49.00381" lon="0.14734">
        <ele>59</ele>
        <time>2018-09-23 08:49:37</time>
      </trkpt>
      <trkpt lat="49.00377" lon="0.14733">
        <ele>59</ele>
        <time>2018-09-23 08:49:38</time>
      </trkpt>
      <trkpt lat="49.00367" lon="0.1473">
        <ele>59</ele>
        <time>2018-09-23 08:49:40</time>
      </trkpt>
      <trkpt lat="49.00359" lon="0.14729">
        <ele>59</ele>
        <time>2018-09-23 08:49:42</time>
      </trkpt>
      <trkpt lat="49.0035" lon="0.14727">
        <ele>58</ele>
        <time>2018-09-23 08:49:44</time>
      </trkpt>
      <trkpt lat="49.00342" lon="0.14726">
        <ele>58</ele>
        <time>2018-09-23 08:49:46</time>
      </trkpt>
      <trkpt lat="49.00339" lon="0.14725">
        <ele>58</ele>
        <time>2018-09-23 08:49:47</time>
      </trkpt>
      <trkpt lat="49.00332" lon="0.14724">
        <ele>58</ele>
        <time>2018-09-23 08:49:49</time>
      </trkpt>
      <trkpt lat="49.00327" lon="0.14723">
        <ele>58</ele>
        <time>2018-09-23 08:49:50</time>
      </trkpt>
      <trkpt lat="49.00319" lon="0.14722">
        <ele>58</ele>
        <time>2018-09-23 08:49:52</time>
      </trkpt>
      <trkpt lat="49.0031" lon="0.14723">
        <ele>58</ele>
        <time>2018-09-23 08:49:54</time>
      </trkpt>
      <trkpt lat="49.003" lon="0.14723">
        <ele>58</ele>
        <time>2018-09-23 08:49:56</time>
      </trkpt>
      <trkpt lat="49.00292" lon="0.14724">
        <ele>58</ele>
        <time>2018-09-23 08:49:58</time>
      </trkpt>
      <trkpt lat="49.00283" lon="0.14724">
        <ele>58</ele>
        <time>2018-09-23 08:50:00</time>
      </trkpt>
      <trkpt lat="49.00274" lon="0.14725">
        <ele>57</ele>
        <time>2018-09-23 08:50:02</time>
      </trkpt>
      <trkpt lat="49.00265" lon="0.14726">
        <ele>58</ele>
        <time>2018-09-23 08:50:04</time>
      </trkpt>
      <trkpt lat="49.00256" lon="0.14726">
        <ele>58</ele>
        <time>2018-09-23 08:50:06</time>
      </trkpt>
      <trkpt lat="49.00252" lon="0.14726">
        <ele>58</ele>
        <time>2018-09-23 08:50:07</time>
      </trkpt>
      <trkpt lat="49.00248" lon="0.14727">
        <ele>57</ele>
        <time>2018-09-23 08:50:08</time>
      </trkpt>
      <trkpt lat="49.0024" lon="0.14729">
        <ele>58</ele>
        <time>2018-09-23 08:50:10</time>
      </trkpt>
      <trkpt lat="49.00236" lon="0.1473">
        <ele>58</ele>
        <time>2018-09-23 08:50:11</time>
      </trkpt>
      <trkpt lat="49.00228" lon="0.14732">
        <ele>58</ele>
        <time>2018-09-23 08:50:13</time>
      </trkpt>
      <trkpt lat="49.00224" lon="0.14733">
        <ele>58</ele>
        <time>2018-09-23 08:50:14</time>
      </trkpt>
      <trkpt lat="49.00215" lon="0.14737">
        <ele>58</ele>
        <time>2018-09-23 08:50:16</time>
      </trkpt>
      <trkpt lat="49.00207" lon="0.14742">
        <ele>58</ele>
        <time>2018-09-23 08:50:18</time>
      </trkpt>
      <trkpt lat="49.00197" lon="0.14747">
        <ele>58</ele>
        <time>2018-09-23 08:50:20</time>
      </trkpt>
      <trkpt lat="49.00188" lon="0.1475">
        <ele>58</ele>
        <time>2018-09-23 08:50:22</time>
      </trkpt>
      <trkpt lat="49.0018" lon="0.14753">
        <ele>58</ele>
        <time>2018-09-23 08:50:24</time>
      </trkpt>
      <trkpt lat="49.00176" lon="0.14754">
        <ele>58</ele>
        <time>2018-09-23 08:50:25</time>
      </trkpt>
      <trkpt lat="49.00172" lon="0.14756">
        <ele>58</ele>
        <time>2018-09-23 08:50:26</time>
      </trkpt>
      <trkpt lat="49.00163" lon="0.14761">
        <ele>59</ele>
        <time>2018-09-23 08:50:28</time>
      </trkpt>
      <trkpt lat="49.00159" lon="0.14763">
        <ele>59</ele>
        <time>2018-09-23 08:50:29</time>
      </trkpt>
      <trkpt lat="49.00151" lon="0.14768">
        <ele>59</ele>
        <time>2018-09-23 08:50:31</time>
      </trkpt>
      <trkpt lat="49.00147" lon="0.14771">
        <ele>59</ele>
        <time>2018-09-23 08:50:32</time>
      </trkpt>
      <trkpt lat="49.00137" lon="0.14775">
        <ele>59</ele>
        <time>2018-09-23 08:50:34</time>
      </trkpt>
      <trkpt lat="49.00129" lon="0.1478">
        <ele>59</ele>
        <time>2018-09-23 08:50:36</time>
      </trkpt>
      <trkpt lat="49.00126" lon="0.14782">
        <ele>59</ele>
        <time>2018-09-23 08:50:37</time>
      </trkpt>
      <trkpt lat="49.00118" lon="0.14787">
        <ele>60</ele>
        <time>2018-09-23 08:50:39</time>
      </trkpt>
      <trkpt lat="49.00111" lon="0.14791">
        <ele>60</ele>
        <time>2018-09-23 08:50:41</time>
      </trkpt>
      <trkpt lat="49.00103" lon="0.14796">
        <ele>61</ele>
        <time>2018-09-23 08:50:43</time>
      </trkpt>
      <trkpt lat="49.001" lon="0.14798">
        <ele>61</ele>
        <time>2018-09-23 08:50:44</time>
      </trkpt>
      <trkpt lat="49.00091" lon="0.14802">
        <ele>62</ele>
        <time>2018-09-23 08:50:46</time>
      </trkpt>
      <trkpt lat="49.00082" lon="0.14805">
        <ele>62</ele>
        <time>2018-09-23 08:50:48</time>
      </trkpt>
      <trkpt lat="49.00072" lon="0.14811">
        <ele>62</ele>
        <time>2018-09-23 08:50:50</time>
      </trkpt>
      <trkpt lat="49.00062" lon="0.14815">
        <ele>63</ele>
        <time>2018-09-23 08:50:52</time>
      </trkpt>
      <trkpt lat="49.00057" lon="0.14817">
        <ele>63</ele>
        <time>2018-09-23 08:50:53</time>
      </trkpt>
      <trkpt lat="49.00044" lon="0.14819">
        <ele>63</ele>
        <time>2018-09-23 08:50:55</time>
      </trkpt>
      <trkpt lat="49.00039" lon="0.14822">
        <ele>63</ele>
        <time>2018-09-23 08:50:56</time>
      </trkpt>
      <trkpt lat="49.0003" lon="0.14827">
        <ele>64</ele>
        <time>2018-09-23 08:50:58</time>
      </trkpt>
      <trkpt lat="49.00021" lon="0.14831">
        <ele>64</ele>
        <time>2018-09-23 08:51:00</time>
      </trkpt>
      <trkpt lat="49.00016" lon="0.14833">
        <ele>64</ele>
        <time>2018-09-23 08:51:01</time>
      </trkpt>
      <trkpt lat="49.00012" lon="0.14834">
        <ele>64</ele>
        <time>2018-09-23 08:51:02</time>
      </trkpt>
      <trkpt lat="49.00003" lon="0.14836">
        <ele>64</ele>
        <time>2018-09-23 08:51:04</time>
      </trkpt>
      <trkpt lat="48.99998" lon="0.14837">
        <ele>63</ele>
        <time>2018-09-23 08:51:05</time>
      </trkpt>
      <trkpt lat="48.99989" lon="0.14837">
        <ele>62</ele>
        <time>2018-09-23 08:51:07</time>
      </trkpt>
      <trkpt lat="48.99984" lon="0.14837">
        <ele>62</ele>
        <time>2018-09-23 08:51:08</time>
      </trkpt>
      <trkpt lat="48.99976" lon="0.14836">
        <ele>63</ele>
        <time>2018-09-23 08:51:10</time>
      </trkpt>
      <trkpt lat="48.99971" lon="0.14835">
        <ele>63</ele>
        <time>2018-09-23 08:51:11</time>
      </trkpt>
      <trkpt lat="48.99962" lon="0.14834">
        <ele>63</ele>
        <time>2018-09-23 08:51:13</time>
      </trkpt>
      <trkpt lat="48.99954" lon="0.14834">
        <ele>63</ele>
        <time>2018-09-23 08:51:15</time>
      </trkpt>
      <trkpt lat="48.99946" lon="0.14836">
        <ele>64</ele>
        <time>2018-09-23 08:51:17</time>
      </trkpt>
      <trkpt lat="48.99939" lon="0.14842">
        <ele>64</ele>
        <time>2018-09-23 08:51:19</time>
      </trkpt>
      <trkpt lat="48.99932" lon="0.1485">
        <ele>63</ele>
        <time>2018-09-23 08:51:21</time>
      </trkpt>
      <trkpt lat="48.99927" lon="0.14853">
        <ele>63</ele>
        <time>2018-09-23 08:51:22</time>
      </trkpt>
      <trkpt lat="48.99919" lon="0.14858">
        <ele>63</ele>
        <time>2018-09-23 08:51:24</time>
      </trkpt>
      <trkpt lat="48.9991" lon="0.14861">
        <ele>63</ele>
        <time>2018-09-23 08:51:26</time>
      </trkpt>
      <trkpt lat="48.99901" lon="0.14863">
        <ele>63</ele>
        <time>2018-09-23 08:51:28</time>
      </trkpt>
      <trkpt lat="48.99891" lon="0.14864">
        <ele>62</ele>
        <time>2018-09-23 08:51:30</time>
      </trkpt>
      <trkpt lat="48.99882" lon="0.14864">
        <ele>62</ele>
        <time>2018-09-23 08:51:32</time>
      </trkpt>
      <trkpt lat="48.99874" lon="0.14865">
        <ele>62</ele>
        <time>2018-09-23 08:51:34</time>
      </trkpt>
      <trkpt lat="48.99871" lon="0.14864">
        <ele>62</ele>
        <time>2018-09-23 08:51:35</time>
      </trkpt>
      <trkpt lat="48.99864" lon="0.14864">
        <ele>62</ele>
        <time>2018-09-23 08:51:37</time>
      </trkpt>
      <trkpt lat="48.9986" lon="0.14865">
        <ele>62</ele>
        <time>2018-09-23 08:51:38</time>
      </trkpt>
      <trkpt lat="48.99856" lon="0.14865">
        <ele>62</ele>
        <time>2018-09-23 08:51:39</time>
      </trkpt>
      <trkpt lat="48.99848" lon="0.14865">
        <ele>62</ele>
        <time>2018-09-23 08:51:41</time>
      </trkpt>
      <trkpt lat="48.99843" lon="0.14864">
        <ele>62</ele>
        <time>2018-09-23 08:51:42</time>
      </trkpt>
      <trkpt lat="48.99839" lon="0.14864">
        <ele>62</ele>
        <time>2018-09-23 08:51:43</time>
      </trkpt>
      <trkpt lat="48.99833" lon="0.14865">
        <ele>62</ele>
        <time>2018-09-23 08:51:45</time>
      </trkpt>
      <trkpt lat="48.99826" lon="0.14865">
        <ele>61</ele>
        <time>2018-09-23 08:51:47</time>
      </trkpt>
      <trkpt lat="48.99818" lon="0.14864">
        <ele>61</ele>
        <time>2018-09-23 08:51:49</time>
      </trkpt>
      <trkpt lat="48.99814" lon="0.14863">
        <ele>61</ele>
        <time>2018-09-23 08:51:50</time>
      </trkpt>
      <trkpt lat="48.99807" lon="0.14862">
        <ele>60</ele>
        <time>2018-09-23 08:51:52</time>
      </trkpt>
      <trkpt lat="48.998" lon="0.14863">
        <ele>60</ele>
        <time>2018-09-23 08:51:54</time>
      </trkpt>
      <trkpt lat="48.99791" lon="0.14862">
        <ele>60</ele>
        <time>2018-09-23 08:51:56</time>
      </trkpt>
      <trkpt lat="48.99782" lon="0.1486">
        <ele>60</ele>
        <time>2018-09-23 08:51:58</time>
      </trkpt>
      <trkpt lat="48.99774" lon="0.14853">
        <ele>61</ele>
        <time>2018-09-23 08:52:00</time>
      </trkpt>
      <trkpt lat="48.99772" lon="0.14851">
        <ele>61</ele>
        <time>2018-09-23 08:52:01</time>
      </trkpt>
      <trkpt lat="48.99771" lon="0.14849">
        <ele>61</ele>
        <time>2018-09-23 08:52:02</time>
      </trkpt>
      <trkpt lat="48.99767" lon="0.14843">
        <ele>61</ele>
        <time>2018-09-23 08:52:04</time>
      </trkpt>
      <trkpt lat="48.99762" lon="0.14839">
        <ele>61</ele>
        <time>2018-09-23 08:52:06</time>
      </trkpt>
      <trkpt lat="48.99756" lon="0.14837">
        <ele>60</ele>
        <time>2018-09-23 08:52:08</time>
      </trkpt>
      <trkpt lat="48.99751" lon="0.14845">
        <ele>60</ele>
        <time>2018-09-23 08:52:10</time>
      </trkpt>
      <trkpt lat="48.99747" lon="0.14852">
        <ele>60</ele>
        <time>2018-09-23 08:52:12</time>
      </trkpt>
      <trkpt lat="48.99738" lon="0.14853">
        <ele>60</ele>
        <time>2018-09-23 08:52:14</time>
      </trkpt>
      <trkpt lat="48.9973" lon="0.14851">
        <ele>60</ele>
        <time>2018-09-23 08:52:16</time>
      </trkpt>
      <trkpt lat="48.9972" lon="0.14849">
        <ele>61</ele>
        <time>2018-09-23 08:52:18</time>
      </trkpt>
      <trkpt lat="48.99712" lon="0.14848">
        <ele>60</ele>
        <time>2018-09-23 08:52:20</time>
      </trkpt>
      <trkpt lat="48.99702" lon="0.14848">
        <ele>60</ele>
        <time>2018-09-23 08:52:22</time>
      </trkpt>
      <trkpt lat="48.99698" lon="0.14847">
        <ele>60</ele>
        <time>2018-09-23 08:52:23</time>
      </trkpt>
      <trkpt lat="48.99687" lon="0.14847">
        <ele>61</ele>
        <time>2018-09-23 08:52:25</time>
      </trkpt>
      <trkpt lat="48.99682" lon="0.14848">
        <ele>61</ele>
        <time>2018-09-23 08:52:26</time>
      </trkpt>
      <trkpt lat="48.99676" lon="0.14849">
        <ele>62</ele>
        <time>2018-09-23 08:52:27</time>
      </trkpt>
      <trkpt lat="48.99666" lon="0.14846">
        <ele>62</ele>
        <time>2018-09-23 08:52:29</time>
      </trkpt>
      <trkpt lat="48.9966" lon="0.14845">
        <ele>62</ele>
        <time>2018-09-23 08:52:31</time>
      </trkpt>
      <trkpt lat="48.99659" lon="0.14845">
        <ele>61</ele>
        <time>2018-09-23 08:52:32</time>
      </trkpt>
      <trkpt lat="48.99647" lon="0.14849">
        <ele>65</ele>
        <time>2018-09-23 08:52:38</time>
      </trkpt>
      <trkpt lat="48.9964" lon="0.14847">
        <ele>65</ele>
        <time>2018-09-23 08:52:40</time>
      </trkpt>
      <trkpt lat="48.99636" lon="0.14847">
        <ele>66</ele>
        <time>2018-09-23 08:52:41</time>
      </trkpt>
      <trkpt lat="48.99628" lon="0.14846">
        <ele>66</ele>
        <time>2018-09-23 08:52:43</time>
      </trkpt>
      <trkpt lat="48.9962" lon="0.14846">
        <ele>66</ele>
        <time>2018-09-23 08:52:45</time>
      </trkpt>
      <trkpt lat="48.99612" lon="0.14846">
        <ele>66</ele>
        <time>2018-09-23 08:52:47</time>
      </trkpt>
      <trkpt lat="48.99604" lon="0.14845">
        <ele>66</ele>
        <time>2018-09-23 08:52:49</time>
      </trkpt>
      <trkpt lat="48.99601" lon="0.14844">
        <ele>66</ele>
        <time>2018-09-23 08:52:50</time>
      </trkpt>
      <trkpt lat="48.99593" lon="0.14843">
        <ele>66</ele>
        <time>2018-09-23 08:52:52</time>
      </trkpt>
      <trkpt lat="48.9959" lon="0.14842">
        <ele>66</ele>
        <time>2018-09-23 08:52:53</time>
      </trkpt>
      <trkpt lat="48.99584" lon="0.1484">
        <ele>66</ele>
        <time>2018-09-23 08:52:55</time>
      </trkpt>
      <trkpt lat="48.99583" lon="0.1484">
        <ele>66</ele>
        <time>2018-09-23 08:52:56</time>
      </trkpt>
      <trkpt lat="48.99582" lon="0.1484">
        <ele>65</ele>
        <time>2018-09-23 08:52:58</time>
      </trkpt>
      <trkpt lat="48.99582" lon="0.14839">
        <ele>65</ele>
        <time>2018-09-23 08:52:59</time>
      </trkpt>
      <trkpt lat="48.99571" lon="0.14837">
        <ele>65</ele>
        <time>2018-09-23 08:53:02</time>
      </trkpt>
      <trkpt lat="48.99566" lon="0.14837">
        <ele>65</ele>
        <time>2018-09-23 08:53:03</time>
      </trkpt>
      <trkpt lat="48.99563" lon="0.14837">
        <ele>64</ele>
        <time>2018-09-23 08:53:04</time>
      </trkpt>
      <trkpt lat="48.99557" lon="0.14836">
        <ele>64</ele>
        <time>2018-09-23 08:53:06</time>
      </trkpt>
      <trkpt lat="48.99554" lon="0.14836">
        <ele>64</ele>
        <time>2018-09-23 08:53:07</time>
      </trkpt>
      <trkpt lat="48.99552" lon="0.14836">
        <ele>64</ele>
        <time>2018-09-23 08:53:08</time>
      </trkpt>
      <trkpt lat="48.99549" lon="0.14836">
        <ele>64</ele>
        <time>2018-09-23 08:53:09</time>
      </trkpt>
      <trkpt lat="48.99542" lon="0.14836">
        <ele>63</ele>
        <time>2018-09-23 08:53:12</time>
      </trkpt>
      <trkpt lat="48.99536" lon="0.14835">
        <ele>63</ele>
        <time>2018-09-23 08:53:14</time>
      </trkpt>
      <trkpt lat="48.99533" lon="0.14835">
        <ele>63</ele>
        <time>2018-09-23 08:53:15</time>
      </trkpt>
      <trkpt lat="48.99529" lon="0.14834">
        <ele>62</ele>
        <time>2018-09-23 08:53:16</time>
      </trkpt>
      <trkpt lat="48.99526" lon="0.14833">
        <ele>62</ele>
        <time>2018-09-23 08:53:17</time>
      </trkpt>
      <trkpt lat="48.99523" lon="0.14833">
        <ele>62</ele>
        <time>2018-09-23 08:53:18</time>
      </trkpt>
      <trkpt lat="48.99522" lon="0.14833">
        <ele>61</ele>
        <time>2018-09-23 08:53:20</time>
      </trkpt>
      <trkpt lat="48.99522" lon="0.14833">
        <ele>61</ele>
        <time>2018-09-23 08:53:21</time>
      </trkpt>
      <trkpt lat="48.99514" lon="0.14837">
        <ele>62</ele>
        <time>2018-09-23 08:53:23</time>
      </trkpt>
      <trkpt lat="48.9951" lon="0.14836">
        <ele>62</ele>
        <time>2018-09-23 08:53:25</time>
      </trkpt>
      <trkpt lat="48.99508" lon="0.14836">
        <ele>62</ele>
        <time>2018-09-23 08:53:26</time>
      </trkpt>
      <trkpt lat="48.99502" lon="0.14836">
        <ele>62</ele>
        <time>2018-09-23 08:53:28</time>
      </trkpt>
      <trkpt lat="48.99494" lon="0.14836">
        <ele>62</ele>
        <time>2018-09-23 08:53:30</time>
      </trkpt>
      <trkpt lat="48.9949" lon="0.14836">
        <ele>62</ele>
        <time>2018-09-23 08:53:31</time>
      </trkpt>
      <trkpt lat="48.99485" lon="0.14836">
        <ele>62</ele>
        <time>2018-09-23 08:53:32</time>
      </trkpt>
      <trkpt lat="48.99476" lon="0.14837">
        <ele>63</ele>
        <time>2018-09-23 08:53:34</time>
      </trkpt>
      <trkpt lat="48.99471" lon="0.14836">
        <ele>63</ele>
        <time>2018-09-23 08:53:35</time>
      </trkpt>
      <trkpt lat="48.99462" lon="0.14834">
        <ele>63</ele>
        <time>2018-09-23 08:53:37</time>
      </trkpt>
      <trkpt lat="48.99457" lon="0.14834">
        <ele>64</ele>
        <time>2018-09-23 08:53:38</time>
      </trkpt>
      <trkpt lat="48.99448" lon="0.14834">
        <ele>64</ele>
        <time>2018-09-23 08:53:40</time>
      </trkpt>
      <trkpt lat="48.99439" lon="0.14833">
        <ele>65</ele>
        <time>2018-09-23 08:53:42</time>
      </trkpt>
      <trkpt lat="48.99429" lon="0.14832">
        <ele>65</ele>
        <time>2018-09-23 08:53:44</time>
      </trkpt>
      <trkpt lat="48.99419" lon="0.14831">
        <ele>66</ele>
        <time>2018-09-23 08:53:46</time>
      </trkpt>
      <trkpt lat="48.99408" lon="0.1483">
        <ele>66</ele>
        <time>2018-09-23 08:53:48</time>
      </trkpt>
      <trkpt lat="48.99396" lon="0.14828">
        <ele>65</ele>
        <time>2018-09-23 08:53:50</time>
      </trkpt>
      <trkpt lat="48.99385" lon="0.14827">
        <ele>66</ele>
        <time>2018-09-23 08:53:52</time>
      </trkpt>
      <trkpt lat="48.99372" lon="0.14825">
        <ele>65</ele>
        <time>2018-09-23 08:53:54</time>
      </trkpt>
      <trkpt lat="48.99365" lon="0.14824">
        <ele>65</ele>
        <time>2018-09-23 08:53:55</time>
      </trkpt>
      <trkpt lat="48.9936" lon="0.14823">
        <ele>65</ele>
        <time>2018-09-23 08:53:56</time>
      </trkpt>
      <trkpt lat="48.99349" lon="0.14821">
        <ele>66</ele>
        <time>2018-09-23 08:53:58</time>
      </trkpt>
      <trkpt lat="48.99337" lon="0.1482">
        <ele>66</ele>
        <time>2018-09-23 08:54:00</time>
      </trkpt>
      <trkpt lat="48.99328" lon="0.14819">
        <ele>66</ele>
        <time>2018-09-23 08:54:02</time>
      </trkpt>
      <trkpt lat="48.99318" lon="0.14818">
        <ele>66</ele>
        <time>2018-09-23 08:54:04</time>
      </trkpt>
      <trkpt lat="48.99313" lon="0.14817">
        <ele>66</ele>
        <time>2018-09-23 08:54:05</time>
      </trkpt>
      <trkpt lat="48.99302" lon="0.14817">
        <ele>67</ele>
        <time>2018-09-23 08:54:07</time>
      </trkpt>
      <trkpt lat="48.99297" lon="0.14817">
        <ele>67</ele>
        <time>2018-09-23 08:54:08</time>
      </trkpt>
      <trkpt lat="48.99287" lon="0.14817">
        <ele>67</ele>
        <time>2018-09-23 08:54:10</time>
      </trkpt>
      <trkpt lat="48.99276" lon="0.14815">
        <ele>67</ele>
        <time>2018-09-23 08:54:12</time>
      </trkpt>
      <trkpt lat="48.9927" lon="0.14814">
        <ele>66</ele>
        <time>2018-09-23 08:54:13</time>
      </trkpt>
      <trkpt lat="48.99265" lon="0.14814">
        <ele>66</ele>
        <time>2018-09-23 08:54:14</time>
      </trkpt>
      <trkpt lat="48.99254" lon="0.14812">
        <ele>67</ele>
        <time>2018-09-23 08:54:16</time>
      </trkpt>
      <trkpt lat="48.99243" lon="0.14811">
        <ele>66</ele>
        <time>2018-09-23 08:54:18</time>
      </trkpt>
      <trkpt lat="48.99238" lon="0.14811">
        <ele>66</ele>
        <time>2018-09-23 08:54:19</time>
      </trkpt>
      <trkpt lat="48.99226" lon="0.1481">
        <ele>66</ele>
        <time>2018-09-23 08:54:21</time>
      </trkpt>
      <trkpt lat="48.99221" lon="0.1481">
        <ele>66</ele>
        <time>2018-09-23 08:54:22</time>
      </trkpt>
      <trkpt lat="48.99213" lon="0.14809">
        <ele>66</ele>
        <time>2018-09-23 08:54:24</time>
      </trkpt>
      <trkpt lat="48.99208" lon="0.14809">
        <ele>66</ele>
        <time>2018-09-23 08:54:25</time>
      </trkpt>
      <trkpt lat="48.99199" lon="0.14809">
        <ele>66</ele>
        <time>2018-09-23 08:54:27</time>
      </trkpt>
      <trkpt lat="48.9919" lon="0.14809">
        <ele>66</ele>
        <time>2018-09-23 08:54:29</time>
      </trkpt>
      <trkpt lat="48.99185" lon="0.14809">
        <ele>66</ele>
        <time>2018-09-23 08:54:30</time>
      </trkpt>
      <trkpt lat="48.99174" lon="0.14809">
        <ele>66</ele>
        <time>2018-09-23 08:54:32</time>
      </trkpt>
      <trkpt lat="48.99162" lon="0.14808">
        <ele>66</ele>
        <time>2018-09-23 08:54:34</time>
      </trkpt>
      <trkpt lat="48.99157" lon="0.14809">
        <ele>66</ele>
        <time>2018-09-23 08:54:35</time>
      </trkpt>
      <trkpt lat="48.99148" lon="0.14809">
        <ele>67</ele>
        <time>2018-09-23 08:54:37</time>
      </trkpt>
      <trkpt lat="48.99144" lon="0.1481">
        <ele>67</ele>
        <time>2018-09-23 08:54:38</time>
      </trkpt>
      <trkpt lat="48.99135" lon="0.14812">
        <ele>67</ele>
        <time>2018-09-23 08:54:40</time>
      </trkpt>
      <trkpt lat="48.99126" lon="0.14813">
        <ele>67</ele>
        <time>2018-09-23 08:54:42</time>
      </trkpt>
      <trkpt lat="48.99117" lon="0.14814">
        <ele>68</ele>
        <time>2018-09-23 08:54:44</time>
      </trkpt>
      <trkpt lat="48.99108" lon="0.14815">
        <ele>68</ele>
        <time>2018-09-23 08:54:46</time>
      </trkpt>
      <trkpt lat="48.99097" lon="0.14817">
        <ele>68</ele>
        <time>2018-09-23 08:54:48</time>
      </trkpt>
      <trkpt lat="48.99092" lon="0.14818">
        <ele>68</ele>
        <time>2018-09-23 08:54:49</time>
      </trkpt>
      <trkpt lat="48.99087" lon="0.1482">
        <ele>68</ele>
        <time>2018-09-23 08:54:50</time>
      </trkpt>
      <trkpt lat="48.99077" lon="0.14822">
        <ele>68</ele>
        <time>2018-09-23 08:54:52</time>
      </trkpt>
      <trkpt lat="48.99065" lon="0.14825">
        <ele>68</ele>
        <time>2018-09-23 08:54:54</time>
      </trkpt>
      <trkpt lat="48.9906" lon="0.14827">
        <ele>68</ele>
        <time>2018-09-23 08:54:55</time>
      </trkpt>
      <trkpt lat="48.99054" lon="0.14828">
        <ele>68</ele>
        <time>2018-09-23 08:54:56</time>
      </trkpt>
      <trkpt lat="48.99042" lon="0.1483">
        <ele>68</ele>
        <time>2018-09-23 08:54:58</time>
      </trkpt>
      <trkpt lat="48.99031" lon="0.14833">
        <ele>68</ele>
        <time>2018-09-23 08:55:00</time>
      </trkpt>
      <trkpt lat="48.99019" lon="0.14837">
        <ele>68</ele>
        <time>2018-09-23 08:55:02</time>
      </trkpt>
      <trkpt lat="48.99009" lon="0.14841">
        <ele>67</ele>
        <time>2018-09-23 08:55:04</time>
      </trkpt>
      <trkpt lat="48.98998" lon="0.14846">
        <ele>68</ele>
        <time>2018-09-23 08:55:06</time>
      </trkpt>
      <trkpt lat="48.98988" lon="0.1485">
        <ele>67</ele>
        <time>2018-09-23 08:55:08</time>
      </trkpt>
      <trkpt lat="48.98978" lon="0.14856">
        <ele>67</ele>
        <time>2018-09-23 08:55:10</time>
      </trkpt>
      <trkpt lat="48.98973" lon="0.14859">
        <ele>67</ele>
        <time>2018-09-23 08:55:11</time>
      </trkpt>
      <trkpt lat="48.98963" lon="0.14864">
        <ele>67</ele>
        <time>2018-09-23 08:55:13</time>
      </trkpt>
      <trkpt lat="48.98958" lon="0.14866">
        <ele>67</ele>
        <time>2018-09-23 08:55:14</time>
      </trkpt>
      <trkpt lat="48.98949" lon="0.14871">
        <ele>66</ele>
        <time>2018-09-23 08:55:16</time>
      </trkpt>
      <trkpt lat="48.98938" lon="0.14874">
        <ele>65</ele>
        <time>2018-09-23 08:55:18</time>
      </trkpt>
      <trkpt lat="48.98932" lon="0.14877">
        <ele>65</ele>
        <time>2018-09-23 08:55:19</time>
      </trkpt>
      <trkpt lat="48.98921" lon="0.14882">
        <ele>66</ele>
        <time>2018-09-23 08:55:21</time>
      </trkpt>
      <trkpt lat="48.98915" lon="0.14885">
        <ele>66</ele>
        <time>2018-09-23 08:55:22</time>
      </trkpt>
      <trkpt lat="48.98905" lon="0.1489">
        <ele>66</ele>
        <time>2018-09-23 08:55:24</time>
      </trkpt>
      <trkpt lat="48.98894" lon="0.14895">
        <ele>65</ele>
        <time>2018-09-23 08:55:26</time>
      </trkpt>
      <trkpt lat="48.98883" lon="0.14899">
        <ele>65</ele>
        <time>2018-09-23 08:55:28</time>
      </trkpt>
      <trkpt lat="48.98872" lon="0.14904">
        <ele>64</ele>
        <time>2018-09-23 08:55:30</time>
      </trkpt>
      <trkpt lat="48.98861" lon="0.14908">
        <ele>64</ele>
        <time>2018-09-23 08:55:32</time>
      </trkpt>
      <trkpt lat="48.98849" lon="0.14913">
        <ele>64</ele>
        <time>2018-09-23 08:55:34</time>
      </trkpt>
      <trkpt lat="48.98838" lon="0.14919">
        <ele>63</ele>
        <time>2018-09-23 08:55:36</time>
      </trkpt>
      <trkpt lat="48.98827" lon="0.14923">
        <ele>63</ele>
        <time>2018-09-23 08:55:38</time>
      </trkpt>
      <trkpt lat="48.98817" lon="0.14928">
        <ele>63</ele>
        <time>2018-09-23 08:55:40</time>
      </trkpt>
      <trkpt lat="48.98812" lon="0.1493">
        <ele>63</ele>
        <time>2018-09-23 08:55:41</time>
      </trkpt>
      <trkpt lat="48.98803" lon="0.14935">
        <ele>64</ele>
        <time>2018-09-23 08:55:43</time>
      </trkpt>
      <trkpt lat="48.98799" lon="0.14937">
        <ele>64</ele>
        <time>2018-09-23 08:55:44</time>
      </trkpt>
      <trkpt lat="48.98792" lon="0.14941">
        <ele>64</ele>
        <time>2018-09-23 08:55:46</time>
      </trkpt>
      <trkpt lat="48.98782" lon="0.14946">
        <ele>65</ele>
        <time>2018-09-23 08:55:48</time>
      </trkpt>
      <trkpt lat="48.98772" lon="0.14951">
        <ele>64</ele>
        <time>2018-09-23 08:55:50</time>
      </trkpt>
      <trkpt lat="48.9876" lon="0.14956">
        <ele>65</ele>
        <time>2018-09-23 08:55:52</time>
      </trkpt>
      <trkpt lat="48.98749" lon="0.14961">
        <ele>65</ele>
        <time>2018-09-23 08:55:54</time>
      </trkpt>
      <trkpt lat="48.98743" lon="0.14963">
        <ele>65</ele>
        <time>2018-09-23 08:55:55</time>
      </trkpt>
      <trkpt lat="48.98738" lon="0.14966">
        <ele>65</ele>
        <time>2018-09-23 08:55:56</time>
      </trkpt>
      <trkpt lat="48.98727" lon="0.1497">
        <ele>65</ele>
        <time>2018-09-23 08:55:58</time>
      </trkpt>
      <trkpt lat="48.98715" lon="0.14975">
        <ele>64</ele>
        <time>2018-09-23 08:56:00</time>
      </trkpt>
      <trkpt lat="48.98704" lon="0.14979">
        <ele>64</ele>
        <time>2018-09-23 08:56:02</time>
      </trkpt>
      <trkpt lat="48.98693" lon="0.14984">
        <ele>64</ele>
        <time>2018-09-23 08:56:04</time>
      </trkpt>
      <trkpt lat="48.98682" lon="0.14989">
        <ele>64</ele>
        <time>2018-09-23 08:56:06</time>
      </trkpt>
      <trkpt lat="48.98672" lon="0.14994">
        <ele>64</ele>
        <time>2018-09-23 08:56:08</time>
      </trkpt>
      <trkpt lat="48.98662" lon="0.15">
        <ele>64</ele>
        <time>2018-09-23 08:56:10</time>
      </trkpt>
      <trkpt lat="48.98653" lon="0.15005">
        <ele>64</ele>
        <time>2018-09-23 08:56:12</time>
      </trkpt>
      <trkpt lat="48.98644" lon="0.1501">
        <ele>64</ele>
        <time>2018-09-23 08:56:14</time>
      </trkpt>
      <trkpt lat="48.98637" lon="0.15014">
        <ele>64</ele>
        <time>2018-09-23 08:56:16</time>
      </trkpt>
      <trkpt lat="48.9863" lon="0.15019">
        <ele>64</ele>
        <time>2018-09-23 08:56:18</time>
      </trkpt>
      <trkpt lat="48.98622" lon="0.15025">
        <ele>65</ele>
        <time>2018-09-23 08:56:20</time>
      </trkpt>
      <trkpt lat="48.98615" lon="0.15028">
        <ele>65</ele>
        <time>2018-09-23 08:56:22</time>
      </trkpt>
      <trkpt lat="48.98608" lon="0.15032">
        <ele>65</ele>
        <time>2018-09-23 08:56:24</time>
      </trkpt>
      <trkpt lat="48.98599" lon="0.15034">
        <ele>65</ele>
        <time>2018-09-23 08:56:26</time>
      </trkpt>
      <trkpt lat="48.98596" lon="0.15037">
        <ele>66</ele>
        <time>2018-09-23 08:56:27</time>
      </trkpt>
      <trkpt lat="48.98588" lon="0.15042">
        <ele>66</ele>
        <time>2018-09-23 08:56:29</time>
      </trkpt>
      <trkpt lat="48.98579" lon="0.15048">
        <ele>66</ele>
        <time>2018-09-23 08:56:31</time>
      </trkpt>
      <trkpt lat="48.98574" lon="0.15051">
        <ele>66</ele>
        <time>2018-09-23 08:56:32</time>
      </trkpt>
      <trkpt lat="48.98564" lon="0.15057">
        <ele>66</ele>
        <time>2018-09-23 08:56:34</time>
      </trkpt>
      <trkpt lat="48.98553" lon="0.15062">
        <ele>66</ele>
        <time>2018-09-23 08:56:36</time>
      </trkpt>
      <trkpt lat="48.98542" lon="0.15067">
        <ele>67</ele>
        <time>2018-09-23 08:56:38</time>
      </trkpt>
      <trkpt lat="48.98531" lon="0.15072">
        <ele>67</ele>
        <time>2018-09-23 08:56:40</time>
      </trkpt>
      <trkpt lat="48.98526" lon="0.15075">
        <ele>67</ele>
        <time>2018-09-23 08:56:41</time>
      </trkpt>
      <trkpt lat="48.98515" lon="0.1508">
        <ele>67</ele>
        <time>2018-09-23 08:56:43</time>
      </trkpt>
      <trkpt lat="48.9851" lon="0.15083">
        <ele>67</ele>
        <time>2018-09-23 08:56:44</time>
      </trkpt>
      <trkpt lat="48.98499" lon="0.15087">
        <ele>67</ele>
        <time>2018-09-23 08:56:46</time>
      </trkpt>
      <trkpt lat="48.98489" lon="0.15092">
        <ele>67</ele>
        <time>2018-09-23 08:56:48</time>
      </trkpt>
      <trkpt lat="48.98483" lon="0.15094">
        <ele>67</ele>
        <time>2018-09-23 08:56:49</time>
      </trkpt>
      <trkpt lat="48.98473" lon="0.15099">
        <ele>67</ele>
        <time>2018-09-23 08:56:51</time>
      </trkpt>
      <trkpt lat="48.98464" lon="0.15103">
        <ele>67</ele>
        <time>2018-09-23 08:56:53</time>
      </trkpt>
      <trkpt lat="48.9846" lon="0.15105">
        <ele>67</ele>
        <time>2018-09-23 08:56:54</time>
      </trkpt>
      <trkpt lat="48.98451" lon="0.15109">
        <ele>67</ele>
        <time>2018-09-23 08:56:56</time>
      </trkpt>
      <trkpt lat="48.98443" lon="0.15114">
        <ele>67</ele>
        <time>2018-09-23 08:56:58</time>
      </trkpt>
      <trkpt lat="48.98433" lon="0.15117">
        <ele>68</ele>
        <time>2018-09-23 08:57:00</time>
      </trkpt>
      <trkpt lat="48.98429" lon="0.15119">
        <ele>68</ele>
        <time>2018-09-23 08:57:01</time>
      </trkpt>
      <trkpt lat="48.98424" lon="0.15121">
        <ele>68</ele>
        <time>2018-09-23 08:57:02</time>
      </trkpt>
      <trkpt lat="48.98415" lon="0.15126">
        <ele>68</ele>
        <time>2018-09-23 08:57:04</time>
      </trkpt>
      <trkpt lat="48.98406" lon="0.15131">
        <ele>68</ele>
        <time>2018-09-23 08:57:06</time>
      </trkpt>
      <trkpt lat="48.98397" lon="0.15135">
        <ele>68</ele>
        <time>2018-09-23 08:57:08</time>
      </trkpt>
      <trkpt lat="48.98388" lon="0.1514">
        <ele>69</ele>
        <time>2018-09-23 08:57:10</time>
      </trkpt>
      <trkpt lat="48.98379" lon="0.15144">
        <ele>69</ele>
        <time>2018-09-23 08:57:12</time>
      </trkpt>
      <trkpt lat="48.98368" lon="0.15148">
        <ele>69</ele>
        <time>2018-09-23 08:57:14</time>
      </trkpt>
      <trkpt lat="48.98358" lon="0.15153">
        <ele>69</ele>
        <time>2018-09-23 08:57:16</time>
      </trkpt>
      <trkpt lat="48.98347" lon="0.15158">
        <ele>69</ele>
        <time>2018-09-23 08:57:18</time>
      </trkpt>
      <trkpt lat="48.98337" lon="0.15161">
        <ele>70</ele>
        <time>2018-09-23 08:57:20</time>
      </trkpt>
      <trkpt lat="48.98327" lon="0.15164">
        <ele>70</ele>
        <time>2018-09-23 08:57:22</time>
      </trkpt>
      <trkpt lat="48.98318" lon="0.15168">
        <ele>71</ele>
        <time>2018-09-23 08:57:24</time>
      </trkpt>
      <trkpt lat="48.98313" lon="0.15171">
        <ele>71</ele>
        <time>2018-09-23 08:57:25</time>
      </trkpt>
      <trkpt lat="48.98308" lon="0.15173">
        <ele>71</ele>
        <time>2018-09-23 08:57:26</time>
      </trkpt>
      <trkpt lat="48.98304" lon="0.15175">
        <ele>71</ele>
        <time>2018-09-23 08:57:27</time>
      </trkpt>
      <trkpt lat="48.98293" lon="0.1518">
        <ele>72</ele>
        <time>2018-09-23 08:57:29</time>
      </trkpt>
      <trkpt lat="48.98287" lon="0.15181">
        <ele>72</ele>
        <time>2018-09-23 08:57:30</time>
      </trkpt>
      <trkpt lat="48.98274" lon="0.15186">
        <ele>72</ele>
        <time>2018-09-23 08:57:32</time>
      </trkpt>
      <trkpt lat="48.98265" lon="0.15192">
        <ele>72</ele>
        <time>2018-09-23 08:57:34</time>
      </trkpt>
      <trkpt lat="48.98255" lon="0.15196">
        <ele>72</ele>
        <time>2018-09-23 08:57:36</time>
      </trkpt>
      <trkpt lat="48.98245" lon="0.15202">
        <ele>72</ele>
        <time>2018-09-23 08:57:38</time>
      </trkpt>
      <trkpt lat="48.98235" lon="0.15207">
        <ele>73</ele>
        <time>2018-09-23 08:57:40</time>
      </trkpt>
      <trkpt lat="48.9823" lon="0.15209">
        <ele>73</ele>
        <time>2018-09-23 08:57:41</time>
      </trkpt>
      <trkpt lat="48.98219" lon="0.15214">
        <ele>73</ele>
        <time>2018-09-23 08:57:43</time>
      </trkpt>
      <trkpt lat="48.98214" lon="0.15217">
        <ele>73</ele>
        <time>2018-09-23 08:57:44</time>
      </trkpt>
      <trkpt lat="48.98209" lon="0.15219">
        <ele>73</ele>
        <time>2018-09-23 08:57:45</time>
      </trkpt>
      <trkpt lat="48.98199" lon="0.15224">
        <ele>73</ele>
        <time>2018-09-23 08:57:47</time>
      </trkpt>
      <trkpt lat="48.98188" lon="0.15228">
        <ele>73</ele>
        <time>2018-09-23 08:57:49</time>
      </trkpt>
      <trkpt lat="48.98183" lon="0.15231">
        <ele>73</ele>
        <time>2018-09-23 08:57:50</time>
      </trkpt>
      <trkpt lat="48.98172" lon="0.15236">
        <ele>73</ele>
        <time>2018-09-23 08:57:52</time>
      </trkpt>
      <trkpt lat="48.98161" lon="0.15241">
        <ele>74</ele>
        <time>2018-09-23 08:57:54</time>
      </trkpt>
      <trkpt lat="48.98155" lon="0.15243">
        <ele>74</ele>
        <time>2018-09-23 08:57:55</time>
      </trkpt>
      <trkpt lat="48.9815" lon="0.15246">
        <ele>74</ele>
        <time>2018-09-23 08:57:56</time>
      </trkpt>
      <trkpt lat="48.98139" lon="0.1525">
        <ele>75</ele>
        <time>2018-09-23 08:57:58</time>
      </trkpt>
      <trkpt lat="48.98128" lon="0.15255">
        <ele>74</ele>
        <time>2018-09-23 08:58:00</time>
      </trkpt>
      <trkpt lat="48.98118" lon="0.15259">
        <ele>73</ele>
        <time>2018-09-23 08:58:02</time>
      </trkpt>
      <trkpt lat="48.98107" lon="0.15263">
        <ele>73</ele>
        <time>2018-09-23 08:58:04</time>
      </trkpt>
      <trkpt lat="48.98096" lon="0.15268">
        <ele>73</ele>
        <time>2018-09-23 08:58:06</time>
      </trkpt>
      <trkpt lat="48.98085" lon="0.15272">
        <ele>73</ele>
        <time>2018-09-23 08:58:08</time>
      </trkpt>
      <trkpt lat="48.98075" lon="0.15276">
        <ele>72</ele>
        <time>2018-09-23 08:58:10</time>
      </trkpt>
      <trkpt lat="48.98064" lon="0.15281">
        <ele>72</ele>
        <time>2018-09-23 08:58:12</time>
      </trkpt>
      <trkpt lat="48.98055" lon="0.15285">
        <ele>72</ele>
        <time>2018-09-23 08:58:14</time>
      </trkpt>
      <trkpt lat="48.98047" lon="0.1529">
        <ele>72</ele>
        <time>2018-09-23 08:58:16</time>
      </trkpt>
      <trkpt lat="48.98038" lon="0.15295">
        <ele>72</ele>
        <time>2018-09-23 08:58:18</time>
      </trkpt>
      <trkpt lat="48.98029" lon="0.15298">
        <ele>71</ele>
        <time>2018-09-23 08:58:20</time>
      </trkpt>
      <trkpt lat="48.98025" lon="0.15301">
        <ele>71</ele>
        <time>2018-09-23 08:58:21</time>
      </trkpt>
      <trkpt lat="48.98014" lon="0.15305">
        <ele>70</ele>
        <time>2018-09-23 08:58:23</time>
      </trkpt>
      <trkpt lat="48.98003" lon="0.15309">
        <ele>70</ele>
        <time>2018-09-23 08:58:25</time>
      </trkpt>
      <trkpt lat="48.97998" lon="0.15311">
        <ele>71</ele>
        <time>2018-09-23 08:58:26</time>
      </trkpt>
      <trkpt lat="48.97988" lon="0.15316">
        <ele>72</ele>
        <time>2018-09-23 08:58:28</time>
      </trkpt>
      <trkpt lat="48.97983" lon="0.15318">
        <ele>72</ele>
        <time>2018-09-23 08:58:29</time>
      </trkpt>
      <trkpt lat="48.97973" lon="0.15324">
        <ele>72</ele>
        <time>2018-09-23 08:58:31</time>
      </trkpt>
      <trkpt lat="48.97968" lon="0.15326">
        <ele>72</ele>
        <time>2018-09-23 08:58:32</time>
      </trkpt>
      <trkpt lat="48.9796" lon="0.15331">
        <ele>72</ele>
        <time>2018-09-23 08:58:34</time>
      </trkpt>
      <trkpt lat="48.9795" lon="0.15336">
        <ele>73</ele>
        <time>2018-09-23 08:58:36</time>
      </trkpt>
      <trkpt lat="48.97939" lon="0.1534">
        <ele>74</ele>
        <time>2018-09-23 08:58:38</time>
      </trkpt>
      <trkpt lat="48.97929" lon="0.15345">
        <ele>74</ele>
        <time>2018-09-23 08:58:40</time>
      </trkpt>
      <trkpt lat="48.97917" lon="0.15349">
        <ele>73</ele>
        <time>2018-09-23 08:58:42</time>
      </trkpt>
      <trkpt lat="48.97911" lon="0.15351">
        <ele>73</ele>
        <time>2018-09-23 08:58:43</time>
      </trkpt>
      <trkpt lat="48.97899" lon="0.15356">
        <ele>73</ele>
        <time>2018-09-23 08:58:45</time>
      </trkpt>
      <trkpt lat="48.97894" lon="0.15358">
        <ele>73</ele>
        <time>2018-09-23 08:58:46</time>
      </trkpt>
      <trkpt lat="48.97883" lon="0.15362">
        <ele>72</ele>
        <time>2018-09-23 08:58:48</time>
      </trkpt>
      <trkpt lat="48.97873" lon="0.15367">
        <ele>72</ele>
        <time>2018-09-23 08:58:50</time>
      </trkpt>
      <trkpt lat="48.97862" lon="0.15371">
        <ele>72</ele>
        <time>2018-09-23 08:58:52</time>
      </trkpt>
      <trkpt lat="48.97852" lon="0.15374">
        <ele>72</ele>
        <time>2018-09-23 08:58:54</time>
      </trkpt>
      <trkpt lat="48.97847" lon="0.15377">
        <ele>72</ele>
        <time>2018-09-23 08:58:55</time>
      </trkpt>
      <trkpt lat="48.97843" lon="0.15379">
        <ele>72</ele>
        <time>2018-09-23 08:58:56</time>
      </trkpt>
      <trkpt lat="48.97833" lon="0.15383">
        <ele>72</ele>
        <time>2018-09-23 08:58:58</time>
      </trkpt>
      <trkpt lat="48.97823" lon="0.15387">
        <ele>72</ele>
        <time>2018-09-23 08:59:00</time>
      </trkpt>
      <trkpt lat="48.97814" lon="0.15392">
        <ele>72</ele>
        <time>2018-09-23 08:59:02</time>
      </trkpt>
      <trkpt lat="48.97805" lon="0.15396">
        <ele>72</ele>
        <time>2018-09-23 08:59:04</time>
      </trkpt>
      <trkpt lat="48.978" lon="0.15399">
        <ele>72</ele>
        <time>2018-09-23 08:59:05</time>
      </trkpt>
      <trkpt lat="48.9779" lon="0.15404">
        <ele>72</ele>
        <time>2018-09-23 08:59:07</time>
      </trkpt>
      <trkpt lat="48.97786" lon="0.15405">
        <ele>72</ele>
        <time>2018-09-23 08:59:08</time>
      </trkpt>
      <trkpt lat="48.97777" lon="0.15409">
        <ele>73</ele>
        <time>2018-09-23 08:59:10</time>
      </trkpt>
      <trkpt lat="48.97769" lon="0.15414">
        <ele>72</ele>
        <time>2018-09-23 08:59:12</time>
      </trkpt>
      <trkpt lat="48.97759" lon="0.15419">
        <ele>72</ele>
        <time>2018-09-23 08:59:14</time>
      </trkpt>
      <trkpt lat="48.9775" lon="0.15423">
        <ele>72</ele>
        <time>2018-09-23 08:59:16</time>
      </trkpt>
      <trkpt lat="48.97741" lon="0.15428">
        <ele>73</ele>
        <time>2018-09-23 08:59:18</time>
      </trkpt>
      <trkpt lat="48.97733" lon="0.15432">
        <ele>73</ele>
        <time>2018-09-23 08:59:20</time>
      </trkpt>
      <trkpt lat="48.97728" lon="0.15434">
        <ele>73</ele>
        <time>2018-09-23 08:59:21</time>
      </trkpt>
      <trkpt lat="48.97721" lon="0.15437">
        <ele>73</ele>
        <time>2018-09-23 08:59:23</time>
      </trkpt>
      <trkpt lat="48.97714" lon="0.1544">
        <ele>73</ele>
        <time>2018-09-23 08:59:25</time>
      </trkpt>
      <trkpt lat="48.97711" lon="0.15441">
        <ele>73</ele>
        <time>2018-09-23 08:59:26</time>
      </trkpt>
      <trkpt lat="48.97705" lon="0.15444">
        <ele>73</ele>
        <time>2018-09-23 08:59:28</time>
      </trkpt>
      <trkpt lat="48.97699" lon="0.15448">
        <ele>73</ele>
        <time>2018-09-23 08:59:30</time>
      </trkpt>
      <trkpt lat="48.97696" lon="0.1545">
        <ele>74</ele>
        <time>2018-09-23 08:59:31</time>
      </trkpt>
      <trkpt lat="48.97693" lon="0.15451">
        <ele>75</ele>
        <time>2018-09-23 08:59:32</time>
      </trkpt>
      <trkpt lat="48.97687" lon="0.15454">
        <ele>75</ele>
        <time>2018-09-23 08:59:34</time>
      </trkpt>
      <trkpt lat="48.97681" lon="0.15457">
        <ele>76</ele>
        <time>2018-09-23 08:59:36</time>
      </trkpt>
      <trkpt lat="48.97673" lon="0.15461">
        <ele>77</ele>
        <time>2018-09-23 08:59:38</time>
      </trkpt>
      <trkpt lat="48.97665" lon="0.15464">
        <ele>77</ele>
        <time>2018-09-23 08:59:40</time>
      </trkpt>
      <trkpt lat="48.97657" lon="0.15468">
        <ele>78</ele>
        <time>2018-09-23 08:59:42</time>
      </trkpt>
      <trkpt lat="48.97653" lon="0.1547">
        <ele>78</ele>
        <time>2018-09-23 08:59:43</time>
      </trkpt>
      <trkpt lat="48.97645" lon="0.15474">
        <ele>78</ele>
        <time>2018-09-23 08:59:45</time>
      </trkpt>
      <trkpt lat="48.9764" lon="0.15476">
        <ele>78</ele>
        <time>2018-09-23 08:59:46</time>
      </trkpt>
      <trkpt lat="48.97632" lon="0.15481">
        <ele>79</ele>
        <time>2018-09-23 08:59:48</time>
      </trkpt>
      <trkpt lat="48.97623" lon="0.15486">
        <ele>79</ele>
        <time>2018-09-23 08:59:50</time>
      </trkpt>
      <trkpt lat="48.97616" lon="0.1549">
        <ele>79</ele>
        <time>2018-09-23 08:59:52</time>
      </trkpt>
      <trkpt lat="48.97609" lon="0.15494">
        <ele>79</ele>
        <time>2018-09-23 08:59:54</time>
      </trkpt>
      <trkpt lat="48.97603" lon="0.15497">
        <ele>79</ele>
        <time>2018-09-23 08:59:56</time>
      </trkpt>
      <trkpt lat="48.97597" lon="0.15499">
        <ele>80</ele>
        <time>2018-09-23 08:59:58</time>
      </trkpt>
      <trkpt lat="48.97595" lon="0.15501">
        <ele>81</ele>
        <time>2018-09-23 09:00:00</time>
      </trkpt>
      <trkpt lat="48.97596" lon="0.15502">
        <ele>81</ele>
        <time>2018-09-23 09:00:02</time>
      </trkpt>
      <trkpt lat="48.97596" lon="0.15502">
        <ele>81</ele>
        <time>2018-09-23 09:00:04</time>
      </trkpt>
      <trkpt lat="48.97585" lon="0.15503">
        <ele>72</ele>
        <time>2018-09-23 09:00:06</time>
      </trkpt>
      <trkpt lat="48.97576" lon="0.15507">
        <ele>72</ele>
        <time>2018-09-23 09:00:08</time>
      </trkpt>
      <trkpt lat="48.97566" lon="0.15511">
        <ele>72</ele>
        <time>2018-09-23 09:00:10</time>
      </trkpt>
      <trkpt lat="48.97555" lon="0.15517">
        <ele>72</ele>
        <time>2018-09-23 09:00:12</time>
      </trkpt>
      <trkpt lat="48.97544" lon="0.15522">
        <ele>72</ele>
        <time>2018-09-23 09:00:14</time>
      </trkpt>
      <trkpt lat="48.97535" lon="0.15527">
        <ele>73</ele>
        <time>2018-09-23 09:00:16</time>
      </trkpt>
      <trkpt lat="48.97526" lon="0.15532">
        <ele>74</ele>
        <time>2018-09-23 09:00:18</time>
      </trkpt>
      <trkpt lat="48.97516" lon="0.15537">
        <ele>74</ele>
        <time>2018-09-23 09:00:20</time>
      </trkpt>
      <trkpt lat="48.97506" lon="0.15541">
        <ele>75</ele>
        <time>2018-09-23 09:00:22</time>
      </trkpt>
      <trkpt lat="48.97496" lon="0.15546">
        <ele>76</ele>
        <time>2018-09-23 09:00:24</time>
      </trkpt>
      <trkpt lat="48.97486" lon="0.15551">
        <ele>76</ele>
        <time>2018-09-23 09:00:26</time>
      </trkpt>
      <trkpt lat="48.97475" lon="0.15557">
        <ele>77</ele>
        <time>2018-09-23 09:00:28</time>
      </trkpt>
      <trkpt lat="48.97464" lon="0.15562">
        <ele>77</ele>
        <time>2018-09-23 09:00:30</time>
      </trkpt>
      <trkpt lat="48.97453" lon="0.15568">
        <ele>78</ele>
        <time>2018-09-23 09:00:32</time>
      </trkpt>
      <trkpt lat="48.97441" lon="0.15573">
        <ele>78</ele>
        <time>2018-09-23 09:00:34</time>
      </trkpt>
      <trkpt lat="48.97428" lon="0.15577">
        <ele>79</ele>
        <time>2018-09-23 09:00:36</time>
      </trkpt>
      <trkpt lat="48.97415" lon="0.15581">
        <ele>78</ele>
        <time>2018-09-23 09:00:38</time>
      </trkpt>
      <trkpt lat="48.97406" lon="0.15586">
        <ele>78</ele>
        <time>2018-09-23 09:00:40</time>
      </trkpt>
      <trkpt lat="48.974" lon="0.15588">
        <ele>78</ele>
        <time>2018-09-23 09:00:41</time>
      </trkpt>
      <trkpt lat="48.97389" lon="0.15593">
        <ele>79</ele>
        <time>2018-09-23 09:00:43</time>
      </trkpt>
      <trkpt lat="48.97383" lon="0.15595">
        <ele>79</ele>
        <time>2018-09-23 09:00:44</time>
      </trkpt>
      <trkpt lat="48.97372" lon="0.156">
        <ele>79</ele>
        <time>2018-09-23 09:00:46</time>
      </trkpt>
      <trkpt lat="48.97361" lon="0.15605">
        <ele>79</ele>
        <time>2018-09-23 09:00:48</time>
      </trkpt>
      <trkpt lat="48.97349" lon="0.1561">
        <ele>79</ele>
        <time>2018-09-23 09:00:50</time>
      </trkpt>
      <trkpt lat="48.97338" lon="0.15615">
        <ele>78</ele>
        <time>2018-09-23 09:00:52</time>
      </trkpt>
      <trkpt lat="48.97328" lon="0.1562">
        <ele>78</ele>
        <time>2018-09-23 09:00:54</time>
      </trkpt>
      <trkpt lat="48.97322" lon="0.15622">
        <ele>78</ele>
        <time>2018-09-23 09:00:55</time>
      </trkpt>
      <trkpt lat="48.97311" lon="0.15626">
        <ele>79</ele>
        <time>2018-09-23 09:00:57</time>
      </trkpt>
      <trkpt lat="48.973" lon="0.15631">
        <ele>78</ele>
        <time>2018-09-23 09:00:59</time>
      </trkpt>
      <trkpt lat="48.9729" lon="0.15635">
        <ele>78</ele>
        <time>2018-09-23 09:01:01</time>
      </trkpt>
      <trkpt lat="48.97285" lon="0.15638">
        <ele>77</ele>
        <time>2018-09-23 09:01:02</time>
      </trkpt>
      <trkpt lat="48.97275" lon="0.15642">
        <ele>77</ele>
        <time>2018-09-23 09:01:04</time>
      </trkpt>
      <trkpt lat="48.97264" lon="0.15647">
        <ele>77</ele>
        <time>2018-09-23 09:01:06</time>
      </trkpt>
      <trkpt lat="48.97259" lon="0.15649">
        <ele>77</ele>
        <time>2018-09-23 09:01:07</time>
      </trkpt>
      <trkpt lat="48.97254" lon="0.15652">
        <ele>77</ele>
        <time>2018-09-23 09:01:08</time>
      </trkpt>
      <trkpt lat="48.97243" lon="0.15657">
        <ele>76</ele>
        <time>2018-09-23 09:01:10</time>
      </trkpt>
      <trkpt lat="48.97233" lon="0.15661">
        <ele>77</ele>
        <time>2018-09-23 09:01:12</time>
      </trkpt>
      <trkpt lat="48.97222" lon="0.15666">
        <ele>77</ele>
        <time>2018-09-23 09:01:14</time>
      </trkpt>
      <trkpt lat="48.97213" lon="0.15671">
        <ele>77</ele>
        <time>2018-09-23 09:01:16</time>
      </trkpt>
      <trkpt lat="48.97203" lon="0.15676">
        <ele>77</ele>
        <time>2018-09-23 09:01:18</time>
      </trkpt>
      <trkpt lat="48.97193" lon="0.1568">
        <ele>77</ele>
        <time>2018-09-23 09:01:20</time>
      </trkpt>
      <trkpt lat="48.97183" lon="0.15684">
        <ele>77</ele>
        <time>2018-09-23 09:01:22</time>
      </trkpt>
      <trkpt lat="48.97172" lon="0.15688">
        <ele>77</ele>
        <time>2018-09-23 09:01:24</time>
      </trkpt>
      <trkpt lat="48.97163" lon="0.15693">
        <ele>77</ele>
        <time>2018-09-23 09:01:26</time>
      </trkpt>
      <trkpt lat="48.97152" lon="0.15696">
        <ele>77</ele>
        <time>2018-09-23 09:01:28</time>
      </trkpt>
      <trkpt lat="48.97143" lon="0.15701">
        <ele>77</ele>
        <time>2018-09-23 09:01:30</time>
      </trkpt>
      <trkpt lat="48.97138" lon="0.15703">
        <ele>77</ele>
        <time>2018-09-23 09:01:31</time>
      </trkpt>
      <trkpt lat="48.97132" lon="0.15706">
        <ele>77</ele>
        <time>2018-09-23 09:01:32</time>
      </trkpt>
      <trkpt lat="48.97122" lon="0.15711">
        <ele>77</ele>
        <time>2018-09-23 09:01:34</time>
      </trkpt>
      <trkpt lat="48.97112" lon="0.15716">
        <ele>78</ele>
        <time>2018-09-23 09:01:36</time>
      </trkpt>
      <trkpt lat="48.97107" lon="0.15719">
        <ele>78</ele>
        <time>2018-09-23 09:01:37</time>
      </trkpt>
      <trkpt lat="48.97102" lon="0.15723">
        <ele>78</ele>
        <time>2018-09-23 09:01:38</time>
      </trkpt>
      <trkpt lat="48.97092" lon="0.1573">
        <ele>78</ele>
        <time>2018-09-23 09:01:40</time>
      </trkpt>
      <trkpt lat="48.97082" lon="0.15736">
        <ele>78</ele>
        <time>2018-09-23 09:01:42</time>
      </trkpt>
      <trkpt lat="48.97072" lon="0.15742">
        <ele>78</ele>
        <time>2018-09-23 09:01:44</time>
      </trkpt>
      <trkpt lat="48.97062" lon="0.15749">
        <ele>77</ele>
        <time>2018-09-23 09:01:46</time>
      </trkpt>
      <trkpt lat="48.97052" lon="0.15756">
        <ele>78</ele>
        <time>2018-09-23 09:01:48</time>
      </trkpt>
      <trkpt lat="48.97043" lon="0.15763">
        <ele>77</ele>
        <time>2018-09-23 09:01:50</time>
      </trkpt>
      <trkpt lat="48.97033" lon="0.15771">
        <ele>77</ele>
        <time>2018-09-23 09:01:52</time>
      </trkpt>
      <trkpt lat="48.97028" lon="0.15775">
        <ele>77</ele>
        <time>2018-09-23 09:01:53</time>
      </trkpt>
      <trkpt lat="48.97019" lon="0.15785">
        <ele>77</ele>
        <time>2018-09-23 09:01:55</time>
      </trkpt>
      <trkpt lat="48.97015" lon="0.1579">
        <ele>77</ele>
        <time>2018-09-23 09:01:56</time>
      </trkpt>
      <trkpt lat="48.97006" lon="0.15799">
        <ele>78</ele>
        <time>2018-09-23 09:01:58</time>
      </trkpt>
      <trkpt lat="48.96996" lon="0.15808">
        <ele>78</ele>
        <time>2018-09-23 09:02:00</time>
      </trkpt>
      <trkpt lat="48.96989" lon="0.15817">
        <ele>78</ele>
        <time>2018-09-23 09:02:02</time>
      </trkpt>
      <trkpt lat="48.96983" lon="0.15824">
        <ele>79</ele>
        <time>2018-09-23 09:02:04</time>
      </trkpt>
      <trkpt lat="48.96977" lon="0.15828">
        <ele>80</ele>
        <time>2018-09-23 09:02:06</time>
      </trkpt>
      <trkpt lat="48.96974" lon="0.15829">
        <ele>80</ele>
        <time>2018-09-23 09:02:08</time>
      </trkpt>
      <trkpt lat="48.9697" lon="0.15832">
        <ele>80</ele>
        <time>2018-09-23 09:02:10</time>
      </trkpt>
      <trkpt lat="48.96965" lon="0.15834">
        <ele>79</ele>
        <time>2018-09-23 09:02:12</time>
      </trkpt>
      <trkpt lat="48.9696" lon="0.15838">
        <ele>79</ele>
        <time>2018-09-23 09:02:14</time>
      </trkpt>
      <trkpt lat="48.96957" lon="0.15846">
        <ele>79</ele>
        <time>2018-09-23 09:02:16</time>
      </trkpt>
      <trkpt lat="48.96952" lon="0.15854">
        <ele>79</ele>
        <time>2018-09-23 09:02:18</time>
      </trkpt>
      <trkpt lat="48.96945" lon="0.15863">
        <ele>79</ele>
        <time>2018-09-23 09:02:20</time>
      </trkpt>
      <trkpt lat="48.96938" lon="0.15873">
        <ele>78</ele>
        <time>2018-09-23 09:02:22</time>
      </trkpt>
      <trkpt lat="48.96931" lon="0.15884">
        <ele>78</ele>
        <time>2018-09-23 09:02:24</time>
      </trkpt>
      <trkpt lat="48.96928" lon="0.1589">
        <ele>78</ele>
        <time>2018-09-23 09:02:25</time>
      </trkpt>
      <trkpt lat="48.96921" lon="0.15903">
        <ele>78</ele>
        <time>2018-09-23 09:02:27</time>
      </trkpt>
      <trkpt lat="48.96914" lon="0.15915">
        <ele>78</ele>
        <time>2018-09-23 09:02:29</time>
      </trkpt>
      <trkpt lat="48.96908" lon="0.15926">
        <ele>78</ele>
        <time>2018-09-23 09:02:31</time>
      </trkpt>
      <trkpt lat="48.96904" lon="0.15932">
        <ele>79</ele>
        <time>2018-09-23 09:02:32</time>
      </trkpt>
      <trkpt lat="48.96897" lon="0.15945">
        <ele>79</ele>
        <time>2018-09-23 09:02:34</time>
      </trkpt>
      <trkpt lat="48.96893" lon="0.15951">
        <ele>79</ele>
        <time>2018-09-23 09:02:35</time>
      </trkpt>
      <trkpt lat="48.96887" lon="0.15964">
        <ele>80</ele>
        <time>2018-09-23 09:02:37</time>
      </trkpt>
      <trkpt lat="48.96883" lon="0.15971">
        <ele>80</ele>
        <time>2018-09-23 09:02:38</time>
      </trkpt>
      <trkpt lat="48.96876" lon="0.15983">
        <ele>81</ele>
        <time>2018-09-23 09:02:40</time>
      </trkpt>
      <trkpt lat="48.9687" lon="0.15995">
        <ele>81</ele>
        <time>2018-09-23 09:02:42</time>
      </trkpt>
      <trkpt lat="48.96864" lon="0.16009">
        <ele>81</ele>
        <time>2018-09-23 09:02:44</time>
      </trkpt>
      <trkpt lat="48.96861" lon="0.16015">
        <ele>81</ele>
        <time>2018-09-23 09:02:45</time>
      </trkpt>
      <trkpt lat="48.96857" lon="0.16022">
        <ele>81</ele>
        <time>2018-09-23 09:02:46</time>
      </trkpt>
      <trkpt lat="48.9685" lon="0.16035">
        <ele>82</ele>
        <time>2018-09-23 09:02:48</time>
      </trkpt>
      <trkpt lat="48.96844" lon="0.16048">
        <ele>82</ele>
        <time>2018-09-23 09:02:50</time>
      </trkpt>
      <trkpt lat="48.96836" lon="0.16061">
        <ele>83</ele>
        <time>2018-09-23 09:02:52</time>
      </trkpt>
      <trkpt lat="48.96829" lon="0.16074">
        <ele>84</ele>
        <time>2018-09-23 09:02:54</time>
      </trkpt>
      <trkpt lat="48.96826" lon="0.1608">
        <ele>84</ele>
        <time>2018-09-23 09:02:55</time>
      </trkpt>
      <trkpt lat="48.96823" lon="0.16088">
        <ele>84</ele>
        <time>2018-09-23 09:02:56</time>
      </trkpt>
      <trkpt lat="48.96818" lon="0.16102">
        <ele>84</ele>
        <time>2018-09-23 09:02:58</time>
      </trkpt>
      <trkpt lat="48.96812" lon="0.16116">
        <ele>84</ele>
        <time>2018-09-23 09:03:00</time>
      </trkpt>
      <trkpt lat="48.96805" lon="0.1613">
        <ele>84</ele>
        <time>2018-09-23 09:03:02</time>
      </trkpt>
      <trkpt lat="48.96799" lon="0.16143">
        <ele>85</ele>
        <time>2018-09-23 09:03:04</time>
      </trkpt>
      <trkpt lat="48.96796" lon="0.16152">
        <ele>84</ele>
        <time>2018-09-23 09:03:06</time>
      </trkpt>
      <trkpt lat="48.96795" lon="0.16155">
        <ele>83</ele>
        <time>2018-09-23 09:03:08</time>
      </trkpt>
      <trkpt lat="48.96796" lon="0.16156">
        <ele>82</ele>
        <time>2018-09-23 09:03:10</time>
      </trkpt>
      <trkpt lat="48.96793" lon="0.16162">
        <ele>82</ele>
        <time>2018-09-23 09:03:12</time>
      </trkpt>
      <trkpt lat="48.96792" lon="0.16164">
        <ele>82</ele>
        <time>2018-09-23 09:03:13</time>
      </trkpt>
      <trkpt lat="48.96788" lon="0.16172">
        <ele>82</ele>
        <time>2018-09-23 09:03:15</time>
      </trkpt>
      <trkpt lat="48.96783" lon="0.1618">
        <ele>82</ele>
        <time>2018-09-23 09:03:17</time>
      </trkpt>
      <trkpt lat="48.96778" lon="0.1619">
        <ele>82</ele>
        <time>2018-09-23 09:03:19</time>
      </trkpt>
      <trkpt lat="48.96772" lon="0.16202">
        <ele>82</ele>
        <time>2018-09-23 09:03:21</time>
      </trkpt>
      <trkpt lat="48.96766" lon="0.16214">
        <ele>82</ele>
        <time>2018-09-23 09:03:23</time>
      </trkpt>
      <trkpt lat="48.96759" lon="0.16225">
        <ele>83</ele>
        <time>2018-09-23 09:03:25</time>
      </trkpt>
      <trkpt lat="48.96752" lon="0.16238">
        <ele>83</ele>
        <time>2018-09-23 09:03:27</time>
      </trkpt>
      <trkpt lat="48.96746" lon="0.16251">
        <ele>83</ele>
        <time>2018-09-23 09:03:29</time>
      </trkpt>
      <trkpt lat="48.96742" lon="0.16258">
        <ele>83</ele>
        <time>2018-09-23 09:03:30</time>
      </trkpt>
      <trkpt lat="48.96735" lon="0.16272">
        <ele>84</ele>
        <time>2018-09-23 09:03:32</time>
      </trkpt>
      <trkpt lat="48.96732" lon="0.16278">
        <ele>84</ele>
        <time>2018-09-23 09:03:33</time>
      </trkpt>
      <trkpt lat="48.96726" lon="0.16292">
        <ele>84</ele>
        <time>2018-09-23 09:03:35</time>
      </trkpt>
      <trkpt lat="48.9672" lon="0.16306">
        <ele>85</ele>
        <time>2018-09-23 09:03:37</time>
      </trkpt>
      <trkpt lat="48.96713" lon="0.16319">
        <ele>85</ele>
        <time>2018-09-23 09:03:39</time>
      </trkpt>
      <trkpt lat="48.96706" lon="0.16332">
        <ele>85</ele>
        <time>2018-09-23 09:03:41</time>
      </trkpt>
      <trkpt lat="48.967" lon="0.16345">
        <ele>86</ele>
        <time>2018-09-23 09:03:43</time>
      </trkpt>
      <trkpt lat="48.96693" lon="0.16358">
        <ele>86</ele>
        <time>2018-09-23 09:03:45</time>
      </trkpt>
      <trkpt lat="48.96687" lon="0.16372">
        <ele>86</ele>
        <time>2018-09-23 09:03:47</time>
      </trkpt>
      <trkpt lat="48.96681" lon="0.16386">
        <ele>86</ele>
        <time>2018-09-23 09:03:49</time>
      </trkpt>
      <trkpt lat="48.96677" lon="0.16393">
        <ele>86</ele>
        <time>2018-09-23 09:03:50</time>
      </trkpt>
      <trkpt lat="48.96674" lon="0.164">
        <ele>86</ele>
        <time>2018-09-23 09:03:51</time>
      </trkpt>
      <trkpt lat="48.96668" lon="0.16414">
        <ele>86</ele>
        <time>2018-09-23 09:03:53</time>
      </trkpt>
      <trkpt lat="48.96662" lon="0.16428">
        <ele>87</ele>
        <time>2018-09-23 09:03:55</time>
      </trkpt>
      <trkpt lat="48.96656" lon="0.1644">
        <ele>87</ele>
        <time>2018-09-23 09:03:57</time>
      </trkpt>
      <trkpt lat="48.96649" lon="0.16452">
        <ele>86</ele>
        <time>2018-09-23 09:03:59</time>
      </trkpt>
      <trkpt lat="48.96642" lon="0.16465">
        <ele>87</ele>
        <time>2018-09-23 09:04:01</time>
      </trkpt>
      <trkpt lat="48.96636" lon="0.16478">
        <ele>87</ele>
        <time>2018-09-23 09:04:03</time>
      </trkpt>
      <trkpt lat="48.9663" lon="0.16491">
        <ele>86</ele>
        <time>2018-09-23 09:04:05</time>
      </trkpt>
      <trkpt lat="48.96626" lon="0.16497">
        <ele>86</ele>
        <time>2018-09-23 09:04:06</time>
      </trkpt>
      <trkpt lat="48.9662" lon="0.16511">
        <ele>87</ele>
        <time>2018-09-23 09:04:08</time>
      </trkpt>
      <trkpt lat="48.96614" lon="0.16524">
        <ele>86</ele>
        <time>2018-09-23 09:04:10</time>
      </trkpt>
      <trkpt lat="48.96607" lon="0.16537">
        <ele>87</ele>
        <time>2018-09-23 09:04:12</time>
      </trkpt>
      <trkpt lat="48.966" lon="0.16551">
        <ele>88</ele>
        <time>2018-09-23 09:04:14</time>
      </trkpt>
      <trkpt lat="48.96594" lon="0.16564">
        <ele>88</ele>
        <time>2018-09-23 09:04:16</time>
      </trkpt>
      <trkpt lat="48.9659" lon="0.16571">
        <ele>88</ele>
        <time>2018-09-23 09:04:17</time>
      </trkpt>
      <trkpt lat="48.96585" lon="0.16585">
        <ele>88</ele>
        <time>2018-09-23 09:04:19</time>
      </trkpt>
      <trkpt lat="48.96578" lon="0.16598">
        <ele>88</ele>
        <time>2018-09-23 09:04:21</time>
      </trkpt>
      <trkpt lat="48.96571" lon="0.1661">
        <ele>88</ele>
        <time>2018-09-23 09:04:23</time>
      </trkpt>
      <trkpt lat="48.96565" lon="0.16624">
        <ele>88</ele>
        <time>2018-09-23 09:04:25</time>
      </trkpt>
      <trkpt lat="48.96562" lon="0.1663">
        <ele>88</ele>
        <time>2018-09-23 09:04:26</time>
      </trkpt>
      <trkpt lat="48.96559" lon="0.16636">
        <ele>88</ele>
        <time>2018-09-23 09:04:27</time>
      </trkpt>
      <trkpt lat="48.96553" lon="0.1665">
        <ele>88</ele>
        <time>2018-09-23 09:04:29</time>
      </trkpt>
      <trkpt lat="48.96546" lon="0.16663">
        <ele>89</ele>
        <time>2018-09-23 09:04:31</time>
      </trkpt>
      <trkpt lat="48.96542" lon="0.1667">
        <ele>89</ele>
        <time>2018-09-23 09:04:32</time>
      </trkpt>
      <trkpt lat="48.96539" lon="0.16676">
        <ele>88</ele>
        <time>2018-09-23 09:04:33</time>
      </trkpt>
      <trkpt lat="48.96532" lon="0.1669">
        <ele>88</ele>
        <time>2018-09-23 09:04:35</time>
      </trkpt>
      <trkpt lat="48.96529" lon="0.16696">
        <ele>88</ele>
        <time>2018-09-23 09:04:36</time>
      </trkpt>
      <trkpt lat="48.96522" lon="0.16708">
        <ele>88</ele>
        <time>2018-09-23 09:04:38</time>
      </trkpt>
      <trkpt lat="48.96519" lon="0.16714">
        <ele>88</ele>
        <time>2018-09-23 09:04:39</time>
      </trkpt>
      <trkpt lat="48.96512" lon="0.16728">
        <ele>88</ele>
        <time>2018-09-23 09:04:41</time>
      </trkpt>
      <trkpt lat="48.96507" lon="0.16742">
        <ele>87</ele>
        <time>2018-09-23 09:04:43</time>
      </trkpt>
      <trkpt lat="48.96501" lon="0.16755">
        <ele>87</ele>
        <time>2018-09-23 09:04:45</time>
      </trkpt>
      <trkpt lat="48.96495" lon="0.16768">
        <ele>86</ele>
        <time>2018-09-23 09:04:47</time>
      </trkpt>
      <trkpt lat="48.96489" lon="0.16781">
        <ele>86</ele>
        <time>2018-09-23 09:04:49</time>
      </trkpt>
      <trkpt lat="48.96485" lon="0.16788">
        <ele>86</ele>
        <time>2018-09-23 09:04:50</time>
      </trkpt>
      <trkpt lat="48.96482" lon="0.16794">
        <ele>86</ele>
        <time>2018-09-23 09:04:51</time>
      </trkpt>
      <trkpt lat="48.96475" lon="0.16807">
        <ele>85</ele>
        <time>2018-09-23 09:04:53</time>
      </trkpt>
      <trkpt lat="48.96468" lon="0.1682">
        <ele>86</ele>
        <time>2018-09-23 09:04:55</time>
      </trkpt>
      <trkpt lat="48.96465" lon="0.16827">
        <ele>86</ele>
        <time>2018-09-23 09:04:56</time>
      </trkpt>
      <trkpt lat="48.96462" lon="0.16834">
        <ele>86</ele>
        <time>2018-09-23 09:04:57</time>
      </trkpt>
      <trkpt lat="48.96455" lon="0.16847">
        <ele>86</ele>
        <time>2018-09-23 09:04:59</time>
      </trkpt>
      <trkpt lat="48.96448" lon="0.1686">
        <ele>86</ele>
        <time>2018-09-23 09:05:01</time>
      </trkpt>
      <trkpt lat="48.96441" lon="0.16874">
        <ele>86</ele>
        <time>2018-09-23 09:05:03</time>
      </trkpt>
      <trkpt lat="48.96435" lon="0.16888">
        <ele>86</ele>
        <time>2018-09-23 09:05:05</time>
      </trkpt>
      <trkpt lat="48.96432" lon="0.16895">
        <ele>85</ele>
        <time>2018-09-23 09:05:07</time>
      </trkpt>
      <trkpt lat="48.96425" lon="0.16908">
        <ele>85</ele>
        <time>2018-09-23 09:05:08</time>
      </trkpt>
      <trkpt lat="48.96422" lon="0.16915">
        <ele>86</ele>
        <time>2018-09-23 09:05:09</time>
      </trkpt>
      <trkpt lat="48.96416" lon="0.16929">
        <ele>85</ele>
        <time>2018-09-23 09:05:11</time>
      </trkpt>
      <trkpt lat="48.96413" lon="0.16936">
        <ele>85</ele>
        <time>2018-09-23 09:05:12</time>
      </trkpt>
      <trkpt lat="48.96406" lon="0.16949">
        <ele>85</ele>
        <time>2018-09-23 09:05:14</time>
      </trkpt>
      <trkpt lat="48.96402" lon="0.16956">
        <ele>85</ele>
        <time>2018-09-23 09:05:15</time>
      </trkpt>
      <trkpt lat="48.96396" lon="0.16969">
        <ele>85</ele>
        <time>2018-09-23 09:05:17</time>
      </trkpt>
      <trkpt lat="48.96388" lon="0.16982">
        <ele>85</ele>
        <time>2018-09-23 09:05:19</time>
      </trkpt>
      <trkpt lat="48.96381" lon="0.16996">
        <ele>85</ele>
        <time>2018-09-23 09:05:21</time>
      </trkpt>
      <trkpt lat="48.96374" lon="0.17009">
        <ele>84</ele>
        <time>2018-09-23 09:05:23</time>
      </trkpt>
      <trkpt lat="48.96367" lon="0.17021">
        <ele>84</ele>
        <time>2018-09-23 09:05:25</time>
      </trkpt>
      <trkpt lat="48.9636" lon="0.17034">
        <ele>85</ele>
        <time>2018-09-23 09:05:27</time>
      </trkpt>
      <trkpt lat="48.96353" lon="0.17047">
        <ele>85</ele>
        <time>2018-09-23 09:05:29</time>
      </trkpt>
      <trkpt lat="48.96346" lon="0.1706">
        <ele>84</ele>
        <time>2018-09-23 09:05:31</time>
      </trkpt>
      <trkpt lat="48.96342" lon="0.17065">
        <ele>84</ele>
        <time>2018-09-23 09:05:32</time>
      </trkpt>
      <trkpt lat="48.96335" lon="0.17077">
        <ele>84</ele>
        <time>2018-09-23 09:05:34</time>
      </trkpt>
      <trkpt lat="48.96328" lon="0.17089">
        <ele>84</ele>
        <time>2018-09-23 09:05:36</time>
      </trkpt>
      <trkpt lat="48.96324" lon="0.17096">
        <ele>84</ele>
        <time>2018-09-23 09:05:37</time>
      </trkpt>
      <trkpt lat="48.96318" lon="0.17107">
        <ele>83</ele>
        <time>2018-09-23 09:05:39</time>
      </trkpt>
      <trkpt lat="48.96311" lon="0.17119">
        <ele>84</ele>
        <time>2018-09-23 09:05:42</time>
      </trkpt>
      <trkpt lat="48.96304" lon="0.17131">
        <ele>85</ele>
        <time>2018-09-23 09:05:43</time>
      </trkpt>
      <trkpt lat="48.96296" lon="0.17143">
        <ele>85</ele>
        <time>2018-09-23 09:05:45</time>
      </trkpt>
      <trkpt lat="48.96288" lon="0.17155">
        <ele>86</ele>
        <time>2018-09-23 09:05:47</time>
      </trkpt>
      <trkpt lat="48.96281" lon="0.17166">
        <ele>87</ele>
        <time>2018-09-23 09:05:49</time>
      </trkpt>
      <trkpt lat="48.96272" lon="0.17179">
        <ele>88</ele>
        <time>2018-09-23 09:05:51</time>
      </trkpt>
      <trkpt lat="48.96265" lon="0.17191">
        <ele>88</ele>
        <time>2018-09-23 09:05:53</time>
      </trkpt>
      <trkpt lat="48.96256" lon="0.17202">
        <ele>88</ele>
        <time>2018-09-23 09:05:55</time>
      </trkpt>
      <trkpt lat="48.96252" lon="0.17208">
        <ele>89</ele>
        <time>2018-09-23 09:05:56</time>
      </trkpt>
      <trkpt lat="48.96248" lon="0.17213">
        <ele>89</ele>
        <time>2018-09-23 09:05:57</time>
      </trkpt>
      <trkpt lat="48.9624" lon="0.17225">
        <ele>88</ele>
        <time>2018-09-23 09:05:59</time>
      </trkpt>
      <trkpt lat="48.96237" lon="0.1723">
        <ele>88</ele>
        <time>2018-09-23 09:06:00</time>
      </trkpt>
      <trkpt lat="48.9623" lon="0.17241">
        <ele>87</ele>
        <time>2018-09-23 09:06:02</time>
      </trkpt>
      <trkpt lat="48.96226" lon="0.17247">
        <ele>87</ele>
        <time>2018-09-23 09:06:03</time>
      </trkpt>
      <trkpt lat="48.96218" lon="0.17258">
        <ele>87</ele>
        <time>2018-09-23 09:06:05</time>
      </trkpt>
      <trkpt lat="48.9621" lon="0.17271">
        <ele>88</ele>
        <time>2018-09-23 09:06:07</time>
      </trkpt>
      <trkpt lat="48.96202" lon="0.17283">
        <ele>89</ele>
        <time>2018-09-23 09:06:09</time>
      </trkpt>
      <trkpt lat="48.96193" lon="0.17294">
        <ele>89</ele>
        <time>2018-09-23 09:06:11</time>
      </trkpt>
      <trkpt lat="48.96186" lon="0.17306">
        <ele>89</ele>
        <time>2018-09-23 09:06:13</time>
      </trkpt>
      <trkpt lat="48.96178" lon="0.17318">
        <ele>89</ele>
        <time>2018-09-23 09:06:15</time>
      </trkpt>
      <trkpt lat="48.96171" lon="0.1733">
        <ele>89</ele>
        <time>2018-09-23 09:06:18</time>
      </trkpt>
      <trkpt lat="48.96163" lon="0.17342">
        <ele>89</ele>
        <time>2018-09-23 09:06:19</time>
      </trkpt>
      <trkpt lat="48.96156" lon="0.17353">
        <ele>91</ele>
        <time>2018-09-23 09:06:21</time>
      </trkpt>
      <trkpt lat="48.96149" lon="0.1736">
        <ele>93</ele>
        <time>2018-09-23 09:06:23</time>
      </trkpt>
      <trkpt lat="48.96141" lon="0.17371">
        <ele>94</ele>
        <time>2018-09-23 09:06:25</time>
      </trkpt>
      <trkpt lat="48.96133" lon="0.17383">
        <ele>96</ele>
        <time>2018-09-23 09:06:27</time>
      </trkpt>
      <trkpt lat="48.96124" lon="0.17394">
        <ele>97</ele>
        <time>2018-09-23 09:06:29</time>
      </trkpt>
      <trkpt lat="48.96116" lon="0.17406">
        <ele>97</ele>
        <time>2018-09-23 09:06:31</time>
      </trkpt>
      <trkpt lat="48.9611" lon="0.17418">
        <ele>98</ele>
        <time>2018-09-23 09:06:33</time>
      </trkpt>
      <trkpt lat="48.96102" lon="0.17429">
        <ele>98</ele>
        <time>2018-09-23 09:06:35</time>
      </trkpt>
      <trkpt lat="48.96094" lon="0.1744">
        <ele>98</ele>
        <time>2018-09-23 09:06:37</time>
      </trkpt>
      <trkpt lat="48.96087" lon="0.17452">
        <ele>97</ele>
        <time>2018-09-23 09:06:39</time>
      </trkpt>
      <trkpt lat="48.96079" lon="0.17463">
        <ele>97</ele>
        <time>2018-09-23 09:06:41</time>
      </trkpt>
      <trkpt lat="48.96073" lon="0.17473">
        <ele>96</ele>
        <time>2018-09-23 09:06:43</time>
      </trkpt>
      <trkpt lat="48.96065" lon="0.17484">
        <ele>96</ele>
        <time>2018-09-23 09:06:45</time>
      </trkpt>
      <trkpt lat="48.96058" lon="0.17495">
        <ele>95</ele>
        <time>2018-09-23 09:06:47</time>
      </trkpt>
      <trkpt lat="48.9605" lon="0.17505">
        <ele>94</ele>
        <time>2018-09-23 09:06:49</time>
      </trkpt>
      <trkpt lat="48.96042" lon="0.17516">
        <ele>93</ele>
        <time>2018-09-23 09:06:51</time>
      </trkpt>
      <trkpt lat="48.96039" lon="0.17522">
        <ele>93</ele>
        <time>2018-09-23 09:06:52</time>
      </trkpt>
      <trkpt lat="48.96032" lon="0.17534">
        <ele>92</ele>
        <time>2018-09-23 09:06:54</time>
      </trkpt>
      <trkpt lat="48.96025" lon="0.17544">
        <ele>92</ele>
        <time>2018-09-23 09:06:56</time>
      </trkpt>
      <trkpt lat="48.96022" lon="0.17548">
        <ele>91</ele>
        <time>2018-09-23 09:06:57</time>
      </trkpt>
      <trkpt lat="48.96016" lon="0.17556">
        <ele>91</ele>
        <time>2018-09-23 09:06:59</time>
      </trkpt>
      <trkpt lat="48.96013" lon="0.1756">
        <ele>91</ele>
        <time>2018-09-23 09:07:00</time>
      </trkpt>
      <trkpt lat="48.96008" lon="0.17567">
        <ele>91</ele>
        <time>2018-09-23 09:07:02</time>
      </trkpt>
      <trkpt lat="48.96006" lon="0.17569">
        <ele>91</ele>
        <time>2018-09-23 09:07:03</time>
      </trkpt>
      <trkpt lat="48.96002" lon="0.17576">
        <ele>90</ele>
        <time>2018-09-23 09:07:05</time>
      </trkpt>
      <trkpt lat="48.95999" lon="0.17586">
        <ele>89</ele>
        <time>2018-09-23 09:07:07</time>
      </trkpt>
      <trkpt lat="48.95994" lon="0.17595">
        <ele>89</ele>
        <time>2018-09-23 09:07:09</time>
      </trkpt>
      <trkpt lat="48.95988" lon="0.17606">
        <ele>88</ele>
        <time>2018-09-23 09:07:11</time>
      </trkpt>
      <trkpt lat="48.95982" lon="0.17616">
        <ele>87</ele>
        <time>2018-09-23 09:07:13</time>
      </trkpt>
      <trkpt lat="48.95975" lon="0.17627">
        <ele>88</ele>
        <time>2018-09-23 09:07:15</time>
      </trkpt>
      <trkpt lat="48.95968" lon="0.17636">
        <ele>87</ele>
        <time>2018-09-23 09:07:17</time>
      </trkpt>
      <trkpt lat="48.95961" lon="0.17647">
        <ele>87</ele>
        <time>2018-09-23 09:07:19</time>
      </trkpt>
      <trkpt lat="48.95953" lon="0.17659">
        <ele>87</ele>
        <time>2018-09-23 09:07:21</time>
      </trkpt>
      <trkpt lat="48.95946" lon="0.17672">
        <ele>86</ele>
        <time>2018-09-23 09:07:24</time>
      </trkpt>
      <trkpt lat="48.95938" lon="0.17684">
        <ele>86</ele>
        <time>2018-09-23 09:07:25</time>
      </trkpt>
      <trkpt lat="48.9593" lon="0.17697">
        <ele>85</ele>
        <time>2018-09-23 09:07:27</time>
      </trkpt>
      <trkpt lat="48.95923" lon="0.17709">
        <ele>84</ele>
        <time>2018-09-23 09:07:29</time>
      </trkpt>
      <trkpt lat="48.95919" lon="0.17715">
        <ele>84</ele>
        <time>2018-09-23 09:07:30</time>
      </trkpt>
      <trkpt lat="48.95912" lon="0.17727">
        <ele>83</ele>
        <time>2018-09-23 09:07:32</time>
      </trkpt>
      <trkpt lat="48.95908" lon="0.17733">
        <ele>83</ele>
        <time>2018-09-23 09:07:33</time>
      </trkpt>
      <trkpt lat="48.95901" lon="0.17745">
        <ele>82</ele>
        <time>2018-09-23 09:07:35</time>
      </trkpt>
      <trkpt lat="48.95894" lon="0.17758">
        <ele>82</ele>
        <time>2018-09-23 09:07:37</time>
      </trkpt>
      <trkpt lat="48.95887" lon="0.17769">
        <ele>82</ele>
        <time>2018-09-23 09:07:39</time>
      </trkpt>
      <trkpt lat="48.95879" lon="0.17781">
        <ele>82</ele>
        <time>2018-09-23 09:07:41</time>
      </trkpt>
      <trkpt lat="48.95872" lon="0.17794">
        <ele>82</ele>
        <time>2018-09-23 09:07:43</time>
      </trkpt>
      <trkpt lat="48.95866" lon="0.17806">
        <ele>81</ele>
        <time>2018-09-23 09:07:46</time>
      </trkpt>
      <trkpt lat="48.95859" lon="0.17819">
        <ele>82</ele>
        <time>2018-09-23 09:07:47</time>
      </trkpt>
      <trkpt lat="48.95852" lon="0.1783">
        <ele>81</ele>
        <time>2018-09-23 09:07:49</time>
      </trkpt>
      <trkpt lat="48.95845" lon="0.17843">
        <ele>81</ele>
        <time>2018-09-23 09:07:51</time>
      </trkpt>
      <trkpt lat="48.95841" lon="0.1785">
        <ele>81</ele>
        <time>2018-09-23 09:07:53</time>
      </trkpt>
      <trkpt lat="48.95834" lon="0.17862">
        <ele>81</ele>
        <time>2018-09-23 09:07:54</time>
      </trkpt>
      <trkpt lat="48.95826" lon="0.17874">
        <ele>82</ele>
        <time>2018-09-23 09:07:56</time>
      </trkpt>
      <trkpt lat="48.95822" lon="0.1788">
        <ele>82</ele>
        <time>2018-09-23 09:07:57</time>
      </trkpt>
      <trkpt lat="48.95815" lon="0.17893">
        <ele>82</ele>
        <time>2018-09-23 09:07:59</time>
      </trkpt>
      <trkpt lat="48.95807" lon="0.17906">
        <ele>83</ele>
        <time>2018-09-23 09:08:01</time>
      </trkpt>
      <trkpt lat="48.95799" lon="0.17919">
        <ele>83</ele>
        <time>2018-09-23 09:08:03</time>
      </trkpt>
      <trkpt lat="48.95792" lon="0.17932">
        <ele>83</ele>
        <time>2018-09-23 09:08:05</time>
      </trkpt>
      <trkpt lat="48.95784" lon="0.17944">
        <ele>83</ele>
        <time>2018-09-23 09:08:07</time>
      </trkpt>
      <trkpt lat="48.9578" lon="0.1795">
        <ele>83</ele>
        <time>2018-09-23 09:08:08</time>
      </trkpt>
      <trkpt lat="48.95773" lon="0.17963">
        <ele>83</ele>
        <time>2018-09-23 09:08:10</time>
      </trkpt>
      <trkpt lat="48.95765" lon="0.17976">
        <ele>83</ele>
        <time>2018-09-23 09:08:12</time>
      </trkpt>
      <trkpt lat="48.95758" lon="0.17988">
        <ele>83</ele>
        <time>2018-09-23 09:08:14</time>
      </trkpt>
      <trkpt lat="48.95754" lon="0.17995">
        <ele>83</ele>
        <time>2018-09-23 09:08:15</time>
      </trkpt>
      <trkpt lat="48.95747" lon="0.18007">
        <ele>83</ele>
        <time>2018-09-23 09:08:17</time>
      </trkpt>
      <trkpt lat="48.95739" lon="0.1802">
        <ele>84</ele>
        <time>2018-09-23 09:08:19</time>
      </trkpt>
      <trkpt lat="48.95732" lon="0.18032">
        <ele>84</ele>
        <time>2018-09-23 09:08:21</time>
      </trkpt>
      <trkpt lat="48.95724" lon="0.18045">
        <ele>84</ele>
        <time>2018-09-23 09:08:23</time>
      </trkpt>
      <trkpt lat="48.95717" lon="0.18057">
        <ele>84</ele>
        <time>2018-09-23 09:08:25</time>
      </trkpt>
      <trkpt lat="48.9571" lon="0.18069">
        <ele>84</ele>
        <time>2018-09-23 09:08:27</time>
      </trkpt>
      <trkpt lat="48.95702" lon="0.18081">
        <ele>84</ele>
        <time>2018-09-23 09:08:29</time>
      </trkpt>
      <trkpt lat="48.95695" lon="0.18094">
        <ele>85</ele>
        <time>2018-09-23 09:08:31</time>
      </trkpt>
      <trkpt lat="48.95688" lon="0.18106">
        <ele>85</ele>
        <time>2018-09-23 09:08:33</time>
      </trkpt>
      <trkpt lat="48.9568" lon="0.18118">
        <ele>85</ele>
        <time>2018-09-23 09:08:35</time>
      </trkpt>
      <trkpt lat="48.95673" lon="0.18131">
        <ele>86</ele>
        <time>2018-09-23 09:08:37</time>
      </trkpt>
      <trkpt lat="48.95667" lon="0.18142">
        <ele>86</ele>
        <time>2018-09-23 09:08:39</time>
      </trkpt>
      <trkpt lat="48.9566" lon="0.18154">
        <ele>86</ele>
        <time>2018-09-23 09:08:41</time>
      </trkpt>
      <trkpt lat="48.95652" lon="0.18165">
        <ele>85</ele>
        <time>2018-09-23 09:08:43</time>
      </trkpt>
      <trkpt lat="48.95645" lon="0.18177">
        <ele>84</ele>
        <time>2018-09-23 09:08:45</time>
      </trkpt>
      <trkpt lat="48.95638" lon="0.18189">
        <ele>84</ele>
        <time>2018-09-23 09:08:47</time>
      </trkpt>
      <trkpt lat="48.95631" lon="0.18202">
        <ele>84</ele>
        <time>2018-09-23 09:08:49</time>
      </trkpt>
      <trkpt lat="48.95624" lon="0.18214">
        <ele>83</ele>
        <time>2018-09-23 09:08:51</time>
      </trkpt>
      <trkpt lat="48.95617" lon="0.18227">
        <ele>84</ele>
        <time>2018-09-23 09:08:53</time>
      </trkpt>
      <trkpt lat="48.9561" lon="0.18239">
        <ele>83</ele>
        <time>2018-09-23 09:08:55</time>
      </trkpt>
      <trkpt lat="48.95606" lon="0.18245">
        <ele>83</ele>
        <time>2018-09-23 09:08:56</time>
      </trkpt>
      <trkpt lat="48.95603" lon="0.18252">
        <ele>84</ele>
        <time>2018-09-23 09:08:57</time>
      </trkpt>
      <trkpt lat="48.95595" lon="0.18264">
        <ele>84</ele>
        <time>2018-09-23 09:08:59</time>
      </trkpt>
      <trkpt lat="48.95592" lon="0.1827">
        <ele>84</ele>
        <time>2018-09-23 09:09:00</time>
      </trkpt>
      <trkpt lat="48.95584" lon="0.18282">
        <ele>84</ele>
        <time>2018-09-23 09:09:02</time>
      </trkpt>
      <trkpt lat="48.9558" lon="0.18288">
        <ele>84</ele>
        <time>2018-09-23 09:09:03</time>
      </trkpt>
      <trkpt lat="48.95573" lon="0.18302">
        <ele>85</ele>
        <time>2018-09-23 09:09:05</time>
      </trkpt>
      <trkpt lat="48.95566" lon="0.18313">
        <ele>83</ele>
        <time>2018-09-23 09:09:07</time>
      </trkpt>
      <trkpt lat="48.95562" lon="0.18319">
        <ele>84</ele>
        <time>2018-09-23 09:09:08</time>
      </trkpt>
      <trkpt lat="48.95558" lon="0.18325">
        <ele>84</ele>
        <time>2018-09-23 09:09:09</time>
      </trkpt>
      <trkpt lat="48.95551" lon="0.18337">
        <ele>84</ele>
        <time>2018-09-23 09:09:11</time>
      </trkpt>
      <trkpt lat="48.95548" lon="0.18343">
        <ele>85</ele>
        <time>2018-09-23 09:09:12</time>
      </trkpt>
      <trkpt lat="48.95541" lon="0.18355">
        <ele>84</ele>
        <time>2018-09-23 09:09:14</time>
      </trkpt>
      <trkpt lat="48.95538" lon="0.18361">
        <ele>84</ele>
        <time>2018-09-23 09:09:15</time>
      </trkpt>
      <trkpt lat="48.9553" lon="0.18373">
        <ele>84</ele>
        <time>2018-09-23 09:09:17</time>
      </trkpt>
      <trkpt lat="48.95527" lon="0.1838">
        <ele>84</ele>
        <time>2018-09-23 09:09:18</time>
      </trkpt>
      <trkpt lat="48.9552" lon="0.18393">
        <ele>85</ele>
        <time>2018-09-23 09:09:20</time>
      </trkpt>
      <trkpt lat="48.95516" lon="0.184">
        <ele>85</ele>
        <time>2018-09-23 09:09:21</time>
      </trkpt>
      <trkpt lat="48.9551" lon="0.18413">
        <ele>85</ele>
        <time>2018-09-23 09:09:23</time>
      </trkpt>
      <trkpt lat="48.95502" lon="0.18424">
        <ele>85</ele>
        <time>2018-09-23 09:09:25</time>
      </trkpt>
      <trkpt lat="48.95495" lon="0.18437">
        <ele>86</ele>
        <time>2018-09-23 09:09:27</time>
      </trkpt>
      <trkpt lat="48.95488" lon="0.18449">
        <ele>85</ele>
        <time>2018-09-23 09:09:29</time>
      </trkpt>
      <trkpt lat="48.95484" lon="0.18455">
        <ele>85</ele>
        <time>2018-09-23 09:09:30</time>
      </trkpt>
      <trkpt lat="48.95477" lon="0.18467">
        <ele>86</ele>
        <time>2018-09-23 09:09:32</time>
      </trkpt>
      <trkpt lat="48.95474" lon="0.18474">
        <ele>86</ele>
        <time>2018-09-23 09:09:33</time>
      </trkpt>
      <trkpt lat="48.9547" lon="0.1848">
        <ele>86</ele>
        <time>2018-09-23 09:09:34</time>
      </trkpt>
      <trkpt lat="48.95462" lon="0.18493">
        <ele>86</ele>
        <time>2018-09-23 09:09:36</time>
      </trkpt>
      <trkpt lat="48.95457" lon="0.18499">
        <ele>87</ele>
        <time>2018-09-23 09:09:37</time>
      </trkpt>
      <trkpt lat="48.95449" lon="0.18514">
        <ele>88</ele>
        <time>2018-09-23 09:09:39</time>
      </trkpt>
      <trkpt lat="48.95441" lon="0.18527">
        <ele>88</ele>
        <time>2018-09-23 09:09:41</time>
      </trkpt>
      <trkpt lat="48.95434" lon="0.1854">
        <ele>89</ele>
        <time>2018-09-23 09:09:43</time>
      </trkpt>
      <trkpt lat="48.95427" lon="0.18552">
        <ele>89</ele>
        <time>2018-09-23 09:09:45</time>
      </trkpt>
      <trkpt lat="48.9542" lon="0.18563">
        <ele>90</ele>
        <time>2018-09-23 09:09:47</time>
      </trkpt>
      <trkpt lat="48.95412" lon="0.18575">
        <ele>90</ele>
        <time>2018-09-23 09:09:49</time>
      </trkpt>
      <trkpt lat="48.95409" lon="0.18581">
        <ele>90</ele>
        <time>2018-09-23 09:09:50</time>
      </trkpt>
      <trkpt lat="48.95405" lon="0.18587">
        <ele>90</ele>
        <time>2018-09-23 09:09:51</time>
      </trkpt>
      <trkpt lat="48.95399" lon="0.18598">
        <ele>89</ele>
        <time>2018-09-23 09:09:53</time>
      </trkpt>
      <trkpt lat="48.95396" lon="0.18604">
        <ele>90</ele>
        <time>2018-09-23 09:09:54</time>
      </trkpt>
      <trkpt lat="48.95389" lon="0.18618">
        <ele>90</ele>
        <time>2018-09-23 09:09:56</time>
      </trkpt>
      <trkpt lat="48.95385" lon="0.18624">
        <ele>90</ele>
        <time>2018-09-23 09:09:57</time>
      </trkpt>
      <trkpt lat="48.95377" lon="0.18636">
        <ele>91</ele>
        <time>2018-09-23 09:09:59</time>
      </trkpt>
      <trkpt lat="48.95369" lon="0.18648">
        <ele>92</ele>
        <time>2018-09-23 09:10:01</time>
      </trkpt>
      <trkpt lat="48.95361" lon="0.1866">
        <ele>93</ele>
        <time>2018-09-23 09:10:03</time>
      </trkpt>
      <trkpt lat="48.95354" lon="0.18672">
        <ele>94</ele>
        <time>2018-09-23 09:10:05</time>
      </trkpt>
      <trkpt lat="48.95351" lon="0.18678">
        <ele>94</ele>
        <time>2018-09-23 09:10:06</time>
      </trkpt>
      <trkpt lat="48.95347" lon="0.18689">
        <ele>94</ele>
        <time>2018-09-23 09:10:08</time>
      </trkpt>
      <trkpt lat="48.95344" lon="0.18694">
        <ele>94</ele>
        <time>2018-09-23 09:10:09</time>
      </trkpt>
      <trkpt lat="48.95339" lon="0.18705">
        <ele>94</ele>
        <time>2018-09-23 09:10:11</time>
      </trkpt>
      <trkpt lat="48.95336" lon="0.18716">
        <ele>94</ele>
        <time>2018-09-23 09:10:13</time>
      </trkpt>
      <trkpt lat="48.95332" lon="0.18723">
        <ele>94</ele>
        <time>2018-09-23 09:10:15</time>
      </trkpt>
      <trkpt lat="48.95326" lon="0.18729">
        <ele>94</ele>
        <time>2018-09-23 09:10:17</time>
      </trkpt>
      <trkpt lat="48.95319" lon="0.18737">
        <ele>94</ele>
        <time>2018-09-23 09:10:19</time>
      </trkpt>
      <trkpt lat="48.95316" lon="0.18741">
        <ele>94</ele>
        <time>2018-09-23 09:10:20</time>
      </trkpt>
      <trkpt lat="48.95309" lon="0.1875">
        <ele>94</ele>
        <time>2018-09-23 09:10:22</time>
      </trkpt>
      <trkpt lat="48.95303" lon="0.18759">
        <ele>94</ele>
        <time>2018-09-23 09:10:24</time>
      </trkpt>
      <trkpt lat="48.953" lon="0.18764">
        <ele>95</ele>
        <time>2018-09-23 09:10:25</time>
      </trkpt>
      <trkpt lat="48.95297" lon="0.18768">
        <ele>95</ele>
        <time>2018-09-23 09:10:26</time>
      </trkpt>
      <trkpt lat="48.95291" lon="0.18774">
        <ele>95</ele>
        <time>2018-09-23 09:10:28</time>
      </trkpt>
      <trkpt lat="48.95288" lon="0.18781">
        <ele>95</ele>
        <time>2018-09-23 09:10:30</time>
      </trkpt>
      <trkpt lat="48.95288" lon="0.18789">
        <ele>96</ele>
        <time>2018-09-23 09:10:32</time>
      </trkpt>
      <trkpt lat="48.95289" lon="0.18793">
        <ele>96</ele>
        <time>2018-09-23 09:10:33</time>
      </trkpt>
      <trkpt lat="48.95291" lon="0.18803">
        <ele>96</ele>
        <time>2018-09-23 09:10:35</time>
      </trkpt>
      <trkpt lat="48.95289" lon="0.18811">
        <ele>97</ele>
        <time>2018-09-23 09:10:37</time>
      </trkpt>
      <trkpt lat="48.95284" lon="0.18816">
        <ele>97</ele>
        <time>2018-09-23 09:10:39</time>
      </trkpt>
      <trkpt lat="48.95277" lon="0.1882">
        <ele>97</ele>
        <time>2018-09-23 09:10:41</time>
      </trkpt>
      <trkpt lat="48.95269" lon="0.18826">
        <ele>97</ele>
        <time>2018-09-23 09:10:43</time>
      </trkpt>
      <trkpt lat="48.95261" lon="0.18832">
        <ele>97</ele>
        <time>2018-09-23 09:10:45</time>
      </trkpt>
      <trkpt lat="48.95254" lon="0.18841">
        <ele>98</ele>
        <time>2018-09-23 09:10:47</time>
      </trkpt>
      <trkpt lat="48.95247" lon="0.18851">
        <ele>98</ele>
        <time>2018-09-23 09:10:49</time>
      </trkpt>
      <trkpt lat="48.9524" lon="0.18861">
        <ele>98</ele>
        <time>2018-09-23 09:10:51</time>
      </trkpt>
      <trkpt lat="48.95233" lon="0.18872">
        <ele>97</ele>
        <time>2018-09-23 09:10:53</time>
      </trkpt>
      <trkpt lat="48.95229" lon="0.18877">
        <ele>98</ele>
        <time>2018-09-23 09:10:54</time>
      </trkpt>
      <trkpt lat="48.95222" lon="0.18887">
        <ele>97</ele>
        <time>2018-09-23 09:10:56</time>
      </trkpt>
      <trkpt lat="48.95219" lon="0.18892">
        <ele>97</ele>
        <time>2018-09-23 09:10:57</time>
      </trkpt>
      <trkpt lat="48.95212" lon="0.18903">
        <ele>97</ele>
        <time>2018-09-23 09:10:59</time>
      </trkpt>
      <trkpt lat="48.95204" lon="0.18913">
        <ele>98</ele>
        <time>2018-09-23 09:11:01</time>
      </trkpt>
      <trkpt lat="48.95197" lon="0.18923">
        <ele>97</ele>
        <time>2018-09-23 09:11:03</time>
      </trkpt>
      <trkpt lat="48.95189" lon="0.18933">
        <ele>97</ele>
        <time>2018-09-23 09:11:05</time>
      </trkpt>
      <trkpt lat="48.95182" lon="0.18942">
        <ele>97</ele>
        <time>2018-09-23 09:11:07</time>
      </trkpt>
      <trkpt lat="48.95177" lon="0.18946">
        <ele>97</ele>
        <time>2018-09-23 09:11:08</time>
      </trkpt>
      <trkpt lat="48.95169" lon="0.18957">
        <ele>98</ele>
        <time>2018-09-23 09:11:10</time>
      </trkpt>
      <trkpt lat="48.95157" lon="0.18971">
        <ele>99</ele>
        <time>2018-09-23 09:11:13</time>
      </trkpt>
      <trkpt lat="48.95148" lon="0.1898">
        <ele>99</ele>
        <time>2018-09-23 09:11:15</time>
      </trkpt>
      <trkpt lat="48.9514" lon="0.1899">
        <ele>98</ele>
        <time>2018-09-23 09:11:17</time>
      </trkpt>
      <trkpt lat="48.95132" lon="0.18999">
        <ele>98</ele>
        <time>2018-09-23 09:11:19</time>
      </trkpt>
      <trkpt lat="48.95128" lon="0.19004">
        <ele>98</ele>
        <time>2018-09-23 09:11:20</time>
      </trkpt>
      <trkpt lat="48.95124" lon="0.19009">
        <ele>98</ele>
        <time>2018-09-23 09:11:21</time>
      </trkpt>
      <trkpt lat="48.9512" lon="0.19014">
        <ele>98</ele>
        <time>2018-09-23 09:11:22</time>
      </trkpt>
      <trkpt lat="48.95112" lon="0.19022">
        <ele>97</ele>
        <time>2018-09-23 09:11:24</time>
      </trkpt>
      <trkpt lat="48.95104" lon="0.1903">
        <ele>97</ele>
        <time>2018-09-23 09:11:26</time>
      </trkpt>
      <trkpt lat="48.951" lon="0.19035">
        <ele>97</ele>
        <time>2018-09-23 09:11:27</time>
      </trkpt>
      <trkpt lat="48.95091" lon="0.19043">
        <ele>97</ele>
        <time>2018-09-23 09:11:29</time>
      </trkpt>
      <trkpt lat="48.95083" lon="0.1905">
        <ele>97</ele>
        <time>2018-09-23 09:11:31</time>
      </trkpt>
      <trkpt lat="48.95074" lon="0.19057">
        <ele>98</ele>
        <time>2018-09-23 09:11:33</time>
      </trkpt>
      <trkpt lat="48.95069" lon="0.19061">
        <ele>98</ele>
        <time>2018-09-23 09:11:34</time>
      </trkpt>
      <trkpt lat="48.95062" lon="0.19069">
        <ele>96</ele>
        <time>2018-09-23 09:11:36</time>
      </trkpt>
      <trkpt lat="48.95054" lon="0.19076">
        <ele>96</ele>
        <time>2018-09-23 09:11:38</time>
      </trkpt>
      <trkpt lat="48.95049" lon="0.19079">
        <ele>96</ele>
        <time>2018-09-23 09:11:39</time>
      </trkpt>
      <trkpt lat="48.95038" lon="0.19081">
        <ele>98</ele>
        <time>2018-09-23 09:11:41</time>
      </trkpt>
      <trkpt lat="48.95028" lon="0.19086">
        <ele>98</ele>
        <time>2018-09-23 09:11:43</time>
      </trkpt>
      <trkpt lat="48.95018" lon="0.19093">
        <ele>99</ele>
        <time>2018-09-23 09:11:45</time>
      </trkpt>
      <trkpt lat="48.95008" lon="0.191">
        <ele>99</ele>
        <time>2018-09-23 09:11:47</time>
      </trkpt>
      <trkpt lat="48.94999" lon="0.19107">
        <ele>100</ele>
        <time>2018-09-23 09:11:49</time>
      </trkpt>
      <trkpt lat="48.94994" lon="0.1911">
        <ele>100</ele>
        <time>2018-09-23 09:11:50</time>
      </trkpt>
      <trkpt lat="48.94989" lon="0.19114">
        <ele>100</ele>
        <time>2018-09-23 09:11:51</time>
      </trkpt>
      <trkpt lat="48.94979" lon="0.19121">
        <ele>101</ele>
        <time>2018-09-23 09:11:53</time>
      </trkpt>
      <trkpt lat="48.9497" lon="0.19128">
        <ele>101</ele>
        <time>2018-09-23 09:11:55</time>
      </trkpt>
      <trkpt lat="48.9496" lon="0.19134">
        <ele>102</ele>
        <time>2018-09-23 09:11:57</time>
      </trkpt>
      <trkpt lat="48.94951" lon="0.19141">
        <ele>102</ele>
        <time>2018-09-23 09:11:59</time>
      </trkpt>
      <trkpt lat="48.94941" lon="0.19149">
        <ele>103</ele>
        <time>2018-09-23 09:12:01</time>
      </trkpt>
      <trkpt lat="48.94936" lon="0.19154">
        <ele>103</ele>
        <time>2018-09-23 09:12:02</time>
      </trkpt>
      <trkpt lat="48.94931" lon="0.19157">
        <ele>103</ele>
        <time>2018-09-23 09:12:03</time>
      </trkpt>
      <trkpt lat="48.94922" lon="0.19165">
        <ele>104</ele>
        <time>2018-09-23 09:12:05</time>
      </trkpt>
      <trkpt lat="48.94912" lon="0.19172">
        <ele>105</ele>
        <time>2018-09-23 09:12:07</time>
      </trkpt>
      <trkpt lat="48.94908" lon="0.19176">
        <ele>105</ele>
        <time>2018-09-23 09:12:08</time>
      </trkpt>
      <trkpt lat="48.94903" lon="0.19179">
        <ele>105</ele>
        <time>2018-09-23 09:12:09</time>
      </trkpt>
      <trkpt lat="48.94898" lon="0.19183">
        <ele>105</ele>
        <time>2018-09-23 09:12:10</time>
      </trkpt>
      <trkpt lat="48.94887" lon="0.19192">
        <ele>106</ele>
        <time>2018-09-23 09:12:12</time>
      </trkpt>
      <trkpt lat="48.94882" lon="0.19196">
        <ele>106</ele>
        <time>2018-09-23 09:12:13</time>
      </trkpt>
      <trkpt lat="48.94872" lon="0.19204">
        <ele>106</ele>
        <time>2018-09-23 09:12:15</time>
      </trkpt>
      <trkpt lat="48.94862" lon="0.19211">
        <ele>106</ele>
        <time>2018-09-23 09:12:17</time>
      </trkpt>
      <trkpt lat="48.94852" lon="0.19219">
        <ele>107</ele>
        <time>2018-09-23 09:12:19</time>
      </trkpt>
      <trkpt lat="48.94847" lon="0.19223">
        <ele>107</ele>
        <time>2018-09-23 09:12:20</time>
      </trkpt>
      <trkpt lat="48.94842" lon="0.19227">
        <ele>107</ele>
        <time>2018-09-23 09:12:21</time>
      </trkpt>
      <trkpt lat="48.94833" lon="0.19235">
        <ele>108</ele>
        <time>2018-09-23 09:12:23</time>
      </trkpt>
      <trkpt lat="48.94824" lon="0.19242">
        <ele>107</ele>
        <time>2018-09-23 09:12:25</time>
      </trkpt>
      <trkpt lat="48.94819" lon="0.19246">
        <ele>107</ele>
        <time>2018-09-23 09:12:26</time>
      </trkpt>
      <trkpt lat="48.94814" lon="0.19249">
        <ele>107</ele>
        <time>2018-09-23 09:12:27</time>
      </trkpt>
      <trkpt lat="48.94805" lon="0.19256">
        <ele>107</ele>
        <time>2018-09-23 09:12:29</time>
      </trkpt>
      <trkpt lat="48.948" lon="0.1926">
        <ele>107</ele>
        <time>2018-09-23 09:12:30</time>
      </trkpt>
      <trkpt lat="48.94791" lon="0.19266">
        <ele>107</ele>
        <time>2018-09-23 09:12:32</time>
      </trkpt>
      <trkpt lat="48.94786" lon="0.1927">
        <ele>107</ele>
        <time>2018-09-23 09:12:33</time>
      </trkpt>
      <trkpt lat="48.94777" lon="0.19278">
        <ele>108</ele>
        <time>2018-09-23 09:12:35</time>
      </trkpt>
      <trkpt lat="48.94773" lon="0.19282">
        <ele>108</ele>
        <time>2018-09-23 09:12:36</time>
      </trkpt>
      <trkpt lat="48.94763" lon="0.19289">
        <ele>108</ele>
        <time>2018-09-23 09:12:38</time>
      </trkpt>
      <trkpt lat="48.94758" lon="0.19293">
        <ele>109</ele>
        <time>2018-09-23 09:12:40</time>
      </trkpt>
      <trkpt lat="48.94748" lon="0.193">
        <ele>110</ele>
        <time>2018-09-23 09:12:41</time>
      </trkpt>
      <trkpt lat="48.94738" lon="0.19309">
        <ele>110</ele>
        <time>2018-09-23 09:12:43</time>
      </trkpt>
      <trkpt lat="48.94728" lon="0.19316">
        <ele>111</ele>
        <time>2018-09-23 09:12:45</time>
      </trkpt>
      <trkpt lat="48.94719" lon="0.19322">
        <ele>111</ele>
        <time>2018-09-23 09:12:47</time>
      </trkpt>
      <trkpt lat="48.9471" lon="0.19328">
        <ele>112</ele>
        <time>2018-09-23 09:12:49</time>
      </trkpt>
      <trkpt lat="48.947" lon="0.19335">
        <ele>112</ele>
        <time>2018-09-23 09:12:51</time>
      </trkpt>
      <trkpt lat="48.9469" lon="0.19342">
        <ele>113</ele>
        <time>2018-09-23 09:12:53</time>
      </trkpt>
      <trkpt lat="48.94685" lon="0.19346">
        <ele>113</ele>
        <time>2018-09-23 09:12:54</time>
      </trkpt>
      <trkpt lat="48.94676" lon="0.19353">
        <ele>113</ele>
        <time>2018-09-23 09:12:56</time>
      </trkpt>
      <trkpt lat="48.94671" lon="0.19357">
        <ele>113</ele>
        <time>2018-09-23 09:12:57</time>
      </trkpt>
      <trkpt lat="48.94662" lon="0.19365">
        <ele>114</ele>
        <time>2018-09-23 09:12:59</time>
      </trkpt>
      <trkpt lat="48.94653" lon="0.19372">
        <ele>115</ele>
        <time>2018-09-23 09:13:01</time>
      </trkpt>
      <trkpt lat="48.94643" lon="0.1938">
        <ele>115</ele>
        <time>2018-09-23 09:13:03</time>
      </trkpt>
      <trkpt lat="48.94633" lon="0.19387">
        <ele>115</ele>
        <time>2018-09-23 09:13:05</time>
      </trkpt>
      <trkpt lat="48.94624" lon="0.19395">
        <ele>116</ele>
        <time>2018-09-23 09:13:07</time>
      </trkpt>
      <trkpt lat="48.94619" lon="0.19399">
        <ele>115</ele>
        <time>2018-09-23 09:13:08</time>
      </trkpt>
      <trkpt lat="48.9461" lon="0.19408">
        <ele>115</ele>
        <time>2018-09-23 09:13:10</time>
      </trkpt>
      <trkpt lat="48.94605" lon="0.19413">
        <ele>115</ele>
        <time>2018-09-23 09:13:11</time>
      </trkpt>
      <trkpt lat="48.94596" lon="0.19422">
        <ele>115</ele>
        <time>2018-09-23 09:13:13</time>
      </trkpt>
      <trkpt lat="48.94586" lon="0.19432">
        <ele>115</ele>
        <time>2018-09-23 09:13:15</time>
      </trkpt>
      <trkpt lat="48.94579" lon="0.1944">
        <ele>115</ele>
        <time>2018-09-23 09:13:17</time>
      </trkpt>
      <trkpt lat="48.94577" lon="0.19445">
        <ele>115</ele>
        <time>2018-09-23 09:13:18</time>
      </trkpt>
      <trkpt lat="48.94572" lon="0.19451">
        <ele>115</ele>
        <time>2018-09-23 09:13:20</time>
      </trkpt>
      <trkpt lat="48.94569" lon="0.19453">
        <ele>116</ele>
        <time>2018-09-23 09:13:21</time>
      </trkpt>
      <trkpt lat="48.94564" lon="0.19457">
        <ele>117</ele>
        <time>2018-09-23 09:13:23</time>
      </trkpt>
      <trkpt lat="48.94562" lon="0.1946">
        <ele>117</ele>
        <time>2018-09-23 09:13:25</time>
      </trkpt>
      <trkpt lat="48.9456" lon="0.19463">
        <ele>117</ele>
        <time>2018-09-23 09:13:27</time>
      </trkpt>
      <trkpt lat="48.9456" lon="0.19469">
        <ele>116</ele>
        <time>2018-09-23 09:13:29</time>
      </trkpt>
      <trkpt lat="48.94563" lon="0.19475">
        <ele>117</ele>
        <time>2018-09-23 09:13:31</time>
      </trkpt>
      <trkpt lat="48.94564" lon="0.19485">
        <ele>117</ele>
        <time>2018-09-23 09:13:33</time>
      </trkpt>
      <trkpt lat="48.94564" lon="0.1949">
        <ele>118</ele>
        <time>2018-09-23 09:13:34</time>
      </trkpt>
      <trkpt lat="48.94563" lon="0.19502">
        <ele>118</ele>
        <time>2018-09-23 09:13:36</time>
      </trkpt>
      <trkpt lat="48.9456" lon="0.19513">
        <ele>118</ele>
        <time>2018-09-23 09:13:38</time>
      </trkpt>
      <trkpt lat="48.94557" lon="0.19518">
        <ele>119</ele>
        <time>2018-09-23 09:13:39</time>
      </trkpt>
      <trkpt lat="48.94553" lon="0.19528">
        <ele>120</ele>
        <time>2018-09-23 09:13:41</time>
      </trkpt>
      <trkpt lat="48.94549" lon="0.19538">
        <ele>121</ele>
        <time>2018-09-23 09:13:43</time>
      </trkpt>
      <trkpt lat="48.94544" lon="0.19551">
        <ele>121</ele>
        <time>2018-09-23 09:13:45</time>
      </trkpt>
      <trkpt lat="48.94539" lon="0.19562">
        <ele>122</ele>
        <time>2018-09-23 09:13:47</time>
      </trkpt>
      <trkpt lat="48.94536" lon="0.19572">
        <ele>123</ele>
        <time>2018-09-23 09:13:49</time>
      </trkpt>
      <trkpt lat="48.94532" lon="0.19582">
        <ele>124</ele>
        <time>2018-09-23 09:13:51</time>
      </trkpt>
      <trkpt lat="48.94529" lon="0.19593">
        <ele>124</ele>
        <time>2018-09-23 09:13:53</time>
      </trkpt>
      <trkpt lat="48.94528" lon="0.19605">
        <ele>125</ele>
        <time>2018-09-23 09:13:55</time>
      </trkpt>
      <trkpt lat="48.94526" lon="0.19617">
        <ele>127</ele>
        <time>2018-09-23 09:13:57</time>
      </trkpt>
      <trkpt lat="48.94525" lon="0.19628">
        <ele>128</ele>
        <time>2018-09-23 09:13:59</time>
      </trkpt>
      <trkpt lat="48.94523" lon="0.1964">
        <ele>129</ele>
        <time>2018-09-23 09:14:01</time>
      </trkpt>
      <trkpt lat="48.94522" lon="0.19653">
        <ele>129</ele>
        <time>2018-09-23 09:14:03</time>
      </trkpt>
      <trkpt lat="48.94521" lon="0.19667">
        <ele>129</ele>
        <time>2018-09-23 09:14:05</time>
      </trkpt>
      <trkpt lat="48.94521" lon="0.19675">
        <ele>129</ele>
        <time>2018-09-23 09:14:06</time>
      </trkpt>
      <trkpt lat="48.94522" lon="0.19689">
        <ele>130</ele>
        <time>2018-09-23 09:14:08</time>
      </trkpt>
      <trkpt lat="48.94523" lon="0.19695">
        <ele>130</ele>
        <time>2018-09-23 09:14:09</time>
      </trkpt>
      <trkpt lat="48.94526" lon="0.19709">
        <ele>131</ele>
        <time>2018-09-23 09:14:11</time>
      </trkpt>
      <trkpt lat="48.9453" lon="0.19721">
        <ele>131</ele>
        <time>2018-09-23 09:14:13</time>
      </trkpt>
      <trkpt lat="48.94532" lon="0.19726">
        <ele>131</ele>
        <time>2018-09-23 09:14:14</time>
      </trkpt>
      <trkpt lat="48.94536" lon="0.19737">
        <ele>132</ele>
        <time>2018-09-23 09:14:16</time>
      </trkpt>
      <trkpt lat="48.94537" lon="0.19742">
        <ele>132</ele>
        <time>2018-09-23 09:14:17</time>
      </trkpt>
      <trkpt lat="48.94542" lon="0.19751">
        <ele>132</ele>
        <time>2018-09-23 09:14:19</time>
      </trkpt>
      <trkpt lat="48.94548" lon="0.19759">
        <ele>132</ele>
        <time>2018-09-23 09:14:21</time>
      </trkpt>
      <trkpt lat="48.94554" lon="0.19765">
        <ele>133</ele>
        <time>2018-09-23 09:14:23</time>
      </trkpt>
      <trkpt lat="48.94557" lon="0.1977">
        <ele>134</ele>
        <time>2018-09-23 09:14:25</time>
      </trkpt>
      <trkpt lat="48.94562" lon="0.19774">
        <ele>135</ele>
        <time>2018-09-23 09:14:27</time>
      </trkpt>
      <trkpt lat="48.94569" lon="0.19777">
        <ele>136</ele>
        <time>2018-09-23 09:14:29</time>
      </trkpt>
      <trkpt lat="48.94574" lon="0.19778">
        <ele>136</ele>
        <time>2018-09-23 09:14:30</time>
      </trkpt>
      <trkpt lat="48.94582" lon="0.19782">
        <ele>137</ele>
        <time>2018-09-23 09:14:32</time>
      </trkpt>
      <trkpt lat="48.94586" lon="0.19783">
        <ele>137</ele>
        <time>2018-09-23 09:14:33</time>
      </trkpt>
      <trkpt lat="48.94593" lon="0.19785">
        <ele>137</ele>
        <time>2018-09-23 09:14:35</time>
      </trkpt>
      <trkpt lat="48.94601" lon="0.19787">
        <ele>138</ele>
        <time>2018-09-23 09:14:37</time>
      </trkpt>
      <trkpt lat="48.94607" lon="0.19788">
        <ele>139</ele>
        <time>2018-09-23 09:14:39</time>
      </trkpt>
      <trkpt lat="48.94613" lon="0.19788">
        <ele>139</ele>
        <time>2018-09-23 09:14:41</time>
      </trkpt>
      <trkpt lat="48.94619" lon="0.19789">
        <ele>139</ele>
        <time>2018-09-23 09:14:43</time>
      </trkpt>
      <trkpt lat="48.94622" lon="0.19788">
        <ele>140</ele>
        <time>2018-09-23 09:14:44</time>
      </trkpt>
      <trkpt lat="48.94625" lon="0.19788">
        <ele>140</ele>
        <time>2018-09-23 09:14:45</time>
      </trkpt>
      <trkpt lat="48.94631" lon="0.1979">
        <ele>141</ele>
        <time>2018-09-23 09:14:47</time>
      </trkpt>
      <trkpt lat="48.94643" lon="0.19791">
        <ele>142</ele>
        <time>2018-09-23 09:14:50</time>
      </trkpt>
      <trkpt lat="48.94647" lon="0.1979">
        <ele>142</ele>
        <time>2018-09-23 09:14:51</time>
      </trkpt>
      <trkpt lat="48.94655" lon="0.19791">
        <ele>144</ele>
        <time>2018-09-23 09:14:53</time>
      </trkpt>
      <trkpt lat="48.94659" lon="0.1979">
        <ele>144</ele>
        <time>2018-09-23 09:14:54</time>
      </trkpt>
      <trkpt lat="48.94668" lon="0.19791">
        <ele>146</ele>
        <time>2018-09-23 09:14:56</time>
      </trkpt>
      <trkpt lat="48.94672" lon="0.19792">
        <ele>146</ele>
        <time>2018-09-23 09:14:57</time>
      </trkpt>
      <trkpt lat="48.94681" lon="0.19795">
        <ele>147</ele>
        <time>2018-09-23 09:14:59</time>
      </trkpt>
      <trkpt lat="48.9469" lon="0.19795">
        <ele>147</ele>
        <time>2018-09-23 09:15:01</time>
      </trkpt>
      <trkpt lat="48.94693" lon="0.19795">
        <ele>147</ele>
        <time>2018-09-23 09:15:02</time>
      </trkpt>
      <trkpt lat="48.94699" lon="0.19796">
        <ele>150</ele>
        <time>2018-09-23 09:15:04</time>
      </trkpt>
      <trkpt lat="48.94707" lon="0.19797">
        <ele>151</ele>
        <time>2018-09-23 09:15:06</time>
      </trkpt>
      <trkpt lat="48.94716" lon="0.19801">
        <ele>152</ele>
        <time>2018-09-23 09:15:08</time>
      </trkpt>
      <trkpt lat="48.9472" lon="0.19804">
        <ele>152</ele>
        <time>2018-09-23 09:15:09</time>
      </trkpt>
      <trkpt lat="48.94726" lon="0.19814">
        <ele>153</ele>
        <time>2018-09-23 09:15:11</time>
      </trkpt>
      <trkpt lat="48.94733" lon="0.19822">
        <ele>153</ele>
        <time>2018-09-23 09:15:13</time>
      </trkpt>
      <trkpt lat="48.94739" lon="0.1983">
        <ele>154</ele>
        <time>2018-09-23 09:15:15</time>
      </trkpt>
      <trkpt lat="48.94742" lon="0.19834">
        <ele>155</ele>
        <time>2018-09-23 09:15:16</time>
      </trkpt>
      <trkpt lat="48.94749" lon="0.19841">
        <ele>156</ele>
        <time>2018-09-23 09:15:18</time>
      </trkpt>
      <trkpt lat="48.94757" lon="0.19847">
        <ele>156</ele>
        <time>2018-09-23 09:15:20</time>
      </trkpt>
      <trkpt lat="48.94761" lon="0.19849">
        <ele>157</ele>
        <time>2018-09-23 09:15:21</time>
      </trkpt>
      <trkpt lat="48.94769" lon="0.19851">
        <ele>159</ele>
        <time>2018-09-23 09:15:23</time>
      </trkpt>
      <trkpt lat="48.94777" lon="0.19852">
        <ele>160</ele>
        <time>2018-09-23 09:15:25</time>
      </trkpt>
      <trkpt lat="48.94784" lon="0.19851">
        <ele>161</ele>
        <time>2018-09-23 09:15:27</time>
      </trkpt>
      <trkpt lat="48.94792" lon="0.1985">
        <ele>161</ele>
        <time>2018-09-23 09:15:29</time>
      </trkpt>
      <trkpt lat="48.94799" lon="0.19848">
        <ele>162</ele>
        <time>2018-09-23 09:15:31</time>
      </trkpt>
      <trkpt lat="48.94807" lon="0.19846">
        <ele>162</ele>
        <time>2018-09-23 09:15:33</time>
      </trkpt>
      <trkpt lat="48.94815" lon="0.19845">
        <ele>163</ele>
        <time>2018-09-23 09:15:35</time>
      </trkpt>
      <trkpt lat="48.94819" lon="0.19845">
        <ele>163</ele>
        <time>2018-09-23 09:15:36</time>
      </trkpt>
      <trkpt lat="48.94827" lon="0.19846">
        <ele>164</ele>
        <time>2018-09-23 09:15:38</time>
      </trkpt>
      <trkpt lat="48.9483" lon="0.19846">
        <ele>165</ele>
        <time>2018-09-23 09:15:39</time>
      </trkpt>
      <trkpt lat="48.94838" lon="0.19849">
        <ele>165</ele>
        <time>2018-09-23 09:15:41</time>
      </trkpt>
      <trkpt lat="48.94845" lon="0.19852">
        <ele>166</ele>
        <time>2018-09-23 09:15:43</time>
      </trkpt>
      <trkpt lat="48.9485" lon="0.19858">
        <ele>166</ele>
        <time>2018-09-23 09:15:45</time>
      </trkpt>
      <trkpt lat="48.94853" lon="0.19867">
        <ele>167</ele>
        <time>2018-09-23 09:15:47</time>
      </trkpt>
      <trkpt lat="48.94853" lon="0.19876">
        <ele>167</ele>
        <time>2018-09-23 09:15:49</time>
      </trkpt>
      <trkpt lat="48.94853" lon="0.19886">
        <ele>168</ele>
        <time>2018-09-23 09:15:51</time>
      </trkpt>
      <trkpt lat="48.94855" lon="0.19897">
        <ele>168</ele>
        <time>2018-09-23 09:15:53</time>
      </trkpt>
      <trkpt lat="48.94855" lon="0.19902">
        <ele>168</ele>
        <time>2018-09-23 09:15:54</time>
      </trkpt>
      <trkpt lat="48.94856" lon="0.19911">
        <ele>168</ele>
        <time>2018-09-23 09:15:56</time>
      </trkpt>
      <trkpt lat="48.94856" lon="0.19915">
        <ele>168</ele>
        <time>2018-09-23 09:15:57</time>
      </trkpt>
      <trkpt lat="48.94855" lon="0.19923">
        <ele>168</ele>
        <time>2018-09-23 09:15:59</time>
      </trkpt>
      <trkpt lat="48.94856" lon="0.19929">
        <ele>168</ele>
        <time>2018-09-23 09:16:01</time>
      </trkpt>
      <trkpt lat="48.94856" lon="0.19932">
        <ele>168</ele>
        <time>2018-09-23 09:16:02</time>
      </trkpt>
      <trkpt lat="48.94856" lon="0.19939">
        <ele>168</ele>
        <time>2018-09-23 09:16:04</time>
      </trkpt>
      <trkpt lat="48.94856" lon="0.19946">
        <ele>168</ele>
        <time>2018-09-23 09:16:06</time>
      </trkpt>
      <trkpt lat="48.94855" lon="0.19952">
        <ele>168</ele>
        <time>2018-09-23 09:16:08</time>
      </trkpt>
      <trkpt lat="48.94854" lon="0.19961">
        <ele>168</ele>
        <time>2018-09-23 09:16:10</time>
      </trkpt>
      <trkpt lat="48.94853" lon="0.19969">
        <ele>168</ele>
        <time>2018-09-23 09:16:12</time>
      </trkpt>
      <trkpt lat="48.94854" lon="0.19979">
        <ele>168</ele>
        <time>2018-09-23 09:16:14</time>
      </trkpt>
      <trkpt lat="48.94854" lon="0.19985">
        <ele>168</ele>
        <time>2018-09-23 09:16:15</time>
      </trkpt>
      <trkpt lat="48.94855" lon="0.19994">
        <ele>168</ele>
        <time>2018-09-23 09:16:17</time>
      </trkpt>
      <trkpt lat="48.94854" lon="0.20003">
        <ele>169</ele>
        <time>2018-09-23 09:16:19</time>
      </trkpt>
      <trkpt lat="48.94853" lon="0.20012">
        <ele>170</ele>
        <time>2018-09-23 09:16:21</time>
      </trkpt>
      <trkpt lat="48.94853" lon="0.20017">
        <ele>170</ele>
        <time>2018-09-23 09:16:22</time>
      </trkpt>
      <trkpt lat="48.94853" lon="0.20033">
        <ele>170</ele>
        <time>2018-09-23 09:16:24</time>
      </trkpt>
      <trkpt lat="48.94853" lon="0.20039">
        <ele>170</ele>
        <time>2018-09-23 09:16:25</time>
      </trkpt>
      <trkpt lat="48.94854" lon="0.20047">
        <ele>170</ele>
        <time>2018-09-23 09:16:27</time>
      </trkpt>
      <trkpt lat="48.94856" lon="0.20058">
        <ele>170</ele>
        <time>2018-09-23 09:16:29</time>
      </trkpt>
      <trkpt lat="48.94858" lon="0.20067">
        <ele>171</ele>
        <time>2018-09-23 09:16:31</time>
      </trkpt>
      <trkpt lat="48.94858" lon="0.20076">
        <ele>172</ele>
        <time>2018-09-23 09:16:33</time>
      </trkpt>
      <trkpt lat="48.9486" lon="0.20087">
        <ele>173</ele>
        <time>2018-09-23 09:16:35</time>
      </trkpt>
      <trkpt lat="48.94861" lon="0.20098">
        <ele>173</ele>
        <time>2018-09-23 09:16:37</time>
      </trkpt>
      <trkpt lat="48.94863" lon="0.20107">
        <ele>174</ele>
        <time>2018-09-23 09:16:39</time>
      </trkpt>
      <trkpt lat="48.94864" lon="0.20117">
        <ele>175</ele>
        <time>2018-09-23 09:16:41</time>
      </trkpt>
      <trkpt lat="48.94864" lon="0.20125">
        <ele>175</ele>
        <time>2018-09-23 09:16:43</time>
      </trkpt>
      <trkpt lat="48.94865" lon="0.20134">
        <ele>176</ele>
        <time>2018-09-23 09:16:45</time>
      </trkpt>
      <trkpt lat="48.94865" lon="0.20144">
        <ele>177</ele>
        <time>2018-09-23 09:16:47</time>
      </trkpt>
      <trkpt lat="48.94866" lon="0.20149">
        <ele>178</ele>
        <time>2018-09-23 09:16:48</time>
      </trkpt>
      <trkpt lat="48.94866" lon="0.20157">
        <ele>179</ele>
        <time>2018-09-23 09:16:50</time>
      </trkpt>
      <trkpt lat="48.94866" lon="0.20161">
        <ele>179</ele>
        <time>2018-09-23 09:16:51</time>
      </trkpt>
      <trkpt lat="48.94867" lon="0.2017">
        <ele>179</ele>
        <time>2018-09-23 09:16:53</time>
      </trkpt>
      <trkpt lat="48.94869" lon="0.20183">
        <ele>180</ele>
        <time>2018-09-23 09:16:55</time>
      </trkpt>
      <trkpt lat="48.9487" lon="0.2019">
        <ele>181</ele>
        <time>2018-09-23 09:16:57</time>
      </trkpt>
      <trkpt lat="48.94871" lon="0.20199">
        <ele>181</ele>
        <time>2018-09-23 09:16:59</time>
      </trkpt>
      <trkpt lat="48.94873" lon="0.20208">
        <ele>182</ele>
        <time>2018-09-23 09:17:01</time>
      </trkpt>
      <trkpt lat="48.94874" lon="0.20213">
        <ele>182</ele>
        <time>2018-09-23 09:17:02</time>
      </trkpt>
      <trkpt lat="48.94874" lon="0.20217">
        <ele>183</ele>
        <time>2018-09-23 09:17:03</time>
      </trkpt>
      <trkpt lat="48.94875" lon="0.20225">
        <ele>183</ele>
        <time>2018-09-23 09:17:05</time>
      </trkpt>
      <trkpt lat="48.94877" lon="0.20235">
        <ele>183</ele>
        <time>2018-09-23 09:17:07</time>
      </trkpt>
      <trkpt lat="48.94877" lon="0.20244">
        <ele>183</ele>
        <time>2018-09-23 09:17:09</time>
      </trkpt>
      <trkpt lat="48.94877" lon="0.20253">
        <ele>183</ele>
        <time>2018-09-23 09:17:11</time>
      </trkpt>
      <trkpt lat="48.94877" lon="0.20258">
        <ele>184</ele>
        <time>2018-09-23 09:17:12</time>
      </trkpt>
      <trkpt lat="48.94877" lon="0.20266">
        <ele>184</ele>
        <time>2018-09-23 09:17:14</time>
      </trkpt>
      <trkpt lat="48.94877" lon="0.2027">
        <ele>184</ele>
        <time>2018-09-23 09:17:15</time>
      </trkpt>
      <trkpt lat="48.94875" lon="0.20277">
        <ele>185</ele>
        <time>2018-09-23 09:17:17</time>
      </trkpt>
      <trkpt lat="48.94875" lon="0.20286">
        <ele>185</ele>
        <time>2018-09-23 09:17:19</time>
      </trkpt>
      <trkpt lat="48.94874" lon="0.20295">
        <ele>185</ele>
        <time>2018-09-23 09:17:21</time>
      </trkpt>
      <trkpt lat="48.94873" lon="0.20303">
        <ele>186</ele>
        <time>2018-09-23 09:17:23</time>
      </trkpt>
      <trkpt lat="48.94871" lon="0.20317">
        <ele>187</ele>
        <time>2018-09-23 09:17:25</time>
      </trkpt>
      <trkpt lat="48.94871" lon="0.20322">
        <ele>187</ele>
        <time>2018-09-23 09:17:26</time>
      </trkpt>
      <trkpt lat="48.9487" lon="0.20326">
        <ele>187</ele>
        <time>2018-09-23 09:17:27</time>
      </trkpt>
      <trkpt lat="48.94871" lon="0.20336">
        <ele>187</ele>
        <time>2018-09-23 09:17:30</time>
      </trkpt>
      <trkpt lat="48.94872" lon="0.20348">
        <ele>188</ele>
        <time>2018-09-23 09:17:31</time>
      </trkpt>
      <trkpt lat="48.94874" lon="0.20358">
        <ele>188</ele>
        <time>2018-09-23 09:17:33</time>
      </trkpt>
      <trkpt lat="48.94875" lon="0.20367">
        <ele>188</ele>
        <time>2018-09-23 09:17:35</time>
      </trkpt>
      <trkpt lat="48.94876" lon="0.20372">
        <ele>188</ele>
        <time>2018-09-23 09:17:36</time>
      </trkpt>
      <trkpt lat="48.94877" lon="0.20377">
        <ele>189</ele>
        <time>2018-09-23 09:17:37</time>
      </trkpt>
      <trkpt lat="48.9488" lon="0.20387">
        <ele>189</ele>
        <time>2018-09-23 09:17:39</time>
      </trkpt>
      <trkpt lat="48.94883" lon="0.20398">
        <ele>189</ele>
        <time>2018-09-23 09:17:41</time>
      </trkpt>
      <trkpt lat="48.94886" lon="0.20407">
        <ele>190</ele>
        <time>2018-09-23 09:17:43</time>
      </trkpt>
      <trkpt lat="48.94889" lon="0.20417">
        <ele>190</ele>
        <time>2018-09-23 09:17:45</time>
      </trkpt>
      <trkpt lat="48.94892" lon="0.20426">
        <ele>191</ele>
        <time>2018-09-23 09:17:47</time>
      </trkpt>
      <trkpt lat="48.94894" lon="0.20436">
        <ele>191</ele>
        <time>2018-09-23 09:17:49</time>
      </trkpt>
      <trkpt lat="48.94895" lon="0.20441">
        <ele>191</ele>
        <time>2018-09-23 09:17:50</time>
      </trkpt>
      <trkpt lat="48.94897" lon="0.20445">
        <ele>191</ele>
        <time>2018-09-23 09:17:51</time>
      </trkpt>
      <trkpt lat="48.94898" lon="0.20455">
        <ele>191</ele>
        <time>2018-09-23 09:17:53</time>
      </trkpt>
      <trkpt lat="48.94901" lon="0.20465">
        <ele>191</ele>
        <time>2018-09-23 09:17:55</time>
      </trkpt>
      <trkpt lat="48.94902" lon="0.20476">
        <ele>191</ele>
        <time>2018-09-23 09:17:57</time>
      </trkpt>
      <trkpt lat="48.94905" lon="0.20486">
        <ele>191</ele>
        <time>2018-09-23 09:17:59</time>
      </trkpt>
      <trkpt lat="48.94909" lon="0.20496">
        <ele>191</ele>
        <time>2018-09-23 09:18:01</time>
      </trkpt>
      <trkpt lat="48.94913" lon="0.20505">
        <ele>192</ele>
        <time>2018-09-23 09:18:03</time>
      </trkpt>
      <trkpt lat="48.94917" lon="0.20514">
        <ele>192</ele>
        <time>2018-09-23 09:18:05</time>
      </trkpt>
      <trkpt lat="48.94922" lon="0.20524">
        <ele>192</ele>
        <time>2018-09-23 09:18:07</time>
      </trkpt>
      <trkpt lat="48.94925" lon="0.20534">
        <ele>193</ele>
        <time>2018-09-23 09:18:09</time>
      </trkpt>
      <trkpt lat="48.94928" lon="0.20546">
        <ele>193</ele>
        <time>2018-09-23 09:18:11</time>
      </trkpt>
      <trkpt lat="48.94929" lon="0.20556">
        <ele>193</ele>
        <time>2018-09-23 09:18:13</time>
      </trkpt>
      <trkpt lat="48.94931" lon="0.20567">
        <ele>193</ele>
        <time>2018-09-23 09:18:15</time>
      </trkpt>
      <trkpt lat="48.94933" lon="0.20579">
        <ele>193</ele>
        <time>2018-09-23 09:18:17</time>
      </trkpt>
      <trkpt lat="48.94936" lon="0.20591">
        <ele>193</ele>
        <time>2018-09-23 09:18:19</time>
      </trkpt>
      <trkpt lat="48.94941" lon="0.20605">
        <ele>193</ele>
        <time>2018-09-23 09:18:21</time>
      </trkpt>
      <trkpt lat="48.94946" lon="0.20619">
        <ele>193</ele>
        <time>2018-09-23 09:18:23</time>
      </trkpt>
      <trkpt lat="48.9495" lon="0.20632">
        <ele>193</ele>
        <time>2018-09-23 09:18:25</time>
      </trkpt>
      <trkpt lat="48.94953" lon="0.2065">
        <ele>193</ele>
        <time>2018-09-23 09:18:27</time>
      </trkpt>
      <trkpt lat="48.94957" lon="0.20666">
        <ele>193</ele>
        <time>2018-09-23 09:18:29</time>
      </trkpt>
      <trkpt lat="48.9496" lon="0.2068">
        <ele>194</ele>
        <time>2018-09-23 09:18:31</time>
      </trkpt>
      <trkpt lat="48.94962" lon="0.20695">
        <ele>194</ele>
        <time>2018-09-23 09:18:33</time>
      </trkpt>
      <trkpt lat="48.94963" lon="0.20708">
        <ele>194</ele>
        <time>2018-09-23 09:18:35</time>
      </trkpt>
      <trkpt lat="48.94964" lon="0.20723">
        <ele>194</ele>
        <time>2018-09-23 09:18:37</time>
      </trkpt>
      <trkpt lat="48.94966" lon="0.20739">
        <ele>194</ele>
        <time>2018-09-23 09:18:39</time>
      </trkpt>
      <trkpt lat="48.94967" lon="0.20752">
        <ele>194</ele>
        <time>2018-09-23 09:18:41</time>
      </trkpt>
      <trkpt lat="48.9497" lon="0.20767">
        <ele>194</ele>
        <time>2018-09-23 09:18:43</time>
      </trkpt>
      <trkpt lat="48.94972" lon="0.20782">
        <ele>194</ele>
        <time>2018-09-23 09:18:45</time>
      </trkpt>
      <trkpt lat="48.94975" lon="0.20798">
        <ele>194</ele>
        <time>2018-09-23 09:18:47</time>
      </trkpt>
      <trkpt lat="48.94976" lon="0.20814">
        <ele>194</ele>
        <time>2018-09-23 09:18:49</time>
      </trkpt>
      <trkpt lat="48.94978" lon="0.20828">
        <ele>194</ele>
        <time>2018-09-23 09:18:51</time>
      </trkpt>
      <trkpt lat="48.94978" lon="0.20834">
        <ele>194</ele>
        <time>2018-09-23 09:18:52</time>
      </trkpt>
      <trkpt lat="48.94978" lon="0.20847">
        <ele>195</ele>
        <time>2018-09-23 09:18:54</time>
      </trkpt>
      <trkpt lat="48.94979" lon="0.20861">
        <ele>195</ele>
        <time>2018-09-23 09:18:56</time>
      </trkpt>
      <trkpt lat="48.9498" lon="0.20868">
        <ele>195</ele>
        <time>2018-09-23 09:18:57</time>
      </trkpt>
      <trkpt lat="48.94981" lon="0.20886">
        <ele>195</ele>
        <time>2018-09-23 09:18:59</time>
      </trkpt>
      <trkpt lat="48.94982" lon="0.20903">
        <ele>195</ele>
        <time>2018-09-23 09:19:01</time>
      </trkpt>
      <trkpt lat="48.94984" lon="0.20919">
        <ele>195</ele>
        <time>2018-09-23 09:19:03</time>
      </trkpt>
      <trkpt lat="48.9499" lon="0.20937">
        <ele>195</ele>
        <time>2018-09-23 09:19:05</time>
      </trkpt>
      <trkpt lat="48.94993" lon="0.20945">
        <ele>195</ele>
        <time>2018-09-23 09:19:06</time>
      </trkpt>
      <trkpt lat="48.94995" lon="0.20952">
        <ele>196</ele>
        <time>2018-09-23 09:19:07</time>
      </trkpt>
      <trkpt lat="48.95001" lon="0.20965">
        <ele>196</ele>
        <time>2018-09-23 09:19:09</time>
      </trkpt>
      <trkpt lat="48.95008" lon="0.20976">
        <ele>196</ele>
        <time>2018-09-23 09:19:11</time>
      </trkpt>
      <trkpt lat="48.95013" lon="0.20984">
        <ele>196</ele>
        <time>2018-09-23 09:19:13</time>
      </trkpt>
      <trkpt lat="48.95018" lon="0.20989">
        <ele>195</ele>
        <time>2018-09-23 09:19:15</time>
      </trkpt>
      <trkpt lat="48.95026" lon="0.20991">
        <ele>195</ele>
        <time>2018-09-23 09:19:17</time>
      </trkpt>
      <trkpt lat="48.95036" lon="0.20994">
        <ele>195</ele>
        <time>2018-09-23 09:19:19</time>
      </trkpt>
      <trkpt lat="48.95047" lon="0.20998">
        <ele>194</ele>
        <time>2018-09-23 09:19:21</time>
      </trkpt>
      <trkpt lat="48.95057" lon="0.21">
        <ele>194</ele>
        <time>2018-09-23 09:19:23</time>
      </trkpt>
      <trkpt lat="48.95061" lon="0.21001">
        <ele>193</ele>
        <time>2018-09-23 09:19:24</time>
      </trkpt>
      <trkpt lat="48.9507" lon="0.21001">
        <ele>194</ele>
        <time>2018-09-23 09:19:26</time>
      </trkpt>
      <trkpt lat="48.95074" lon="0.21002">
        <ele>194</ele>
        <time>2018-09-23 09:19:27</time>
      </trkpt>
      <trkpt lat="48.95083" lon="0.2101">
        <ele>194</ele>
        <time>2018-09-23 09:19:29</time>
      </trkpt>
      <trkpt lat="48.95092" lon="0.21018">
        <ele>194</ele>
        <time>2018-09-23 09:19:31</time>
      </trkpt>
      <trkpt lat="48.95101" lon="0.21028">
        <ele>194</ele>
        <time>2018-09-23 09:19:33</time>
      </trkpt>
      <trkpt lat="48.95105" lon="0.21035">
        <ele>193</ele>
        <time>2018-09-23 09:19:34</time>
      </trkpt>
      <trkpt lat="48.95111" lon="0.21052">
        <ele>193</ele>
        <time>2018-09-23 09:19:36</time>
      </trkpt>
      <trkpt lat="48.95117" lon="0.21069">
        <ele>193</ele>
        <time>2018-09-23 09:19:38</time>
      </trkpt>
      <trkpt lat="48.9512" lon="0.21077">
        <ele>192</ele>
        <time>2018-09-23 09:19:39</time>
      </trkpt>
      <trkpt lat="48.95125" lon="0.21094">
        <ele>192</ele>
        <time>2018-09-23 09:19:41</time>
      </trkpt>
      <trkpt lat="48.9513" lon="0.2111">
        <ele>191</ele>
        <time>2018-09-23 09:19:43</time>
      </trkpt>
      <trkpt lat="48.95133" lon="0.21126">
        <ele>191</ele>
        <time>2018-09-23 09:19:45</time>
      </trkpt>
      <trkpt lat="48.95136" lon="0.21142">
        <ele>190</ele>
        <time>2018-09-23 09:19:47</time>
      </trkpt>
      <trkpt lat="48.9514" lon="0.21158">
        <ele>190</ele>
        <time>2018-09-23 09:19:49</time>
      </trkpt>
      <trkpt lat="48.95143" lon="0.21174">
        <ele>189</ele>
        <time>2018-09-23 09:19:51</time>
      </trkpt>
      <trkpt lat="48.95148" lon="0.21189">
        <ele>189</ele>
        <time>2018-09-23 09:19:53</time>
      </trkpt>
      <trkpt lat="48.95155" lon="0.21201">
        <ele>189</ele>
        <time>2018-09-23 09:19:55</time>
      </trkpt>
      <trkpt lat="48.95162" lon="0.21211">
        <ele>188</ele>
        <time>2018-09-23 09:19:57</time>
      </trkpt>
      <trkpt lat="48.9517" lon="0.21223">
        <ele>188</ele>
        <time>2018-09-23 09:19:59</time>
      </trkpt>
      <trkpt lat="48.95181" lon="0.21237">
        <ele>188</ele>
        <time>2018-09-23 09:20:01</time>
      </trkpt>
      <trkpt lat="48.9519" lon="0.21248">
        <ele>188</ele>
        <time>2018-09-23 09:20:03</time>
      </trkpt>
      <trkpt lat="48.95197" lon="0.21259">
        <ele>188</ele>
        <time>2018-09-23 09:20:05</time>
      </trkpt>
      <trkpt lat="48.95206" lon="0.21271">
        <ele>187</ele>
        <time>2018-09-23 09:20:07</time>
      </trkpt>
      <trkpt lat="48.95209" lon="0.21276">
        <ele>187</ele>
        <time>2018-09-23 09:20:08</time>
      </trkpt>
      <trkpt lat="48.95216" lon="0.21288">
        <ele>187</ele>
        <time>2018-09-23 09:20:10</time>
      </trkpt>
      <trkpt lat="48.95221" lon="0.21303">
        <ele>187</ele>
        <time>2018-09-23 09:20:12</time>
      </trkpt>
      <trkpt lat="48.95223" lon="0.2131">
        <ele>187</ele>
        <time>2018-09-23 09:20:13</time>
      </trkpt>
      <trkpt lat="48.95225" lon="0.21324">
        <ele>187</ele>
        <time>2018-09-23 09:20:15</time>
      </trkpt>
      <trkpt lat="48.95226" lon="0.21336">
        <ele>186</ele>
        <time>2018-09-23 09:20:17</time>
      </trkpt>
      <trkpt lat="48.95226" lon="0.21351">
        <ele>186</ele>
        <time>2018-09-23 09:20:19</time>
      </trkpt>
      <trkpt lat="48.95226" lon="0.21364">
        <ele>185</ele>
        <time>2018-09-23 09:20:21</time>
      </trkpt>
      <trkpt lat="48.95226" lon="0.21377">
        <ele>184</ele>
        <time>2018-09-23 09:20:23</time>
      </trkpt>
      <trkpt lat="48.95227" lon="0.2139">
        <ele>184</ele>
        <time>2018-09-23 09:20:25</time>
      </trkpt>
      <trkpt lat="48.95229" lon="0.21404">
        <ele>183</ele>
        <time>2018-09-23 09:20:27</time>
      </trkpt>
      <trkpt lat="48.95231" lon="0.21419">
        <ele>183</ele>
        <time>2018-09-23 09:20:29</time>
      </trkpt>
      <trkpt lat="48.95232" lon="0.21426">
        <ele>183</ele>
        <time>2018-09-23 09:20:30</time>
      </trkpt>
      <trkpt lat="48.95234" lon="0.21446">
        <ele>183</ele>
        <time>2018-09-23 09:20:32</time>
      </trkpt>
      <trkpt lat="48.95236" lon="0.21455">
        <ele>182</ele>
        <time>2018-09-23 09:20:33</time>
      </trkpt>
      <trkpt lat="48.95238" lon="0.21473">
        <ele>182</ele>
        <time>2018-09-23 09:20:35</time>
      </trkpt>
      <trkpt lat="48.95238" lon="0.21488">
        <ele>182</ele>
        <time>2018-09-23 09:20:37</time>
      </trkpt>
      <trkpt lat="48.95239" lon="0.21502">
        <ele>182</ele>
        <time>2018-09-23 09:20:39</time>
      </trkpt>
      <trkpt lat="48.9524" lon="0.21516">
        <ele>182</ele>
        <time>2018-09-23 09:20:41</time>
      </trkpt>
      <trkpt lat="48.95242" lon="0.21531">
        <ele>181</ele>
        <time>2018-09-23 09:20:43</time>
      </trkpt>
      <trkpt lat="48.95244" lon="0.21546">
        <ele>181</ele>
        <time>2018-09-23 09:20:45</time>
      </trkpt>
      <trkpt lat="48.95246" lon="0.21562">
        <ele>181</ele>
        <time>2018-09-23 09:20:47</time>
      </trkpt>
      <trkpt lat="48.95247" lon="0.21574">
        <ele>181</ele>
        <time>2018-09-23 09:20:49</time>
      </trkpt>
      <trkpt lat="48.95248" lon="0.21589">
        <ele>180</ele>
        <time>2018-09-23 09:20:51</time>
      </trkpt>
      <trkpt lat="48.95249" lon="0.21604">
        <ele>180</ele>
        <time>2018-09-23 09:20:53</time>
      </trkpt>
      <trkpt lat="48.95249" lon="0.21623">
        <ele>180</ele>
        <time>2018-09-23 09:20:56</time>
      </trkpt>
      <trkpt lat="48.95249" lon="0.21629">
        <ele>180</ele>
        <time>2018-09-23 09:20:57</time>
      </trkpt>
      <trkpt lat="48.95248" lon="0.2164">
        <ele>179</ele>
        <time>2018-09-23 09:20:59</time>
      </trkpt>
      <trkpt lat="48.95247" lon="0.21652">
        <ele>179</ele>
        <time>2018-09-23 09:21:01</time>
      </trkpt>
      <trkpt lat="48.95248" lon="0.21668">
        <ele>179</ele>
        <time>2018-09-23 09:21:03</time>
      </trkpt>
      <trkpt lat="48.95249" lon="0.2168">
        <ele>179</ele>
        <time>2018-09-23 09:21:05</time>
      </trkpt>
      <trkpt lat="48.95248" lon="0.21685">
        <ele>178</ele>
        <time>2018-09-23 09:21:06</time>
      </trkpt>
      <trkpt lat="48.95247" lon="0.21694">
        <ele>179</ele>
        <time>2018-09-23 09:21:08</time>
      </trkpt>
      <trkpt lat="48.95246" lon="0.21699">
        <ele>179</ele>
        <time>2018-09-23 09:21:09</time>
      </trkpt>
      <trkpt lat="48.95244" lon="0.21709">
        <ele>179</ele>
        <time>2018-09-23 09:21:11</time>
      </trkpt>
      <trkpt lat="48.95243" lon="0.2172">
        <ele>179</ele>
        <time>2018-09-23 09:21:13</time>
      </trkpt>
      <trkpt lat="48.95244" lon="0.21732">
        <ele>179</ele>
        <time>2018-09-23 09:21:15</time>
      </trkpt>
      <trkpt lat="48.95244" lon="0.21745">
        <ele>179</ele>
        <time>2018-09-23 09:21:17</time>
      </trkpt>
      <trkpt lat="48.95245" lon="0.21755">
        <ele>180</ele>
        <time>2018-09-23 09:21:19</time>
      </trkpt>
      <trkpt lat="48.95244" lon="0.21767">
        <ele>180</ele>
        <time>2018-09-23 09:21:21</time>
      </trkpt>
      <trkpt lat="48.95246" lon="0.21779">
        <ele>180</ele>
        <time>2018-09-23 09:21:23</time>
      </trkpt>
      <trkpt lat="48.95246" lon="0.21793">
        <ele>180</ele>
        <time>2018-09-23 09:21:25</time>
      </trkpt>
      <trkpt lat="48.95247" lon="0.21806">
        <ele>180</ele>
        <time>2018-09-23 09:21:28</time>
      </trkpt>
      <trkpt lat="48.95248" lon="0.21819">
        <ele>181</ele>
        <time>2018-09-23 09:21:29</time>
      </trkpt>
      <trkpt lat="48.95249" lon="0.21827">
        <ele>181</ele>
        <time>2018-09-23 09:21:30</time>
      </trkpt>
      <trkpt lat="48.95249" lon="0.21845">
        <ele>181</ele>
        <time>2018-09-23 09:21:32</time>
      </trkpt>
      <trkpt lat="48.9525" lon="0.21858">
        <ele>181</ele>
        <time>2018-09-23 09:21:33</time>
      </trkpt>
      <trkpt lat="48.95251" lon="0.21882">
        <ele>181</ele>
        <time>2018-09-23 09:21:35</time>
      </trkpt>
      <trkpt lat="48.9525" lon="0.21898">
        <ele>181</ele>
        <time>2018-09-23 09:21:37</time>
      </trkpt>
      <trkpt lat="48.95249" lon="0.21914">
        <ele>181</ele>
        <time>2018-09-23 09:21:39</time>
      </trkpt>
      <trkpt lat="48.95247" lon="0.21929">
        <ele>180</ele>
        <time>2018-09-23 09:21:41</time>
      </trkpt>
      <trkpt lat="48.95247" lon="0.21945">
        <ele>180</ele>
        <time>2018-09-23 09:21:43</time>
      </trkpt>
      <trkpt lat="48.95247" lon="0.21961">
        <ele>180</ele>
        <time>2018-09-23 09:21:45</time>
      </trkpt>
      <trkpt lat="48.95247" lon="0.21976">
        <ele>180</ele>
        <time>2018-09-23 09:21:48</time>
      </trkpt>
      <trkpt lat="48.95247" lon="0.2199">
        <ele>180</ele>
        <time>2018-09-23 09:21:49</time>
      </trkpt>
      <trkpt lat="48.95247" lon="0.21996">
        <ele>180</ele>
        <time>2018-09-23 09:21:50</time>
      </trkpt>
      <trkpt lat="48.95246" lon="0.22001">
        <ele>181</ele>
        <time>2018-09-23 09:21:51</time>
      </trkpt>
      <trkpt lat="48.95242" lon="0.22011">
        <ele>181</ele>
        <time>2018-09-23 09:21:53</time>
      </trkpt>
      <trkpt lat="48.95239" lon="0.22016">
        <ele>181</ele>
        <time>2018-09-23 09:21:54</time>
      </trkpt>
      <trkpt lat="48.95234" lon="0.22027">
        <ele>182</ele>
        <time>2018-09-23 09:21:56</time>
      </trkpt>
      <trkpt lat="48.95231" lon="0.22031">
        <ele>182</ele>
        <time>2018-09-23 09:21:57</time>
      </trkpt>
      <trkpt lat="48.95227" lon="0.22041">
        <ele>182</ele>
        <time>2018-09-23 09:21:59</time>
      </trkpt>
      <trkpt lat="48.95222" lon="0.22052">
        <ele>182</ele>
        <time>2018-09-23 09:22:01</time>
      </trkpt>
      <trkpt lat="48.95218" lon="0.22063">
        <ele>182</ele>
        <time>2018-09-23 09:22:03</time>
      </trkpt>
      <trkpt lat="48.95216" lon="0.22078">
        <ele>183</ele>
        <time>2018-09-23 09:22:05</time>
      </trkpt>
      <trkpt lat="48.95213" lon="0.22094">
        <ele>183</ele>
        <time>2018-09-23 09:22:07</time>
      </trkpt>
      <trkpt lat="48.95212" lon="0.22109">
        <ele>183</ele>
        <time>2018-09-23 09:22:09</time>
      </trkpt>
      <trkpt lat="48.95212" lon="0.22116">
        <ele>183</ele>
        <time>2018-09-23 09:22:10</time>
      </trkpt>
      <trkpt lat="48.95212" lon="0.22129">
        <ele>183</ele>
        <time>2018-09-23 09:22:12</time>
      </trkpt>
      <trkpt lat="48.95211" lon="0.22138">
        <ele>183</ele>
        <time>2018-09-23 09:22:14</time>
      </trkpt>
      <trkpt lat="48.9521" lon="0.22141">
        <ele>184</ele>
        <time>2018-09-23 09:22:15</time>
      </trkpt>
      <trkpt lat="48.95209" lon="0.22146">
        <ele>184</ele>
        <time>2018-09-23 09:22:17</time>
      </trkpt>
      <trkpt lat="48.95209" lon="0.22147">
        <ele>185</ele>
        <time>2018-09-23 09:22:19</time>
      </trkpt>
      <trkpt lat="48.95209" lon="0.22148">
        <ele>185</ele>
        <time>2018-09-23 09:22:20</time>
      </trkpt>
      <trkpt lat="48.95219" lon="0.22145">
        <ele>189</ele>
        <time>2018-09-23 09:22:22</time>
      </trkpt>
      <trkpt lat="48.95225" lon="0.22136">
        <ele>190</ele>
        <time>2018-09-23 09:22:24</time>
      </trkpt>
      <trkpt lat="48.95234" lon="0.22124">
        <ele>190</ele>
        <time>2018-09-23 09:22:26</time>
      </trkpt>
      <trkpt lat="48.95244" lon="0.22111">
        <ele>190</ele>
        <time>2018-09-23 09:22:28</time>
      </trkpt>
      <trkpt lat="48.95255" lon="0.22098">
        <ele>192</ele>
        <time>2018-09-23 09:22:30</time>
      </trkpt>
      <trkpt lat="48.95265" lon="0.22086">
        <ele>192</ele>
        <time>2018-09-23 09:22:32</time>
      </trkpt>
      <trkpt lat="48.95274" lon="0.22076">
        <ele>193</ele>
        <time>2018-09-23 09:22:34</time>
      </trkpt>
      <trkpt lat="48.95285" lon="0.22067">
        <ele>193</ele>
        <time>2018-09-23 09:22:36</time>
      </trkpt>
      <trkpt lat="48.95295" lon="0.22057">
        <ele>193</ele>
        <time>2018-09-23 09:22:38</time>
      </trkpt>
      <trkpt lat="48.95305" lon="0.22048">
        <ele>194</ele>
        <time>2018-09-23 09:22:40</time>
      </trkpt>
      <trkpt lat="48.95316" lon="0.22042">
        <ele>194</ele>
        <time>2018-09-23 09:22:42</time>
      </trkpt>
      <trkpt lat="48.95325" lon="0.22034">
        <ele>194</ele>
        <time>2018-09-23 09:22:44</time>
      </trkpt>
      <trkpt lat="48.95331" lon="0.22029">
        <ele>193</ele>
        <time>2018-09-23 09:22:45</time>
      </trkpt>
      <trkpt lat="48.95341" lon="0.22019">
        <ele>193</ele>
        <time>2018-09-23 09:22:47</time>
      </trkpt>
      <trkpt lat="48.95345" lon="0.22013">
        <ele>194</ele>
        <time>2018-09-23 09:22:48</time>
      </trkpt>
      <trkpt lat="48.95352" lon="0.21999">
        <ele>194</ele>
        <time>2018-09-23 09:22:50</time>
      </trkpt>
      <trkpt lat="48.95359" lon="0.21983">
        <ele>194</ele>
        <time>2018-09-23 09:22:52</time>
      </trkpt>
      <trkpt lat="48.95365" lon="0.21969">
        <ele>195</ele>
        <time>2018-09-23 09:22:54</time>
      </trkpt>
      <trkpt lat="48.95374" lon="0.21956">
        <ele>195</ele>
        <time>2018-09-23 09:22:56</time>
      </trkpt>
      <trkpt lat="48.95388" lon="0.2194">
        <ele>194</ele>
        <time>2018-09-23 09:22:58</time>
      </trkpt>
      <trkpt lat="48.95399" lon="0.21927">
        <ele>194</ele>
        <time>2018-09-23 09:23:00</time>
      </trkpt>
      <trkpt lat="48.95412" lon="0.21915">
        <ele>194</ele>
        <time>2018-09-23 09:23:02</time>
      </trkpt>
      <trkpt lat="48.95423" lon="0.21903">
        <ele>194</ele>
        <time>2018-09-23 09:23:04</time>
      </trkpt>
      <trkpt lat="48.9543" lon="0.21888">
        <ele>194</ele>
        <time>2018-09-23 09:23:07</time>
      </trkpt>
      <trkpt lat="48.95437" lon="0.21871">
        <ele>194</ele>
        <time>2018-09-23 09:23:08</time>
      </trkpt>
      <trkpt lat="48.95444" lon="0.21852">
        <ele>193</ele>
        <time>2018-09-23 09:23:10</time>
      </trkpt>
      <trkpt lat="48.9545" lon="0.21832">
        <ele>192</ele>
        <time>2018-09-23 09:23:12</time>
      </trkpt>
      <trkpt lat="48.95457" lon="0.21813">
        <ele>192</ele>
        <time>2018-09-23 09:23:14</time>
      </trkpt>
      <trkpt lat="48.95461" lon="0.21804">
        <ele>192</ele>
        <time>2018-09-23 09:23:15</time>
      </trkpt>
      <trkpt lat="48.95471" lon="0.21784">
        <ele>191</ele>
        <time>2018-09-23 09:23:17</time>
      </trkpt>
      <trkpt lat="48.95476" lon="0.21774">
        <ele>191</ele>
        <time>2018-09-23 09:23:18</time>
      </trkpt>
      <trkpt lat="48.95486" lon="0.21756">
        <ele>191</ele>
        <time>2018-09-23 09:23:20</time>
      </trkpt>
      <trkpt lat="48.95497" lon="0.21738">
        <ele>190</ele>
        <time>2018-09-23 09:23:22</time>
      </trkpt>
      <trkpt lat="48.95508" lon="0.21718">
        <ele>189</ele>
        <time>2018-09-23 09:23:24</time>
      </trkpt>
      <trkpt lat="48.95518" lon="0.21693">
        <ele>187</ele>
        <time>2018-09-23 09:23:26</time>
      </trkpt>
      <trkpt lat="48.95527" lon="0.21669">
        <ele>185</ele>
        <time>2018-09-23 09:23:28</time>
      </trkpt>
      <trkpt lat="48.95536" lon="0.21645">
        <ele>184</ele>
        <time>2018-09-23 09:23:30</time>
      </trkpt>
      <trkpt lat="48.95546" lon="0.21619">
        <ele>183</ele>
        <time>2018-09-23 09:23:32</time>
      </trkpt>
      <trkpt lat="48.95555" lon="0.21592">
        <ele>182</ele>
        <time>2018-09-23 09:23:34</time>
      </trkpt>
      <trkpt lat="48.9556" lon="0.21563">
        <ele>181</ele>
        <time>2018-09-23 09:23:36</time>
      </trkpt>
      <trkpt lat="48.95564" lon="0.21532">
        <ele>179</ele>
        <time>2018-09-23 09:23:38</time>
      </trkpt>
      <trkpt lat="48.95566" lon="0.21507">
        <ele>178</ele>
        <time>2018-09-23 09:23:40</time>
      </trkpt>
      <trkpt lat="48.9557" lon="0.21486">
        <ele>176</ele>
        <time>2018-09-23 09:23:42</time>
      </trkpt>
      <trkpt lat="48.95573" lon="0.21471">
        <ele>174</ele>
        <time>2018-09-23 09:23:44</time>
      </trkpt>
      <trkpt lat="48.95579" lon="0.21461">
        <ele>172</ele>
        <time>2018-09-23 09:23:46</time>
      </trkpt>
      <trkpt lat="48.95586" lon="0.21457">
        <ele>171</ele>
        <time>2018-09-23 09:23:48</time>
      </trkpt>
      <trkpt lat="48.95595" lon="0.21452">
        <ele>170</ele>
        <time>2018-09-23 09:23:50</time>
      </trkpt>
      <trkpt lat="48.95607" lon="0.21446">
        <ele>169</ele>
        <time>2018-09-23 09:23:52</time>
      </trkpt>
      <trkpt lat="48.95614" lon="0.21442">
        <ele>168</ele>
        <time>2018-09-23 09:23:53</time>
      </trkpt>
      <trkpt lat="48.95621" lon="0.21438">
        <ele>167</ele>
        <time>2018-09-23 09:23:54</time>
      </trkpt>
      <trkpt lat="48.95635" lon="0.21426">
        <ele>166</ele>
        <time>2018-09-23 09:23:56</time>
      </trkpt>
      <trkpt lat="48.95643" lon="0.21418">
        <ele>166</ele>
        <time>2018-09-23 09:23:57</time>
      </trkpt>
      <trkpt lat="48.95651" lon="0.21411">
        <ele>165</ele>
        <time>2018-09-23 09:23:58</time>
      </trkpt>
      <trkpt lat="48.95666" lon="0.21397">
        <ele>164</ele>
        <time>2018-09-23 09:24:00</time>
      </trkpt>
      <trkpt lat="48.9568" lon="0.21383">
        <ele>163</ele>
        <time>2018-09-23 09:24:02</time>
      </trkpt>
      <trkpt lat="48.95692" lon="0.21371">
        <ele>162</ele>
        <time>2018-09-23 09:24:04</time>
      </trkpt>
      <trkpt lat="48.95702" lon="0.21363">
        <ele>161</ele>
        <time>2018-09-23 09:24:06</time>
      </trkpt>
      <trkpt lat="48.95712" lon="0.21355">
        <ele>160</ele>
        <time>2018-09-23 09:24:08</time>
      </trkpt>
      <trkpt lat="48.95722" lon="0.21348">
        <ele>159</ele>
        <time>2018-09-23 09:24:11</time>
      </trkpt>
      <trkpt lat="48.95729" lon="0.21342">
        <ele>157</ele>
        <time>2018-09-23 09:24:12</time>
      </trkpt>
      <trkpt lat="48.95735" lon="0.21335">
        <ele>156</ele>
        <time>2018-09-23 09:24:14</time>
      </trkpt>
      <trkpt lat="48.95736" lon="0.2133">
        <ele>155</ele>
        <time>2018-09-23 09:24:15</time>
      </trkpt>
      <trkpt lat="48.95734" lon="0.21318">
        <ele>153</ele>
        <time>2018-09-23 09:24:17</time>
      </trkpt>
      <trkpt lat="48.95731" lon="0.21311">
        <ele>152</ele>
        <time>2018-09-23 09:24:18</time>
      </trkpt>
      <trkpt lat="48.95726" lon="0.21295">
        <ele>151</ele>
        <time>2018-09-23 09:24:20</time>
      </trkpt>
      <trkpt lat="48.95722" lon="0.21285">
        <ele>149</ele>
        <time>2018-09-23 09:24:22</time>
      </trkpt>
      <trkpt lat="48.95721" lon="0.21283">
        <ele>149</ele>
        <time>2018-09-23 09:24:23</time>
      </trkpt>
      <trkpt lat="48.95721" lon="0.2128">
        <ele>148</ele>
        <time>2018-09-23 09:24:24</time>
      </trkpt>
      <trkpt lat="48.95723" lon="0.21277">
        <ele>148</ele>
        <time>2018-09-23 09:24:26</time>
      </trkpt>
      <trkpt lat="48.95726" lon="0.21272">
        <ele>147</ele>
        <time>2018-09-23 09:24:29</time>
      </trkpt>
      <trkpt lat="48.95727" lon="0.21264">
        <ele>146</ele>
        <time>2018-09-23 09:24:30</time>
      </trkpt>
      <trkpt lat="48.9573" lon="0.21256">
        <ele>145</ele>
        <time>2018-09-23 09:24:32</time>
      </trkpt>
      <trkpt lat="48.95734" lon="0.2125">
        <ele>145</ele>
        <time>2018-09-23 09:24:34</time>
      </trkpt>
      <trkpt lat="48.95739" lon="0.21248">
        <ele>144</ele>
        <time>2018-09-23 09:24:36</time>
      </trkpt>
      <trkpt lat="48.95745" lon="0.21246">
        <ele>143</ele>
        <time>2018-09-23 09:24:38</time>
      </trkpt>
      <trkpt lat="48.95752" lon="0.21245">
        <ele>142</ele>
        <time>2018-09-23 09:24:40</time>
      </trkpt>
      <trkpt lat="48.95758" lon="0.21244">
        <ele>140</ele>
        <time>2018-09-23 09:24:42</time>
      </trkpt>
      <trkpt lat="48.95761" lon="0.21244">
        <ele>140</ele>
        <time>2018-09-23 09:24:43</time>
      </trkpt>
      <trkpt lat="48.95766" lon="0.21243">
        <ele>138</ele>
        <time>2018-09-23 09:24:45</time>
      </trkpt>
      <trkpt lat="48.95771" lon="0.21241">
        <ele>138</ele>
        <time>2018-09-23 09:24:47</time>
      </trkpt>
      <trkpt lat="48.95773" lon="0.2124">
        <ele>137</ele>
        <time>2018-09-23 09:24:48</time>
      </trkpt>
      <trkpt lat="48.95777" lon="0.2124">
        <ele>137</ele>
        <time>2018-09-23 09:24:50</time>
      </trkpt>
      <trkpt lat="48.95783" lon="0.21239">
        <ele>136</ele>
        <time>2018-09-23 09:24:52</time>
      </trkpt>
      <trkpt lat="48.95787" lon="0.21238">
        <ele>136</ele>
        <time>2018-09-23 09:24:53</time>
      </trkpt>
      <trkpt lat="48.9579" lon="0.21237">
        <ele>136</ele>
        <time>2018-09-23 09:24:54</time>
      </trkpt>
      <trkpt lat="48.95796" lon="0.21236">
        <ele>136</ele>
        <time>2018-09-23 09:24:56</time>
      </trkpt>
      <trkpt lat="48.95803" lon="0.21234">
        <ele>135</ele>
        <time>2018-09-23 09:24:58</time>
      </trkpt>
      <trkpt lat="48.95807" lon="0.21234">
        <ele>135</ele>
        <time>2018-09-23 09:24:59</time>
      </trkpt>
      <trkpt lat="48.95815" lon="0.21232">
        <ele>133</ele>
        <time>2018-09-23 09:25:01</time>
      </trkpt>
      <trkpt lat="48.95819" lon="0.2123">
        <ele>133</ele>
        <time>2018-09-23 09:25:02</time>
      </trkpt>
      <trkpt lat="48.95826" lon="0.21227">
        <ele>132</ele>
        <time>2018-09-23 09:25:04</time>
      </trkpt>
      <trkpt lat="48.95833" lon="0.21221">
        <ele>131</ele>
        <time>2018-09-23 09:25:06</time>
      </trkpt>
      <trkpt lat="48.95837" lon="0.21218">
        <ele>129</ele>
        <time>2018-09-23 09:25:08</time>
      </trkpt>
      <trkpt lat="48.95839" lon="0.21215">
        <ele>128</ele>
        <time>2018-09-23 09:25:10</time>
      </trkpt>
      <trkpt lat="48.9584" lon="0.21214">
        <ele>127</ele>
        <time>2018-09-23 09:25:11</time>
      </trkpt>
      <trkpt lat="48.95842" lon="0.21211">
        <ele>126</ele>
        <time>2018-09-23 09:25:13</time>
      </trkpt>
      <trkpt lat="48.95844" lon="0.21209">
        <ele>125</ele>
        <time>2018-09-23 09:25:15</time>
      </trkpt>
      <trkpt lat="48.95844" lon="0.21209">
        <ele>125</ele>
        <time>2018-09-23 09:25:17</time>
      </trkpt>
      <trkpt lat="48.95855" lon="0.21198">
        <ele>130</ele>
        <time>2018-09-23 09:25:20</time>
      </trkpt>
      <trkpt lat="48.95858" lon="0.21192">
        <ele>130</ele>
        <time>2018-09-23 09:25:22</time>
      </trkpt>
      <trkpt lat="48.95861" lon="0.2119">
        <ele>130</ele>
        <time>2018-09-23 09:25:24</time>
      </trkpt>
      <trkpt lat="48.95864" lon="0.21187">
        <ele>130</ele>
        <time>2018-09-23 09:25:26</time>
      </trkpt>
      <trkpt lat="48.95867" lon="0.21187">
        <ele>130</ele>
        <time>2018-09-23 09:25:27</time>
      </trkpt>
      <trkpt lat="48.95871" lon="0.21184">
        <ele>130</ele>
        <time>2018-09-23 09:25:29</time>
      </trkpt>
      <trkpt lat="48.95873" lon="0.21183">
        <ele>131</ele>
        <time>2018-09-23 09:25:30</time>
      </trkpt>
      <trkpt lat="48.95877" lon="0.21182">
        <ele>131</ele>
        <time>2018-09-23 09:25:32</time>
      </trkpt>
      <trkpt lat="48.95879" lon="0.21181">
        <ele>131</ele>
        <time>2018-09-23 09:25:33</time>
      </trkpt>
      <trkpt lat="48.95882" lon="0.21179">
        <ele>131</ele>
        <time>2018-09-23 09:25:35</time>
      </trkpt>
      <trkpt lat="48.95882" lon="0.21177">
        <ele>132</ele>
        <time>2018-09-23 09:25:37</time>
      </trkpt>
      <trkpt lat="48.9589" lon="0.21166">
        <ele>133</ele>
        <time>2018-09-23 09:25:40</time>
      </trkpt>
      <trkpt lat="48.95892" lon="0.21161">
        <ele>133</ele>
        <time>2018-09-23 09:25:42</time>
      </trkpt>
      <trkpt lat="48.95893" lon="0.21157">
        <ele>133</ele>
        <time>2018-09-23 09:25:43</time>
      </trkpt>
      <trkpt lat="48.95895" lon="0.2115">
        <ele>133</ele>
        <time>2018-09-23 09:25:44</time>
      </trkpt>
      <trkpt lat="48.95901" lon="0.2114">
        <ele>133</ele>
        <time>2018-09-23 09:25:46</time>
      </trkpt>
      <trkpt lat="48.95904" lon="0.21133">
        <ele>134</ele>
        <time>2018-09-23 09:25:48</time>
      </trkpt>
      <trkpt lat="48.95905" lon="0.21127">
        <ele>134</ele>
        <time>2018-09-23 09:25:50</time>
      </trkpt>
      <trkpt lat="48.95904" lon="0.21119">
        <ele>135</ele>
        <time>2018-09-23 09:25:52</time>
      </trkpt>
      <trkpt lat="48.95904" lon="0.21111">
        <ele>135</ele>
        <time>2018-09-23 09:25:54</time>
      </trkpt>
      <trkpt lat="48.95905" lon="0.21102">
        <ele>136</ele>
        <time>2018-09-23 09:25:56</time>
      </trkpt>
      <trkpt lat="48.95903" lon="0.21092">
        <ele>137</ele>
        <time>2018-09-23 09:25:58</time>
      </trkpt>
      <trkpt lat="48.959" lon="0.21083">
        <ele>137</ele>
        <time>2018-09-23 09:26:00</time>
      </trkpt>
      <trkpt lat="48.95899" lon="0.21077">
        <ele>137</ele>
        <time>2018-09-23 09:26:01</time>
      </trkpt>
      <trkpt lat="48.95899" lon="0.21073">
        <ele>138</ele>
        <time>2018-09-23 09:26:02</time>
      </trkpt>
      <trkpt lat="48.95898" lon="0.21065">
        <ele>138</ele>
        <time>2018-09-23 09:26:04</time>
      </trkpt>
      <trkpt lat="48.95897" lon="0.21053">
        <ele>139</ele>
        <time>2018-09-23 09:26:06</time>
      </trkpt>
      <trkpt lat="48.95897" lon="0.21041">
        <ele>139</ele>
        <time>2018-09-23 09:26:08</time>
      </trkpt>
      <trkpt lat="48.95898" lon="0.21028">
        <ele>139</ele>
        <time>2018-09-23 09:26:10</time>
      </trkpt>
      <trkpt lat="48.95897" lon="0.21016">
        <ele>140</ele>
        <time>2018-09-23 09:26:12</time>
      </trkpt>
      <trkpt lat="48.95897" lon="0.21003">
        <ele>140</ele>
        <time>2018-09-23 09:26:14</time>
      </trkpt>
      <trkpt lat="48.95898" lon="0.20989">
        <ele>140</ele>
        <time>2018-09-23 09:26:16</time>
      </trkpt>
      <trkpt lat="48.95897" lon="0.20975">
        <ele>140</ele>
        <time>2018-09-23 09:26:18</time>
      </trkpt>
      <trkpt lat="48.95896" lon="0.2096">
        <ele>140</ele>
        <time>2018-09-23 09:26:20</time>
      </trkpt>
      <trkpt lat="48.95895" lon="0.20944">
        <ele>141</ele>
        <time>2018-09-23 09:26:22</time>
      </trkpt>
      <trkpt lat="48.95894" lon="0.2093">
        <ele>141</ele>
        <time>2018-09-23 09:26:24</time>
      </trkpt>
      <trkpt lat="48.95895" lon="0.20921">
        <ele>141</ele>
        <time>2018-09-23 09:26:26</time>
      </trkpt>
      <trkpt lat="48.95896" lon="0.20911">
        <ele>141</ele>
        <time>2018-09-23 09:26:28</time>
      </trkpt>
      <trkpt lat="48.95896" lon="0.20903">
        <ele>141</ele>
        <time>2018-09-23 09:26:29</time>
      </trkpt>
      <trkpt lat="48.95896" lon="0.20886">
        <ele>141</ele>
        <time>2018-09-23 09:26:31</time>
      </trkpt>
      <trkpt lat="48.95895" lon="0.20879">
        <ele>141</ele>
        <time>2018-09-23 09:26:32</time>
      </trkpt>
      <trkpt lat="48.95895" lon="0.20862">
        <ele>141</ele>
        <time>2018-09-23 09:26:34</time>
      </trkpt>
      <trkpt lat="48.95899" lon="0.20844">
        <ele>141</ele>
        <time>2018-09-23 09:26:36</time>
      </trkpt>
      <trkpt lat="48.95904" lon="0.20825">
        <ele>141</ele>
        <time>2018-09-23 09:26:38</time>
      </trkpt>
      <trkpt lat="48.95908" lon="0.20817">
        <ele>141</ele>
        <time>2018-09-23 09:26:39</time>
      </trkpt>
      <trkpt lat="48.95915" lon="0.208">
        <ele>141</ele>
        <time>2018-09-23 09:26:41</time>
      </trkpt>
      <trkpt lat="48.95921" lon="0.20784">
        <ele>141</ele>
        <time>2018-09-23 09:26:43</time>
      </trkpt>
      <trkpt lat="48.95925" lon="0.20777">
        <ele>141</ele>
        <time>2018-09-23 09:26:44</time>
      </trkpt>
      <trkpt lat="48.95931" lon="0.20761">
        <ele>141</ele>
        <time>2018-09-23 09:26:46</time>
      </trkpt>
      <trkpt lat="48.95938" lon="0.20745">
        <ele>141</ele>
        <time>2018-09-23 09:26:48</time>
      </trkpt>
      <trkpt lat="48.95945" lon="0.20731">
        <ele>141</ele>
        <time>2018-09-23 09:26:50</time>
      </trkpt>
      <trkpt lat="48.95952" lon="0.20719">
        <ele>142</ele>
        <time>2018-09-23 09:26:52</time>
      </trkpt>
      <trkpt lat="48.95958" lon="0.20706">
        <ele>142</ele>
        <time>2018-09-23 09:26:54</time>
      </trkpt>
      <trkpt lat="48.95965" lon="0.20693">
        <ele>143</ele>
        <time>2018-09-23 09:26:56</time>
      </trkpt>
      <trkpt lat="48.95971" lon="0.20679">
        <ele>143</ele>
        <time>2018-09-23 09:26:58</time>
      </trkpt>
      <trkpt lat="48.95976" lon="0.20664">
        <ele>144</ele>
        <time>2018-09-23 09:27:00</time>
      </trkpt>
      <trkpt lat="48.95981" lon="0.2065">
        <ele>145</ele>
        <time>2018-09-23 09:27:02</time>
      </trkpt>
      <trkpt lat="48.95985" lon="0.20636">
        <ele>145</ele>
        <time>2018-09-23 09:27:04</time>
      </trkpt>
      <trkpt lat="48.95991" lon="0.20625">
        <ele>146</ele>
        <time>2018-09-23 09:27:06</time>
      </trkpt>
      <trkpt lat="48.95997" lon="0.20615">
        <ele>147</ele>
        <time>2018-09-23 09:27:08</time>
      </trkpt>
      <trkpt lat="48.96003" lon="0.20602">
        <ele>148</ele>
        <time>2018-09-23 09:27:10</time>
      </trkpt>
      <trkpt lat="48.96009" lon="0.20588">
        <ele>149</ele>
        <time>2018-09-23 09:27:12</time>
      </trkpt>
      <trkpt lat="48.96014" lon="0.20572">
        <ele>149</ele>
        <time>2018-09-23 09:27:14</time>
      </trkpt>
      <trkpt lat="48.9602" lon="0.20554">
        <ele>149</ele>
        <time>2018-09-23 09:27:16</time>
      </trkpt>
      <trkpt lat="48.96024" lon="0.20533">
        <ele>150</ele>
        <time>2018-09-23 09:27:18</time>
      </trkpt>
      <trkpt lat="48.96025" lon="0.20523">
        <ele>150</ele>
        <time>2018-09-23 09:27:19</time>
      </trkpt>
      <trkpt lat="48.96026" lon="0.20515">
        <ele>150</ele>
        <time>2018-09-23 09:27:20</time>
      </trkpt>
      <trkpt lat="48.96026" lon="0.20503">
        <ele>150</ele>
        <time>2018-09-23 09:27:22</time>
      </trkpt>
      <trkpt lat="48.96031" lon="0.20492">
        <ele>149</ele>
        <time>2018-09-23 09:27:24</time>
      </trkpt>
      <trkpt lat="48.96039" lon="0.20481">
        <ele>149</ele>
        <time>2018-09-23 09:27:26</time>
      </trkpt>
      <trkpt lat="48.96046" lon="0.20471">
        <ele>149</ele>
        <time>2018-09-23 09:27:28</time>
      </trkpt>
      <trkpt lat="48.9605" lon="0.20459">
        <ele>150</ele>
        <time>2018-09-23 09:27:30</time>
      </trkpt>
      <trkpt lat="48.96054" lon="0.20443">
        <ele>150</ele>
        <time>2018-09-23 09:27:32</time>
      </trkpt>
      <trkpt lat="48.9606" lon="0.20426">
        <ele>149</ele>
        <time>2018-09-23 09:27:34</time>
      </trkpt>
      <trkpt lat="48.96069" lon="0.20413">
        <ele>149</ele>
        <time>2018-09-23 09:27:36</time>
      </trkpt>
      <trkpt lat="48.96081" lon="0.20409">
        <ele>149</ele>
        <time>2018-09-23 09:27:38</time>
      </trkpt>
      <trkpt lat="48.9609" lon="0.20412">
        <ele>149</ele>
        <time>2018-09-23 09:27:40</time>
      </trkpt>
      <trkpt lat="48.961" lon="0.20419">
        <ele>149</ele>
        <time>2018-09-23 09:27:42</time>
      </trkpt>
      <trkpt lat="48.96108" lon="0.20423">
        <ele>149</ele>
        <time>2018-09-23 09:27:44</time>
      </trkpt>
      <trkpt lat="48.96117" lon="0.20426">
        <ele>149</ele>
        <time>2018-09-23 09:27:46</time>
      </trkpt>
      <trkpt lat="48.96126" lon="0.20429">
        <ele>150</ele>
        <time>2018-09-23 09:27:48</time>
      </trkpt>
      <trkpt lat="48.96134" lon="0.20429">
        <ele>151</ele>
        <time>2018-09-23 09:27:50</time>
      </trkpt>
      <trkpt lat="48.96139" lon="0.20428">
        <ele>151</ele>
        <time>2018-09-23 09:27:52</time>
      </trkpt>
      <trkpt lat="48.9614" lon="0.20427">
        <ele>152</ele>
        <time>2018-09-23 09:27:53</time>
      </trkpt>
      <trkpt lat="48.96139" lon="0.20427">
        <ele>152</ele>
        <time>2018-09-23 09:27:55</time>
      </trkpt>
      <trkpt lat="48.96139" lon="0.20426">
        <ele>152</ele>
        <time>2018-09-23 09:27:56</time>
      </trkpt>
      <trkpt lat="48.96133" lon="0.20425">
        <ele>153</ele>
        <time>2018-09-23 09:27:58</time>
      </trkpt>
      <trkpt lat="48.96131" lon="0.20433">
        <ele>153</ele>
        <time>2018-09-23 09:28:00</time>
      </trkpt>
      <trkpt lat="48.96132" lon="0.20447">
        <ele>154</ele>
        <time>2018-09-23 09:28:02</time>
      </trkpt>
      <trkpt lat="48.96134" lon="0.20458">
        <ele>154</ele>
        <time>2018-09-23 09:28:04</time>
      </trkpt>
      <trkpt lat="48.96136" lon="0.2047">
        <ele>154</ele>
        <time>2018-09-23 09:28:06</time>
      </trkpt>
      <trkpt lat="48.96139" lon="0.20483">
        <ele>155</ele>
        <time>2018-09-23 09:28:08</time>
      </trkpt>
      <trkpt lat="48.9614" lon="0.20498">
        <ele>156</ele>
        <time>2018-09-23 09:28:10</time>
      </trkpt>
      <trkpt lat="48.9614" lon="0.20515">
        <ele>156</ele>
        <time>2018-09-23 09:28:12</time>
      </trkpt>
      <trkpt lat="48.9614" lon="0.20531">
        <ele>156</ele>
        <time>2018-09-23 09:28:14</time>
      </trkpt>
      <trkpt lat="48.9614" lon="0.20547">
        <ele>157</ele>
        <time>2018-09-23 09:28:16</time>
      </trkpt>
      <trkpt lat="48.96141" lon="0.20563">
        <ele>157</ele>
        <time>2018-09-23 09:28:18</time>
      </trkpt>
      <trkpt lat="48.96142" lon="0.20578">
        <ele>157</ele>
        <time>2018-09-23 09:28:20</time>
      </trkpt>
      <trkpt lat="48.96142" lon="0.20592">
        <ele>157</ele>
        <time>2018-09-23 09:28:22</time>
      </trkpt>
      <trkpt lat="48.96144" lon="0.20606">
        <ele>157</ele>
        <time>2018-09-23 09:28:24</time>
      </trkpt>
      <trkpt lat="48.96146" lon="0.2062">
        <ele>157</ele>
        <time>2018-09-23 09:28:26</time>
      </trkpt>
      <trkpt lat="48.96146" lon="0.20627">
        <ele>157</ele>
        <time>2018-09-23 09:28:27</time>
      </trkpt>
      <trkpt lat="48.96146" lon="0.2064">
        <ele>157</ele>
        <time>2018-09-23 09:28:29</time>
      </trkpt>
      <trkpt lat="48.96146" lon="0.20654">
        <ele>157</ele>
        <time>2018-09-23 09:28:31</time>
      </trkpt>
      <trkpt lat="48.96145" lon="0.2066">
        <ele>158</ele>
        <time>2018-09-23 09:28:32</time>
      </trkpt>
      <trkpt lat="48.96145" lon="0.20671">
        <ele>158</ele>
        <time>2018-09-23 09:28:34</time>
      </trkpt>
      <trkpt lat="48.96145" lon="0.20681">
        <ele>158</ele>
        <time>2018-09-23 09:28:36</time>
      </trkpt>
      <trkpt lat="48.96146" lon="0.20686">
        <ele>158</ele>
        <time>2018-09-23 09:28:37</time>
      </trkpt>
      <trkpt lat="48.96147" lon="0.20691">
        <ele>158</ele>
        <time>2018-09-23 09:28:38</time>
      </trkpt>
      <trkpt lat="48.96149" lon="0.20699">
        <ele>159</ele>
        <time>2018-09-23 09:28:40</time>
      </trkpt>
      <trkpt lat="48.9615" lon="0.20706">
        <ele>160</ele>
        <time>2018-09-23 09:28:42</time>
      </trkpt>
      <trkpt lat="48.96154" lon="0.20711">
        <ele>161</ele>
        <time>2018-09-23 09:28:44</time>
      </trkpt>
      <trkpt lat="48.96159" lon="0.20716">
        <ele>161</ele>
        <time>2018-09-23 09:28:46</time>
      </trkpt>
      <trkpt lat="48.96161" lon="0.2072">
        <ele>162</ele>
        <time>2018-09-23 09:28:48</time>
      </trkpt>
      <trkpt lat="48.96163" lon="0.20723">
        <ele>163</ele>
        <time>2018-09-23 09:28:50</time>
      </trkpt>
      <trkpt lat="48.96164" lon="0.20725">
        <ele>163</ele>
        <time>2018-09-23 09:28:51</time>
      </trkpt>
      <trkpt lat="48.96165" lon="0.20727">
        <ele>164</ele>
        <time>2018-09-23 09:28:53</time>
      </trkpt>
      <trkpt lat="48.96163" lon="0.20725">
        <ele>165</ele>
        <time>2018-09-23 09:28:55</time>
      </trkpt>
      <trkpt lat="48.96162" lon="0.20724">
        <ele>165</ele>
        <time>2018-09-23 09:28:56</time>
      </trkpt>
      <trkpt lat="48.96159" lon="0.2072">
        <ele>165</ele>
        <time>2018-09-23 09:28:58</time>
      </trkpt>
      <trkpt lat="48.96157" lon="0.20716">
        <ele>165</ele>
        <time>2018-09-23 09:29:00</time>
      </trkpt>
      <trkpt lat="48.96155" lon="0.20714">
        <ele>165</ele>
        <time>2018-09-23 09:29:02</time>
      </trkpt>
      <trkpt lat="48.96154" lon="0.20712">
        <ele>166</ele>
        <time>2018-09-23 09:29:04</time>
      </trkpt>
      <trkpt lat="48.96155" lon="0.20712">
        <ele>166</ele>
        <time>2018-09-23 09:29:06</time>
      </trkpt>
      <trkpt lat="48.96157" lon="0.20717">
        <ele>166</ele>
        <time>2018-09-23 09:29:07</time>
      </trkpt>
      <trkpt lat="48.96159" lon="0.2072">
        <ele>166</ele>
        <time>2018-09-23 09:29:09</time>
      </trkpt>
      <trkpt lat="48.96161" lon="0.20723">
        <ele>166</ele>
        <time>2018-09-23 09:29:11</time>
      </trkpt>
      <trkpt lat="48.96162" lon="0.20725">
        <ele>166</ele>
        <time>2018-09-23 09:29:12</time>
      </trkpt>
      <trkpt lat="48.96166" lon="0.2073">
        <ele>166</ele>
        <time>2018-09-23 09:29:14</time>
      </trkpt>
      <trkpt lat="48.96167" lon="0.20732">
        <ele>166</ele>
        <time>2018-09-23 09:29:15</time>
      </trkpt>
      <trkpt lat="48.96171" lon="0.20735">
        <ele>166</ele>
        <time>2018-09-23 09:29:17</time>
      </trkpt>
      <trkpt lat="48.96174" lon="0.20738">
        <ele>166</ele>
        <time>2018-09-23 09:29:19</time>
      </trkpt>
      <trkpt lat="48.96177" lon="0.2074">
        <ele>166</ele>
        <time>2018-09-23 09:29:20</time>
      </trkpt>
      <trkpt lat="48.96179" lon="0.20742">
        <ele>167</ele>
        <time>2018-09-23 09:29:22</time>
      </trkpt>
      <trkpt lat="48.96179" lon="0.20743">
        <ele>167</ele>
        <time>2018-09-23 09:29:23</time>
      </trkpt>
      <trkpt lat="48.96178" lon="0.20743">
        <ele>167</ele>
        <time>2018-09-23 09:29:25</time>
      </trkpt>
      <trkpt lat="48.96185" lon="0.20748">
        <ele>169</ele>
        <time>2018-09-23 09:29:28</time>
      </trkpt>
      <trkpt lat="48.96185" lon="0.20748">
        <ele>169</ele>
        <time>2018-09-23 09:29:29</time>
      </trkpt>
      <trkpt lat="48.96192" lon="0.20755">
        <ele>170</ele>
        <time>2018-09-23 09:29:31</time>
      </trkpt>
      <trkpt lat="48.96194" lon="0.20761">
        <ele>170</ele>
        <time>2018-09-23 09:29:33</time>
      </trkpt>
      <trkpt lat="48.96196" lon="0.20762">
        <ele>170</ele>
        <time>2018-09-23 09:29:34</time>
      </trkpt>
      <trkpt lat="48.96199" lon="0.20766">
        <ele>171</ele>
        <time>2018-09-23 09:29:36</time>
      </trkpt>
      <trkpt lat="48.96201" lon="0.2077">
        <ele>171</ele>
        <time>2018-09-23 09:29:38</time>
      </trkpt>
      <trkpt lat="48.96207" lon="0.20775">
        <ele>171</ele>
        <time>2018-09-23 09:29:40</time>
      </trkpt>
      <trkpt lat="48.96209" lon="0.20778">
        <ele>172</ele>
        <time>2018-09-23 09:29:41</time>
      </trkpt>
      <trkpt lat="48.96213" lon="0.20784">
        <ele>172</ele>
        <time>2018-09-23 09:29:43</time>
      </trkpt>
      <trkpt lat="48.96216" lon="0.20792">
        <ele>173</ele>
        <time>2018-09-23 09:29:45</time>
      </trkpt>
      <trkpt lat="48.96219" lon="0.20797">
        <ele>174</ele>
        <time>2018-09-23 09:29:47</time>
      </trkpt>
      <trkpt lat="48.96223" lon="0.20803">
        <ele>175</ele>
        <time>2018-09-23 09:29:49</time>
      </trkpt>
      <trkpt lat="48.96225" lon="0.20806">
        <ele>175</ele>
        <time>2018-09-23 09:29:50</time>
      </trkpt>
      <trkpt lat="48.96229" lon="0.20808">
        <ele>176</ele>
        <time>2018-09-23 09:29:52</time>
      </trkpt>
      <trkpt lat="48.96231" lon="0.20806">
        <ele>176</ele>
        <time>2018-09-23 09:29:53</time>
      </trkpt>
      <trkpt lat="48.96235" lon="0.20804">
        <ele>177</ele>
        <time>2018-09-23 09:29:55</time>
      </trkpt>
      <trkpt lat="48.96239" lon="0.20805">
        <ele>177</ele>
        <time>2018-09-23 09:29:57</time>
      </trkpt>
      <trkpt lat="48.96241" lon="0.2081">
        <ele>179</ele>
        <time>2018-09-23 09:29:59</time>
      </trkpt>
      <trkpt lat="48.96242" lon="0.20813">
        <ele>179</ele>
        <time>2018-09-23 09:30:00</time>
      </trkpt>
      <trkpt lat="48.96244" lon="0.20819">
        <ele>180</ele>
        <time>2018-09-23 09:30:02</time>
      </trkpt>
      <trkpt lat="48.96244" lon="0.20823">
        <ele>180</ele>
        <time>2018-09-23 09:30:03</time>
      </trkpt>
      <trkpt lat="48.96246" lon="0.20831">
        <ele>181</ele>
        <time>2018-09-23 09:30:05</time>
      </trkpt>
      <trkpt lat="48.96247" lon="0.20838">
        <ele>183</ele>
        <time>2018-09-23 09:30:07</time>
      </trkpt>
      <trkpt lat="48.96248" lon="0.20846">
        <ele>184</ele>
        <time>2018-09-23 09:30:09</time>
      </trkpt>
      <trkpt lat="48.96248" lon="0.2085">
        <ele>184</ele>
        <time>2018-09-23 09:30:10</time>
      </trkpt>
      <trkpt lat="48.96248" lon="0.20853">
        <ele>184</ele>
        <time>2018-09-23 09:30:11</time>
      </trkpt>
      <trkpt lat="48.96248" lon="0.20861">
        <ele>185</ele>
        <time>2018-09-23 09:30:13</time>
      </trkpt>
      <trkpt lat="48.96247" lon="0.20868">
        <ele>186</ele>
        <time>2018-09-23 09:30:15</time>
      </trkpt>
      <trkpt lat="48.96244" lon="0.20875">
        <ele>187</ele>
        <time>2018-09-23 09:30:17</time>
      </trkpt>
      <trkpt lat="48.96241" lon="0.20881">
        <ele>188</ele>
        <time>2018-09-23 09:30:19</time>
      </trkpt>
      <trkpt lat="48.96236" lon="0.20885">
        <ele>188</ele>
        <time>2018-09-23 09:30:21</time>
      </trkpt>
      <trkpt lat="48.96232" lon="0.20891">
        <ele>189</ele>
        <time>2018-09-23 09:30:23</time>
      </trkpt>
      <trkpt lat="48.96228" lon="0.20898">
        <ele>190</ele>
        <time>2018-09-23 09:30:25</time>
      </trkpt>
      <trkpt lat="48.96226" lon="0.20901">
        <ele>190</ele>
        <time>2018-09-23 09:30:26</time>
      </trkpt>
      <trkpt lat="48.96223" lon="0.20909">
        <ele>191</ele>
        <time>2018-09-23 09:30:28</time>
      </trkpt>
      <trkpt lat="48.96219" lon="0.20915">
        <ele>192</ele>
        <time>2018-09-23 09:30:30</time>
      </trkpt>
      <trkpt lat="48.96216" lon="0.20918">
        <ele>192</ele>
        <time>2018-09-23 09:30:31</time>
      </trkpt>
      <trkpt lat="48.96214" lon="0.2092">
        <ele>192</ele>
        <time>2018-09-23 09:30:32</time>
      </trkpt>
      <trkpt lat="48.96211" lon="0.20927">
        <ele>193</ele>
        <time>2018-09-23 09:30:34</time>
      </trkpt>
      <trkpt lat="48.96208" lon="0.20933">
        <ele>193</ele>
        <time>2018-09-23 09:30:35</time>
      </trkpt>
      <trkpt lat="48.96204" lon="0.20939">
        <ele>193</ele>
        <time>2018-09-23 09:30:37</time>
      </trkpt>
      <trkpt lat="48.962" lon="0.20944">
        <ele>194</ele>
        <time>2018-09-23 09:30:39</time>
      </trkpt>
      <trkpt lat="48.96196" lon="0.20951">
        <ele>194</ele>
        <time>2018-09-23 09:30:41</time>
      </trkpt>
      <trkpt lat="48.96192" lon="0.20957">
        <ele>195</ele>
        <time>2018-09-23 09:30:43</time>
      </trkpt>
      <trkpt lat="48.96189" lon="0.20963">
        <ele>195</ele>
        <time>2018-09-23 09:30:45</time>
      </trkpt>
      <trkpt lat="48.96188" lon="0.20966">
        <ele>195</ele>
        <time>2018-09-23 09:30:46</time>
      </trkpt>
      <trkpt lat="48.96187" lon="0.2097">
        <ele>195</ele>
        <time>2018-09-23 09:30:48</time>
      </trkpt>
      <trkpt lat="48.96186" lon="0.20971">
        <ele>196</ele>
        <time>2018-09-23 09:30:50</time>
      </trkpt>
      <trkpt lat="48.96186" lon="0.20972">
        <ele>196</ele>
        <time>2018-09-23 09:30:52</time>
      </trkpt>
      <trkpt lat="48.96187" lon="0.20973">
        <ele>196</ele>
        <time>2018-09-23 09:30:53</time>
      </trkpt>
      <trkpt lat="48.9619" lon="0.20981">
        <ele>198</ele>
        <time>2018-09-23 09:30:55</time>
      </trkpt>
      <trkpt lat="48.96194" lon="0.20985">
        <ele>198</ele>
        <time>2018-09-23 09:30:56</time>
      </trkpt>
      <trkpt lat="48.96198" lon="0.20992">
        <ele>198</ele>
        <time>2018-09-23 09:30:58</time>
      </trkpt>
      <trkpt lat="48.96201" lon="0.20995">
        <ele>198</ele>
        <time>2018-09-23 09:30:59</time>
      </trkpt>
      <trkpt lat="48.96208" lon="0.21001">
        <ele>198</ele>
        <time>2018-09-23 09:31:01</time>
      </trkpt>
      <trkpt lat="48.96215" lon="0.21008">
        <ele>198</ele>
        <time>2018-09-23 09:31:03</time>
      </trkpt>
      <trkpt lat="48.96218" lon="0.21012">
        <ele>198</ele>
        <time>2018-09-23 09:31:04</time>
      </trkpt>
      <trkpt lat="48.96226" lon="0.2102">
        <ele>198</ele>
        <time>2018-09-23 09:31:06</time>
      </trkpt>
      <trkpt lat="48.96235" lon="0.21029">
        <ele>198</ele>
        <time>2018-09-23 09:31:08</time>
      </trkpt>
      <trkpt lat="48.96243" lon="0.21038">
        <ele>198</ele>
        <time>2018-09-23 09:31:10</time>
      </trkpt>
      <trkpt lat="48.96252" lon="0.21047">
        <ele>198</ele>
        <time>2018-09-23 09:31:12</time>
      </trkpt>
      <trkpt lat="48.96261" lon="0.21055">
        <ele>198</ele>
        <time>2018-09-23 09:31:14</time>
      </trkpt>
      <trkpt lat="48.96264" lon="0.21058">
        <ele>198</ele>
        <time>2018-09-23 09:31:15</time>
      </trkpt>
      <trkpt lat="48.96268" lon="0.21061">
        <ele>198</ele>
        <time>2018-09-23 09:31:16</time>
      </trkpt>
      <trkpt lat="48.96275" lon="0.21069">
        <ele>198</ele>
        <time>2018-09-23 09:31:18</time>
      </trkpt>
      <trkpt lat="48.96284" lon="0.21078">
        <ele>198</ele>
        <time>2018-09-23 09:31:20</time>
      </trkpt>
      <trkpt lat="48.96292" lon="0.21087">
        <ele>197</ele>
        <time>2018-09-23 09:31:22</time>
      </trkpt>
      <trkpt lat="48.963" lon="0.21094">
        <ele>197</ele>
        <time>2018-09-23 09:31:24</time>
      </trkpt>
      <trkpt lat="48.96305" lon="0.21098">
        <ele>197</ele>
        <time>2018-09-23 09:31:25</time>
      </trkpt>
      <trkpt lat="48.96316" lon="0.21106">
        <ele>197</ele>
        <time>2018-09-23 09:31:27</time>
      </trkpt>
      <trkpt lat="48.96321" lon="0.2111">
        <ele>197</ele>
        <time>2018-09-23 09:31:28</time>
      </trkpt>
      <trkpt lat="48.96331" lon="0.21119">
        <ele>197</ele>
        <time>2018-09-23 09:31:30</time>
      </trkpt>
      <trkpt lat="48.9634" lon="0.21126">
        <ele>196</ele>
        <time>2018-09-23 09:31:32</time>
      </trkpt>
      <trkpt lat="48.96344" lon="0.21128">
        <ele>196</ele>
        <time>2018-09-23 09:31:33</time>
      </trkpt>
      <trkpt lat="48.96349" lon="0.21129">
        <ele>196</ele>
        <time>2018-09-23 09:31:34</time>
      </trkpt>
      <trkpt lat="48.96356" lon="0.21134">
        <ele>196</ele>
        <time>2018-09-23 09:31:36</time>
      </trkpt>
      <trkpt lat="48.96363" lon="0.21145">
        <ele>195</ele>
        <time>2018-09-23 09:31:38</time>
      </trkpt>
      <trkpt lat="48.96367" lon="0.21151">
        <ele>195</ele>
        <time>2018-09-23 09:31:39</time>
      </trkpt>
      <trkpt lat="48.96375" lon="0.21162">
        <ele>195</ele>
        <time>2018-09-23 09:31:41</time>
      </trkpt>
      <trkpt lat="48.9638" lon="0.21169">
        <ele>194</ele>
        <time>2018-09-23 09:31:42</time>
      </trkpt>
      <trkpt lat="48.96387" lon="0.21184">
        <ele>194</ele>
        <time>2018-09-23 09:31:44</time>
      </trkpt>
      <trkpt lat="48.96394" lon="0.21198">
        <ele>193</ele>
        <time>2018-09-23 09:31:46</time>
      </trkpt>
      <trkpt lat="48.96401" lon="0.21214">
        <ele>193</ele>
        <time>2018-09-23 09:31:48</time>
      </trkpt>
      <trkpt lat="48.96406" lon="0.21229">
        <ele>193</ele>
        <time>2018-09-23 09:31:50</time>
      </trkpt>
      <trkpt lat="48.96411" lon="0.21246">
        <ele>192</ele>
        <time>2018-09-23 09:31:52</time>
      </trkpt>
      <trkpt lat="48.96413" lon="0.21263">
        <ele>192</ele>
        <time>2018-09-23 09:31:54</time>
      </trkpt>
      <trkpt lat="48.96419" lon="0.2128">
        <ele>192</ele>
        <time>2018-09-23 09:31:56</time>
      </trkpt>
      <trkpt lat="48.96424" lon="0.21297">
        <ele>191</ele>
        <time>2018-09-23 09:31:58</time>
      </trkpt>
      <trkpt lat="48.96431" lon="0.21311">
        <ele>191</ele>
        <time>2018-09-23 09:32:00</time>
      </trkpt>
      <trkpt lat="48.96434" lon="0.21318">
        <ele>191</ele>
        <time>2018-09-23 09:32:01</time>
      </trkpt>
      <trkpt lat="48.9644" lon="0.21333">
        <ele>191</ele>
        <time>2018-09-23 09:32:03</time>
      </trkpt>
      <trkpt lat="48.96445" lon="0.21347">
        <ele>190</ele>
        <time>2018-09-23 09:32:05</time>
      </trkpt>
      <trkpt lat="48.96448" lon="0.21352">
        <ele>190</ele>
        <time>2018-09-23 09:32:06</time>
      </trkpt>
      <trkpt lat="48.96454" lon="0.21364">
        <ele>190</ele>
        <time>2018-09-23 09:32:08</time>
      </trkpt>
      <trkpt lat="48.96459" lon="0.21379">
        <ele>190</ele>
        <time>2018-09-23 09:32:10</time>
      </trkpt>
      <trkpt lat="48.96462" lon="0.21387">
        <ele>189</ele>
        <time>2018-09-23 09:32:11</time>
      </trkpt>
      <trkpt lat="48.96465" lon="0.21395">
        <ele>189</ele>
        <time>2018-09-23 09:32:12</time>
      </trkpt>
      <trkpt lat="48.96471" lon="0.2141">
        <ele>189</ele>
        <time>2018-09-23 09:32:14</time>
      </trkpt>
      <trkpt lat="48.96477" lon="0.21425">
        <ele>188</ele>
        <time>2018-09-23 09:32:16</time>
      </trkpt>
      <trkpt lat="48.96483" lon="0.21441">
        <ele>188</ele>
        <time>2018-09-23 09:32:18</time>
      </trkpt>
      <trkpt lat="48.9649" lon="0.21457">
        <ele>187</ele>
        <time>2018-09-23 09:32:20</time>
      </trkpt>
      <trkpt lat="48.96494" lon="0.21464">
        <ele>187</ele>
        <time>2018-09-23 09:32:21</time>
      </trkpt>
      <trkpt lat="48.96502" lon="0.21479">
        <ele>186</ele>
        <time>2018-09-23 09:32:23</time>
      </trkpt>
      <trkpt lat="48.96507" lon="0.21486">
        <ele>186</ele>
        <time>2018-09-23 09:32:24</time>
      </trkpt>
      <trkpt lat="48.96518" lon="0.215">
        <ele>185</ele>
        <time>2018-09-23 09:32:26</time>
      </trkpt>
      <trkpt lat="48.96529" lon="0.21514">
        <ele>185</ele>
        <time>2018-09-23 09:32:28</time>
      </trkpt>
      <trkpt lat="48.96535" lon="0.2152">
        <ele>184</ele>
        <time>2018-09-23 09:32:29</time>
      </trkpt>
      <trkpt lat="48.96546" lon="0.21533">
        <ele>184</ele>
        <time>2018-09-23 09:32:31</time>
      </trkpt>
      <trkpt lat="48.96556" lon="0.21544">
        <ele>183</ele>
        <time>2018-09-23 09:32:33</time>
      </trkpt>
      <trkpt lat="48.96564" lon="0.21556">
        <ele>183</ele>
        <time>2018-09-23 09:32:35</time>
      </trkpt>
      <trkpt lat="48.96566" lon="0.21565">
        <ele>182</ele>
        <time>2018-09-23 09:32:36</time>
      </trkpt>
      <trkpt lat="48.96567" lon="0.2158">
        <ele>182</ele>
        <time>2018-09-23 09:32:38</time>
      </trkpt>
      <trkpt lat="48.96566" lon="0.21587">
        <ele>181</ele>
        <time>2018-09-23 09:32:39</time>
      </trkpt>
      <trkpt lat="48.96565" lon="0.21595">
        <ele>181</ele>
        <time>2018-09-23 09:32:40</time>
      </trkpt>
      <trkpt lat="48.96566" lon="0.2161">
        <ele>180</ele>
        <time>2018-09-23 09:32:42</time>
      </trkpt>
      <trkpt lat="48.96567" lon="0.21624">
        <ele>180</ele>
        <time>2018-09-23 09:32:44</time>
      </trkpt>
      <trkpt lat="48.96567" lon="0.21639">
        <ele>179</ele>
        <time>2018-09-23 09:32:46</time>
      </trkpt>
      <trkpt lat="48.96566" lon="0.21652">
        <ele>179</ele>
        <time>2018-09-23 09:32:48</time>
      </trkpt>
      <trkpt lat="48.96564" lon="0.21668">
        <ele>178</ele>
        <time>2018-09-23 09:32:50</time>
      </trkpt>
      <trkpt lat="48.96563" lon="0.2169">
        <ele>178</ele>
        <time>2018-09-23 09:32:52</time>
      </trkpt>
      <trkpt lat="48.96563" lon="0.21699">
        <ele>178</ele>
        <time>2018-09-23 09:32:53</time>
      </trkpt>
      <trkpt lat="48.96563" lon="0.21708">
        <ele>178</ele>
        <time>2018-09-23 09:32:54</time>
      </trkpt>
      <trkpt lat="48.96562" lon="0.21726">
        <ele>178</ele>
        <time>2018-09-23 09:32:56</time>
      </trkpt>
      <trkpt lat="48.96563" lon="0.21735">
        <ele>178</ele>
        <time>2018-09-23 09:32:57</time>
      </trkpt>
      <trkpt lat="48.96565" lon="0.21753">
        <ele>178</ele>
        <time>2018-09-23 09:32:59</time>
      </trkpt>
      <trkpt lat="48.96566" lon="0.21761">
        <ele>178</ele>
        <time>2018-09-23 09:33:00</time>
      </trkpt>
      <trkpt lat="48.96569" lon="0.21778">
        <ele>178</ele>
        <time>2018-09-23 09:33:02</time>
      </trkpt>
      <trkpt lat="48.9657" lon="0.21787">
        <ele>178</ele>
        <time>2018-09-23 09:33:03</time>
      </trkpt>
      <trkpt lat="48.96571" lon="0.21806">
        <ele>179</ele>
        <time>2018-09-23 09:33:05</time>
      </trkpt>
      <trkpt lat="48.96571" lon="0.21815">
        <ele>179</ele>
        <time>2018-09-23 09:33:06</time>
      </trkpt>
      <trkpt lat="48.9657" lon="0.21832">
        <ele>179</ele>
        <time>2018-09-23 09:33:08</time>
      </trkpt>
      <trkpt lat="48.96569" lon="0.21849">
        <ele>179</ele>
        <time>2018-09-23 09:33:10</time>
      </trkpt>
      <trkpt lat="48.96568" lon="0.21865">
        <ele>179</ele>
        <time>2018-09-23 09:33:12</time>
      </trkpt>
      <trkpt lat="48.96568" lon="0.21872">
        <ele>179</ele>
        <time>2018-09-23 09:33:13</time>
      </trkpt>
      <trkpt lat="48.96568" lon="0.21888">
        <ele>179</ele>
        <time>2018-09-23 09:33:15</time>
      </trkpt>
      <trkpt lat="48.96568" lon="0.21903">
        <ele>180</ele>
        <time>2018-09-23 09:33:17</time>
      </trkpt>
      <trkpt lat="48.96569" lon="0.21911">
        <ele>180</ele>
        <time>2018-09-23 09:33:18</time>
      </trkpt>
      <trkpt lat="48.96571" lon="0.21926">
        <ele>180</ele>
        <time>2018-09-23 09:33:20</time>
      </trkpt>
      <trkpt lat="48.96574" lon="0.21944">
        <ele>181</ele>
        <time>2018-09-23 09:33:22</time>
      </trkpt>
      <trkpt lat="48.96578" lon="0.2196">
        <ele>182</ele>
        <time>2018-09-23 09:33:24</time>
      </trkpt>
      <trkpt lat="48.9658" lon="0.21976">
        <ele>182</ele>
        <time>2018-09-23 09:33:26</time>
      </trkpt>
      <trkpt lat="48.96581" lon="0.21983">
        <ele>183</ele>
        <time>2018-09-23 09:33:27</time>
      </trkpt>
      <trkpt lat="48.96584" lon="0.21998">
        <ele>183</ele>
        <time>2018-09-23 09:33:29</time>
      </trkpt>
      <trkpt lat="48.96585" lon="0.22005">
        <ele>183</ele>
        <time>2018-09-23 09:33:30</time>
      </trkpt>
      <trkpt lat="48.96588" lon="0.22019">
        <ele>184</ele>
        <time>2018-09-23 09:33:32</time>
      </trkpt>
      <trkpt lat="48.9659" lon="0.22034">
        <ele>184</ele>
        <time>2018-09-23 09:33:34</time>
      </trkpt>
      <trkpt lat="48.96591" lon="0.22042">
        <ele>185</ele>
        <time>2018-09-23 09:33:35</time>
      </trkpt>
      <trkpt lat="48.96593" lon="0.22059">
        <ele>185</ele>
        <time>2018-09-23 09:33:37</time>
      </trkpt>
      <trkpt lat="48.96595" lon="0.22075">
        <ele>186</ele>
        <time>2018-09-23 09:33:39</time>
      </trkpt>
      <trkpt lat="48.96596" lon="0.2209">
        <ele>186</ele>
        <time>2018-09-23 09:33:41</time>
      </trkpt>
      <trkpt lat="48.96596" lon="0.22098">
        <ele>186</ele>
        <time>2018-09-23 09:33:42</time>
      </trkpt>
      <trkpt lat="48.96597" lon="0.22113">
        <ele>187</ele>
        <time>2018-09-23 09:33:44</time>
      </trkpt>
      <trkpt lat="48.96599" lon="0.22129">
        <ele>187</ele>
        <time>2018-09-23 09:33:46</time>
      </trkpt>
      <trkpt lat="48.96601" lon="0.22143">
        <ele>187</ele>
        <time>2018-09-23 09:33:48</time>
      </trkpt>
      <trkpt lat="48.96603" lon="0.22158">
        <ele>187</ele>
        <time>2018-09-23 09:33:50</time>
      </trkpt>
      <trkpt lat="48.96605" lon="0.22174">
        <ele>188</ele>
        <time>2018-09-23 09:33:52</time>
      </trkpt>
      <trkpt lat="48.96608" lon="0.22189">
        <ele>188</ele>
        <time>2018-09-23 09:33:54</time>
      </trkpt>
      <trkpt lat="48.96609" lon="0.22197">
        <ele>188</ele>
        <time>2018-09-23 09:33:55</time>
      </trkpt>
      <trkpt lat="48.96609" lon="0.22211">
        <ele>188</ele>
        <time>2018-09-23 09:33:57</time>
      </trkpt>
      <trkpt lat="48.9661" lon="0.22227">
        <ele>188</ele>
        <time>2018-09-23 09:33:59</time>
      </trkpt>
      <trkpt lat="48.9661" lon="0.22235">
        <ele>188</ele>
        <time>2018-09-23 09:34:00</time>
      </trkpt>
      <trkpt lat="48.96611" lon="0.22252">
        <ele>188</ele>
        <time>2018-09-23 09:34:02</time>
      </trkpt>
      <trkpt lat="48.96611" lon="0.22261">
        <ele>189</ele>
        <time>2018-09-23 09:34:03</time>
      </trkpt>
      <trkpt lat="48.96612" lon="0.22277">
        <ele>189</ele>
        <time>2018-09-23 09:34:05</time>
      </trkpt>
      <trkpt lat="48.96612" lon="0.22284">
        <ele>189</ele>
        <time>2018-09-23 09:34:06</time>
      </trkpt>
      <trkpt lat="48.96612" lon="0.22299">
        <ele>189</ele>
        <time>2018-09-23 09:34:08</time>
      </trkpt>
      <trkpt lat="48.96613" lon="0.22312">
        <ele>190</ele>
        <time>2018-09-23 09:34:10</time>
      </trkpt>
      <trkpt lat="48.96616" lon="0.22324">
        <ele>190</ele>
        <time>2018-09-23 09:34:12</time>
      </trkpt>
      <trkpt lat="48.96616" lon="0.2233">
        <ele>189</ele>
        <time>2018-09-23 09:34:13</time>
      </trkpt>
      <trkpt lat="48.96617" lon="0.22343">
        <ele>189</ele>
        <time>2018-09-23 09:34:15</time>
      </trkpt>
      <trkpt lat="48.96618" lon="0.22357">
        <ele>189</ele>
        <time>2018-09-23 09:34:17</time>
      </trkpt>
      <trkpt lat="48.96619" lon="0.22364">
        <ele>189</ele>
        <time>2018-09-23 09:34:18</time>
      </trkpt>
      <trkpt lat="48.96619" lon="0.22376">
        <ele>189</ele>
        <time>2018-09-23 09:34:20</time>
      </trkpt>
      <trkpt lat="48.96618" lon="0.22379">
        <ele>189</ele>
        <time>2018-09-23 09:34:21</time>
      </trkpt>
      <trkpt lat="48.96613" lon="0.22384">
        <ele>189</ele>
        <time>2018-09-23 09:34:23</time>
      </trkpt>
      <trkpt lat="48.96611" lon="0.22384">
        <ele>189</ele>
        <time>2018-09-23 09:34:24</time>
      </trkpt>
      <trkpt lat="48.96605" lon="0.22381">
        <ele>189</ele>
        <time>2018-09-23 09:34:26</time>
      </trkpt>
      <trkpt lat="48.96601" lon="0.2238">
        <ele>189</ele>
        <time>2018-09-23 09:34:27</time>
      </trkpt>
      <trkpt lat="48.96593" lon="0.22376">
        <ele>189</ele>
        <time>2018-09-23 09:34:29</time>
      </trkpt>
      <trkpt lat="48.96588" lon="0.22374">
        <ele>189</ele>
        <time>2018-09-23 09:34:30</time>
      </trkpt>
      <trkpt lat="48.96578" lon="0.22374">
        <ele>189</ele>
        <time>2018-09-23 09:34:32</time>
      </trkpt>
      <trkpt lat="48.96567" lon="0.22374">
        <ele>189</ele>
        <time>2018-09-23 09:34:34</time>
      </trkpt>
      <trkpt lat="48.96561" lon="0.22375">
        <ele>189</ele>
        <time>2018-09-23 09:34:35</time>
      </trkpt>
      <trkpt lat="48.96552" lon="0.22376">
        <ele>189</ele>
        <time>2018-09-23 09:34:37</time>
      </trkpt>
      <trkpt lat="48.96547" lon="0.22376">
        <ele>190</ele>
        <time>2018-09-23 09:34:38</time>
      </trkpt>
      <trkpt lat="48.96538" lon="0.22376">
        <ele>190</ele>
        <time>2018-09-23 09:34:40</time>
      </trkpt>
      <trkpt lat="48.96529" lon="0.22378">
        <ele>189</ele>
        <time>2018-09-23 09:34:42</time>
      </trkpt>
      <trkpt lat="48.96519" lon="0.22378">
        <ele>190</ele>
        <time>2018-09-23 09:34:44</time>
      </trkpt>
      <trkpt lat="48.96508" lon="0.2238">
        <ele>190</ele>
        <time>2018-09-23 09:34:46</time>
      </trkpt>
      <trkpt lat="48.96497" lon="0.22382">
        <ele>190</ele>
        <time>2018-09-23 09:34:48</time>
      </trkpt>
      <trkpt lat="48.96492" lon="0.22383">
        <ele>190</ele>
        <time>2018-09-23 09:34:49</time>
      </trkpt>
      <trkpt lat="48.96483" lon="0.22385">
        <ele>190</ele>
        <time>2018-09-23 09:34:51</time>
      </trkpt>
      <trkpt lat="48.96474" lon="0.22385">
        <ele>190</ele>
        <time>2018-09-23 09:34:53</time>
      </trkpt>
      <trkpt lat="48.96471" lon="0.22385">
        <ele>190</ele>
        <time>2018-09-23 09:34:54</time>
      </trkpt>
      <trkpt lat="48.96467" lon="0.22386">
        <ele>190</ele>
        <time>2018-09-23 09:34:55</time>
      </trkpt>
      <trkpt lat="48.96461" lon="0.22386">
        <ele>191</ele>
        <time>2018-09-23 09:34:57</time>
      </trkpt>
      <trkpt lat="48.96459" lon="0.22386">
        <ele>191</ele>
        <time>2018-09-23 09:34:58</time>
      </trkpt>
      <trkpt lat="48.96454" lon="0.22386">
        <ele>191</ele>
        <time>2018-09-23 09:35:00</time>
      </trkpt>
      <trkpt lat="48.96447" lon="0.22387">
        <ele>191</ele>
        <time>2018-09-23 09:35:02</time>
      </trkpt>
      <trkpt lat="48.96444" lon="0.22388">
        <ele>191</ele>
        <time>2018-09-23 09:35:03</time>
      </trkpt>
      <trkpt lat="48.9644" lon="0.22389">
        <ele>190</ele>
        <time>2018-09-23 09:35:04</time>
      </trkpt>
      <trkpt lat="48.96433" lon="0.22389">
        <ele>190</ele>
        <time>2018-09-23 09:35:06</time>
      </trkpt>
      <trkpt lat="48.96424" lon="0.2239">
        <ele>190</ele>
        <time>2018-09-23 09:35:08</time>
      </trkpt>
      <trkpt lat="48.9642" lon="0.22391">
        <ele>190</ele>
        <time>2018-09-23 09:35:09</time>
      </trkpt>
      <trkpt lat="48.96412" lon="0.22393">
        <ele>190</ele>
        <time>2018-09-23 09:35:11</time>
      </trkpt>
      <trkpt lat="48.96409" lon="0.22393">
        <ele>190</ele>
        <time>2018-09-23 09:35:12</time>
      </trkpt>
      <trkpt lat="48.96401" lon="0.22396">
        <ele>190</ele>
        <time>2018-09-23 09:35:14</time>
      </trkpt>
      <trkpt lat="48.96396" lon="0.22401">
        <ele>189</ele>
        <time>2018-09-23 09:35:16</time>
      </trkpt>
      <trkpt lat="48.96391" lon="0.22407">
        <ele>189</ele>
        <time>2018-09-23 09:35:18</time>
      </trkpt>
      <trkpt lat="48.96387" lon="0.22415">
        <ele>189</ele>
        <time>2018-09-23 09:35:20</time>
      </trkpt>
      <trkpt lat="48.96382" lon="0.22424">
        <ele>189</ele>
        <time>2018-09-23 09:35:22</time>
      </trkpt>
      <trkpt lat="48.96381" lon="0.22427">
        <ele>189</ele>
        <time>2018-09-23 09:35:23</time>
      </trkpt>
      <trkpt lat="48.96375" lon="0.22437">
        <ele>189</ele>
        <time>2018-09-23 09:35:25</time>
      </trkpt>
      <trkpt lat="48.96367" lon="0.22457">
        <ele>188</ele>
        <time>2018-09-23 09:35:27</time>
      </trkpt>
      <trkpt lat="48.96362" lon="0.22466">
        <ele>188</ele>
        <time>2018-09-23 09:35:29</time>
      </trkpt>
      <trkpt lat="48.96359" lon="0.22476">
        <ele>188</ele>
        <time>2018-09-23 09:35:30</time>
      </trkpt>
      <trkpt lat="48.96352" lon="0.22495">
        <ele>188</ele>
        <time>2018-09-23 09:35:32</time>
      </trkpt>
      <trkpt lat="48.96349" lon="0.22504">
        <ele>188</ele>
        <time>2018-09-23 09:35:34</time>
      </trkpt>
      <trkpt lat="48.96348" lon="0.2251">
        <ele>187</ele>
        <time>2018-09-23 09:35:35</time>
      </trkpt>
      <trkpt lat="48.96345" lon="0.22517">
        <ele>187</ele>
        <time>2018-09-23 09:35:37</time>
      </trkpt>
      <trkpt lat="48.96343" lon="0.22524">
        <ele>187</ele>
        <time>2018-09-23 09:35:39</time>
      </trkpt>
      <trkpt lat="48.96341" lon="0.22534">
        <ele>187</ele>
        <time>2018-09-23 09:35:41</time>
      </trkpt>
      <trkpt lat="48.9634" lon="0.22544">
        <ele>188</ele>
        <time>2018-09-23 09:35:43</time>
      </trkpt>
      <trkpt lat="48.9634" lon="0.22551">
        <ele>188</ele>
        <time>2018-09-23 09:35:44</time>
      </trkpt>
      <trkpt lat="48.9634" lon="0.22556">
        <ele>188</ele>
        <time>2018-09-23 09:35:45</time>
      </trkpt>
      <trkpt lat="48.96339" lon="0.22569">
        <ele>187</ele>
        <time>2018-09-23 09:35:47</time>
      </trkpt>
      <trkpt lat="48.96339" lon="0.22575">
        <ele>187</ele>
        <time>2018-09-23 09:35:48</time>
      </trkpt>
      <trkpt lat="48.96337" lon="0.22586">
        <ele>187</ele>
        <time>2018-09-23 09:35:50</time>
      </trkpt>
      <trkpt lat="48.96334" lon="0.22595">
        <ele>188</ele>
        <time>2018-09-23 09:35:52</time>
      </trkpt>
      <trkpt lat="48.96333" lon="0.22601">
        <ele>188</ele>
        <time>2018-09-23 09:35:53</time>
      </trkpt>
      <trkpt lat="48.96331" lon="0.22608">
        <ele>188</ele>
        <time>2018-09-23 09:35:54</time>
      </trkpt>
      <trkpt lat="48.96326" lon="0.22621">
        <ele>187</ele>
        <time>2018-09-23 09:35:56</time>
      </trkpt>
      <trkpt lat="48.96319" lon="0.22635">
        <ele>188</ele>
        <time>2018-09-23 09:35:58</time>
      </trkpt>
      <trkpt lat="48.96317" lon="0.2264">
        <ele>188</ele>
        <time>2018-09-23 09:35:59</time>
      </trkpt>
      <trkpt lat="48.96311" lon="0.22648">
        <ele>188</ele>
        <time>2018-09-23 09:36:01</time>
      </trkpt>
      <trkpt lat="48.96308" lon="0.22651">
        <ele>188</ele>
        <time>2018-09-23 09:36:02</time>
      </trkpt>
      <trkpt lat="48.96301" lon="0.22656">
        <ele>189</ele>
        <time>2018-09-23 09:36:04</time>
      </trkpt>
      <trkpt lat="48.96295" lon="0.22661">
        <ele>189</ele>
        <time>2018-09-23 09:36:06</time>
      </trkpt>
      <trkpt lat="48.96291" lon="0.22663">
        <ele>189</ele>
        <time>2018-09-23 09:36:07</time>
      </trkpt>
      <trkpt lat="48.96285" lon="0.22668">
        <ele>190</ele>
        <time>2018-09-23 09:36:09</time>
      </trkpt>
      <trkpt lat="48.96279" lon="0.22672">
        <ele>190</ele>
        <time>2018-09-23 09:36:11</time>
      </trkpt>
      <trkpt lat="48.96274" lon="0.22674">
        <ele>190</ele>
        <time>2018-09-23 09:36:12</time>
      </trkpt>
      <trkpt lat="48.96265" lon="0.22678">
        <ele>190</ele>
        <time>2018-09-23 09:36:14</time>
      </trkpt>
      <trkpt lat="48.96257" lon="0.22681">
        <ele>189</ele>
        <time>2018-09-23 09:36:16</time>
      </trkpt>
      <trkpt lat="48.96252" lon="0.22684">
        <ele>189</ele>
        <time>2018-09-23 09:36:17</time>
      </trkpt>
      <trkpt lat="48.96243" lon="0.2269">
        <ele>189</ele>
        <time>2018-09-23 09:36:19</time>
      </trkpt>
      <trkpt lat="48.96232" lon="0.22697">
        <ele>188</ele>
        <time>2018-09-23 09:36:21</time>
      </trkpt>
      <trkpt lat="48.96227" lon="0.227">
        <ele>188</ele>
        <time>2018-09-23 09:36:22</time>
      </trkpt>
      <trkpt lat="48.96216" lon="0.22709">
        <ele>187</ele>
        <time>2018-09-23 09:36:24</time>
      </trkpt>
      <trkpt lat="48.9621" lon="0.22713">
        <ele>187</ele>
        <time>2018-09-23 09:36:25</time>
      </trkpt>
      <trkpt lat="48.96202" lon="0.22723">
        <ele>187</ele>
        <time>2018-09-23 09:36:27</time>
      </trkpt>
      <trkpt lat="48.96194" lon="0.22736">
        <ele>187</ele>
        <time>2018-09-23 09:36:29</time>
      </trkpt>
      <trkpt lat="48.96192" lon="0.22742">
        <ele>187</ele>
        <time>2018-09-23 09:36:30</time>
      </trkpt>
      <trkpt lat="48.96193" lon="0.22758">
        <ele>186</ele>
        <time>2018-09-23 09:36:32</time>
      </trkpt>
      <trkpt lat="48.96196" lon="0.22775">
        <ele>186</ele>
        <time>2018-09-23 09:36:34</time>
      </trkpt>
      <trkpt lat="48.96198" lon="0.22793">
        <ele>185</ele>
        <time>2018-09-23 09:36:36</time>
      </trkpt>
      <trkpt lat="48.962" lon="0.2281">
        <ele>185</ele>
        <time>2018-09-23 09:36:38</time>
      </trkpt>
      <trkpt lat="48.962" lon="0.22829">
        <ele>185</ele>
        <time>2018-09-23 09:36:40</time>
      </trkpt>
      <trkpt lat="48.96201" lon="0.2285">
        <ele>184</ele>
        <time>2018-09-23 09:36:42</time>
      </trkpt>
      <trkpt lat="48.96203" lon="0.22873">
        <ele>184</ele>
        <time>2018-09-23 09:36:44</time>
      </trkpt>
      <trkpt lat="48.96202" lon="0.22895">
        <ele>183</ele>
        <time>2018-09-23 09:36:46</time>
      </trkpt>
      <trkpt lat="48.96201" lon="0.22905">
        <ele>183</ele>
        <time>2018-09-23 09:36:47</time>
      </trkpt>
      <trkpt lat="48.96198" lon="0.22924">
        <ele>182</ele>
        <time>2018-09-23 09:36:49</time>
      </trkpt>
      <trkpt lat="48.96196" lon="0.22943">
        <ele>182</ele>
        <time>2018-09-23 09:36:51</time>
      </trkpt>
      <trkpt lat="48.96192" lon="0.2296">
        <ele>181</ele>
        <time>2018-09-23 09:36:53</time>
      </trkpt>
      <trkpt lat="48.9619" lon="0.22968">
        <ele>181</ele>
        <time>2018-09-23 09:36:54</time>
      </trkpt>
      <trkpt lat="48.96188" lon="0.22983">
        <ele>180</ele>
        <time>2018-09-23 09:36:56</time>
      </trkpt>
      <trkpt lat="48.96184" lon="0.22993">
        <ele>180</ele>
        <time>2018-09-23 09:36:58</time>
      </trkpt>
      <trkpt lat="48.96181" lon="0.23005">
        <ele>180</ele>
        <time>2018-09-23 09:37:00</time>
      </trkpt>
      <trkpt lat="48.96178" lon="0.23018">
        <ele>179</ele>
        <time>2018-09-23 09:37:02</time>
      </trkpt>
      <trkpt lat="48.96176" lon="0.23023">
        <ele>179</ele>
        <time>2018-09-23 09:37:03</time>
      </trkpt>
      <trkpt lat="48.96174" lon="0.23032">
        <ele>179</ele>
        <time>2018-09-23 09:37:05</time>
      </trkpt>
      <trkpt lat="48.96173" lon="0.23035">
        <ele>179</ele>
        <time>2018-09-23 09:37:06</time>
      </trkpt>
      <trkpt lat="48.96173" lon="0.23038">
        <ele>179</ele>
        <time>2018-09-23 09:37:08</time>
      </trkpt>
      <trkpt lat="48.96174" lon="0.23037">
        <ele>179</ele>
        <time>2018-09-23 09:37:10</time>
      </trkpt>
      <trkpt lat="48.96174" lon="0.23037">
        <ele>179</ele>
        <time>2018-09-23 09:37:12</time>
      </trkpt>
      <trkpt lat="48.96179" lon="0.23026">
        <ele>180</ele>
        <time>2018-09-23 09:37:14</time>
      </trkpt>
      <trkpt lat="48.96182" lon="0.23016">
        <ele>180</ele>
        <time>2018-09-23 09:37:16</time>
      </trkpt>
      <trkpt lat="48.96184" lon="0.23007">
        <ele>180</ele>
        <time>2018-09-23 09:37:18</time>
      </trkpt>
      <trkpt lat="48.96186" lon="0.23">
        <ele>180</ele>
        <time>2018-09-23 09:37:20</time>
      </trkpt>
      <trkpt lat="48.96188" lon="0.22993">
        <ele>180</ele>
        <time>2018-09-23 09:37:22</time>
      </trkpt>
      <trkpt lat="48.96189" lon="0.22989">
        <ele>180</ele>
        <time>2018-09-23 09:37:23</time>
      </trkpt>
      <trkpt lat="48.96191" lon="0.22986">
        <ele>180</ele>
        <time>2018-09-23 09:37:25</time>
      </trkpt>
      <trkpt lat="48.96191" lon="0.22985">
        <ele>180</ele>
        <time>2018-09-23 09:37:26</time>
      </trkpt>
      <trkpt lat="48.96191" lon="0.22985">
        <ele>180</ele>
        <time>2018-09-23 09:37:27</time>
      </trkpt>
      <trkpt lat="48.9619" lon="0.22986">
        <ele>181</ele>
        <time>2018-09-23 09:37:29</time>
      </trkpt>
      <trkpt lat="48.9619" lon="0.22988">
        <ele>181</ele>
        <time>2018-09-23 09:37:30</time>
      </trkpt>
      <trkpt lat="48.9619" lon="0.22989">
        <ele>181</ele>
        <time>2018-09-23 09:37:31</time>
      </trkpt>
      <trkpt lat="48.9619" lon="0.22989">
        <ele>181</ele>
        <time>2018-09-23 09:37:32</time>
      </trkpt>
      <trkpt lat="48.96187" lon="0.22994">
        <ele>181</ele>
        <time>2018-09-23 09:37:34</time>
      </trkpt>
      <trkpt lat="48.96186" lon="0.22998">
        <ele>181</ele>
        <time>2018-09-23 09:37:35</time>
      </trkpt>
      <trkpt lat="48.96185" lon="0.23002">
        <ele>181</ele>
        <time>2018-09-23 09:37:36</time>
      </trkpt>
      <trkpt lat="48.96182" lon="0.23014">
        <ele>181</ele>
        <time>2018-09-23 09:37:38</time>
      </trkpt>
      <trkpt lat="48.96178" lon="0.23025">
        <ele>181</ele>
        <time>2018-09-23 09:37:40</time>
      </trkpt>
      <trkpt lat="48.96173" lon="0.23036">
        <ele>181</ele>
        <time>2018-09-23 09:37:42</time>
      </trkpt>
      <trkpt lat="48.96171" lon="0.23041">
        <ele>181</ele>
        <time>2018-09-23 09:37:43</time>
      </trkpt>
      <trkpt lat="48.96166" lon="0.23053">
        <ele>181</ele>
        <time>2018-09-23 09:37:45</time>
      </trkpt>
      <trkpt lat="48.96163" lon="0.23059">
        <ele>181</ele>
        <time>2018-09-23 09:37:46</time>
      </trkpt>
      <trkpt lat="48.96158" lon="0.23072">
        <ele>181</ele>
        <time>2018-09-23 09:37:48</time>
      </trkpt>
      <trkpt lat="48.96155" lon="0.23077">
        <ele>181</ele>
        <time>2018-09-23 09:37:49</time>
      </trkpt>
      <trkpt lat="48.96148" lon="0.23089">
        <ele>181</ele>
        <time>2018-09-23 09:37:51</time>
      </trkpt>
      <trkpt lat="48.96145" lon="0.23095">
        <ele>181</ele>
        <time>2018-09-23 09:37:52</time>
      </trkpt>
      <trkpt lat="48.96138" lon="0.23107">
        <ele>181</ele>
        <time>2018-09-23 09:37:54</time>
      </trkpt>
      <trkpt lat="48.96133" lon="0.23113">
        <ele>181</ele>
        <time>2018-09-23 09:37:55</time>
      </trkpt>
      <trkpt lat="48.96126" lon="0.23123">
        <ele>181</ele>
        <time>2018-09-23 09:37:57</time>
      </trkpt>
      <trkpt lat="48.96118" lon="0.2313">
        <ele>181</ele>
        <time>2018-09-23 09:37:59</time>
      </trkpt>
      <trkpt lat="48.96109" lon="0.23135">
        <ele>182</ele>
        <time>2018-09-23 09:38:01</time>
      </trkpt>
      <trkpt lat="48.961" lon="0.2314">
        <ele>182</ele>
        <time>2018-09-23 09:38:03</time>
      </trkpt>
      <trkpt lat="48.96092" lon="0.23146">
        <ele>182</ele>
        <time>2018-09-23 09:38:05</time>
      </trkpt>
      <trkpt lat="48.96088" lon="0.2315">
        <ele>183</ele>
        <time>2018-09-23 09:38:06</time>
      </trkpt>
      <trkpt lat="48.96084" lon="0.23153">
        <ele>183</ele>
        <time>2018-09-23 09:38:07</time>
      </trkpt>
      <trkpt lat="48.96076" lon="0.23162">
        <ele>183</ele>
        <time>2018-09-23 09:38:09</time>
      </trkpt>
      <trkpt lat="48.96068" lon="0.23171">
        <ele>184</ele>
        <time>2018-09-23 09:38:11</time>
      </trkpt>
      <trkpt lat="48.9606" lon="0.2318">
        <ele>184</ele>
        <time>2018-09-23 09:38:13</time>
      </trkpt>
      <trkpt lat="48.96052" lon="0.23188">
        <ele>185</ele>
        <time>2018-09-23 09:38:15</time>
      </trkpt>
      <trkpt lat="48.96044" lon="0.23197">
        <ele>185</ele>
        <time>2018-09-23 09:38:17</time>
      </trkpt>
      <trkpt lat="48.9604" lon="0.23201">
        <ele>186</ele>
        <time>2018-09-23 09:38:18</time>
      </trkpt>
      <trkpt lat="48.96032" lon="0.23209">
        <ele>186</ele>
        <time>2018-09-23 09:38:20</time>
      </trkpt>
      <trkpt lat="48.96028" lon="0.23213">
        <ele>187</ele>
        <time>2018-09-23 09:38:21</time>
      </trkpt>
      <trkpt lat="48.9602" lon="0.23221">
        <ele>188</ele>
        <time>2018-09-23 09:38:23</time>
      </trkpt>
      <trkpt lat="48.96016" lon="0.23225">
        <ele>189</ele>
        <time>2018-09-23 09:38:24</time>
      </trkpt>
      <trkpt lat="48.96008" lon="0.23234">
        <ele>189</ele>
        <time>2018-09-23 09:38:26</time>
      </trkpt>
      <trkpt lat="48.96004" lon="0.23239">
        <ele>190</ele>
        <time>2018-09-23 09:38:27</time>
      </trkpt>
      <trkpt lat="48.96" lon="0.23244">
        <ele>190</ele>
        <time>2018-09-23 09:38:28</time>
      </trkpt>
      <trkpt lat="48.95992" lon="0.23253">
        <ele>190</ele>
        <time>2018-09-23 09:38:30</time>
      </trkpt>
      <trkpt lat="48.95984" lon="0.23262">
        <ele>191</ele>
        <time>2018-09-23 09:38:32</time>
      </trkpt>
      <trkpt lat="48.9598" lon="0.23266">
        <ele>191</ele>
        <time>2018-09-23 09:38:33</time>
      </trkpt>
      <trkpt lat="48.95973" lon="0.23274">
        <ele>192</ele>
        <time>2018-09-23 09:38:35</time>
      </trkpt>
      <trkpt lat="48.9597" lon="0.23278">
        <ele>192</ele>
        <time>2018-09-23 09:38:36</time>
      </trkpt>
      <trkpt lat="48.95962" lon="0.23287">
        <ele>192</ele>
        <time>2018-09-23 09:38:38</time>
      </trkpt>
      <trkpt lat="48.95953" lon="0.23294">
        <ele>192</ele>
        <time>2018-09-23 09:38:40</time>
      </trkpt>
      <trkpt lat="48.95945" lon="0.23302">
        <ele>193</ele>
        <time>2018-09-23 09:38:42</time>
      </trkpt>
      <trkpt lat="48.95936" lon="0.23309">
        <ele>193</ele>
        <time>2018-09-23 09:38:44</time>
      </trkpt>
      <trkpt lat="48.95929" lon="0.23316">
        <ele>194</ele>
        <time>2018-09-23 09:38:46</time>
      </trkpt>
      <trkpt lat="48.95923" lon="0.23323">
        <ele>194</ele>
        <time>2018-09-23 09:38:48</time>
      </trkpt>
      <trkpt lat="48.95916" lon="0.23333">
        <ele>194</ele>
        <time>2018-09-23 09:38:50</time>
      </trkpt>
      <trkpt lat="48.95909" lon="0.23342">
        <ele>195</ele>
        <time>2018-09-23 09:38:52</time>
      </trkpt>
      <trkpt lat="48.95905" lon="0.23347">
        <ele>195</ele>
        <time>2018-09-23 09:38:53</time>
      </trkpt>
      <trkpt lat="48.95902" lon="0.23352">
        <ele>195</ele>
        <time>2018-09-23 09:38:54</time>
      </trkpt>
      <trkpt lat="48.95896" lon="0.23366">
        <ele>196</ele>
        <time>2018-09-23 09:38:56</time>
      </trkpt>
      <trkpt lat="48.95892" lon="0.23381">
        <ele>196</ele>
        <time>2018-09-23 09:38:58</time>
      </trkpt>
      <trkpt lat="48.95887" lon="0.23397">
        <ele>196</ele>
        <time>2018-09-23 09:39:00</time>
      </trkpt>
      <trkpt lat="48.95882" lon="0.23412">
        <ele>196</ele>
        <time>2018-09-23 09:39:02</time>
      </trkpt>
      <trkpt lat="48.95877" lon="0.23427">
        <ele>196</ele>
        <time>2018-09-23 09:39:04</time>
      </trkpt>
      <trkpt lat="48.95872" lon="0.23443">
        <ele>196</ele>
        <time>2018-09-23 09:39:06</time>
      </trkpt>
      <trkpt lat="48.95867" lon="0.23458">
        <ele>196</ele>
        <time>2018-09-23 09:39:08</time>
      </trkpt>
      <trkpt lat="48.95864" lon="0.23465">
        <ele>196</ele>
        <time>2018-09-23 09:39:09</time>
      </trkpt>
      <trkpt lat="48.95858" lon="0.2348">
        <ele>196</ele>
        <time>2018-09-23 09:39:11</time>
      </trkpt>
      <trkpt lat="48.95856" lon="0.23487">
        <ele>197</ele>
        <time>2018-09-23 09:39:12</time>
      </trkpt>
      <trkpt lat="48.95851" lon="0.23502">
        <ele>197</ele>
        <time>2018-09-23 09:39:14</time>
      </trkpt>
      <trkpt lat="48.95848" lon="0.23509">
        <ele>197</ele>
        <time>2018-09-23 09:39:15</time>
      </trkpt>
      <trkpt lat="48.95841" lon="0.23523">
        <ele>197</ele>
        <time>2018-09-23 09:39:17</time>
      </trkpt>
      <trkpt lat="48.95839" lon="0.2353">
        <ele>197</ele>
        <time>2018-09-23 09:39:18</time>
      </trkpt>
      <trkpt lat="48.95833" lon="0.23545">
        <ele>198</ele>
        <time>2018-09-23 09:39:20</time>
      </trkpt>
      <trkpt lat="48.95828" lon="0.23559">
        <ele>198</ele>
        <time>2018-09-23 09:39:22</time>
      </trkpt>
      <trkpt lat="48.95825" lon="0.23566">
        <ele>198</ele>
        <time>2018-09-23 09:39:23</time>
      </trkpt>
      <trkpt lat="48.95823" lon="0.23573">
        <ele>198</ele>
        <time>2018-09-23 09:39:24</time>
      </trkpt>
      <trkpt lat="48.9582" lon="0.2358">
        <ele>199</ele>
        <time>2018-09-23 09:39:25</time>
      </trkpt>
      <trkpt lat="48.95813" lon="0.23594">
        <ele>199</ele>
        <time>2018-09-23 09:39:27</time>
      </trkpt>
      <trkpt lat="48.95806" lon="0.23604">
        <ele>199</ele>
        <time>2018-09-23 09:39:29</time>
      </trkpt>
      <trkpt lat="48.95802" lon="0.2361">
        <ele>199</ele>
        <time>2018-09-23 09:39:30</time>
      </trkpt>
      <trkpt lat="48.95794" lon="0.2362">
        <ele>200</ele>
        <time>2018-09-23 09:39:32</time>
      </trkpt>
      <trkpt lat="48.95785" lon="0.2363">
        <ele>200</ele>
        <time>2018-09-23 09:39:34</time>
      </trkpt>
      <trkpt lat="48.9578" lon="0.23634">
        <ele>201</ele>
        <time>2018-09-23 09:39:35</time>
      </trkpt>
      <trkpt lat="48.95771" lon="0.23643">
        <ele>201</ele>
        <time>2018-09-23 09:39:37</time>
      </trkpt>
      <trkpt lat="48.95767" lon="0.23647">
        <ele>201</ele>
        <time>2018-09-23 09:39:38</time>
      </trkpt>
      <trkpt lat="48.95758" lon="0.23655">
        <ele>202</ele>
        <time>2018-09-23 09:39:40</time>
      </trkpt>
      <trkpt lat="48.95748" lon="0.23663">
        <ele>203</ele>
        <time>2018-09-23 09:39:42</time>
      </trkpt>
      <trkpt lat="48.95738" lon="0.23671">
        <ele>204</ele>
        <time>2018-09-23 09:39:44</time>
      </trkpt>
      <trkpt lat="48.95729" lon="0.23679">
        <ele>204</ele>
        <time>2018-09-23 09:39:46</time>
      </trkpt>
      <trkpt lat="48.95719" lon="0.23686">
        <ele>205</ele>
        <time>2018-09-23 09:39:48</time>
      </trkpt>
      <trkpt lat="48.95711" lon="0.23695">
        <ele>205</ele>
        <time>2018-09-23 09:39:50</time>
      </trkpt>
      <trkpt lat="48.95702" lon="0.23704">
        <ele>206</ele>
        <time>2018-09-23 09:39:52</time>
      </trkpt>
      <trkpt lat="48.95693" lon="0.23713">
        <ele>206</ele>
        <time>2018-09-23 09:39:54</time>
      </trkpt>
      <trkpt lat="48.95685" lon="0.23724">
        <ele>207</ele>
        <time>2018-09-23 09:39:56</time>
      </trkpt>
      <trkpt lat="48.95676" lon="0.23734">
        <ele>207</ele>
        <time>2018-09-23 09:39:58</time>
      </trkpt>
      <trkpt lat="48.95672" lon="0.23739">
        <ele>207</ele>
        <time>2018-09-23 09:39:59</time>
      </trkpt>
      <trkpt lat="48.95664" lon="0.2375">
        <ele>207</ele>
        <time>2018-09-23 09:40:01</time>
      </trkpt>
      <trkpt lat="48.95656" lon="0.23761">
        <ele>207</ele>
        <time>2018-09-23 09:40:03</time>
      </trkpt>
      <trkpt lat="48.95649" lon="0.23774">
        <ele>206</ele>
        <time>2018-09-23 09:40:05</time>
      </trkpt>
      <trkpt lat="48.95646" lon="0.2378">
        <ele>206</ele>
        <time>2018-09-23 09:40:06</time>
      </trkpt>
      <trkpt lat="48.9564" lon="0.23794">
        <ele>206</ele>
        <time>2018-09-23 09:40:08</time>
      </trkpt>
      <trkpt lat="48.95634" lon="0.23807">
        <ele>206</ele>
        <time>2018-09-23 09:40:10</time>
      </trkpt>
      <trkpt lat="48.95628" lon="0.23818">
        <ele>206</ele>
        <time>2018-09-23 09:40:12</time>
      </trkpt>
      <trkpt lat="48.9562" lon="0.23823">
        <ele>205</ele>
        <time>2018-09-23 09:40:14</time>
      </trkpt>
      <trkpt lat="48.95612" lon="0.23827">
        <ele>205</ele>
        <time>2018-09-23 09:40:16</time>
      </trkpt>
      <trkpt lat="48.95604" lon="0.23829">
        <ele>205</ele>
        <time>2018-09-23 09:40:18</time>
      </trkpt>
      <trkpt lat="48.956" lon="0.2383">
        <ele>205</ele>
        <time>2018-09-23 09:40:19</time>
      </trkpt>
      <trkpt lat="48.95594" lon="0.23831">
        <ele>206</ele>
        <time>2018-09-23 09:40:21</time>
      </trkpt>
      <trkpt lat="48.95592" lon="0.23831">
        <ele>206</ele>
        <time>2018-09-23 09:40:23</time>
      </trkpt>
      <trkpt lat="48.95593" lon="0.23831">
        <ele>206</ele>
        <time>2018-09-23 09:40:24</time>
      </trkpt>
      <trkpt lat="48.95593" lon="0.23832">
        <ele>206</ele>
        <time>2018-09-23 09:40:26</time>
      </trkpt>
      <trkpt lat="48.95586" lon="0.23839">
        <ele>206</ele>
        <time>2018-09-23 09:40:27</time>
      </trkpt>
      <trkpt lat="48.95584" lon="0.2384">
        <ele>206</ele>
        <time>2018-09-23 09:40:28</time>
      </trkpt>
      <trkpt lat="48.95577" lon="0.23842">
        <ele>206</ele>
        <time>2018-09-23 09:40:30</time>
      </trkpt>
      <trkpt lat="48.95569" lon="0.23844">
        <ele>205</ele>
        <time>2018-09-23 09:40:32</time>
      </trkpt>
      <trkpt lat="48.95559" lon="0.23845">
        <ele>205</ele>
        <time>2018-09-23 09:40:34</time>
      </trkpt>
      <trkpt lat="48.95554" lon="0.23846">
        <ele>205</ele>
        <time>2018-09-23 09:40:35</time>
      </trkpt>
      <trkpt lat="48.95548" lon="0.23848">
        <ele>205</ele>
        <time>2018-09-23 09:40:36</time>
      </trkpt>
      <trkpt lat="48.95537" lon="0.2385">
        <ele>205</ele>
        <time>2018-09-23 09:40:38</time>
      </trkpt>
      <trkpt lat="48.95526" lon="0.23853">
        <ele>205</ele>
        <time>2018-09-23 09:40:40</time>
      </trkpt>
      <trkpt lat="48.95514" lon="0.23857">
        <ele>205</ele>
        <time>2018-09-23 09:40:42</time>
      </trkpt>
      <trkpt lat="48.95504" lon="0.23859">
        <ele>205</ele>
        <time>2018-09-23 09:40:44</time>
      </trkpt>
      <trkpt lat="48.95502" lon="0.23859">
        <ele>205</ele>
        <time>2018-09-23 09:40:45</time>
      </trkpt>
      <trkpt lat="48.955" lon="0.23861">
        <ele>205</ele>
        <time>2018-09-23 09:40:47</time>
      </trkpt>
      <trkpt lat="48.955" lon="0.23863">
        <ele>205</ele>
        <time>2018-09-23 09:40:48</time>
      </trkpt>
      <trkpt lat="48.95502" lon="0.23872">
        <ele>205</ele>
        <time>2018-09-23 09:40:50</time>
      </trkpt>
      <trkpt lat="48.95504" lon="0.23883">
        <ele>204</ele>
        <time>2018-09-23 09:40:52</time>
      </trkpt>
      <trkpt lat="48.95504" lon="0.23893">
        <ele>204</ele>
        <time>2018-09-23 09:40:54</time>
      </trkpt>
      <trkpt lat="48.95503" lon="0.23903">
        <ele>203</ele>
        <time>2018-09-23 09:40:56</time>
      </trkpt>
      <trkpt lat="48.95503" lon="0.23915">
        <ele>203</ele>
        <time>2018-09-23 09:40:58</time>
      </trkpt>
      <trkpt lat="48.95502" lon="0.23929">
        <ele>203</ele>
        <time>2018-09-23 09:41:00</time>
      </trkpt>
      <trkpt lat="48.95501" lon="0.2394">
        <ele>203</ele>
        <time>2018-09-23 09:41:02</time>
      </trkpt>
      <trkpt lat="48.95502" lon="0.23951">
        <ele>203</ele>
        <time>2018-09-23 09:41:04</time>
      </trkpt>
      <trkpt lat="48.95502" lon="0.23957">
        <ele>203</ele>
        <time>2018-09-23 09:41:05</time>
      </trkpt>
      <trkpt lat="48.95502" lon="0.23969">
        <ele>203</ele>
        <time>2018-09-23 09:41:07</time>
      </trkpt>
      <trkpt lat="48.95501" lon="0.23975">
        <ele>203</ele>
        <time>2018-09-23 09:41:08</time>
      </trkpt>
      <trkpt lat="48.95501" lon="0.23986">
        <ele>203</ele>
        <time>2018-09-23 09:41:10</time>
      </trkpt>
      <trkpt lat="48.955" lon="0.23998">
        <ele>203</ele>
        <time>2018-09-23 09:41:12</time>
      </trkpt>
      <trkpt lat="48.95501" lon="0.2401">
        <ele>203</ele>
        <time>2018-09-23 09:41:14</time>
      </trkpt>
      <trkpt lat="48.95501" lon="0.24017">
        <ele>203</ele>
        <time>2018-09-23 09:41:15</time>
      </trkpt>
      <trkpt lat="48.95501" lon="0.24027">
        <ele>203</ele>
        <time>2018-09-23 09:41:17</time>
      </trkpt>
      <trkpt lat="48.95502" lon="0.24033">
        <ele>203</ele>
        <time>2018-09-23 09:41:18</time>
      </trkpt>
      <trkpt lat="48.95502" lon="0.24045">
        <ele>204</ele>
        <time>2018-09-23 09:41:20</time>
      </trkpt>
      <trkpt lat="48.95503" lon="0.24058">
        <ele>204</ele>
        <time>2018-09-23 09:41:22</time>
      </trkpt>
      <trkpt lat="48.95503" lon="0.24064">
        <ele>204</ele>
        <time>2018-09-23 09:41:23</time>
      </trkpt>
      <trkpt lat="48.95503" lon="0.24071">
        <ele>205</ele>
        <time>2018-09-23 09:41:24</time>
      </trkpt>
      <trkpt lat="48.95504" lon="0.24085">
        <ele>205</ele>
        <time>2018-09-23 09:41:26</time>
      </trkpt>
      <trkpt lat="48.95505" lon="0.24098">
        <ele>206</ele>
        <time>2018-09-23 09:41:28</time>
      </trkpt>
      <trkpt lat="48.95505" lon="0.24104">
        <ele>206</ele>
        <time>2018-09-23 09:41:29</time>
      </trkpt>
      <trkpt lat="48.95505" lon="0.24111">
        <ele>205</ele>
        <time>2018-09-23 09:41:30</time>
      </trkpt>
      <trkpt lat="48.95505" lon="0.24125">
        <ele>205</ele>
        <time>2018-09-23 09:41:32</time>
      </trkpt>
      <trkpt lat="48.95506" lon="0.24132">
        <ele>205</ele>
        <time>2018-09-23 09:41:33</time>
      </trkpt>
      <trkpt lat="48.95506" lon="0.24145">
        <ele>205</ele>
        <time>2018-09-23 09:41:35</time>
      </trkpt>
      <trkpt lat="48.95506" lon="0.24152">
        <ele>205</ele>
        <time>2018-09-23 09:41:36</time>
      </trkpt>
      <trkpt lat="48.95506" lon="0.24164">
        <ele>205</ele>
        <time>2018-09-23 09:41:38</time>
      </trkpt>
      <trkpt lat="48.95505" lon="0.24175">
        <ele>205</ele>
        <time>2018-09-23 09:41:40</time>
      </trkpt>
      <trkpt lat="48.95505" lon="0.24182">
        <ele>205</ele>
        <time>2018-09-23 09:41:41</time>
      </trkpt>
      <trkpt lat="48.95505" lon="0.24187">
        <ele>206</ele>
        <time>2018-09-23 09:41:42</time>
      </trkpt>
      <trkpt lat="48.95505" lon="0.242">
        <ele>205</ele>
        <time>2018-09-23 09:41:44</time>
      </trkpt>
      <trkpt lat="48.95504" lon="0.24212">
        <ele>206</ele>
        <time>2018-09-23 09:41:46</time>
      </trkpt>
      <trkpt lat="48.95504" lon="0.24222">
        <ele>206</ele>
        <time>2018-09-23 09:41:48</time>
      </trkpt>
      <trkpt lat="48.95504" lon="0.24228">
        <ele>206</ele>
        <time>2018-09-23 09:41:50</time>
      </trkpt>
      <trkpt lat="48.95503" lon="0.24232">
        <ele>206</ele>
        <time>2018-09-23 09:41:52</time>
      </trkpt>
      <trkpt lat="48.95501" lon="0.24232">
        <ele>206</ele>
        <time>2018-09-23 09:41:53</time>
      </trkpt>
      <trkpt lat="48.95499" lon="0.24232">
        <ele>207</ele>
        <time>2018-09-23 09:41:54</time>
      </trkpt>
      <trkpt lat="48.95494" lon="0.2423">
        <ele>206</ele>
        <time>2018-09-23 09:41:56</time>
      </trkpt>
      <trkpt lat="48.9549" lon="0.24236">
        <ele>207</ele>
        <time>2018-09-23 09:41:58</time>
      </trkpt>
      <trkpt lat="48.95488" lon="0.24245">
        <ele>207</ele>
        <time>2018-09-23 09:42:00</time>
      </trkpt>
      <trkpt lat="48.95486" lon="0.24256">
        <ele>207</ele>
        <time>2018-09-23 09:42:02</time>
      </trkpt>
      <trkpt lat="48.95485" lon="0.24262">
        <ele>207</ele>
        <time>2018-09-23 09:42:03</time>
      </trkpt>
      <trkpt lat="48.95484" lon="0.24267">
        <ele>207</ele>
        <time>2018-09-23 09:42:04</time>
      </trkpt>
      <trkpt lat="48.95483" lon="0.24278">
        <ele>207</ele>
        <time>2018-09-23 09:42:06</time>
      </trkpt>
      <trkpt lat="48.95482" lon="0.24291">
        <ele>207</ele>
        <time>2018-09-23 09:42:08</time>
      </trkpt>
      <trkpt lat="48.95481" lon="0.24304">
        <ele>207</ele>
        <time>2018-09-23 09:42:10</time>
      </trkpt>
      <trkpt lat="48.9548" lon="0.24311">
        <ele>207</ele>
        <time>2018-09-23 09:42:11</time>
      </trkpt>
      <trkpt lat="48.9548" lon="0.24318">
        <ele>207</ele>
        <time>2018-09-23 09:42:12</time>
      </trkpt>
      <trkpt lat="48.95479" lon="0.24332">
        <ele>207</ele>
        <time>2018-09-23 09:42:14</time>
      </trkpt>
      <trkpt lat="48.95479" lon="0.24347">
        <ele>207</ele>
        <time>2018-09-23 09:42:16</time>
      </trkpt>
      <trkpt lat="48.95478" lon="0.24361">
        <ele>207</ele>
        <time>2018-09-23 09:42:18</time>
      </trkpt>
      <trkpt lat="48.95478" lon="0.24375">
        <ele>207</ele>
        <time>2018-09-23 09:42:20</time>
      </trkpt>
      <trkpt lat="48.95477" lon="0.24389">
        <ele>207</ele>
        <time>2018-09-23 09:42:22</time>
      </trkpt>
      <trkpt lat="48.95477" lon="0.24403">
        <ele>207</ele>
        <time>2018-09-23 09:42:24</time>
      </trkpt>
      <trkpt lat="48.95476" lon="0.24417">
        <ele>207</ele>
        <time>2018-09-23 09:42:26</time>
      </trkpt>
      <trkpt lat="48.95475" lon="0.24432">
        <ele>207</ele>
        <time>2018-09-23 09:42:28</time>
      </trkpt>
      <trkpt lat="48.95475" lon="0.2444">
        <ele>207</ele>
        <time>2018-09-23 09:42:29</time>
      </trkpt>
      <trkpt lat="48.95476" lon="0.24453">
        <ele>208</ele>
        <time>2018-09-23 09:42:31</time>
      </trkpt>
      <trkpt lat="48.95476" lon="0.2446">
        <ele>208</ele>
        <time>2018-09-23 09:42:32</time>
      </trkpt>
      <trkpt lat="48.95475" lon="0.24476">
        <ele>208</ele>
        <time>2018-09-23 09:42:34</time>
      </trkpt>
      <trkpt lat="48.95474" lon="0.24484">
        <ele>208</ele>
        <time>2018-09-23 09:42:35</time>
      </trkpt>
      <trkpt lat="48.95474" lon="0.24492">
        <ele>209</ele>
        <time>2018-09-23 09:42:36</time>
      </trkpt>
      <trkpt lat="48.95474" lon="0.24507">
        <ele>208</ele>
        <time>2018-09-23 09:42:38</time>
      </trkpt>
      <trkpt lat="48.95474" lon="0.24514">
        <ele>209</ele>
        <time>2018-09-23 09:42:39</time>
      </trkpt>
      <trkpt lat="48.95476" lon="0.24528">
        <ele>209</ele>
        <time>2018-09-23 09:42:41</time>
      </trkpt>
      <trkpt lat="48.95477" lon="0.24535">
        <ele>209</ele>
        <time>2018-09-23 09:42:42</time>
      </trkpt>
      <trkpt lat="48.95479" lon="0.24548">
        <ele>209</ele>
        <time>2018-09-23 09:42:44</time>
      </trkpt>
      <trkpt lat="48.95479" lon="0.24562">
        <ele>209</ele>
        <time>2018-09-23 09:42:46</time>
      </trkpt>
      <trkpt lat="48.95478" lon="0.24575">
        <ele>209</ele>
        <time>2018-09-23 09:42:48</time>
      </trkpt>
      <trkpt lat="48.95478" lon="0.24589">
        <ele>209</ele>
        <time>2018-09-23 09:42:50</time>
      </trkpt>
      <trkpt lat="48.95477" lon="0.24604">
        <ele>208</ele>
        <time>2018-09-23 09:42:52</time>
      </trkpt>
      <trkpt lat="48.95476" lon="0.24617">
        <ele>208</ele>
        <time>2018-09-23 09:42:54</time>
      </trkpt>
      <trkpt lat="48.95474" lon="0.2463">
        <ele>208</ele>
        <time>2018-09-23 09:42:56</time>
      </trkpt>
      <trkpt lat="48.95473" lon="0.24643">
        <ele>208</ele>
        <time>2018-09-23 09:42:58</time>
      </trkpt>
      <trkpt lat="48.95472" lon="0.2465">
        <ele>208</ele>
        <time>2018-09-23 09:42:59</time>
      </trkpt>
      <trkpt lat="48.95472" lon="0.24657">
        <ele>208</ele>
        <time>2018-09-23 09:43:00</time>
      </trkpt>
      <trkpt lat="48.95471" lon="0.2467">
        <ele>208</ele>
        <time>2018-09-23 09:43:02</time>
      </trkpt>
      <trkpt lat="48.95471" lon="0.24686">
        <ele>207</ele>
        <time>2018-09-23 09:43:04</time>
      </trkpt>
      <trkpt lat="48.9547" lon="0.247">
        <ele>207</ele>
        <time>2018-09-23 09:43:06</time>
      </trkpt>
      <trkpt lat="48.95468" lon="0.24715">
        <ele>207</ele>
        <time>2018-09-23 09:43:08</time>
      </trkpt>
      <trkpt lat="48.95468" lon="0.24723">
        <ele>206</ele>
        <time>2018-09-23 09:43:09</time>
      </trkpt>
      <trkpt lat="48.95468" lon="0.24739">
        <ele>206</ele>
        <time>2018-09-23 09:43:11</time>
      </trkpt>
      <trkpt lat="48.95468" lon="0.24747">
        <ele>206</ele>
        <time>2018-09-23 09:43:12</time>
      </trkpt>
      <trkpt lat="48.95469" lon="0.24766">
        <ele>206</ele>
        <time>2018-09-23 09:43:14</time>
      </trkpt>
      <trkpt lat="48.95469" lon="0.24781">
        <ele>205</ele>
        <time>2018-09-23 09:43:16</time>
      </trkpt>
      <trkpt lat="48.95468" lon="0.24797">
        <ele>205</ele>
        <time>2018-09-23 09:43:18</time>
      </trkpt>
      <trkpt lat="48.95469" lon="0.24813">
        <ele>204</ele>
        <time>2018-09-23 09:43:20</time>
      </trkpt>
      <trkpt lat="48.95469" lon="0.24829">
        <ele>204</ele>
        <time>2018-09-23 09:43:22</time>
      </trkpt>
      <trkpt lat="48.95468" lon="0.24844">
        <ele>204</ele>
        <time>2018-09-23 09:43:24</time>
      </trkpt>
      <trkpt lat="48.95466" lon="0.24858">
        <ele>203</ele>
        <time>2018-09-23 09:43:26</time>
      </trkpt>
      <trkpt lat="48.95465" lon="0.24872">
        <ele>203</ele>
        <time>2018-09-23 09:43:28</time>
      </trkpt>
      <trkpt lat="48.95464" lon="0.24889">
        <ele>202</ele>
        <time>2018-09-23 09:43:30</time>
      </trkpt>
      <trkpt lat="48.95463" lon="0.24906">
        <ele>201</ele>
        <time>2018-09-23 09:43:32</time>
      </trkpt>
      <trkpt lat="48.95461" lon="0.24917">
        <ele>200</ele>
        <time>2018-09-23 09:43:34</time>
      </trkpt>
      <trkpt lat="48.9546" lon="0.24927">
        <ele>200</ele>
        <time>2018-09-23 09:43:36</time>
      </trkpt>
      <trkpt lat="48.95465" lon="0.2493">
        <ele>200</ele>
        <time>2018-09-23 09:43:38</time>
      </trkpt>
      <trkpt lat="48.95472" lon="0.24931">
        <ele>200</ele>
        <time>2018-09-23 09:43:40</time>
      </trkpt>
      <trkpt lat="48.95478" lon="0.24931">
        <ele>201</ele>
        <time>2018-09-23 09:43:42</time>
      </trkpt>
      <trkpt lat="48.95486" lon="0.24931">
        <ele>201</ele>
        <time>2018-09-23 09:43:44</time>
      </trkpt>
      <trkpt lat="48.95491" lon="0.24931">
        <ele>202</ele>
        <time>2018-09-23 09:43:45</time>
      </trkpt>
      <trkpt lat="48.955" lon="0.24931">
        <ele>202</ele>
        <time>2018-09-23 09:43:47</time>
      </trkpt>
      <trkpt lat="48.9551" lon="0.2493">
        <ele>202</ele>
        <time>2018-09-23 09:43:49</time>
      </trkpt>
      <trkpt lat="48.95521" lon="0.24929">
        <ele>202</ele>
        <time>2018-09-23 09:43:51</time>
      </trkpt>
      <trkpt lat="48.95526" lon="0.24927">
        <ele>203</ele>
        <time>2018-09-23 09:43:52</time>
      </trkpt>
      <trkpt lat="48.95531" lon="0.24926">
        <ele>204</ele>
        <time>2018-09-23 09:43:53</time>
      </trkpt>
      <trkpt lat="48.95535" lon="0.24925">
        <ele>204</ele>
        <time>2018-09-23 09:43:54</time>
      </trkpt>
      <trkpt lat="48.95542" lon="0.24928">
        <ele>205</ele>
        <time>2018-09-23 09:43:56</time>
      </trkpt>
      <trkpt lat="48.95545" lon="0.24939">
        <ele>205</ele>
        <time>2018-09-23 09:43:58</time>
      </trkpt>
      <trkpt lat="48.95547" lon="0.2495">
        <ele>205</ele>
        <time>2018-09-23 09:44:00</time>
      </trkpt>
      <trkpt lat="48.95548" lon="0.24961">
        <ele>205</ele>
        <time>2018-09-23 09:44:02</time>
      </trkpt>
      <trkpt lat="48.95549" lon="0.24973">
        <ele>206</ele>
        <time>2018-09-23 09:44:04</time>
      </trkpt>
      <trkpt lat="48.9555" lon="0.24978">
        <ele>206</ele>
        <time>2018-09-23 09:44:05</time>
      </trkpt>
      <trkpt lat="48.9555" lon="0.24982">
        <ele>206</ele>
        <time>2018-09-23 09:44:06</time>
      </trkpt>
      <trkpt lat="48.95552" lon="0.24993">
        <ele>206</ele>
        <time>2018-09-23 09:44:08</time>
      </trkpt>
      <trkpt lat="48.95554" lon="0.25004">
        <ele>206</ele>
        <time>2018-09-23 09:44:10</time>
      </trkpt>
      <trkpt lat="48.95557" lon="0.25016">
        <ele>206</ele>
        <time>2018-09-23 09:44:12</time>
      </trkpt>
      <trkpt lat="48.95557" lon="0.25025">
        <ele>207</ele>
        <time>2018-09-23 09:44:14</time>
      </trkpt>
      <trkpt lat="48.9556" lon="0.25035">
        <ele>207</ele>
        <time>2018-09-23 09:44:16</time>
      </trkpt>
      <trkpt lat="48.95562" lon="0.25046">
        <ele>207</ele>
        <time>2018-09-23 09:44:18</time>
      </trkpt>
      <trkpt lat="48.95562" lon="0.25058">
        <ele>207</ele>
        <time>2018-09-23 09:44:20</time>
      </trkpt>
      <trkpt lat="48.95558" lon="0.25067">
        <ele>208</ele>
        <time>2018-09-23 09:44:22</time>
      </trkpt>
      <trkpt lat="48.95552" lon="0.25075">
        <ele>208</ele>
        <time>2018-09-23 09:44:24</time>
      </trkpt>
      <trkpt lat="48.95548" lon="0.25085">
        <ele>207</ele>
        <time>2018-09-23 09:44:26</time>
      </trkpt>
      <trkpt lat="48.95546" lon="0.25098">
        <ele>207</ele>
        <time>2018-09-23 09:44:28</time>
      </trkpt>
      <trkpt lat="48.95546" lon="0.25111">
        <ele>207</ele>
        <time>2018-09-23 09:44:30</time>
      </trkpt>
      <trkpt lat="48.95548" lon="0.25125">
        <ele>207</ele>
        <time>2018-09-23 09:44:32</time>
      </trkpt>
      <trkpt lat="48.95551" lon="0.25136">
        <ele>206</ele>
        <time>2018-09-23 09:44:34</time>
      </trkpt>
      <trkpt lat="48.95553" lon="0.25146">
        <ele>206</ele>
        <time>2018-09-23 09:44:36</time>
      </trkpt>
      <trkpt lat="48.95556" lon="0.25158">
        <ele>206</ele>
        <time>2018-09-23 09:44:38</time>
      </trkpt>
      <trkpt lat="48.95557" lon="0.25165">
        <ele>205</ele>
        <time>2018-09-23 09:44:39</time>
      </trkpt>
      <trkpt lat="48.95561" lon="0.2518">
        <ele>205</ele>
        <time>2018-09-23 09:44:41</time>
      </trkpt>
      <trkpt lat="48.95562" lon="0.25188">
        <ele>205</ele>
        <time>2018-09-23 09:44:42</time>
      </trkpt>
      <trkpt lat="48.95566" lon="0.25202">
        <ele>204</ele>
        <time>2018-09-23 09:44:44</time>
      </trkpt>
      <trkpt lat="48.9557" lon="0.25216">
        <ele>204</ele>
        <time>2018-09-23 09:44:46</time>
      </trkpt>
      <trkpt lat="48.95575" lon="0.25226">
        <ele>203</ele>
        <time>2018-09-23 09:44:48</time>
      </trkpt>
      <trkpt lat="48.95581" lon="0.25235">
        <ele>203</ele>
        <time>2018-09-23 09:44:50</time>
      </trkpt>
      <trkpt lat="48.95588" lon="0.25245">
        <ele>202</ele>
        <time>2018-09-23 09:44:52</time>
      </trkpt>
      <trkpt lat="48.95592" lon="0.25251">
        <ele>202</ele>
        <time>2018-09-23 09:44:54</time>
      </trkpt>
      <trkpt lat="48.95596" lon="0.25259">
        <ele>201</ele>
        <time>2018-09-23 09:44:56</time>
      </trkpt>
      <trkpt lat="48.956" lon="0.25266">
        <ele>201</ele>
        <time>2018-09-23 09:44:58</time>
      </trkpt>
      <trkpt lat="48.95603" lon="0.25273">
        <ele>201</ele>
        <time>2018-09-23 09:45:00</time>
      </trkpt>
      <trkpt lat="48.95605" lon="0.25277">
        <ele>201</ele>
        <time>2018-09-23 09:45:01</time>
      </trkpt>
      <trkpt lat="48.95607" lon="0.25284">
        <ele>201</ele>
        <time>2018-09-23 09:45:03</time>
      </trkpt>
      <trkpt lat="48.95607" lon="0.25288">
        <ele>200</ele>
        <time>2018-09-23 09:45:04</time>
      </trkpt>
      <trkpt lat="48.95607" lon="0.25296">
        <ele>200</ele>
        <time>2018-09-23 09:45:06</time>
      </trkpt>
      <trkpt lat="48.95609" lon="0.25306">
        <ele>200</ele>
        <time>2018-09-23 09:45:08</time>
      </trkpt>
      <trkpt lat="48.9561" lon="0.25318">
        <ele>200</ele>
        <time>2018-09-23 09:45:10</time>
      </trkpt>
      <trkpt lat="48.9561" lon="0.25325">
        <ele>199</ele>
        <time>2018-09-23 09:45:11</time>
      </trkpt>
      <trkpt lat="48.9561" lon="0.25332">
        <ele>199</ele>
        <time>2018-09-23 09:45:12</time>
      </trkpt>
      <trkpt lat="48.95611" lon="0.25342">
        <ele>199</ele>
        <time>2018-09-23 09:45:14</time>
      </trkpt>
      <trkpt lat="48.95613" lon="0.25356">
        <ele>199</ele>
        <time>2018-09-23 09:45:16</time>
      </trkpt>
      <trkpt lat="48.95616" lon="0.2537">
        <ele>198</ele>
        <time>2018-09-23 09:45:18</time>
      </trkpt>
      <trkpt lat="48.95619" lon="0.25383">
        <ele>198</ele>
        <time>2018-09-23 09:45:20</time>
      </trkpt>
      <trkpt lat="48.95623" lon="0.25397">
        <ele>197</ele>
        <time>2018-09-23 09:45:22</time>
      </trkpt>
      <trkpt lat="48.95629" lon="0.2541">
        <ele>197</ele>
        <time>2018-09-23 09:45:24</time>
      </trkpt>
      <trkpt lat="48.95636" lon="0.25425">
        <ele>196</ele>
        <time>2018-09-23 09:45:26</time>
      </trkpt>
      <trkpt lat="48.95642" lon="0.25438">
        <ele>196</ele>
        <time>2018-09-23 09:45:28</time>
      </trkpt>
      <trkpt lat="48.95645" lon="0.25446">
        <ele>196</ele>
        <time>2018-09-23 09:45:29</time>
      </trkpt>
      <trkpt lat="48.95648" lon="0.25453">
        <ele>195</ele>
        <time>2018-09-23 09:45:30</time>
      </trkpt>
      <trkpt lat="48.95655" lon="0.25467">
        <ele>195</ele>
        <time>2018-09-23 09:45:32</time>
      </trkpt>
      <trkpt lat="48.9566" lon="0.25479">
        <ele>195</ele>
        <time>2018-09-23 09:45:34</time>
      </trkpt>
      <trkpt lat="48.95667" lon="0.25487">
        <ele>194</ele>
        <time>2018-09-23 09:45:36</time>
      </trkpt>
      <trkpt lat="48.95674" lon="0.25491">
        <ele>194</ele>
        <time>2018-09-23 09:45:38</time>
      </trkpt>
      <trkpt lat="48.95681" lon="0.25495">
        <ele>193</ele>
        <time>2018-09-23 09:45:40</time>
      </trkpt>
      <trkpt lat="48.95688" lon="0.25498">
        <ele>193</ele>
        <time>2018-09-23 09:45:42</time>
      </trkpt>
      <trkpt lat="48.95693" lon="0.25502">
        <ele>193</ele>
        <time>2018-09-23 09:45:44</time>
      </trkpt>
      <trkpt lat="48.95695" lon="0.25503">
        <ele>193</ele>
        <time>2018-09-23 09:45:45</time>
      </trkpt>
      <trkpt lat="48.95701" lon="0.25504">
        <ele>193</ele>
        <time>2018-09-23 09:45:47</time>
      </trkpt>
      <trkpt lat="48.95705" lon="0.25505">
        <ele>193</ele>
        <time>2018-09-23 09:45:48</time>
      </trkpt>
      <trkpt lat="48.95711" lon="0.25508">
        <ele>193</ele>
        <time>2018-09-23 09:45:50</time>
      </trkpt>
      <trkpt lat="48.95715" lon="0.25511">
        <ele>194</ele>
        <time>2018-09-23 09:45:51</time>
      </trkpt>
      <trkpt lat="48.95721" lon="0.25514">
        <ele>195</ele>
        <time>2018-09-23 09:45:53</time>
      </trkpt>
      <trkpt lat="48.95724" lon="0.25515">
        <ele>195</ele>
        <time>2018-09-23 09:45:54</time>
      </trkpt>
      <trkpt lat="48.95729" lon="0.25518">
        <ele>196</ele>
        <time>2018-09-23 09:45:56</time>
      </trkpt>
      <trkpt lat="48.95734" lon="0.2552">
        <ele>196</ele>
        <time>2018-09-23 09:45:58</time>
      </trkpt>
      <trkpt lat="48.95741" lon="0.25523">
        <ele>197</ele>
        <time>2018-09-23 09:46:00</time>
      </trkpt>
      <trkpt lat="48.9575" lon="0.25529">
        <ele>197</ele>
        <time>2018-09-23 09:46:02</time>
      </trkpt>
      <trkpt lat="48.95759" lon="0.25534">
        <ele>197</ele>
        <time>2018-09-23 09:46:04</time>
      </trkpt>
      <trkpt lat="48.95767" lon="0.2554">
        <ele>198</ele>
        <time>2018-09-23 09:46:06</time>
      </trkpt>
      <trkpt lat="48.95772" lon="0.25543">
        <ele>198</ele>
        <time>2018-09-23 09:46:08</time>
      </trkpt>
      <trkpt lat="48.95782" lon="0.2555">
        <ele>198</ele>
        <time>2018-09-23 09:46:10</time>
      </trkpt>
      <trkpt lat="48.95792" lon="0.25558">
        <ele>198</ele>
        <time>2018-09-23 09:46:12</time>
      </trkpt>
      <trkpt lat="48.95801" lon="0.25565">
        <ele>199</ele>
        <time>2018-09-23 09:46:14</time>
      </trkpt>
      <trkpt lat="48.95809" lon="0.25572">
        <ele>199</ele>
        <time>2018-09-23 09:46:16</time>
      </trkpt>
      <trkpt lat="48.95817" lon="0.25577">
        <ele>199</ele>
        <time>2018-09-23 09:46:18</time>
      </trkpt>
      <trkpt lat="48.95825" lon="0.25581">
        <ele>199</ele>
        <time>2018-09-23 09:46:20</time>
      </trkpt>
      <trkpt lat="48.95833" lon="0.25584">
        <ele>200</ele>
        <time>2018-09-23 09:46:22</time>
      </trkpt>
      <trkpt lat="48.95841" lon="0.25587">
        <ele>200</ele>
        <time>2018-09-23 09:46:24</time>
      </trkpt>
      <trkpt lat="48.95849" lon="0.25591">
        <ele>200</ele>
        <time>2018-09-23 09:46:26</time>
      </trkpt>
      <trkpt lat="48.95859" lon="0.25595">
        <ele>200</ele>
        <time>2018-09-23 09:46:28</time>
      </trkpt>
      <trkpt lat="48.95863" lon="0.25597">
        <ele>200</ele>
        <time>2018-09-23 09:46:29</time>
      </trkpt>
      <trkpt lat="48.95869" lon="0.25599">
        <ele>200</ele>
        <time>2018-09-23 09:46:30</time>
      </trkpt>
      <trkpt lat="48.95878" lon="0.25601">
        <ele>200</ele>
        <time>2018-09-23 09:46:32</time>
      </trkpt>
      <trkpt lat="48.95883" lon="0.25603">
        <ele>200</ele>
        <time>2018-09-23 09:46:33</time>
      </trkpt>
      <trkpt lat="48.95893" lon="0.25605">
        <ele>200</ele>
        <time>2018-09-23 09:46:35</time>
      </trkpt>
      <trkpt lat="48.95898" lon="0.25606">
        <ele>200</ele>
        <time>2018-09-23 09:46:36</time>
      </trkpt>
      <trkpt lat="48.95906" lon="0.2561">
        <ele>200</ele>
        <time>2018-09-23 09:46:38</time>
      </trkpt>
      <trkpt lat="48.95916" lon="0.25613">
        <ele>200</ele>
        <time>2018-09-23 09:46:40</time>
      </trkpt>
      <trkpt lat="48.95927" lon="0.25616">
        <ele>200</ele>
        <time>2018-09-23 09:46:42</time>
      </trkpt>
      <trkpt lat="48.95936" lon="0.25618">
        <ele>201</ele>
        <time>2018-09-23 09:46:44</time>
      </trkpt>
      <trkpt lat="48.95939" lon="0.25618">
        <ele>201</ele>
        <time>2018-09-23 09:46:45</time>
      </trkpt>
      <trkpt lat="48.9595" lon="0.25617">
        <ele>202</ele>
        <time>2018-09-23 09:46:47</time>
      </trkpt>
      <trkpt lat="48.95954" lon="0.25616">
        <ele>202</ele>
        <time>2018-09-23 09:46:48</time>
      </trkpt>
      <trkpt lat="48.95964" lon="0.25615">
        <ele>202</ele>
        <time>2018-09-23 09:46:50</time>
      </trkpt>
      <trkpt lat="48.95973" lon="0.25617">
        <ele>202</ele>
        <time>2018-09-23 09:46:52</time>
      </trkpt>
      <trkpt lat="48.95982" lon="0.25621">
        <ele>201</ele>
        <time>2018-09-23 09:46:54</time>
      </trkpt>
      <trkpt lat="48.95989" lon="0.25624">
        <ele>200</ele>
        <time>2018-09-23 09:46:56</time>
      </trkpt>
      <trkpt lat="48.95999" lon="0.25628">
        <ele>200</ele>
        <time>2018-09-23 09:46:58</time>
      </trkpt>
      <trkpt lat="48.96008" lon="0.25631">
        <ele>200</ele>
        <time>2018-09-23 09:47:00</time>
      </trkpt>
      <trkpt lat="48.96018" lon="0.25635">
        <ele>199</ele>
        <time>2018-09-23 09:47:02</time>
      </trkpt>
      <trkpt lat="48.96028" lon="0.2564">
        <ele>199</ele>
        <time>2018-09-23 09:47:04</time>
      </trkpt>
      <trkpt lat="48.96037" lon="0.25646">
        <ele>198</ele>
        <time>2018-09-23 09:47:06</time>
      </trkpt>
      <trkpt lat="48.96046" lon="0.25651">
        <ele>197</ele>
        <time>2018-09-23 09:47:08</time>
      </trkpt>
      <trkpt lat="48.96054" lon="0.25657">
        <ele>197</ele>
        <time>2018-09-23 09:47:10</time>
      </trkpt>
      <trkpt lat="48.96061" lon="0.25662">
        <ele>196</ele>
        <time>2018-09-23 09:47:12</time>
      </trkpt>
      <trkpt lat="48.96069" lon="0.25667">
        <ele>196</ele>
        <time>2018-09-23 09:47:14</time>
      </trkpt>
      <trkpt lat="48.96074" lon="0.25671">
        <ele>195</ele>
        <time>2018-09-23 09:47:15</time>
      </trkpt>
      <trkpt lat="48.96082" lon="0.25677">
        <ele>195</ele>
        <time>2018-09-23 09:47:17</time>
      </trkpt>
      <trkpt lat="48.96087" lon="0.25682">
        <ele>195</ele>
        <time>2018-09-23 09:47:18</time>
      </trkpt>
      <trkpt lat="48.96094" lon="0.25692">
        <ele>193</ele>
        <time>2018-09-23 09:47:20</time>
      </trkpt>
      <trkpt lat="48.96097" lon="0.25697">
        <ele>193</ele>
        <time>2018-09-23 09:47:21</time>
      </trkpt>
      <trkpt lat="48.96102" lon="0.25706">
        <ele>192</ele>
        <time>2018-09-23 09:47:23</time>
      </trkpt>
      <trkpt lat="48.96107" lon="0.25713">
        <ele>192</ele>
        <time>2018-09-23 09:47:25</time>
      </trkpt>
      <trkpt lat="48.96112" lon="0.25722">
        <ele>191</ele>
        <time>2018-09-23 09:47:27</time>
      </trkpt>
      <trkpt lat="48.9612" lon="0.25729">
        <ele>191</ele>
        <time>2018-09-23 09:47:29</time>
      </trkpt>
      <trkpt lat="48.96123" lon="0.25732">
        <ele>191</ele>
        <time>2018-09-23 09:47:30</time>
      </trkpt>
      <trkpt lat="48.96132" lon="0.2574">
        <ele>190</ele>
        <time>2018-09-23 09:47:32</time>
      </trkpt>
      <trkpt lat="48.9614" lon="0.25746">
        <ele>190</ele>
        <time>2018-09-23 09:47:34</time>
      </trkpt>
      <trkpt lat="48.96147" lon="0.25751">
        <ele>189</ele>
        <time>2018-09-23 09:47:36</time>
      </trkpt>
      <trkpt lat="48.96155" lon="0.25755">
        <ele>189</ele>
        <time>2018-09-23 09:47:38</time>
      </trkpt>
      <trkpt lat="48.96163" lon="0.25758">
        <ele>188</ele>
        <time>2018-09-23 09:47:40</time>
      </trkpt>
      <trkpt lat="48.96171" lon="0.25763">
        <ele>187</ele>
        <time>2018-09-23 09:47:42</time>
      </trkpt>
      <trkpt lat="48.96182" lon="0.25768">
        <ele>187</ele>
        <time>2018-09-23 09:47:44</time>
      </trkpt>
      <trkpt lat="48.96187" lon="0.2577">
        <ele>186</ele>
        <time>2018-09-23 09:47:45</time>
      </trkpt>
      <trkpt lat="48.96199" lon="0.25778">
        <ele>186</ele>
        <time>2018-09-23 09:47:47</time>
      </trkpt>
      <trkpt lat="48.96203" lon="0.25781">
        <ele>185</ele>
        <time>2018-09-23 09:47:48</time>
      </trkpt>
      <trkpt lat="48.96212" lon="0.25786">
        <ele>184</ele>
        <time>2018-09-23 09:47:50</time>
      </trkpt>
      <trkpt lat="48.96215" lon="0.25788">
        <ele>184</ele>
        <time>2018-09-23 09:47:51</time>
      </trkpt>
      <trkpt lat="48.9622" lon="0.25788">
        <ele>183</ele>
        <time>2018-09-23 09:47:53</time>
      </trkpt>
      <trkpt lat="48.96228" lon="0.25785">
        <ele>183</ele>
        <time>2018-09-23 09:47:55</time>
      </trkpt>
      <trkpt lat="48.96234" lon="0.25781">
        <ele>183</ele>
        <time>2018-09-23 09:47:57</time>
      </trkpt>
      <trkpt lat="48.9624" lon="0.25776">
        <ele>183</ele>
        <time>2018-09-23 09:47:59</time>
      </trkpt>
      <trkpt lat="48.96247" lon="0.25773">
        <ele>183</ele>
        <time>2018-09-23 09:48:01</time>
      </trkpt>
      <trkpt lat="48.96255" lon="0.25766">
        <ele>183</ele>
        <time>2018-09-23 09:48:03</time>
      </trkpt>
      <trkpt lat="48.96261" lon="0.25759">
        <ele>185</ele>
        <time>2018-09-23 09:48:05</time>
      </trkpt>
      <trkpt lat="48.96264" lon="0.25756">
        <ele>185</ele>
        <time>2018-09-23 09:48:06</time>
      </trkpt>
      <trkpt lat="48.96268" lon="0.25751">
        <ele>185</ele>
        <time>2018-09-23 09:48:08</time>
      </trkpt>
      <trkpt lat="48.96271" lon="0.25745">
        <ele>185</ele>
        <time>2018-09-23 09:48:10</time>
      </trkpt>
      <trkpt lat="48.96275" lon="0.2574">
        <ele>185</ele>
        <time>2018-09-23 09:48:12</time>
      </trkpt>
      <trkpt lat="48.96282" lon="0.25731">
        <ele>186</ele>
        <time>2018-09-23 09:48:14</time>
      </trkpt>
      <trkpt lat="48.96286" lon="0.25724">
        <ele>186</ele>
        <time>2018-09-23 09:48:16</time>
      </trkpt>
      <trkpt lat="48.9629" lon="0.25715">
        <ele>186</ele>
        <time>2018-09-23 09:48:18</time>
      </trkpt>
      <trkpt lat="48.96293" lon="0.25705">
        <ele>187</ele>
        <time>2018-09-23 09:48:20</time>
      </trkpt>
      <trkpt lat="48.96297" lon="0.25695">
        <ele>188</ele>
        <time>2018-09-23 09:48:22</time>
      </trkpt>
      <trkpt lat="48.963" lon="0.25687">
        <ele>189</ele>
        <time>2018-09-23 09:48:24</time>
      </trkpt>
      <trkpt lat="48.96301" lon="0.25683">
        <ele>189</ele>
        <time>2018-09-23 09:48:25</time>
      </trkpt>
      <trkpt lat="48.96303" lon="0.25675">
        <ele>190</ele>
        <time>2018-09-23 09:48:27</time>
      </trkpt>
      <trkpt lat="48.96306" lon="0.25668">
        <ele>191</ele>
        <time>2018-09-23 09:48:29</time>
      </trkpt>
      <trkpt lat="48.96307" lon="0.25665">
        <ele>191</ele>
        <time>2018-09-23 09:48:30</time>
      </trkpt>
      <trkpt lat="48.96309" lon="0.25658">
        <ele>192</ele>
        <time>2018-09-23 09:48:32</time>
      </trkpt>
      <trkpt lat="48.9631" lon="0.25653">
        <ele>192</ele>
        <time>2018-09-23 09:48:33</time>
      </trkpt>
      <trkpt lat="48.96312" lon="0.25646">
        <ele>193</ele>
        <time>2018-09-23 09:48:35</time>
      </trkpt>
      <trkpt lat="48.96314" lon="0.25635">
        <ele>194</ele>
        <time>2018-09-23 09:48:37</time>
      </trkpt>
      <trkpt lat="48.96316" lon="0.25623">
        <ele>194</ele>
        <time>2018-09-23 09:48:39</time>
      </trkpt>
      <trkpt lat="48.96317" lon="0.25615">
        <ele>195</ele>
        <time>2018-09-23 09:48:40</time>
      </trkpt>
      <trkpt lat="48.96321" lon="0.25602">
        <ele>196</ele>
        <time>2018-09-23 09:48:42</time>
      </trkpt>
      <trkpt lat="48.96324" lon="0.2559">
        <ele>197</ele>
        <time>2018-09-23 09:48:44</time>
      </trkpt>
      <trkpt lat="48.96328" lon="0.2558">
        <ele>197</ele>
        <time>2018-09-23 09:48:46</time>
      </trkpt>
      <trkpt lat="48.9633" lon="0.25566">
        <ele>198</ele>
        <time>2018-09-23 09:48:48</time>
      </trkpt>
      <trkpt lat="48.96332" lon="0.25553">
        <ele>199</ele>
        <time>2018-09-23 09:48:50</time>
      </trkpt>
      <trkpt lat="48.96333" lon="0.25537">
        <ele>200</ele>
        <time>2018-09-23 09:48:52</time>
      </trkpt>
      <trkpt lat="48.96335" lon="0.25521">
        <ele>200</ele>
        <time>2018-09-23 09:48:54</time>
      </trkpt>
      <trkpt lat="48.96337" lon="0.25505">
        <ele>201</ele>
        <time>2018-09-23 09:48:56</time>
      </trkpt>
      <trkpt lat="48.96338" lon="0.25489">
        <ele>203</ele>
        <time>2018-09-23 09:48:58</time>
      </trkpt>
      <trkpt lat="48.9634" lon="0.25473">
        <ele>203</ele>
        <time>2018-09-23 09:49:00</time>
      </trkpt>
      <trkpt lat="48.96342" lon="0.25458">
        <ele>204</ele>
        <time>2018-09-23 09:49:02</time>
      </trkpt>
      <trkpt lat="48.96344" lon="0.25445">
        <ele>205</ele>
        <time>2018-09-23 09:49:04</time>
      </trkpt>
      <trkpt lat="48.96347" lon="0.25431">
        <ele>205</ele>
        <time>2018-09-23 09:49:06</time>
      </trkpt>
      <trkpt lat="48.96349" lon="0.25419">
        <ele>206</ele>
        <time>2018-09-23 09:49:08</time>
      </trkpt>
      <trkpt lat="48.96353" lon="0.25407">
        <ele>207</ele>
        <time>2018-09-23 09:49:10</time>
      </trkpt>
      <trkpt lat="48.96356" lon="0.25394">
        <ele>208</ele>
        <time>2018-09-23 09:49:12</time>
      </trkpt>
      <trkpt lat="48.9636" lon="0.2538">
        <ele>209</ele>
        <time>2018-09-23 09:49:14</time>
      </trkpt>
      <trkpt lat="48.96366" lon="0.25365">
        <ele>210</ele>
        <time>2018-09-23 09:49:16</time>
      </trkpt>
      <trkpt lat="48.9637" lon="0.25351">
        <ele>210</ele>
        <time>2018-09-23 09:49:18</time>
      </trkpt>
      <trkpt lat="48.96374" lon="0.25338">
        <ele>211</ele>
        <time>2018-09-23 09:49:20</time>
      </trkpt>
      <trkpt lat="48.96378" lon="0.25327">
        <ele>212</ele>
        <time>2018-09-23 09:49:22</time>
      </trkpt>
      <trkpt lat="48.96381" lon="0.25314">
        <ele>213</ele>
        <time>2018-09-23 09:49:24</time>
      </trkpt>
      <trkpt lat="48.96383" lon="0.25298">
        <ele>214</ele>
        <time>2018-09-23 09:49:26</time>
      </trkpt>
      <trkpt lat="48.96384" lon="0.25281">
        <ele>215</ele>
        <time>2018-09-23 09:49:28</time>
      </trkpt>
      <trkpt lat="48.96384" lon="0.2527">
        <ele>215</ele>
        <time>2018-09-23 09:49:29</time>
      </trkpt>
      <trkpt lat="48.96386" lon="0.25262">
        <ele>215</ele>
        <time>2018-09-23 09:49:30</time>
      </trkpt>
      <trkpt lat="48.96389" lon="0.25249">
        <ele>216</ele>
        <time>2018-09-23 09:49:32</time>
      </trkpt>
      <trkpt lat="48.9639" lon="0.2523">
        <ele>216</ele>
        <time>2018-09-23 09:49:34</time>
      </trkpt>
      <trkpt lat="48.96393" lon="0.25214">
        <ele>217</ele>
        <time>2018-09-23 09:49:36</time>
      </trkpt>
      <trkpt lat="48.96395" lon="0.25196">
        <ele>218</ele>
        <time>2018-09-23 09:49:38</time>
      </trkpt>
      <trkpt lat="48.96396" lon="0.25187">
        <ele>218</ele>
        <time>2018-09-23 09:49:39</time>
      </trkpt>
      <trkpt lat="48.96398" lon="0.25173">
        <ele>219</ele>
        <time>2018-09-23 09:49:41</time>
      </trkpt>
      <trkpt lat="48.96399" lon="0.25165">
        <ele>220</ele>
        <time>2018-09-23 09:49:42</time>
      </trkpt>
      <trkpt lat="48.96401" lon="0.25149">
        <ele>220</ele>
        <time>2018-09-23 09:49:44</time>
      </trkpt>
      <trkpt lat="48.96404" lon="0.25135">
        <ele>221</ele>
        <time>2018-09-23 09:49:46</time>
      </trkpt>
      <trkpt lat="48.96409" lon="0.25123">
        <ele>221</ele>
        <time>2018-09-23 09:49:48</time>
      </trkpt>
      <trkpt lat="48.96409" lon="0.25114">
        <ele>221</ele>
        <time>2018-09-23 09:49:50</time>
      </trkpt>
      <trkpt lat="48.96403" lon="0.25106">
        <ele>220</ele>
        <time>2018-09-23 09:49:52</time>
      </trkpt>
      <trkpt lat="48.96398" lon="0.25094">
        <ele>221</ele>
        <time>2018-09-23 09:49:54</time>
      </trkpt>
      <trkpt lat="48.96396" lon="0.25081">
        <ele>221</ele>
        <time>2018-09-23 09:49:56</time>
      </trkpt>
      <trkpt lat="48.96392" lon="0.2507">
        <ele>221</ele>
        <time>2018-09-23 09:49:58</time>
      </trkpt>
      <trkpt lat="48.9639" lon="0.25059">
        <ele>221</ele>
        <time>2018-09-23 09:50:00</time>
      </trkpt>
      <trkpt lat="48.96386" lon="0.25046">
        <ele>221</ele>
        <time>2018-09-23 09:50:02</time>
      </trkpt>
      <trkpt lat="48.96381" lon="0.25031">
        <ele>222</ele>
        <time>2018-09-23 09:50:04</time>
      </trkpt>
      <trkpt lat="48.96376" lon="0.25015">
        <ele>222</ele>
        <time>2018-09-23 09:50:06</time>
      </trkpt>
      <trkpt lat="48.96372" lon="0.25">
        <ele>222</ele>
        <time>2018-09-23 09:50:08</time>
      </trkpt>
      <trkpt lat="48.96367" lon="0.24985">
        <ele>223</ele>
        <time>2018-09-23 09:50:10</time>
      </trkpt>
      <trkpt lat="48.96362" lon="0.2497">
        <ele>223</ele>
        <time>2018-09-23 09:50:12</time>
      </trkpt>
      <trkpt lat="48.96357" lon="0.24953">
        <ele>223</ele>
        <time>2018-09-23 09:50:14</time>
      </trkpt>
      <trkpt lat="48.96355" lon="0.24945">
        <ele>223</ele>
        <time>2018-09-23 09:50:15</time>
      </trkpt>
      <trkpt lat="48.96349" lon="0.24929">
        <ele>223</ele>
        <time>2018-09-23 09:50:17</time>
      </trkpt>
      <trkpt lat="48.96347" lon="0.24922">
        <ele>223</ele>
        <time>2018-09-23 09:50:18</time>
      </trkpt>
      <trkpt lat="48.96347" lon="0.24914">
        <ele>223</ele>
        <time>2018-09-23 09:50:19</time>
      </trkpt>
      <trkpt lat="48.96346" lon="0.24899">
        <ele>223</ele>
        <time>2018-09-23 09:50:21</time>
      </trkpt>
      <trkpt lat="48.96349" lon="0.24884">
        <ele>222</ele>
        <time>2018-09-23 09:50:23</time>
      </trkpt>
      <trkpt lat="48.9635" lon="0.24876">
        <ele>222</ele>
        <time>2018-09-23 09:50:24</time>
      </trkpt>
      <trkpt lat="48.96356" lon="0.24861">
        <ele>222</ele>
        <time>2018-09-23 09:50:26</time>
      </trkpt>
      <trkpt lat="48.9636" lon="0.24845">
        <ele>223</ele>
        <time>2018-09-23 09:50:28</time>
      </trkpt>
      <trkpt lat="48.96364" lon="0.24828">
        <ele>223</ele>
        <time>2018-09-23 09:50:30</time>
      </trkpt>
      <trkpt lat="48.96369" lon="0.24813">
        <ele>223</ele>
        <time>2018-09-23 09:50:32</time>
      </trkpt>
      <trkpt lat="48.96374" lon="0.24798">
        <ele>223</ele>
        <time>2018-09-23 09:50:34</time>
      </trkpt>
      <trkpt lat="48.96378" lon="0.24782">
        <ele>223</ele>
        <time>2018-09-23 09:50:36</time>
      </trkpt>
      <trkpt lat="48.96382" lon="0.24768">
        <ele>222</ele>
        <time>2018-09-23 09:50:38</time>
      </trkpt>
      <trkpt lat="48.96387" lon="0.24754">
        <ele>222</ele>
        <time>2018-09-23 09:50:40</time>
      </trkpt>
      <trkpt lat="48.96392" lon="0.2474">
        <ele>222</ele>
        <time>2018-09-23 09:50:42</time>
      </trkpt>
      <trkpt lat="48.96397" lon="0.24726">
        <ele>221</ele>
        <time>2018-09-23 09:50:44</time>
      </trkpt>
      <trkpt lat="48.96399" lon="0.24718">
        <ele>221</ele>
        <time>2018-09-23 09:50:45</time>
      </trkpt>
      <trkpt lat="48.96404" lon="0.24703">
        <ele>221</ele>
        <time>2018-09-23 09:50:47</time>
      </trkpt>
      <trkpt lat="48.96406" lon="0.24696">
        <ele>221</ele>
        <time>2018-09-23 09:50:48</time>
      </trkpt>
      <trkpt lat="48.96411" lon="0.24683">
        <ele>221</ele>
        <time>2018-09-23 09:50:50</time>
      </trkpt>
      <trkpt lat="48.96416" lon="0.24668">
        <ele>221</ele>
        <time>2018-09-23 09:50:52</time>
      </trkpt>
      <trkpt lat="48.96421" lon="0.24654">
        <ele>220</ele>
        <time>2018-09-23 09:50:54</time>
      </trkpt>
      <trkpt lat="48.96423" lon="0.24647">
        <ele>221</ele>
        <time>2018-09-23 09:50:55</time>
      </trkpt>
      <trkpt lat="48.96427" lon="0.24632">
        <ele>221</ele>
        <time>2018-09-23 09:50:57</time>
      </trkpt>
      <trkpt lat="48.96432" lon="0.24618">
        <ele>221</ele>
        <time>2018-09-23 09:50:59</time>
      </trkpt>
      <trkpt lat="48.96437" lon="0.24603">
        <ele>221</ele>
        <time>2018-09-23 09:51:01</time>
      </trkpt>
      <trkpt lat="48.96443" lon="0.24589">
        <ele>221</ele>
        <time>2018-09-23 09:51:03</time>
      </trkpt>
      <trkpt lat="48.96448" lon="0.24573">
        <ele>221</ele>
        <time>2018-09-23 09:51:05</time>
      </trkpt>
      <trkpt lat="48.9645" lon="0.24566">
        <ele>220</ele>
        <time>2018-09-23 09:51:06</time>
      </trkpt>
      <trkpt lat="48.96454" lon="0.2455">
        <ele>220</ele>
        <time>2018-09-23 09:51:08</time>
      </trkpt>
      <trkpt lat="48.9646" lon="0.24535">
        <ele>220</ele>
        <time>2018-09-23 09:51:10</time>
      </trkpt>
      <trkpt lat="48.96465" lon="0.24518">
        <ele>220</ele>
        <time>2018-09-23 09:51:12</time>
      </trkpt>
      <trkpt lat="48.96469" lon="0.24503">
        <ele>219</ele>
        <time>2018-09-23 09:51:14</time>
      </trkpt>
      <trkpt lat="48.96474" lon="0.24488">
        <ele>219</ele>
        <time>2018-09-23 09:51:16</time>
      </trkpt>
      <trkpt lat="48.96478" lon="0.24473">
        <ele>218</ele>
        <time>2018-09-23 09:51:18</time>
      </trkpt>
      <trkpt lat="48.96485" lon="0.24458">
        <ele>218</ele>
        <time>2018-09-23 09:51:20</time>
      </trkpt>
      <trkpt lat="48.9649" lon="0.24442">
        <ele>218</ele>
        <time>2018-09-23 09:51:22</time>
      </trkpt>
      <trkpt lat="48.96493" lon="0.24435">
        <ele>218</ele>
        <time>2018-09-23 09:51:23</time>
      </trkpt>
      <trkpt lat="48.96495" lon="0.24428">
        <ele>218</ele>
        <time>2018-09-23 09:51:24</time>
      </trkpt>
      <trkpt lat="48.965" lon="0.24414">
        <ele>218</ele>
        <time>2018-09-23 09:51:26</time>
      </trkpt>
      <trkpt lat="48.96506" lon="0.244">
        <ele>218</ele>
        <time>2018-09-23 09:51:28</time>
      </trkpt>
      <trkpt lat="48.96511" lon="0.24385">
        <ele>217</ele>
        <time>2018-09-23 09:51:30</time>
      </trkpt>
      <trkpt lat="48.96517" lon="0.2437">
        <ele>217</ele>
        <time>2018-09-23 09:51:32</time>
      </trkpt>
      <trkpt lat="48.96521" lon="0.24354">
        <ele>217</ele>
        <time>2018-09-23 09:51:34</time>
      </trkpt>
      <trkpt lat="48.96525" lon="0.24338">
        <ele>217</ele>
        <time>2018-09-23 09:51:36</time>
      </trkpt>
      <trkpt lat="48.96531" lon="0.24323">
        <ele>216</ele>
        <time>2018-09-23 09:51:38</time>
      </trkpt>
      <trkpt lat="48.96536" lon="0.24309">
        <ele>216</ele>
        <time>2018-09-23 09:51:40</time>
      </trkpt>
      <trkpt lat="48.9654" lon="0.24293">
        <ele>216</ele>
        <time>2018-09-23 09:51:42</time>
      </trkpt>
      <trkpt lat="48.96544" lon="0.24279">
        <ele>216</ele>
        <time>2018-09-23 09:51:44</time>
      </trkpt>
      <trkpt lat="48.96547" lon="0.24272">
        <ele>216</ele>
        <time>2018-09-23 09:51:45</time>
      </trkpt>
      <trkpt lat="48.96552" lon="0.24258">
        <ele>216</ele>
        <time>2018-09-23 09:51:47</time>
      </trkpt>
      <trkpt lat="48.96554" lon="0.2425">
        <ele>216</ele>
        <time>2018-09-23 09:51:48</time>
      </trkpt>
      <trkpt lat="48.96556" lon="0.24243">
        <ele>217</ele>
        <time>2018-09-23 09:51:49</time>
      </trkpt>
      <trkpt lat="48.96561" lon="0.24229">
        <ele>217</ele>
        <time>2018-09-23 09:51:51</time>
      </trkpt>
      <trkpt lat="48.96566" lon="0.24213">
        <ele>217</ele>
        <time>2018-09-23 09:51:53</time>
      </trkpt>
      <trkpt lat="48.96571" lon="0.24197">
        <ele>218</ele>
        <time>2018-09-23 09:51:55</time>
      </trkpt>
      <trkpt lat="48.96575" lon="0.24181">
        <ele>219</ele>
        <time>2018-09-23 09:51:57</time>
      </trkpt>
      <trkpt lat="48.96578" lon="0.24165">
        <ele>219</ele>
        <time>2018-09-23 09:51:59</time>
      </trkpt>
      <trkpt lat="48.9658" lon="0.24159">
        <ele>220</ele>
        <time>2018-09-23 09:52:00</time>
      </trkpt>
      <trkpt lat="48.96584" lon="0.2415">
        <ele>220</ele>
        <time>2018-09-23 09:52:02</time>
      </trkpt>
      <trkpt lat="48.96588" lon="0.24144">
        <ele>221</ele>
        <time>2018-09-23 09:52:04</time>
      </trkpt>
      <trkpt lat="48.96589" lon="0.24143">
        <ele>221</ele>
        <time>2018-09-23 09:52:05</time>
      </trkpt>
      <trkpt lat="48.9659" lon="0.24141">
        <ele>222</ele>
        <time>2018-09-23 09:52:06</time>
      </trkpt>
      <trkpt lat="48.96592" lon="0.24139">
        <ele>222</ele>
        <time>2018-09-23 09:52:08</time>
      </trkpt>
      <trkpt lat="48.96591" lon="0.24138">
        <ele>222</ele>
        <time>2018-09-23 09:52:10</time>
      </trkpt>
      <trkpt lat="48.96591" lon="0.24137">
        <ele>222</ele>
        <time>2018-09-23 09:52:12</time>
      </trkpt>
      <trkpt lat="48.96594" lon="0.2413">
        <ele>221</ele>
        <time>2018-09-23 09:52:15</time>
      </trkpt>
      <trkpt lat="48.96596" lon="0.24131">
        <ele>221</ele>
        <time>2018-09-23 09:52:17</time>
      </trkpt>
      <trkpt lat="48.96597" lon="0.24133">
        <ele>221</ele>
        <time>2018-09-23 09:52:19</time>
      </trkpt>
      <trkpt lat="48.96598" lon="0.24135">
        <ele>221</ele>
        <time>2018-09-23 09:52:21</time>
      </trkpt>
      <trkpt lat="48.96599" lon="0.24136">
        <ele>221</ele>
        <time>2018-09-23 09:52:23</time>
      </trkpt>
      <trkpt lat="48.9661" lon="0.24139">
        <ele>206</ele>
        <time>2018-09-23 09:52:25</time>
      </trkpt>
      <trkpt lat="48.96614" lon="0.24134">
        <ele>206</ele>
        <time>2018-09-23 09:52:27</time>
      </trkpt>
      <trkpt lat="48.96614" lon="0.2413">
        <ele>207</ele>
        <time>2018-09-23 09:52:28</time>
      </trkpt>
      <trkpt lat="48.96617" lon="0.24122">
        <ele>207</ele>
        <time>2018-09-23 09:52:30</time>
      </trkpt>
      <trkpt lat="48.96623" lon="0.24117">
        <ele>207</ele>
        <time>2018-09-23 09:52:32</time>
      </trkpt>
      <trkpt lat="48.96632" lon="0.24113">
        <ele>207</ele>
        <time>2018-09-23 09:52:34</time>
      </trkpt>
      <trkpt lat="48.96637" lon="0.2411">
        <ele>207</ele>
        <time>2018-09-23 09:52:35</time>
      </trkpt>
      <trkpt lat="48.96648" lon="0.24104">
        <ele>208</ele>
        <time>2018-09-23 09:52:37</time>
      </trkpt>
      <trkpt lat="48.96654" lon="0.241">
        <ele>208</ele>
        <time>2018-09-23 09:52:38</time>
      </trkpt>
      <trkpt lat="48.96666" lon="0.24094">
        <ele>208</ele>
        <time>2018-09-23 09:52:40</time>
      </trkpt>
      <trkpt lat="48.96677" lon="0.24089">
        <ele>208</ele>
        <time>2018-09-23 09:52:42</time>
      </trkpt>
      <trkpt lat="48.96683" lon="0.24087">
        <ele>208</ele>
        <time>2018-09-23 09:52:43</time>
      </trkpt>
      <trkpt lat="48.96689" lon="0.24084">
        <ele>209</ele>
        <time>2018-09-23 09:52:44</time>
      </trkpt>
      <trkpt lat="48.96699" lon="0.2408">
        <ele>209</ele>
        <time>2018-09-23 09:52:46</time>
      </trkpt>
      <trkpt lat="48.9671" lon="0.24073">
        <ele>209</ele>
        <time>2018-09-23 09:52:48</time>
      </trkpt>
      <trkpt lat="48.96721" lon="0.24067">
        <ele>209</ele>
        <time>2018-09-23 09:52:50</time>
      </trkpt>
      <trkpt lat="48.96732" lon="0.2406">
        <ele>210</ele>
        <time>2018-09-23 09:52:52</time>
      </trkpt>
      <trkpt lat="48.96744" lon="0.24054">
        <ele>210</ele>
        <time>2018-09-23 09:52:54</time>
      </trkpt>
      <trkpt lat="48.96756" lon="0.24048">
        <ele>210</ele>
        <time>2018-09-23 09:52:56</time>
      </trkpt>
      <trkpt lat="48.9677" lon="0.24042">
        <ele>211</ele>
        <time>2018-09-23 09:52:58</time>
      </trkpt>
      <trkpt lat="48.96783" lon="0.24036">
        <ele>211</ele>
        <time>2018-09-23 09:53:00</time>
      </trkpt>
      <trkpt lat="48.96795" lon="0.2403">
        <ele>212</ele>
        <time>2018-09-23 09:53:02</time>
      </trkpt>
      <trkpt lat="48.96806" lon="0.24024">
        <ele>212</ele>
        <time>2018-09-23 09:53:04</time>
      </trkpt>
      <trkpt lat="48.96812" lon="0.2402">
        <ele>213</ele>
        <time>2018-09-23 09:53:05</time>
      </trkpt>
      <trkpt lat="48.96823" lon="0.24013">
        <ele>213</ele>
        <time>2018-09-23 09:53:07</time>
      </trkpt>
      <trkpt lat="48.96829" lon="0.2401">
        <ele>214</ele>
        <time>2018-09-23 09:53:08</time>
      </trkpt>
      <trkpt lat="48.96841" lon="0.24004">
        <ele>214</ele>
        <time>2018-09-23 09:53:10</time>
      </trkpt>
      <trkpt lat="48.96854" lon="0.23998">
        <ele>215</ele>
        <time>2018-09-23 09:53:12</time>
      </trkpt>
      <trkpt lat="48.96859" lon="0.23996">
        <ele>215</ele>
        <time>2018-09-23 09:53:13</time>
      </trkpt>
      <trkpt lat="48.96864" lon="0.23993">
        <ele>215</ele>
        <time>2018-09-23 09:53:14</time>
      </trkpt>
      <trkpt lat="48.96876" lon="0.23987">
        <ele>216</ele>
        <time>2018-09-23 09:53:16</time>
      </trkpt>
      <trkpt lat="48.96882" lon="0.23984">
        <ele>216</ele>
        <time>2018-09-23 09:53:17</time>
      </trkpt>
      <trkpt lat="48.96893" lon="0.23978">
        <ele>217</ele>
        <time>2018-09-23 09:53:19</time>
      </trkpt>
      <trkpt lat="48.96905" lon="0.23971">
        <ele>217</ele>
        <time>2018-09-23 09:53:21</time>
      </trkpt>
      <trkpt lat="48.96911" lon="0.23968">
        <ele>217</ele>
        <time>2018-09-23 09:53:22</time>
      </trkpt>
      <trkpt lat="48.96923" lon="0.23962">
        <ele>217</ele>
        <time>2018-09-23 09:53:24</time>
      </trkpt>
      <trkpt lat="48.96935" lon="0.23956">
        <ele>218</ele>
        <time>2018-09-23 09:53:26</time>
      </trkpt>
      <trkpt lat="48.96948" lon="0.23948">
        <ele>218</ele>
        <time>2018-09-23 09:53:28</time>
      </trkpt>
      <trkpt lat="48.96959" lon="0.23942">
        <ele>218</ele>
        <time>2018-09-23 09:53:30</time>
      </trkpt>
      <trkpt lat="48.96965" lon="0.23939">
        <ele>218</ele>
        <time>2018-09-23 09:53:31</time>
      </trkpt>
      <trkpt lat="48.96971" lon="0.23936">
        <ele>218</ele>
        <time>2018-09-23 09:53:32</time>
      </trkpt>
      <trkpt lat="48.96982" lon="0.2393">
        <ele>218</ele>
        <time>2018-09-23 09:53:34</time>
      </trkpt>
      <trkpt lat="48.96994" lon="0.23925">
        <ele>218</ele>
        <time>2018-09-23 09:53:36</time>
      </trkpt>
      <trkpt lat="48.97006" lon="0.23918">
        <ele>218</ele>
        <time>2018-09-23 09:53:38</time>
      </trkpt>
      <trkpt lat="48.97012" lon="0.23915">
        <ele>218</ele>
        <time>2018-09-23 09:53:39</time>
      </trkpt>
      <trkpt lat="48.97023" lon="0.2391">
        <ele>218</ele>
        <time>2018-09-23 09:53:41</time>
      </trkpt>
      <trkpt lat="48.97034" lon="0.23905">
        <ele>218</ele>
        <time>2018-09-23 09:53:43</time>
      </trkpt>
      <trkpt lat="48.97046" lon="0.23898">
        <ele>219</ele>
        <time>2018-09-23 09:53:45</time>
      </trkpt>
      <trkpt lat="48.97052" lon="0.23895">
        <ele>219</ele>
        <time>2018-09-23 09:53:46</time>
      </trkpt>
      <trkpt lat="48.97063" lon="0.2389">
        <ele>219</ele>
        <time>2018-09-23 09:53:48</time>
      </trkpt>
      <trkpt lat="48.97069" lon="0.23887">
        <ele>220</ele>
        <time>2018-09-23 09:53:49</time>
      </trkpt>
      <trkpt lat="48.97079" lon="0.23882">
        <ele>220</ele>
        <time>2018-09-23 09:53:51</time>
      </trkpt>
      <trkpt lat="48.9709" lon="0.23876">
        <ele>221</ele>
        <time>2018-09-23 09:53:53</time>
      </trkpt>
      <trkpt lat="48.97101" lon="0.23872">
        <ele>222</ele>
        <time>2018-09-23 09:53:55</time>
      </trkpt>
      <trkpt lat="48.97107" lon="0.2387">
        <ele>222</ele>
        <time>2018-09-23 09:53:56</time>
      </trkpt>
      <trkpt lat="48.97121" lon="0.23861">
        <ele>223</ele>
        <time>2018-09-23 09:53:58</time>
      </trkpt>
      <trkpt lat="48.97134" lon="0.23854">
        <ele>224</ele>
        <time>2018-09-23 09:54:00</time>
      </trkpt>
      <trkpt lat="48.97141" lon="0.23851">
        <ele>224</ele>
        <time>2018-09-23 09:54:01</time>
      </trkpt>
      <trkpt lat="48.97147" lon="0.23849">
        <ele>225</ele>
        <time>2018-09-23 09:54:02</time>
      </trkpt>
      <trkpt lat="48.97159" lon="0.23843">
        <ele>225</ele>
        <time>2018-09-23 09:54:04</time>
      </trkpt>
      <trkpt lat="48.97164" lon="0.23839">
        <ele>226</ele>
        <time>2018-09-23 09:54:05</time>
      </trkpt>
      <trkpt lat="48.97176" lon="0.23832">
        <ele>227</ele>
        <time>2018-09-23 09:54:07</time>
      </trkpt>
      <trkpt lat="48.97187" lon="0.23826">
        <ele>227</ele>
        <time>2018-09-23 09:54:09</time>
      </trkpt>
      <trkpt lat="48.97199" lon="0.2382">
        <ele>228</ele>
        <time>2018-09-23 09:54:11</time>
      </trkpt>
      <trkpt lat="48.97209" lon="0.23815">
        <ele>228</ele>
        <time>2018-09-23 09:54:13</time>
      </trkpt>
      <trkpt lat="48.9722" lon="0.23809">
        <ele>229</ele>
        <time>2018-09-23 09:54:15</time>
      </trkpt>
      <trkpt lat="48.97225" lon="0.23807">
        <ele>229</ele>
        <time>2018-09-23 09:54:16</time>
      </trkpt>
      <trkpt lat="48.97236" lon="0.23801">
        <ele>229</ele>
        <time>2018-09-23 09:54:18</time>
      </trkpt>
      <trkpt lat="48.97247" lon="0.23796">
        <ele>229</ele>
        <time>2018-09-23 09:54:20</time>
      </trkpt>
      <trkpt lat="48.97258" lon="0.23791">
        <ele>230</ele>
        <time>2018-09-23 09:54:22</time>
      </trkpt>
      <trkpt lat="48.97268" lon="0.23785">
        <ele>230</ele>
        <time>2018-09-23 09:54:24</time>
      </trkpt>
      <trkpt lat="48.97273" lon="0.23783">
        <ele>230</ele>
        <time>2018-09-23 09:54:25</time>
      </trkpt>
      <trkpt lat="48.97278" lon="0.2378">
        <ele>230</ele>
        <time>2018-09-23 09:54:26</time>
      </trkpt>
      <trkpt lat="48.97289" lon="0.23775">
        <ele>230</ele>
        <time>2018-09-23 09:54:28</time>
      </trkpt>
      <trkpt lat="48.973" lon="0.23767">
        <ele>230</ele>
        <time>2018-09-23 09:54:30</time>
      </trkpt>
      <trkpt lat="48.97312" lon="0.23758">
        <ele>229</ele>
        <time>2018-09-23 09:54:32</time>
      </trkpt>
      <trkpt lat="48.97323" lon="0.23752">
        <ele>228</ele>
        <time>2018-09-23 09:54:34</time>
      </trkpt>
      <trkpt lat="48.97328" lon="0.23748">
        <ele>227</ele>
        <time>2018-09-23 09:54:35</time>
      </trkpt>
      <trkpt lat="48.97339" lon="0.23742">
        <ele>226</ele>
        <time>2018-09-23 09:54:37</time>
      </trkpt>
      <trkpt lat="48.97345" lon="0.23738">
        <ele>226</ele>
        <time>2018-09-23 09:54:38</time>
      </trkpt>
      <trkpt lat="48.97356" lon="0.23732">
        <ele>225</ele>
        <time>2018-09-23 09:54:40</time>
      </trkpt>
      <trkpt lat="48.97368" lon="0.23727">
        <ele>224</ele>
        <time>2018-09-23 09:54:42</time>
      </trkpt>
      <trkpt lat="48.97379" lon="0.23722">
        <ele>222</ele>
        <time>2018-09-23 09:54:44</time>
      </trkpt>
      <trkpt lat="48.97391" lon="0.23719">
        <ele>220</ele>
        <time>2018-09-23 09:54:46</time>
      </trkpt>
      <trkpt lat="48.97397" lon="0.23718">
        <ele>219</ele>
        <time>2018-09-23 09:54:47</time>
      </trkpt>
      <trkpt lat="48.97409" lon="0.23718">
        <ele>216</ele>
        <time>2018-09-23 09:54:49</time>
      </trkpt>
      <trkpt lat="48.97415" lon="0.23717">
        <ele>215</ele>
        <time>2018-09-23 09:54:50</time>
      </trkpt>
      <trkpt lat="48.97426" lon="0.23718">
        <ele>213</ele>
        <time>2018-09-23 09:54:52</time>
      </trkpt>
      <trkpt lat="48.97437" lon="0.2372">
        <ele>212</ele>
        <time>2018-09-23 09:54:54</time>
      </trkpt>
      <trkpt lat="48.97448" lon="0.23721">
        <ele>211</ele>
        <time>2018-09-23 09:54:56</time>
      </trkpt>
      <trkpt lat="48.97458" lon="0.23723">
        <ele>210</ele>
        <time>2018-09-23 09:54:58</time>
      </trkpt>
      <trkpt lat="48.9747" lon="0.23726">
        <ele>210</ele>
        <time>2018-09-23 09:55:00</time>
      </trkpt>
      <trkpt lat="48.97476" lon="0.23727">
        <ele>210</ele>
        <time>2018-09-23 09:55:01</time>
      </trkpt>
      <trkpt lat="48.97482" lon="0.23728">
        <ele>210</ele>
        <time>2018-09-23 09:55:02</time>
      </trkpt>
      <trkpt lat="48.97493" lon="0.23731">
        <ele>209</ele>
        <time>2018-09-23 09:55:04</time>
      </trkpt>
      <trkpt lat="48.97504" lon="0.23734">
        <ele>209</ele>
        <time>2018-09-23 09:55:06</time>
      </trkpt>
      <trkpt lat="48.9751" lon="0.23735">
        <ele>209</ele>
        <time>2018-09-23 09:55:07</time>
      </trkpt>
      <trkpt lat="48.97515" lon="0.23736">
        <ele>208</ele>
        <time>2018-09-23 09:55:08</time>
      </trkpt>
      <trkpt lat="48.97526" lon="0.23737">
        <ele>208</ele>
        <time>2018-09-23 09:55:10</time>
      </trkpt>
      <trkpt lat="48.97537" lon="0.23736">
        <ele>208</ele>
        <time>2018-09-23 09:55:12</time>
      </trkpt>
      <trkpt lat="48.97547" lon="0.23734">
        <ele>207</ele>
        <time>2018-09-23 09:55:14</time>
      </trkpt>
      <trkpt lat="48.97557" lon="0.23728">
        <ele>207</ele>
        <time>2018-09-23 09:55:16</time>
      </trkpt>
      <trkpt lat="48.97566" lon="0.23719">
        <ele>206</ele>
        <time>2018-09-23 09:55:18</time>
      </trkpt>
      <trkpt lat="48.9757" lon="0.23714">
        <ele>206</ele>
        <time>2018-09-23 09:55:19</time>
      </trkpt>
      <trkpt lat="48.97579" lon="0.23703">
        <ele>206</ele>
        <time>2018-09-23 09:55:21</time>
      </trkpt>
      <trkpt lat="48.97583" lon="0.23698">
        <ele>206</ele>
        <time>2018-09-23 09:55:22</time>
      </trkpt>
      <trkpt lat="48.97592" lon="0.2369">
        <ele>205</ele>
        <time>2018-09-23 09:55:24</time>
      </trkpt>
      <trkpt lat="48.97601" lon="0.23683">
        <ele>205</ele>
        <time>2018-09-23 09:55:26</time>
      </trkpt>
      <trkpt lat="48.9761" lon="0.23676">
        <ele>205</ele>
        <time>2018-09-23 09:55:28</time>
      </trkpt>
      <trkpt lat="48.97614" lon="0.23674">
        <ele>205</ele>
        <time>2018-09-23 09:55:29</time>
      </trkpt>
      <trkpt lat="48.97623" lon="0.23669">
        <ele>205</ele>
        <time>2018-09-23 09:55:31</time>
      </trkpt>
      <trkpt lat="48.97628" lon="0.23667">
        <ele>205</ele>
        <time>2018-09-23 09:55:32</time>
      </trkpt>
      <trkpt lat="48.97637" lon="0.23662">
        <ele>205</ele>
        <time>2018-09-23 09:55:34</time>
      </trkpt>
      <trkpt lat="48.97648" lon="0.23655">
        <ele>205</ele>
        <time>2018-09-23 09:55:36</time>
      </trkpt>
      <trkpt lat="48.97657" lon="0.23649">
        <ele>205</ele>
        <time>2018-09-23 09:55:38</time>
      </trkpt>
      <trkpt lat="48.97665" lon="0.23642">
        <ele>205</ele>
        <time>2018-09-23 09:55:40</time>
      </trkpt>
      <trkpt lat="48.97673" lon="0.23634">
        <ele>206</ele>
        <time>2018-09-23 09:55:42</time>
      </trkpt>
      <trkpt lat="48.97681" lon="0.23626">
        <ele>205</ele>
        <time>2018-09-23 09:55:44</time>
      </trkpt>
      <trkpt lat="48.97689" lon="0.23616">
        <ele>204</ele>
        <time>2018-09-23 09:55:46</time>
      </trkpt>
      <trkpt lat="48.97698" lon="0.23606">
        <ele>204</ele>
        <time>2018-09-23 09:55:48</time>
      </trkpt>
      <trkpt lat="48.97707" lon="0.23596">
        <ele>204</ele>
        <time>2018-09-23 09:55:50</time>
      </trkpt>
      <trkpt lat="48.97716" lon="0.23586">
        <ele>203</ele>
        <time>2018-09-23 09:55:51</time>
      </trkpt>
      <trkpt lat="48.9772" lon="0.23581">
        <ele>203</ele>
        <time>2018-09-23 09:55:53</time>
      </trkpt>
      <trkpt lat="48.97728" lon="0.23572">
        <ele>202</ele>
        <time>2018-09-23 09:55:55</time>
      </trkpt>
      <trkpt lat="48.97732" lon="0.23567">
        <ele>202</ele>
        <time>2018-09-23 09:55:56</time>
      </trkpt>
      <trkpt lat="48.97738" lon="0.23557">
        <ele>203</ele>
        <time>2018-09-23 09:55:58</time>
      </trkpt>
      <trkpt lat="48.97745" lon="0.2355">
        <ele>203</ele>
        <time>2018-09-23 09:56:00</time>
      </trkpt>
      <trkpt lat="48.97749" lon="0.2355">
        <ele>203</ele>
        <time>2018-09-23 09:56:01</time>
      </trkpt>
      <trkpt lat="48.97753" lon="0.23553">
        <ele>203</ele>
        <time>2018-09-23 09:56:02</time>
      </trkpt>
      <trkpt lat="48.97758" lon="0.23565">
        <ele>202</ele>
        <time>2018-09-23 09:56:04</time>
      </trkpt>
      <trkpt lat="48.97761" lon="0.23572">
        <ele>202</ele>
        <time>2018-09-23 09:56:05</time>
      </trkpt>
      <trkpt lat="48.97768" lon="0.23585">
        <ele>202</ele>
        <time>2018-09-23 09:56:07</time>
      </trkpt>
      <trkpt lat="48.97772" lon="0.2359">
        <ele>202</ele>
        <time>2018-09-23 09:56:08</time>
      </trkpt>
      <trkpt lat="48.9778" lon="0.23601">
        <ele>203</ele>
        <time>2018-09-23 09:56:10</time>
      </trkpt>
      <trkpt lat="48.97789" lon="0.23612">
        <ele>202</ele>
        <time>2018-09-23 09:56:12</time>
      </trkpt>
      <trkpt lat="48.97796" lon="0.23624">
        <ele>201</ele>
        <time>2018-09-23 09:56:14</time>
      </trkpt>
      <trkpt lat="48.97802" lon="0.23639">
        <ele>201</ele>
        <time>2018-09-23 09:56:16</time>
      </trkpt>
      <trkpt lat="48.97806" lon="0.23652">
        <ele>201</ele>
        <time>2018-09-23 09:56:18</time>
      </trkpt>
      <trkpt lat="48.97805" lon="0.23663">
        <ele>201</ele>
        <time>2018-09-23 09:56:20</time>
      </trkpt>
      <trkpt lat="48.97803" lon="0.23674">
        <ele>201</ele>
        <time>2018-09-23 09:56:22</time>
      </trkpt>
      <trkpt lat="48.97801" lon="0.23681">
        <ele>201</ele>
        <time>2018-09-23 09:56:23</time>
      </trkpt>
      <trkpt lat="48.97798" lon="0.23695">
        <ele>201</ele>
        <time>2018-09-23 09:56:25</time>
      </trkpt>
      <trkpt lat="48.97795" lon="0.23702">
        <ele>200</ele>
        <time>2018-09-23 09:56:26</time>
      </trkpt>
      <trkpt lat="48.97791" lon="0.23716">
        <ele>200</ele>
        <time>2018-09-23 09:56:28</time>
      </trkpt>
      <trkpt lat="48.97788" lon="0.23724">
        <ele>200</ele>
        <time>2018-09-23 09:56:29</time>
      </trkpt>
      <trkpt lat="48.97784" lon="0.23738">
        <ele>199</ele>
        <time>2018-09-23 09:56:31</time>
      </trkpt>
      <trkpt lat="48.97783" lon="0.23746">
        <ele>199</ele>
        <time>2018-09-23 09:56:32</time>
      </trkpt>
      <trkpt lat="48.97782" lon="0.2376">
        <ele>199</ele>
        <time>2018-09-23 09:56:34</time>
      </trkpt>
      <trkpt lat="48.97783" lon="0.23767">
        <ele>199</ele>
        <time>2018-09-23 09:56:35</time>
      </trkpt>
      <trkpt lat="48.97781" lon="0.2378">
        <ele>199</ele>
        <time>2018-09-23 09:56:37</time>
      </trkpt>
      <trkpt lat="48.97781" lon="0.23791">
        <ele>199</ele>
        <time>2018-09-23 09:56:39</time>
      </trkpt>
      <trkpt lat="48.97781" lon="0.23797">
        <ele>199</ele>
        <time>2018-09-23 09:56:40</time>
      </trkpt>
      <trkpt lat="48.97783" lon="0.23808">
        <ele>199</ele>
        <time>2018-09-23 09:56:42</time>
      </trkpt>
      <trkpt lat="48.97783" lon="0.23817">
        <ele>198</ele>
        <time>2018-09-23 09:56:44</time>
      </trkpt>
      <trkpt lat="48.97784" lon="0.23822">
        <ele>198</ele>
        <time>2018-09-23 09:56:46</time>
      </trkpt>
      <trkpt lat="48.97785" lon="0.23826">
        <ele>198</ele>
        <time>2018-09-23 09:56:48</time>
      </trkpt>
      <trkpt lat="48.97785" lon="0.23833">
        <ele>198</ele>
        <time>2018-09-23 09:56:50</time>
      </trkpt>
      <trkpt lat="48.97787" lon="0.23842">
        <ele>198</ele>
        <time>2018-09-23 09:56:52</time>
      </trkpt>
      <trkpt lat="48.97789" lon="0.2385">
        <ele>198</ele>
        <time>2018-09-23 09:56:54</time>
      </trkpt>
      <trkpt lat="48.9779" lon="0.2386">
        <ele>198</ele>
        <time>2018-09-23 09:56:56</time>
      </trkpt>
      <trkpt lat="48.97791" lon="0.23869">
        <ele>198</ele>
        <time>2018-09-23 09:56:58</time>
      </trkpt>
      <trkpt lat="48.97793" lon="0.23877">
        <ele>198</ele>
        <time>2018-09-23 09:57:00</time>
      </trkpt>
      <trkpt lat="48.97794" lon="0.23885">
        <ele>198</ele>
        <time>2018-09-23 09:57:02</time>
      </trkpt>
      <trkpt lat="48.97794" lon="0.23893">
        <ele>198</ele>
        <time>2018-09-23 09:57:04</time>
      </trkpt>
      <trkpt lat="48.97795" lon="0.23896">
        <ele>198</ele>
        <time>2018-09-23 09:57:05</time>
      </trkpt>
      <trkpt lat="48.97796" lon="0.23904">
        <ele>198</ele>
        <time>2018-09-23 09:57:07</time>
      </trkpt>
      <trkpt lat="48.97798" lon="0.23909">
        <ele>198</ele>
        <time>2018-09-23 09:57:08</time>
      </trkpt>
      <trkpt lat="48.97797" lon="0.23916">
        <ele>197</ele>
        <time>2018-09-23 09:57:10</time>
      </trkpt>
      <trkpt lat="48.97798" lon="0.23925">
        <ele>197</ele>
        <time>2018-09-23 09:57:12</time>
      </trkpt>
      <trkpt lat="48.978" lon="0.23933">
        <ele>197</ele>
        <time>2018-09-23 09:57:14</time>
      </trkpt>
      <trkpt lat="48.978" lon="0.2394">
        <ele>197</ele>
        <time>2018-09-23 09:57:16</time>
      </trkpt>
      <trkpt lat="48.978" lon="0.23943">
        <ele>196</ele>
        <time>2018-09-23 09:57:17</time>
      </trkpt>
      <trkpt lat="48.97801" lon="0.2395">
        <ele>196</ele>
        <time>2018-09-23 09:57:19</time>
      </trkpt>
      <trkpt lat="48.978" lon="0.23954">
        <ele>196</ele>
        <time>2018-09-23 09:57:20</time>
      </trkpt>
      <trkpt lat="48.97801" lon="0.23963">
        <ele>196</ele>
        <time>2018-09-23 09:57:22</time>
      </trkpt>
      <trkpt lat="48.97801" lon="0.23971">
        <ele>195</ele>
        <time>2018-09-23 09:57:24</time>
      </trkpt>
      <trkpt lat="48.97801" lon="0.23976">
        <ele>195</ele>
        <time>2018-09-23 09:57:25</time>
      </trkpt>
      <trkpt lat="48.97801" lon="0.23981">
        <ele>195</ele>
        <time>2018-09-23 09:57:26</time>
      </trkpt>
      <trkpt lat="48.97801" lon="0.23991">
        <ele>195</ele>
        <time>2018-09-23 09:57:28</time>
      </trkpt>
      <trkpt lat="48.97801" lon="0.24002">
        <ele>195</ele>
        <time>2018-09-23 09:57:30</time>
      </trkpt>
      <trkpt lat="48.97802" lon="0.24011">
        <ele>195</ele>
        <time>2018-09-23 09:57:32</time>
      </trkpt>
      <trkpt lat="48.97802" lon="0.2402">
        <ele>195</ele>
        <time>2018-09-23 09:57:34</time>
      </trkpt>
      <trkpt lat="48.97803" lon="0.24024">
        <ele>195</ele>
        <time>2018-09-23 09:57:35</time>
      </trkpt>
      <trkpt lat="48.97803" lon="0.24031">
        <ele>195</ele>
        <time>2018-09-23 09:57:37</time>
      </trkpt>
      <trkpt lat="48.97804" lon="0.24034">
        <ele>195</ele>
        <time>2018-09-23 09:57:38</time>
      </trkpt>
      <trkpt lat="48.97804" lon="0.24041">
        <ele>195</ele>
        <time>2018-09-23 09:57:40</time>
      </trkpt>
      <trkpt lat="48.97805" lon="0.24051">
        <ele>195</ele>
        <time>2018-09-23 09:57:42</time>
      </trkpt>
      <trkpt lat="48.97804" lon="0.2406">
        <ele>195</ele>
        <time>2018-09-23 09:57:44</time>
      </trkpt>
      <trkpt lat="48.97806" lon="0.24069">
        <ele>195</ele>
        <time>2018-09-23 09:57:46</time>
      </trkpt>
      <trkpt lat="48.97806" lon="0.24079">
        <ele>195</ele>
        <time>2018-09-23 09:57:48</time>
      </trkpt>
      <trkpt lat="48.97806" lon="0.24084">
        <ele>195</ele>
        <time>2018-09-23 09:57:49</time>
      </trkpt>
      <trkpt lat="48.97806" lon="0.24089">
        <ele>195</ele>
        <time>2018-09-23 09:57:50</time>
      </trkpt>
      <trkpt lat="48.97806" lon="0.24099">
        <ele>194</ele>
        <time>2018-09-23 09:57:52</time>
      </trkpt>
      <trkpt lat="48.97807" lon="0.2411">
        <ele>194</ele>
        <time>2018-09-23 09:57:54</time>
      </trkpt>
      <trkpt lat="48.97808" lon="0.24122">
        <ele>193</ele>
        <time>2018-09-23 09:57:56</time>
      </trkpt>
      <trkpt lat="48.97809" lon="0.24135">
        <ele>193</ele>
        <time>2018-09-23 09:57:58</time>
      </trkpt>
      <trkpt lat="48.97809" lon="0.24147">
        <ele>192</ele>
        <time>2018-09-23 09:58:00</time>
      </trkpt>
      <trkpt lat="48.9781" lon="0.2416">
        <ele>192</ele>
        <time>2018-09-23 09:58:02</time>
      </trkpt>
      <trkpt lat="48.97811" lon="0.24173">
        <ele>192</ele>
        <time>2018-09-23 09:58:04</time>
      </trkpt>
      <trkpt lat="48.97811" lon="0.24185">
        <ele>192</ele>
        <time>2018-09-23 09:58:06</time>
      </trkpt>
      <trkpt lat="48.97812" lon="0.24191">
        <ele>192</ele>
        <time>2018-09-23 09:58:07</time>
      </trkpt>
      <trkpt lat="48.97812" lon="0.24197">
        <ele>192</ele>
        <time>2018-09-23 09:58:08</time>
      </trkpt>
      <trkpt lat="48.97812" lon="0.2421">
        <ele>191</ele>
        <time>2018-09-23 09:58:10</time>
      </trkpt>
      <trkpt lat="48.97812" lon="0.24217">
        <ele>191</ele>
        <time>2018-09-23 09:58:11</time>
      </trkpt>
      <trkpt lat="48.97813" lon="0.24229">
        <ele>191</ele>
        <time>2018-09-23 09:58:13</time>
      </trkpt>
      <trkpt lat="48.97814" lon="0.24236">
        <ele>191</ele>
        <time>2018-09-23 09:58:14</time>
      </trkpt>
      <trkpt lat="48.97815" lon="0.24251">
        <ele>190</ele>
        <time>2018-09-23 09:58:16</time>
      </trkpt>
      <trkpt lat="48.97816" lon="0.24258">
        <ele>190</ele>
        <time>2018-09-23 09:58:17</time>
      </trkpt>
      <trkpt lat="48.97817" lon="0.24264">
        <ele>190</ele>
        <time>2018-09-23 09:58:18</time>
      </trkpt>
      <trkpt lat="48.97818" lon="0.24277">
        <ele>190</ele>
        <time>2018-09-23 09:58:20</time>
      </trkpt>
      <trkpt lat="48.97821" lon="0.24284">
        <ele>190</ele>
        <time>2018-09-23 09:58:22</time>
      </trkpt>
      <trkpt lat="48.97825" lon="0.24285">
        <ele>191</ele>
        <time>2018-09-23 09:58:24</time>
      </trkpt>
      <trkpt lat="48.97828" lon="0.24284">
        <ele>191</ele>
        <time>2018-09-23 09:58:25</time>
      </trkpt>
      <trkpt lat="48.97831" lon="0.24284">
        <ele>190</ele>
        <time>2018-09-23 09:58:26</time>
      </trkpt>
      <trkpt lat="48.97836" lon="0.24283">
        <ele>191</ele>
        <time>2018-09-23 09:58:28</time>
      </trkpt>
      <trkpt lat="48.97842" lon="0.24283">
        <ele>191</ele>
        <time>2018-09-23 09:58:30</time>
      </trkpt>
      <trkpt lat="48.97845" lon="0.24282">
        <ele>191</ele>
        <time>2018-09-23 09:58:31</time>
      </trkpt>
      <trkpt lat="48.97848" lon="0.24282">
        <ele>191</ele>
        <time>2018-09-23 09:58:32</time>
      </trkpt>
      <trkpt lat="48.97854" lon="0.24281">
        <ele>191</ele>
        <time>2018-09-23 09:58:34</time>
      </trkpt>
      <trkpt lat="48.9786" lon="0.2428">
        <ele>191</ele>
        <time>2018-09-23 09:58:36</time>
      </trkpt>
      <trkpt lat="48.97864" lon="0.2428">
        <ele>191</ele>
        <time>2018-09-23 09:58:37</time>
      </trkpt>
      <trkpt lat="48.97867" lon="0.2428">
        <ele>191</ele>
        <time>2018-09-23 09:58:38</time>
      </trkpt>
      <trkpt lat="48.97873" lon="0.2428">
        <ele>190</ele>
        <time>2018-09-23 09:58:40</time>
      </trkpt>
      <trkpt lat="48.97881" lon="0.24283">
        <ele>191</ele>
        <time>2018-09-23 09:58:42</time>
      </trkpt>
      <trkpt lat="48.97887" lon="0.24285">
        <ele>191</ele>
        <time>2018-09-23 09:58:44</time>
      </trkpt>
      <trkpt lat="48.97894" lon="0.24287">
        <ele>191</ele>
        <time>2018-09-23 09:58:46</time>
      </trkpt>
      <trkpt lat="48.97902" lon="0.2429">
        <ele>191</ele>
        <time>2018-09-23 09:58:48</time>
      </trkpt>
      <trkpt lat="48.97909" lon="0.24293">
        <ele>191</ele>
        <time>2018-09-23 09:58:50</time>
      </trkpt>
      <trkpt lat="48.97916" lon="0.24296">
        <ele>190</ele>
        <time>2018-09-23 09:58:52</time>
      </trkpt>
      <trkpt lat="48.97922" lon="0.243">
        <ele>189</ele>
        <time>2018-09-23 09:58:54</time>
      </trkpt>
      <trkpt lat="48.97927" lon="0.24303">
        <ele>189</ele>
        <time>2018-09-23 09:58:56</time>
      </trkpt>
      <trkpt lat="48.97934" lon="0.24306">
        <ele>189</ele>
        <time>2018-09-23 09:58:58</time>
      </trkpt>
      <trkpt lat="48.97941" lon="0.24309">
        <ele>189</ele>
        <time>2018-09-23 09:59:00</time>
      </trkpt>
      <trkpt lat="48.97949" lon="0.24312">
        <ele>188</ele>
        <time>2018-09-23 09:59:02</time>
      </trkpt>
      <trkpt lat="48.97956" lon="0.24315">
        <ele>188</ele>
        <time>2018-09-23 09:59:04</time>
      </trkpt>
      <trkpt lat="48.97962" lon="0.24317">
        <ele>187</ele>
        <time>2018-09-23 09:59:06</time>
      </trkpt>
      <trkpt lat="48.97964" lon="0.24316">
        <ele>187</ele>
        <time>2018-09-23 09:59:07</time>
      </trkpt>
      <trkpt lat="48.97966" lon="0.24315">
        <ele>187</ele>
        <time>2018-09-23 09:59:08</time>
      </trkpt>
      <trkpt lat="48.97969" lon="0.2431">
        <ele>189</ele>
        <time>2018-09-23 09:59:10</time>
      </trkpt>
      <trkpt lat="48.97973" lon="0.24301">
        <ele>190</ele>
        <time>2018-09-23 09:59:12</time>
      </trkpt>
      <trkpt lat="48.97975" lon="0.24296">
        <ele>190</ele>
        <time>2018-09-23 09:59:13</time>
      </trkpt>
      <trkpt lat="48.97976" lon="0.24292">
        <ele>190</ele>
        <time>2018-09-23 09:59:14</time>
      </trkpt>
      <trkpt lat="48.97977" lon="0.24281">
        <ele>191</ele>
        <time>2018-09-23 09:59:16</time>
      </trkpt>
      <trkpt lat="48.97978" lon="0.24268">
        <ele>191</ele>
        <time>2018-09-23 09:59:18</time>
      </trkpt>
      <trkpt lat="48.97979" lon="0.24256">
        <ele>192</ele>
        <time>2018-09-23 09:59:20</time>
      </trkpt>
      <trkpt lat="48.97979" lon="0.24245">
        <ele>192</ele>
        <time>2018-09-23 09:59:22</time>
      </trkpt>
      <trkpt lat="48.9798" lon="0.24235">
        <ele>193</ele>
        <time>2018-09-23 09:59:24</time>
      </trkpt>
      <trkpt lat="48.97981" lon="0.24224">
        <ele>194</ele>
        <time>2018-09-23 09:59:26</time>
      </trkpt>
      <trkpt lat="48.97983" lon="0.24212">
        <ele>194</ele>
        <time>2018-09-23 09:59:28</time>
      </trkpt>
      <trkpt lat="48.97988" lon="0.24204">
        <ele>195</ele>
        <time>2018-09-23 09:59:30</time>
      </trkpt>
      <trkpt lat="48.97991" lon="0.24201">
        <ele>195</ele>
        <time>2018-09-23 09:59:31</time>
      </trkpt>
      <trkpt lat="48.97994" lon="0.24199">
        <ele>195</ele>
        <time>2018-09-23 09:59:32</time>
      </trkpt>
      <trkpt lat="48.98001" lon="0.24195">
        <ele>196</ele>
        <time>2018-09-23 09:59:34</time>
      </trkpt>
      <trkpt lat="48.98008" lon="0.24191">
        <ele>196</ele>
        <time>2018-09-23 09:59:36</time>
      </trkpt>
      <trkpt lat="48.98015" lon="0.24188">
        <ele>196</ele>
        <time>2018-09-23 09:59:38</time>
      </trkpt>
      <trkpt lat="48.98022" lon="0.24184">
        <ele>195</ele>
        <time>2018-09-23 09:59:40</time>
      </trkpt>
      <trkpt lat="48.98029" lon="0.2418">
        <ele>195</ele>
        <time>2018-09-23 09:59:42</time>
      </trkpt>
      <trkpt lat="48.98037" lon="0.24175">
        <ele>195</ele>
        <time>2018-09-23 09:59:44</time>
      </trkpt>
      <trkpt lat="48.98044" lon="0.24171">
        <ele>195</ele>
        <time>2018-09-23 09:59:46</time>
      </trkpt>
      <trkpt lat="48.98052" lon="0.24168">
        <ele>195</ele>
        <time>2018-09-23 09:59:48</time>
      </trkpt>
      <trkpt lat="48.98058" lon="0.24163">
        <ele>195</ele>
        <time>2018-09-23 09:59:50</time>
      </trkpt>
      <trkpt lat="48.98065" lon="0.24159">
        <ele>194</ele>
        <time>2018-09-23 09:59:52</time>
      </trkpt>
      <trkpt lat="48.98068" lon="0.24157">
        <ele>194</ele>
        <time>2018-09-23 09:59:53</time>
      </trkpt>
      <trkpt lat="48.98074" lon="0.24152">
        <ele>194</ele>
        <time>2018-09-23 09:59:55</time>
      </trkpt>
      <trkpt lat="48.98078" lon="0.2415">
        <ele>194</ele>
        <time>2018-09-23 09:59:56</time>
      </trkpt>
      <trkpt lat="48.98085" lon="0.24146">
        <ele>193</ele>
        <time>2018-09-23 09:59:58</time>
      </trkpt>
      <trkpt lat="48.98089" lon="0.24144">
        <ele>193</ele>
        <time>2018-09-23 09:59:59</time>
      </trkpt>
      <trkpt lat="48.98095" lon="0.24139">
        <ele>193</ele>
        <time>2018-09-23 10:00:01</time>
      </trkpt>
      <trkpt lat="48.98098" lon="0.24136">
        <ele>193</ele>
        <time>2018-09-23 10:00:02</time>
      </trkpt>
      <trkpt lat="48.98104" lon="0.24131">
        <ele>193</ele>
        <time>2018-09-23 10:00:04</time>
      </trkpt>
      <trkpt lat="48.98107" lon="0.2412">
        <ele>194</ele>
        <time>2018-09-23 10:00:06</time>
      </trkpt>
      <trkpt lat="48.9811" lon="0.24107">
        <ele>195</ele>
        <time>2018-09-23 10:00:08</time>
      </trkpt>
      <trkpt lat="48.98111" lon="0.24094">
        <ele>196</ele>
        <time>2018-09-23 10:00:10</time>
      </trkpt>
      <trkpt lat="48.98112" lon="0.24082">
        <ele>197</ele>
        <time>2018-09-23 10:00:12</time>
      </trkpt>
      <trkpt lat="48.98115" lon="0.24069">
        <ele>198</ele>
        <time>2018-09-23 10:00:14</time>
      </trkpt>
      <trkpt lat="48.98117" lon="0.24057">
        <ele>199</ele>
        <time>2018-09-23 10:00:16</time>
      </trkpt>
      <trkpt lat="48.98117" lon="0.24045">
        <ele>199</ele>
        <time>2018-09-23 10:00:18</time>
      </trkpt>
      <trkpt lat="48.98114" lon="0.24034">
        <ele>200</ele>
        <time>2018-09-23 10:00:20</time>
      </trkpt>
      <trkpt lat="48.9811" lon="0.24022">
        <ele>201</ele>
        <time>2018-09-23 10:00:22</time>
      </trkpt>
      <trkpt lat="48.98106" lon="0.2401">
        <ele>201</ele>
        <time>2018-09-23 10:00:24</time>
      </trkpt>
      <trkpt lat="48.98102" lon="0.23999">
        <ele>202</ele>
        <time>2018-09-23 10:00:26</time>
      </trkpt>
      <trkpt lat="48.98098" lon="0.23987">
        <ele>202</ele>
        <time>2018-09-23 10:00:28</time>
      </trkpt>
      <trkpt lat="48.98094" lon="0.23975">
        <ele>203</ele>
        <time>2018-09-23 10:00:30</time>
      </trkpt>
      <trkpt lat="48.9809" lon="0.23964">
        <ele>204</ele>
        <time>2018-09-23 10:00:32</time>
      </trkpt>
      <trkpt lat="48.98087" lon="0.23953">
        <ele>204</ele>
        <time>2018-09-23 10:00:34</time>
      </trkpt>
      <trkpt lat="48.98083" lon="0.23942">
        <ele>205</ele>
        <time>2018-09-23 10:00:36</time>
      </trkpt>
      <trkpt lat="48.98082" lon="0.23934">
        <ele>206</ele>
        <time>2018-09-23 10:00:38</time>
      </trkpt>
      <trkpt lat="48.98089" lon="0.23924">
        <ele>205</ele>
        <time>2018-09-23 10:00:40</time>
      </trkpt>
      <trkpt lat="48.98098" lon="0.2392">
        <ele>205</ele>
        <time>2018-09-23 10:00:42</time>
      </trkpt>
      <trkpt lat="48.98107" lon="0.23914">
        <ele>204</ele>
        <time>2018-09-23 10:00:44</time>
      </trkpt>
      <trkpt lat="48.98117" lon="0.23907">
        <ele>204</ele>
        <time>2018-09-23 10:00:46</time>
      </trkpt>
      <trkpt lat="48.98122" lon="0.23902">
        <ele>204</ele>
        <time>2018-09-23 10:00:47</time>
      </trkpt>
      <trkpt lat="48.98132" lon="0.23892">
        <ele>204</ele>
        <time>2018-09-23 10:00:49</time>
      </trkpt>
      <trkpt lat="48.98136" lon="0.23887">
        <ele>205</ele>
        <time>2018-09-23 10:00:50</time>
      </trkpt>
      <trkpt lat="48.98144" lon="0.23876">
        <ele>205</ele>
        <time>2018-09-23 10:00:52</time>
      </trkpt>
      <trkpt lat="48.98149" lon="0.2387">
        <ele>205</ele>
        <time>2018-09-23 10:00:53</time>
      </trkpt>
      <trkpt lat="48.98157" lon="0.23859">
        <ele>205</ele>
        <time>2018-09-23 10:00:55</time>
      </trkpt>
      <trkpt lat="48.98162" lon="0.23854">
        <ele>205</ele>
        <time>2018-09-23 10:00:56</time>
      </trkpt>
      <trkpt lat="48.98171" lon="0.23845">
        <ele>205</ele>
        <time>2018-09-23 10:00:58</time>
      </trkpt>
      <trkpt lat="48.98181" lon="0.23837">
        <ele>205</ele>
        <time>2018-09-23 10:01:00</time>
      </trkpt>
      <trkpt lat="48.98186" lon="0.23832">
        <ele>205</ele>
        <time>2018-09-23 10:01:01</time>
      </trkpt>
      <trkpt lat="48.9819" lon="0.23828">
        <ele>205</ele>
        <time>2018-09-23 10:01:02</time>
      </trkpt>
      <trkpt lat="48.982" lon="0.23819">
        <ele>205</ele>
        <time>2018-09-23 10:01:04</time>
      </trkpt>
      <trkpt lat="48.98209" lon="0.2381">
        <ele>205</ele>
        <time>2018-09-23 10:01:06</time>
      </trkpt>
      <trkpt lat="48.9822" lon="0.23801">
        <ele>205</ele>
        <time>2018-09-23 10:01:08</time>
      </trkpt>
      <trkpt lat="48.98229" lon="0.23793">
        <ele>205</ele>
        <time>2018-09-23 10:01:10</time>
      </trkpt>
      <trkpt lat="48.98238" lon="0.23783">
        <ele>205</ele>
        <time>2018-09-23 10:01:12</time>
      </trkpt>
      <trkpt lat="48.98243" lon="0.23778">
        <ele>205</ele>
        <time>2018-09-23 10:01:13</time>
      </trkpt>
      <trkpt lat="48.98252" lon="0.23769">
        <ele>205</ele>
        <time>2018-09-23 10:01:15</time>
      </trkpt>
      <trkpt lat="48.98257" lon="0.23764">
        <ele>205</ele>
        <time>2018-09-23 10:01:16</time>
      </trkpt>
      <trkpt lat="48.98266" lon="0.23754">
        <ele>205</ele>
        <time>2018-09-23 10:01:18</time>
      </trkpt>
      <trkpt lat="48.98274" lon="0.23746">
        <ele>204</ele>
        <time>2018-09-23 10:01:20</time>
      </trkpt>
      <trkpt lat="48.98283" lon="0.23741">
        <ele>204</ele>
        <time>2018-09-23 10:01:22</time>
      </trkpt>
      <trkpt lat="48.98289" lon="0.23743">
        <ele>203</ele>
        <time>2018-09-23 10:01:24</time>
      </trkpt>
      <trkpt lat="48.98292" lon="0.23754">
        <ele>202</ele>
        <time>2018-09-23 10:01:26</time>
      </trkpt>
      <trkpt lat="48.98291" lon="0.23766">
        <ele>203</ele>
        <time>2018-09-23 10:01:28</time>
      </trkpt>
      <trkpt lat="48.9829" lon="0.23781">
        <ele>202</ele>
        <time>2018-09-23 10:01:30</time>
      </trkpt>
      <trkpt lat="48.98288" lon="0.23797">
        <ele>202</ele>
        <time>2018-09-23 10:01:32</time>
      </trkpt>
      <trkpt lat="48.98286" lon="0.23814">
        <ele>202</ele>
        <time>2018-09-23 10:01:34</time>
      </trkpt>
      <trkpt lat="48.98284" lon="0.23823">
        <ele>201</ele>
        <time>2018-09-23 10:01:35</time>
      </trkpt>
      <trkpt lat="48.98282" lon="0.23841">
        <ele>201</ele>
        <time>2018-09-23 10:01:37</time>
      </trkpt>
      <trkpt lat="48.98281" lon="0.2385">
        <ele>201</ele>
        <time>2018-09-23 10:01:38</time>
      </trkpt>
      <trkpt lat="48.98279" lon="0.23868">
        <ele>200</ele>
        <time>2018-09-23 10:01:40</time>
      </trkpt>
      <trkpt lat="48.98278" lon="0.23878">
        <ele>200</ele>
        <time>2018-09-23 10:01:41</time>
      </trkpt>
      <trkpt lat="48.98276" lon="0.23897">
        <ele>200</ele>
        <time>2018-09-23 10:01:43</time>
      </trkpt>
      <trkpt lat="48.98275" lon="0.23906">
        <ele>200</ele>
        <time>2018-09-23 10:01:44</time>
      </trkpt>
      <trkpt lat="48.98272" lon="0.23925">
        <ele>200</ele>
        <time>2018-09-23 10:01:46</time>
      </trkpt>
      <trkpt lat="48.98271" lon="0.23935">
        <ele>200</ele>
        <time>2018-09-23 10:01:47</time>
      </trkpt>
      <trkpt lat="48.98269" lon="0.23954">
        <ele>199</ele>
        <time>2018-09-23 10:01:49</time>
      </trkpt>
      <trkpt lat="48.98268" lon="0.23964">
        <ele>199</ele>
        <time>2018-09-23 10:01:50</time>
      </trkpt>
      <trkpt lat="48.98266" lon="0.23984">
        <ele>198</ele>
        <time>2018-09-23 10:01:52</time>
      </trkpt>
      <trkpt lat="48.98264" lon="0.23994">
        <ele>198</ele>
        <time>2018-09-23 10:01:53</time>
      </trkpt>
      <trkpt lat="48.98261" lon="0.24015">
        <ele>198</ele>
        <time>2018-09-23 10:01:55</time>
      </trkpt>
      <trkpt lat="48.98259" lon="0.24025">
        <ele>198</ele>
        <time>2018-09-23 10:01:56</time>
      </trkpt>
      <trkpt lat="48.98254" lon="0.24045">
        <ele>198</ele>
        <time>2018-09-23 10:01:58</time>
      </trkpt>
      <trkpt lat="48.98251" lon="0.24054">
        <ele>198</ele>
        <time>2018-09-23 10:01:59</time>
      </trkpt>
      <trkpt lat="48.98245" lon="0.24071">
        <ele>197</ele>
        <time>2018-09-23 10:02:01</time>
      </trkpt>
      <trkpt lat="48.98239" lon="0.2409">
        <ele>197</ele>
        <time>2018-09-23 10:02:03</time>
      </trkpt>
      <trkpt lat="48.98236" lon="0.24098">
        <ele>197</ele>
        <time>2018-09-23 10:02:04</time>
      </trkpt>
      <trkpt lat="48.98231" lon="0.24116">
        <ele>196</ele>
        <time>2018-09-23 10:02:06</time>
      </trkpt>
      <trkpt lat="48.98226" lon="0.24134">
        <ele>196</ele>
        <time>2018-09-23 10:02:08</time>
      </trkpt>
      <trkpt lat="48.98224" lon="0.24153">
        <ele>196</ele>
        <time>2018-09-23 10:02:10</time>
      </trkpt>
      <trkpt lat="48.98223" lon="0.24163">
        <ele>196</ele>
        <time>2018-09-23 10:02:11</time>
      </trkpt>
      <trkpt lat="48.98222" lon="0.24173">
        <ele>195</ele>
        <time>2018-09-23 10:02:12</time>
      </trkpt>
      <trkpt lat="48.98222" lon="0.24193">
        <ele>195</ele>
        <time>2018-09-23 10:02:14</time>
      </trkpt>
      <trkpt lat="48.98223" lon="0.24204">
        <ele>195</ele>
        <time>2018-09-23 10:02:15</time>
      </trkpt>
      <trkpt lat="48.98224" lon="0.24224">
        <ele>195</ele>
        <time>2018-09-23 10:02:17</time>
      </trkpt>
      <trkpt lat="48.98225" lon="0.24245">
        <ele>195</ele>
        <time>2018-09-23 10:02:19</time>
      </trkpt>
      <trkpt lat="48.98225" lon="0.24256">
        <ele>195</ele>
        <time>2018-09-23 10:02:20</time>
      </trkpt>
      <trkpt lat="48.98225" lon="0.24277">
        <ele>194</ele>
        <time>2018-09-23 10:02:22</time>
      </trkpt>
      <trkpt lat="48.98225" lon="0.24287">
        <ele>194</ele>
        <time>2018-09-23 10:02:23</time>
      </trkpt>
      <trkpt lat="48.98225" lon="0.24307">
        <ele>194</ele>
        <time>2018-09-23 10:02:25</time>
      </trkpt>
      <trkpt lat="48.98225" lon="0.24317">
        <ele>194</ele>
        <time>2018-09-23 10:02:26</time>
      </trkpt>
      <trkpt lat="48.98224" lon="0.24337">
        <ele>194</ele>
        <time>2018-09-23 10:02:28</time>
      </trkpt>
      <trkpt lat="48.98223" lon="0.24357">
        <ele>194</ele>
        <time>2018-09-23 10:02:30</time>
      </trkpt>
      <trkpt lat="48.98222" lon="0.24367">
        <ele>194</ele>
        <time>2018-09-23 10:02:31</time>
      </trkpt>
      <trkpt lat="48.9822" lon="0.24387">
        <ele>194</ele>
        <time>2018-09-23 10:02:33</time>
      </trkpt>
      <trkpt lat="48.98219" lon="0.24405">
        <ele>194</ele>
        <time>2018-09-23 10:02:35</time>
      </trkpt>
      <trkpt lat="48.98217" lon="0.24424">
        <ele>193</ele>
        <time>2018-09-23 10:02:37</time>
      </trkpt>
      <trkpt lat="48.98217" lon="0.24434">
        <ele>193</ele>
        <time>2018-09-23 10:02:38</time>
      </trkpt>
      <trkpt lat="48.98215" lon="0.24451">
        <ele>193</ele>
        <time>2018-09-23 10:02:40</time>
      </trkpt>
      <trkpt lat="48.98212" lon="0.24468">
        <ele>192</ele>
        <time>2018-09-23 10:02:42</time>
      </trkpt>
      <trkpt lat="48.98209" lon="0.24484">
        <ele>192</ele>
        <time>2018-09-23 10:02:44</time>
      </trkpt>
      <trkpt lat="48.98204" lon="0.24499">
        <ele>192</ele>
        <time>2018-09-23 10:02:46</time>
      </trkpt>
      <trkpt lat="48.98202" lon="0.24506">
        <ele>192</ele>
        <time>2018-09-23 10:02:47</time>
      </trkpt>
      <trkpt lat="48.98198" lon="0.24519">
        <ele>192</ele>
        <time>2018-09-23 10:02:49</time>
      </trkpt>
      <trkpt lat="48.98195" lon="0.24525">
        <ele>191</ele>
        <time>2018-09-23 10:02:50</time>
      </trkpt>
      <trkpt lat="48.98191" lon="0.24535">
        <ele>191</ele>
        <time>2018-09-23 10:02:52</time>
      </trkpt>
      <trkpt lat="48.98187" lon="0.24546">
        <ele>191</ele>
        <time>2018-09-23 10:02:54</time>
      </trkpt>
      <trkpt lat="48.98182" lon="0.24556">
        <ele>190</ele>
        <time>2018-09-23 10:02:56</time>
      </trkpt>
      <trkpt lat="48.98178" lon="0.24567">
        <ele>190</ele>
        <time>2018-09-23 10:02:58</time>
      </trkpt>
      <trkpt lat="48.98176" lon="0.24573">
        <ele>190</ele>
        <time>2018-09-23 10:02:59</time>
      </trkpt>
      <trkpt lat="48.9817" lon="0.24584">
        <ele>189</ele>
        <time>2018-09-23 10:03:01</time>
      </trkpt>
      <trkpt lat="48.98168" lon="0.24589">
        <ele>189</ele>
        <time>2018-09-23 10:03:02</time>
      </trkpt>
      <trkpt lat="48.98163" lon="0.24597">
        <ele>188</ele>
        <time>2018-09-23 10:03:04</time>
      </trkpt>
      <trkpt lat="48.98161" lon="0.24601">
        <ele>188</ele>
        <time>2018-09-23 10:03:05</time>
      </trkpt>
      <trkpt lat="48.98157" lon="0.24609">
        <ele>187</ele>
        <time>2018-09-23 10:03:07</time>
      </trkpt>
      <trkpt lat="48.98155" lon="0.24613">
        <ele>186</ele>
        <time>2018-09-23 10:03:08</time>
      </trkpt>
      <trkpt lat="48.98153" lon="0.24618">
        <ele>186</ele>
        <time>2018-09-23 10:03:10</time>
      </trkpt>
      <trkpt lat="48.98151" lon="0.24623">
        <ele>185</ele>
        <time>2018-09-23 10:03:12</time>
      </trkpt>
      <trkpt lat="48.9815" lon="0.24625">
        <ele>185</ele>
        <time>2018-09-23 10:03:13</time>
      </trkpt>
      <trkpt lat="48.98149" lon="0.24627">
        <ele>184</ele>
        <time>2018-09-23 10:03:14</time>
      </trkpt>
      <trkpt lat="48.98148" lon="0.24633">
        <ele>184</ele>
        <time>2018-09-23 10:03:16</time>
      </trkpt>
      <trkpt lat="48.98145" lon="0.24638">
        <ele>183</ele>
        <time>2018-09-23 10:03:18</time>
      </trkpt>
      <trkpt lat="48.98143" lon="0.24641">
        <ele>182</ele>
        <time>2018-09-23 10:03:19</time>
      </trkpt>
      <trkpt lat="48.98142" lon="0.24644">
        <ele>182</ele>
        <time>2018-09-23 10:03:20</time>
      </trkpt>
      <trkpt lat="48.98139" lon="0.2465">
        <ele>181</ele>
        <time>2018-09-23 10:03:22</time>
      </trkpt>
      <trkpt lat="48.98137" lon="0.24655">
        <ele>180</ele>
        <time>2018-09-23 10:03:23</time>
      </trkpt>
      <trkpt lat="48.98135" lon="0.24659">
        <ele>180</ele>
        <time>2018-09-23 10:03:24</time>
      </trkpt>
      <trkpt lat="48.98132" lon="0.24668">
        <ele>179</ele>
        <time>2018-09-23 10:03:26</time>
      </trkpt>
      <trkpt lat="48.98127" lon="0.24677">
        <ele>178</ele>
        <time>2018-09-23 10:03:28</time>
      </trkpt>
      <trkpt lat="48.98123" lon="0.24687">
        <ele>177</ele>
        <time>2018-09-23 10:03:30</time>
      </trkpt>
      <trkpt lat="48.9812" lon="0.24693">
        <ele>176</ele>
        <time>2018-09-23 10:03:31</time>
      </trkpt>
      <trkpt lat="48.98114" lon="0.24705">
        <ele>175</ele>
        <time>2018-09-23 10:03:33</time>
      </trkpt>
      <trkpt lat="48.98108" lon="0.24716">
        <ele>174</ele>
        <time>2018-09-23 10:03:35</time>
      </trkpt>
      <trkpt lat="48.98104" lon="0.24727">
        <ele>172</ele>
        <time>2018-09-23 10:03:37</time>
      </trkpt>
      <trkpt lat="48.98101" lon="0.24732">
        <ele>172</ele>
        <time>2018-09-23 10:03:38</time>
      </trkpt>
      <trkpt lat="48.98095" lon="0.24744">
        <ele>170</ele>
        <time>2018-09-23 10:03:40</time>
      </trkpt>
      <trkpt lat="48.98089" lon="0.24755">
        <ele>169</ele>
        <time>2018-09-23 10:03:42</time>
      </trkpt>
      <trkpt lat="48.98083" lon="0.24765">
        <ele>167</ele>
        <time>2018-09-23 10:03:44</time>
      </trkpt>
      <trkpt lat="48.98077" lon="0.24776">
        <ele>167</ele>
        <time>2018-09-23 10:03:46</time>
      </trkpt>
      <trkpt lat="48.98071" lon="0.24788">
        <ele>165</ele>
        <time>2018-09-23 10:03:48</time>
      </trkpt>
      <trkpt lat="48.98067" lon="0.248">
        <ele>165</ele>
        <time>2018-09-23 10:03:50</time>
      </trkpt>
      <trkpt lat="48.98064" lon="0.24808">
        <ele>164</ele>
        <time>2018-09-23 10:03:52</time>
      </trkpt>
      <trkpt lat="48.98062" lon="0.24813">
        <ele>163</ele>
        <time>2018-09-23 10:03:53</time>
      </trkpt>
      <trkpt lat="48.98057" lon="0.24823">
        <ele>163</ele>
        <time>2018-09-23 10:03:55</time>
      </trkpt>
      <trkpt lat="48.98056" lon="0.24826">
        <ele>162</ele>
        <time>2018-09-23 10:03:56</time>
      </trkpt>
      <trkpt lat="48.98052" lon="0.24834">
        <ele>161</ele>
        <time>2018-09-23 10:03:58</time>
      </trkpt>
      <trkpt lat="48.98048" lon="0.2484">
        <ele>160</ele>
        <time>2018-09-23 10:04:00</time>
      </trkpt>
      <trkpt lat="48.98045" lon="0.2485">
        <ele>160</ele>
        <time>2018-09-23 10:04:02</time>
      </trkpt>
      <trkpt lat="48.98041" lon="0.24859">
        <ele>159</ele>
        <time>2018-09-23 10:04:04</time>
      </trkpt>
      <trkpt lat="48.98037" lon="0.24869">
        <ele>158</ele>
        <time>2018-09-23 10:04:06</time>
      </trkpt>
      <trkpt lat="48.98032" lon="0.24881">
        <ele>159</ele>
        <time>2018-09-23 10:04:08</time>
      </trkpt>
      <trkpt lat="48.98028" lon="0.24891">
        <ele>159</ele>
        <time>2018-09-23 10:04:10</time>
      </trkpt>
      <trkpt lat="48.98024" lon="0.249">
        <ele>160</ele>
        <time>2018-09-23 10:04:12</time>
      </trkpt>
      <trkpt lat="48.98019" lon="0.2491">
        <ele>161</ele>
        <time>2018-09-23 10:04:14</time>
      </trkpt>
      <trkpt lat="48.98015" lon="0.24919">
        <ele>160</ele>
        <time>2018-09-23 10:04:16</time>
      </trkpt>
      <trkpt lat="48.98011" lon="0.2493">
        <ele>160</ele>
        <time>2018-09-23 10:04:18</time>
      </trkpt>
      <trkpt lat="48.98007" lon="0.24941">
        <ele>160</ele>
        <time>2018-09-23 10:04:20</time>
      </trkpt>
      <trkpt lat="48.98004" lon="0.2495">
        <ele>159</ele>
        <time>2018-09-23 10:04:22</time>
      </trkpt>
      <trkpt lat="48.98" lon="0.24959">
        <ele>159</ele>
        <time>2018-09-23 10:04:24</time>
      </trkpt>
      <trkpt lat="48.97996" lon="0.24968">
        <ele>158</ele>
        <time>2018-09-23 10:04:26</time>
      </trkpt>
      <trkpt lat="48.97991" lon="0.24977">
        <ele>157</ele>
        <time>2018-09-23 10:04:28</time>
      </trkpt>
      <trkpt lat="48.97987" lon="0.24987">
        <ele>157</ele>
        <time>2018-09-23 10:04:30</time>
      </trkpt>
      <trkpt lat="48.97985" lon="0.24992">
        <ele>156</ele>
        <time>2018-09-23 10:04:31</time>
      </trkpt>
      <trkpt lat="48.97982" lon="0.24997">
        <ele>156</ele>
        <time>2018-09-23 10:04:32</time>
      </trkpt>
      <trkpt lat="48.97978" lon="0.25007">
        <ele>155</ele>
        <time>2018-09-23 10:04:34</time>
      </trkpt>
      <trkpt lat="48.97973" lon="0.25017">
        <ele>154</ele>
        <time>2018-09-23 10:04:36</time>
      </trkpt>
      <trkpt lat="48.97968" lon="0.25028">
        <ele>153</ele>
        <time>2018-09-23 10:04:38</time>
      </trkpt>
      <trkpt lat="48.97963" lon="0.25038">
        <ele>152</ele>
        <time>2018-09-23 10:04:40</time>
      </trkpt>
      <trkpt lat="48.97958" lon="0.25048">
        <ele>153</ele>
        <time>2018-09-23 10:04:42</time>
      </trkpt>
      <trkpt lat="48.97953" lon="0.25058">
        <ele>151</ele>
        <time>2018-09-23 10:04:44</time>
      </trkpt>
      <trkpt lat="48.97947" lon="0.25068">
        <ele>150</ele>
        <time>2018-09-23 10:04:46</time>
      </trkpt>
      <trkpt lat="48.97942" lon="0.25078">
        <ele>149</ele>
        <time>2018-09-23 10:04:48</time>
      </trkpt>
      <trkpt lat="48.97934" lon="0.25092">
        <ele>148</ele>
        <time>2018-09-23 10:04:50</time>
      </trkpt>
      <trkpt lat="48.97929" lon="0.25106">
        <ele>147</ele>
        <time>2018-09-23 10:04:52</time>
      </trkpt>
      <trkpt lat="48.97925" lon="0.25117">
        <ele>146</ele>
        <time>2018-09-23 10:04:54</time>
      </trkpt>
      <trkpt lat="48.9792" lon="0.2513">
        <ele>146</ele>
        <time>2018-09-23 10:04:56</time>
      </trkpt>
      <trkpt lat="48.97916" lon="0.25142">
        <ele>145</ele>
        <time>2018-09-23 10:04:58</time>
      </trkpt>
      <trkpt lat="48.97911" lon="0.25152">
        <ele>143</ele>
        <time>2018-09-23 10:05:00</time>
      </trkpt>
      <trkpt lat="48.97908" lon="0.25157">
        <ele>143</ele>
        <time>2018-09-23 10:05:01</time>
      </trkpt>
      <trkpt lat="48.97905" lon="0.25163">
        <ele>142</ele>
        <time>2018-09-23 10:05:02</time>
      </trkpt>
      <trkpt lat="48.979" lon="0.25174">
        <ele>141</ele>
        <time>2018-09-23 10:05:04</time>
      </trkpt>
      <trkpt lat="48.97894" lon="0.25186">
        <ele>140</ele>
        <time>2018-09-23 10:05:06</time>
      </trkpt>
      <trkpt lat="48.97888" lon="0.25199">
        <ele>140</ele>
        <time>2018-09-23 10:05:08</time>
      </trkpt>
      <trkpt lat="48.97883" lon="0.25214">
        <ele>140</ele>
        <time>2018-09-23 10:05:10</time>
      </trkpt>
      <trkpt lat="48.9788" lon="0.25221">
        <ele>140</ele>
        <time>2018-09-23 10:05:11</time>
      </trkpt>
      <trkpt lat="48.97874" lon="0.25233">
        <ele>140</ele>
        <time>2018-09-23 10:05:13</time>
      </trkpt>
      <trkpt lat="48.97869" lon="0.25245">
        <ele>139</ele>
        <time>2018-09-23 10:05:15</time>
      </trkpt>
      <trkpt lat="48.97866" lon="0.25252">
        <ele>139</ele>
        <time>2018-09-23 10:05:16</time>
      </trkpt>
      <trkpt lat="48.97859" lon="0.25266">
        <ele>139</ele>
        <time>2018-09-23 10:05:18</time>
      </trkpt>
      <trkpt lat="48.97856" lon="0.25273">
        <ele>140</ele>
        <time>2018-09-23 10:05:19</time>
      </trkpt>
      <trkpt lat="48.97849" lon="0.25288">
        <ele>139</ele>
        <time>2018-09-23 10:05:21</time>
      </trkpt>
      <trkpt lat="48.9784" lon="0.25305">
        <ele>139</ele>
        <time>2018-09-23 10:05:23</time>
      </trkpt>
      <trkpt lat="48.97836" lon="0.25313">
        <ele>138</ele>
        <time>2018-09-23 10:05:24</time>
      </trkpt>
      <trkpt lat="48.97827" lon="0.25331">
        <ele>138</ele>
        <time>2018-09-23 10:05:26</time>
      </trkpt>
      <trkpt lat="48.97822" lon="0.25346">
        <ele>136</ele>
        <time>2018-09-23 10:05:28</time>
      </trkpt>
      <trkpt lat="48.97818" lon="0.25354">
        <ele>136</ele>
        <time>2018-09-23 10:05:29</time>
      </trkpt>
      <trkpt lat="48.97812" lon="0.25368">
        <ele>134</ele>
        <time>2018-09-23 10:05:31</time>
      </trkpt>
      <trkpt lat="48.97808" lon="0.25375">
        <ele>133</ele>
        <time>2018-09-23 10:05:32</time>
      </trkpt>
      <trkpt lat="48.97803" lon="0.25388">
        <ele>132</ele>
        <time>2018-09-23 10:05:34</time>
      </trkpt>
      <trkpt lat="48.97797" lon="0.254">
        <ele>131</ele>
        <time>2018-09-23 10:05:36</time>
      </trkpt>
      <trkpt lat="48.97791" lon="0.25414">
        <ele>129</ele>
        <time>2018-09-23 10:05:38</time>
      </trkpt>
      <trkpt lat="48.97785" lon="0.25426">
        <ele>128</ele>
        <time>2018-09-23 10:05:40</time>
      </trkpt>
      <trkpt lat="48.97778" lon="0.25438">
        <ele>126</ele>
        <time>2018-09-23 10:05:42</time>
      </trkpt>
      <trkpt lat="48.97773" lon="0.2545">
        <ele>125</ele>
        <time>2018-09-23 10:05:44</time>
      </trkpt>
      <trkpt lat="48.97771" lon="0.25458">
        <ele>124</ele>
        <time>2018-09-23 10:05:46</time>
      </trkpt>
      <trkpt lat="48.97767" lon="0.25465">
        <ele>122</ele>
        <time>2018-09-23 10:05:48</time>
      </trkpt>
      <trkpt lat="48.97763" lon="0.25474">
        <ele>121</ele>
        <time>2018-09-23 10:05:50</time>
      </trkpt>
      <trkpt lat="48.9776" lon="0.25483">
        <ele>119</ele>
        <time>2018-09-23 10:05:52</time>
      </trkpt>
      <trkpt lat="48.97755" lon="0.25494">
        <ele>118</ele>
        <time>2018-09-23 10:05:54</time>
      </trkpt>
      <trkpt lat="48.97748" lon="0.25505">
        <ele>117</ele>
        <time>2018-09-23 10:05:56</time>
      </trkpt>
      <trkpt lat="48.97742" lon="0.25518">
        <ele>115</ele>
        <time>2018-09-23 10:05:58</time>
      </trkpt>
      <trkpt lat="48.97739" lon="0.25524">
        <ele>115</ele>
        <time>2018-09-23 10:05:59</time>
      </trkpt>
      <trkpt lat="48.97733" lon="0.25538">
        <ele>114</ele>
        <time>2018-09-23 10:06:01</time>
      </trkpt>
      <trkpt lat="48.97729" lon="0.25546">
        <ele>113</ele>
        <time>2018-09-23 10:06:02</time>
      </trkpt>
      <trkpt lat="48.97723" lon="0.25558">
        <ele>112</ele>
        <time>2018-09-23 10:06:04</time>
      </trkpt>
      <trkpt lat="48.9772" lon="0.25565">
        <ele>111</ele>
        <time>2018-09-23 10:06:06</time>
      </trkpt>
      <trkpt lat="48.97715" lon="0.25576">
        <ele>110</ele>
        <time>2018-09-23 10:06:08</time>
      </trkpt>
      <trkpt lat="48.97708" lon="0.25591">
        <ele>110</ele>
        <time>2018-09-23 10:06:10</time>
      </trkpt>
      <trkpt lat="48.97702" lon="0.25604">
        <ele>108</ele>
        <time>2018-09-23 10:06:12</time>
      </trkpt>
      <trkpt lat="48.97697" lon="0.25614">
        <ele>107</ele>
        <time>2018-09-23 10:06:14</time>
      </trkpt>
      <trkpt lat="48.97692" lon="0.25623">
        <ele>106</ele>
        <time>2018-09-23 10:06:16</time>
      </trkpt>
      <trkpt lat="48.97689" lon="0.25632">
        <ele>104</ele>
        <time>2018-09-23 10:06:18</time>
      </trkpt>
      <trkpt lat="48.97684" lon="0.25641">
        <ele>104</ele>
        <time>2018-09-23 10:06:20</time>
      </trkpt>
      <trkpt lat="48.97678" lon="0.25652">
        <ele>102</ele>
        <time>2018-09-23 10:06:22</time>
      </trkpt>
      <trkpt lat="48.97673" lon="0.2566">
        <ele>101</ele>
        <time>2018-09-23 10:06:24</time>
      </trkpt>
      <trkpt lat="48.97671" lon="0.25664">
        <ele>100</ele>
        <time>2018-09-23 10:06:25</time>
      </trkpt>
      <trkpt lat="48.97669" lon="0.25669">
        <ele>99</ele>
        <time>2018-09-23 10:06:26</time>
      </trkpt>
      <trkpt lat="48.97666" lon="0.25678">
        <ele>98</ele>
        <time>2018-09-23 10:06:28</time>
      </trkpt>
      <trkpt lat="48.97665" lon="0.25682">
        <ele>97</ele>
        <time>2018-09-23 10:06:29</time>
      </trkpt>
      <trkpt lat="48.97659" lon="0.25694">
        <ele>96</ele>
        <time>2018-09-23 10:06:31</time>
      </trkpt>
      <trkpt lat="48.97657" lon="0.25698">
        <ele>96</ele>
        <time>2018-09-23 10:06:32</time>
      </trkpt>
      <trkpt lat="48.97655" lon="0.25707">
        <ele>95</ele>
        <time>2018-09-23 10:06:34</time>
      </trkpt>
      <trkpt lat="48.97653" lon="0.25719">
        <ele>94</ele>
        <time>2018-09-23 10:06:36</time>
      </trkpt>
      <trkpt lat="48.97651" lon="0.25736">
        <ele>96</ele>
        <time>2018-09-23 10:06:38</time>
      </trkpt>
      <trkpt lat="48.97651" lon="0.2575">
        <ele>94</ele>
        <time>2018-09-23 10:06:40</time>
      </trkpt>
      <trkpt lat="48.97652" lon="0.25764">
        <ele>94</ele>
        <time>2018-09-23 10:06:42</time>
      </trkpt>
      <trkpt lat="48.97652" lon="0.25776">
        <ele>92</ele>
        <time>2018-09-23 10:06:44</time>
      </trkpt>
      <trkpt lat="48.97652" lon="0.2579">
        <ele>91</ele>
        <time>2018-09-23 10:06:46</time>
      </trkpt>
      <trkpt lat="48.97652" lon="0.25797">
        <ele>90</ele>
        <time>2018-09-23 10:06:47</time>
      </trkpt>
      <trkpt lat="48.97651" lon="0.25808">
        <ele>90</ele>
        <time>2018-09-23 10:06:49</time>
      </trkpt>
      <trkpt lat="48.9765" lon="0.25814">
        <ele>90</ele>
        <time>2018-09-23 10:06:50</time>
      </trkpt>
      <trkpt lat="48.97647" lon="0.25825">
        <ele>89</ele>
        <time>2018-09-23 10:06:52</time>
      </trkpt>
      <trkpt lat="48.97643" lon="0.25835">
        <ele>88</ele>
        <time>2018-09-23 10:06:54</time>
      </trkpt>
      <trkpt lat="48.97641" lon="0.2584">
        <ele>88</ele>
        <time>2018-09-23 10:06:55</time>
      </trkpt>
      <trkpt lat="48.97639" lon="0.25845">
        <ele>88</ele>
        <time>2018-09-23 10:06:56</time>
      </trkpt>
      <trkpt lat="48.97636" lon="0.25855">
        <ele>87</ele>
        <time>2018-09-23 10:06:58</time>
      </trkpt>
      <trkpt lat="48.97633" lon="0.25866">
        <ele>86</ele>
        <time>2018-09-23 10:07:00</time>
      </trkpt>
      <trkpt lat="48.97631" lon="0.25881">
        <ele>86</ele>
        <time>2018-09-23 10:07:02</time>
      </trkpt>
      <trkpt lat="48.97628" lon="0.25895">
        <ele>85</ele>
        <time>2018-09-23 10:07:04</time>
      </trkpt>
      <trkpt lat="48.97624" lon="0.25908">
        <ele>86</ele>
        <time>2018-09-23 10:07:06</time>
      </trkpt>
      <trkpt lat="48.97621" lon="0.25923">
        <ele>85</ele>
        <time>2018-09-23 10:07:08</time>
      </trkpt>
      <trkpt lat="48.97619" lon="0.25941">
        <ele>86</ele>
        <time>2018-09-23 10:07:10</time>
      </trkpt>
      <trkpt lat="48.97615" lon="0.25959">
        <ele>90</ele>
        <time>2018-09-23 10:07:12</time>
      </trkpt>
      <trkpt lat="48.97614" lon="0.25972">
        <ele>95</ele>
        <time>2018-09-23 10:07:14</time>
      </trkpt>
      <trkpt lat="48.97613" lon="0.25983">
        <ele>97</ele>
        <time>2018-09-23 10:07:16</time>
      </trkpt>
      <trkpt lat="48.97613" lon="0.25994">
        <ele>98</ele>
        <time>2018-09-23 10:07:18</time>
      </trkpt>
      <trkpt lat="48.97613" lon="0.26007">
        <ele>100</ele>
        <time>2018-09-23 10:07:20</time>
      </trkpt>
      <trkpt lat="48.97612" lon="0.26021">
        <ele>101</ele>
        <time>2018-09-23 10:07:22</time>
      </trkpt>
      <trkpt lat="48.97611" lon="0.26038">
        <ele>102</ele>
        <time>2018-09-23 10:07:24</time>
      </trkpt>
      <trkpt lat="48.97609" lon="0.26048">
        <ele>102</ele>
        <time>2018-09-23 10:07:25</time>
      </trkpt>
      <trkpt lat="48.97608" lon="0.26056">
        <ele>102</ele>
        <time>2018-09-23 10:07:26</time>
      </trkpt>
      <trkpt lat="48.97607" lon="0.26069">
        <ele>103</ele>
        <time>2018-09-23 10:07:28</time>
      </trkpt>
      <trkpt lat="48.97606" lon="0.26077">
        <ele>104</ele>
        <time>2018-09-23 10:07:30</time>
      </trkpt>
      <trkpt lat="48.97605" lon="0.26079">
        <ele>104</ele>
        <time>2018-09-23 10:07:32</time>
      </trkpt>
      <trkpt lat="48.97605" lon="0.2608">
        <ele>105</ele>
        <time>2018-09-23 10:07:34</time>
      </trkpt>
      <trkpt lat="48.97615" lon="0.26078">
        <ele>108</ele>
        <time>2018-09-23 10:07:35</time>
      </trkpt>
      <trkpt lat="48.97621" lon="0.26074">
        <ele>108</ele>
        <time>2018-09-23 10:07:37</time>
      </trkpt>
      <trkpt lat="48.97628" lon="0.26069">
        <ele>108</ele>
        <time>2018-09-23 10:07:39</time>
      </trkpt>
      <trkpt lat="48.97638" lon="0.26063">
        <ele>108</ele>
        <time>2018-09-23 10:07:41</time>
      </trkpt>
      <trkpt lat="48.97642" lon="0.2606">
        <ele>108</ele>
        <time>2018-09-23 10:07:42</time>
      </trkpt>
      <trkpt lat="48.97651" lon="0.26054">
        <ele>108</ele>
        <time>2018-09-23 10:07:44</time>
      </trkpt>
      <trkpt lat="48.97656" lon="0.26051">
        <ele>108</ele>
        <time>2018-09-23 10:07:45</time>
      </trkpt>
      <trkpt lat="48.97666" lon="0.26046">
        <ele>107</ele>
        <time>2018-09-23 10:07:47</time>
      </trkpt>
      <trkpt lat="48.97677" lon="0.26041">
        <ele>107</ele>
        <time>2018-09-23 10:07:49</time>
      </trkpt>
      <trkpt lat="48.97686" lon="0.26036">
        <ele>106</ele>
        <time>2018-09-23 10:07:51</time>
      </trkpt>
      <trkpt lat="48.97696" lon="0.26032">
        <ele>106</ele>
        <time>2018-09-23 10:07:53</time>
      </trkpt>
      <trkpt lat="48.97708" lon="0.26028">
        <ele>107</ele>
        <time>2018-09-23 10:07:55</time>
      </trkpt>
      <trkpt lat="48.9772" lon="0.26024">
        <ele>106</ele>
        <time>2018-09-23 10:07:57</time>
      </trkpt>
      <trkpt lat="48.97732" lon="0.26019">
        <ele>106</ele>
        <time>2018-09-23 10:07:59</time>
      </trkpt>
      <trkpt lat="48.97744" lon="0.26016">
        <ele>107</ele>
        <time>2018-09-23 10:08:01</time>
      </trkpt>
      <trkpt lat="48.97756" lon="0.26012">
        <ele>106</ele>
        <time>2018-09-23 10:08:03</time>
      </trkpt>
      <trkpt lat="48.97768" lon="0.26008">
        <ele>106</ele>
        <time>2018-09-23 10:08:05</time>
      </trkpt>
      <trkpt lat="48.9778" lon="0.26003">
        <ele>106</ele>
        <time>2018-09-23 10:08:07</time>
      </trkpt>
      <trkpt lat="48.97792" lon="0.25998">
        <ele>106</ele>
        <time>2018-09-23 10:08:09</time>
      </trkpt>
      <trkpt lat="48.97798" lon="0.25997">
        <ele>106</ele>
        <time>2018-09-23 10:08:10</time>
      </trkpt>
      <trkpt lat="48.9781" lon="0.25993">
        <ele>106</ele>
        <time>2018-09-23 10:08:12</time>
      </trkpt>
      <trkpt lat="48.97821" lon="0.25988">
        <ele>106</ele>
        <time>2018-09-23 10:08:14</time>
      </trkpt>
      <trkpt lat="48.97827" lon="0.25986">
        <ele>106</ele>
        <time>2018-09-23 10:08:15</time>
      </trkpt>
      <trkpt lat="48.97837" lon="0.25981">
        <ele>107</ele>
        <time>2018-09-23 10:08:17</time>
      </trkpt>
      <trkpt lat="48.97841" lon="0.25979">
        <ele>107</ele>
        <time>2018-09-23 10:08:18</time>
      </trkpt>
      <trkpt lat="48.9785" lon="0.25975">
        <ele>106</ele>
        <time>2018-09-23 10:08:20</time>
      </trkpt>
      <trkpt lat="48.97855" lon="0.25975">
        <ele>106</ele>
        <time>2018-09-23 10:08:21</time>
      </trkpt>
      <trkpt lat="48.97867" lon="0.25975">
        <ele>106</ele>
        <time>2018-09-23 10:08:23</time>
      </trkpt>
      <trkpt lat="48.97879" lon="0.25973">
        <ele>105</ele>
        <time>2018-09-23 10:08:25</time>
      </trkpt>
      <trkpt lat="48.97891" lon="0.25971">
        <ele>104</ele>
        <time>2018-09-23 10:08:27</time>
      </trkpt>
      <trkpt lat="48.97904" lon="0.25967">
        <ele>105</ele>
        <time>2018-09-23 10:08:29</time>
      </trkpt>
      <trkpt lat="48.97915" lon="0.25962">
        <ele>104</ele>
        <time>2018-09-23 10:08:31</time>
      </trkpt>
      <trkpt lat="48.97921" lon="0.25959">
        <ele>104</ele>
        <time>2018-09-23 10:08:32</time>
      </trkpt>
      <trkpt lat="48.97927" lon="0.25956">
        <ele>104</ele>
        <time>2018-09-23 10:08:33</time>
      </trkpt>
      <trkpt lat="48.97936" lon="0.25949">
        <ele>104</ele>
        <time>2018-09-23 10:08:35</time>
      </trkpt>
      <trkpt lat="48.97944" lon="0.25938">
        <ele>103</ele>
        <time>2018-09-23 10:08:37</time>
      </trkpt>
      <trkpt lat="48.97946" lon="0.25923">
        <ele>104</ele>
        <time>2018-09-23 10:08:39</time>
      </trkpt>
      <trkpt lat="48.97949" lon="0.2591">
        <ele>104</ele>
        <time>2018-09-23 10:08:41</time>
      </trkpt>
      <trkpt lat="48.97956" lon="0.25902">
        <ele>104</ele>
        <time>2018-09-23 10:08:43</time>
      </trkpt>
      <trkpt lat="48.97961" lon="0.25898">
        <ele>104</ele>
        <time>2018-09-23 10:08:44</time>
      </trkpt>
      <trkpt lat="48.97969" lon="0.25891">
        <ele>104</ele>
        <time>2018-09-23 10:08:46</time>
      </trkpt>
      <trkpt lat="48.97978" lon="0.25885">
        <ele>104</ele>
        <time>2018-09-23 10:08:48</time>
      </trkpt>
      <trkpt lat="48.97988" lon="0.25876">
        <ele>103</ele>
        <time>2018-09-23 10:08:50</time>
      </trkpt>
      <trkpt lat="48.97993" lon="0.25871">
        <ele>103</ele>
        <time>2018-09-23 10:08:51</time>
      </trkpt>
      <trkpt lat="48.98003" lon="0.25862">
        <ele>103</ele>
        <time>2018-09-23 10:08:53</time>
      </trkpt>
      <trkpt lat="48.98013" lon="0.25852">
        <ele>103</ele>
        <time>2018-09-23 10:08:55</time>
      </trkpt>
      <trkpt lat="48.98022" lon="0.25843">
        <ele>104</ele>
        <time>2018-09-23 10:08:57</time>
      </trkpt>
      <trkpt lat="48.98031" lon="0.25834">
        <ele>105</ele>
        <time>2018-09-23 10:08:59</time>
      </trkpt>
      <trkpt lat="48.98041" lon="0.25827">
        <ele>105</ele>
        <time>2018-09-23 10:09:01</time>
      </trkpt>
      <trkpt lat="48.9805" lon="0.25819">
        <ele>105</ele>
        <time>2018-09-23 10:09:03</time>
      </trkpt>
      <trkpt lat="48.9806" lon="0.25812">
        <ele>105</ele>
        <time>2018-09-23 10:09:05</time>
      </trkpt>
      <trkpt lat="48.9807" lon="0.25804">
        <ele>105</ele>
        <time>2018-09-23 10:09:07</time>
      </trkpt>
      <trkpt lat="48.98079" lon="0.25796">
        <ele>106</ele>
        <time>2018-09-23 10:09:09</time>
      </trkpt>
      <trkpt lat="48.9809" lon="0.25789">
        <ele>106</ele>
        <time>2018-09-23 10:09:11</time>
      </trkpt>
      <trkpt lat="48.981" lon="0.25782">
        <ele>107</ele>
        <time>2018-09-23 10:09:13</time>
      </trkpt>
      <trkpt lat="48.98105" lon="0.2578">
        <ele>106</ele>
        <time>2018-09-23 10:09:14</time>
      </trkpt>
      <trkpt lat="48.98111" lon="0.25777">
        <ele>106</ele>
        <time>2018-09-23 10:09:15</time>
      </trkpt>
      <trkpt lat="48.98121" lon="0.25774">
        <ele>106</ele>
        <time>2018-09-23 10:09:17</time>
      </trkpt>
      <trkpt lat="48.98133" lon="0.25772">
        <ele>106</ele>
        <time>2018-09-23 10:09:19</time>
      </trkpt>
      <trkpt lat="48.98138" lon="0.25771">
        <ele>106</ele>
        <time>2018-09-23 10:09:20</time>
      </trkpt>
      <trkpt lat="48.98144" lon="0.2577">
        <ele>106</ele>
        <time>2018-09-23 10:09:21</time>
      </trkpt>
      <trkpt lat="48.98156" lon="0.25767">
        <ele>105</ele>
        <time>2018-09-23 10:09:23</time>
      </trkpt>
      <trkpt lat="48.98162" lon="0.25766">
        <ele>106</ele>
        <time>2018-09-23 10:09:24</time>
      </trkpt>
      <trkpt lat="48.98173" lon="0.25763">
        <ele>106</ele>
        <time>2018-09-23 10:09:26</time>
      </trkpt>
      <trkpt lat="48.98179" lon="0.25762">
        <ele>107</ele>
        <time>2018-09-23 10:09:27</time>
      </trkpt>
      <trkpt lat="48.9819" lon="0.25759">
        <ele>106</ele>
        <time>2018-09-23 10:09:29</time>
      </trkpt>
      <trkpt lat="48.98201" lon="0.25756">
        <ele>106</ele>
        <time>2018-09-23 10:09:31</time>
      </trkpt>
      <trkpt lat="48.98207" lon="0.25755">
        <ele>107</ele>
        <time>2018-09-23 10:09:32</time>
      </trkpt>
      <trkpt lat="48.98212" lon="0.25754">
        <ele>107</ele>
        <time>2018-09-23 10:09:33</time>
      </trkpt>
      <trkpt lat="48.98222" lon="0.25752">
        <ele>106</ele>
        <time>2018-09-23 10:09:35</time>
      </trkpt>
      <trkpt lat="48.98233" lon="0.2575">
        <ele>105</ele>
        <time>2018-09-23 10:09:37</time>
      </trkpt>
      <trkpt lat="48.98238" lon="0.25749">
        <ele>105</ele>
        <time>2018-09-23 10:09:38</time>
      </trkpt>
      <trkpt lat="48.98249" lon="0.25747">
        <ele>104</ele>
        <time>2018-09-23 10:09:40</time>
      </trkpt>
      <trkpt lat="48.98259" lon="0.25746">
        <ele>103</ele>
        <time>2018-09-23 10:09:42</time>
      </trkpt>
      <trkpt lat="48.98268" lon="0.25744">
        <ele>103</ele>
        <time>2018-09-23 10:09:44</time>
      </trkpt>
      <trkpt lat="48.98273" lon="0.25744">
        <ele>103</ele>
        <time>2018-09-23 10:09:45</time>
      </trkpt>
      <trkpt lat="48.98282" lon="0.25743">
        <ele>103</ele>
        <time>2018-09-23 10:09:47</time>
      </trkpt>
      <trkpt lat="48.98292" lon="0.25742">
        <ele>103</ele>
        <time>2018-09-23 10:09:49</time>
      </trkpt>
      <trkpt lat="48.98297" lon="0.25741">
        <ele>103</ele>
        <time>2018-09-23 10:09:50</time>
      </trkpt>
      <trkpt lat="48.98302" lon="0.2574">
        <ele>103</ele>
        <time>2018-09-23 10:09:51</time>
      </trkpt>
      <trkpt lat="48.98312" lon="0.25738">
        <ele>104</ele>
        <time>2018-09-23 10:09:53</time>
      </trkpt>
      <trkpt lat="48.98322" lon="0.25736">
        <ele>105</ele>
        <time>2018-09-23 10:09:55</time>
      </trkpt>
      <trkpt lat="48.98326" lon="0.25736">
        <ele>105</ele>
        <time>2018-09-23 10:09:56</time>
      </trkpt>
      <trkpt lat="48.98331" lon="0.25735">
        <ele>107</ele>
        <time>2018-09-23 10:09:57</time>
      </trkpt>
      <trkpt lat="48.98341" lon="0.25734">
        <ele>108</ele>
        <time>2018-09-23 10:09:59</time>
      </trkpt>
      <trkpt lat="48.98345" lon="0.25734">
        <ele>109</ele>
        <time>2018-09-23 10:10:00</time>
      </trkpt>
      <trkpt lat="48.98354" lon="0.25733">
        <ele>108</ele>
        <time>2018-09-23 10:10:02</time>
      </trkpt>
      <trkpt lat="48.98359" lon="0.25733">
        <ele>108</ele>
        <time>2018-09-23 10:10:03</time>
      </trkpt>
      <trkpt lat="48.98368" lon="0.25732">
        <ele>108</ele>
        <time>2018-09-23 10:10:05</time>
      </trkpt>
      <trkpt lat="48.98373" lon="0.25733">
        <ele>108</ele>
        <time>2018-09-23 10:10:06</time>
      </trkpt>
      <trkpt lat="48.98382" lon="0.25732">
        <ele>109</ele>
        <time>2018-09-23 10:10:08</time>
      </trkpt>
      <trkpt lat="48.98387" lon="0.25732">
        <ele>108</ele>
        <time>2018-09-23 10:10:09</time>
      </trkpt>
      <trkpt lat="48.98396" lon="0.25732">
        <ele>107</ele>
        <time>2018-09-23 10:10:11</time>
      </trkpt>
      <trkpt lat="48.98405" lon="0.25731">
        <ele>107</ele>
        <time>2018-09-23 10:10:13</time>
      </trkpt>
      <trkpt lat="48.98411" lon="0.2573">
        <ele>107</ele>
        <time>2018-09-23 10:10:14</time>
      </trkpt>
      <trkpt lat="48.98422" lon="0.25729">
        <ele>107</ele>
        <time>2018-09-23 10:10:16</time>
      </trkpt>
      <trkpt lat="48.98432" lon="0.25728">
        <ele>107</ele>
        <time>2018-09-23 10:10:18</time>
      </trkpt>
      <trkpt lat="48.98437" lon="0.25728">
        <ele>107</ele>
        <time>2018-09-23 10:10:19</time>
      </trkpt>
      <trkpt lat="48.98447" lon="0.25727">
        <ele>108</ele>
        <time>2018-09-23 10:10:21</time>
      </trkpt>
      <trkpt lat="48.98459" lon="0.25726">
        <ele>109</ele>
        <time>2018-09-23 10:10:23</time>
      </trkpt>
      <trkpt lat="48.98469" lon="0.25724">
        <ele>109</ele>
        <time>2018-09-23 10:10:25</time>
      </trkpt>
      <trkpt lat="48.98475" lon="0.25723">
        <ele>109</ele>
        <time>2018-09-23 10:10:26</time>
      </trkpt>
      <trkpt lat="48.9848" lon="0.25722">
        <ele>109</ele>
        <time>2018-09-23 10:10:27</time>
      </trkpt>
      <trkpt lat="48.9849" lon="0.25721">
        <ele>108</ele>
        <time>2018-09-23 10:10:29</time>
      </trkpt>
      <trkpt lat="48.98501" lon="0.25721">
        <ele>109</ele>
        <time>2018-09-23 10:10:31</time>
      </trkpt>
      <trkpt lat="48.98506" lon="0.25721">
        <ele>109</ele>
        <time>2018-09-23 10:10:32</time>
      </trkpt>
      <trkpt lat="48.98512" lon="0.25721">
        <ele>109</ele>
        <time>2018-09-23 10:10:33</time>
      </trkpt>
      <trkpt lat="48.98522" lon="0.25722">
        <ele>109</ele>
        <time>2018-09-23 10:10:35</time>
      </trkpt>
      <trkpt lat="48.98531" lon="0.25724">
        <ele>108</ele>
        <time>2018-09-23 10:10:37</time>
      </trkpt>
      <trkpt lat="48.98541" lon="0.25726">
        <ele>109</ele>
        <time>2018-09-23 10:10:39</time>
      </trkpt>
      <trkpt lat="48.98552" lon="0.25728">
        <ele>110</ele>
        <time>2018-09-23 10:10:41</time>
      </trkpt>
      <trkpt lat="48.98564" lon="0.2573">
        <ele>111</ele>
        <time>2018-09-23 10:10:43</time>
      </trkpt>
      <trkpt lat="48.98576" lon="0.2573">
        <ele>111</ele>
        <time>2018-09-23 10:10:45</time>
      </trkpt>
      <trkpt lat="48.98586" lon="0.25729">
        <ele>111</ele>
        <time>2018-09-23 10:10:47</time>
      </trkpt>
      <trkpt lat="48.98597" lon="0.25728">
        <ele>111</ele>
        <time>2018-09-23 10:10:49</time>
      </trkpt>
      <trkpt lat="48.98607" lon="0.25727">
        <ele>112</ele>
        <time>2018-09-23 10:10:51</time>
      </trkpt>
      <trkpt lat="48.98618" lon="0.25724">
        <ele>111</ele>
        <time>2018-09-23 10:10:53</time>
      </trkpt>
      <trkpt lat="48.98623" lon="0.25722">
        <ele>111</ele>
        <time>2018-09-23 10:10:54</time>
      </trkpt>
      <trkpt lat="48.98633" lon="0.25718">
        <ele>110</ele>
        <time>2018-09-23 10:10:56</time>
      </trkpt>
      <trkpt lat="48.98638" lon="0.25716">
        <ele>110</ele>
        <time>2018-09-23 10:10:57</time>
      </trkpt>
      <trkpt lat="48.98648" lon="0.25712">
        <ele>110</ele>
        <time>2018-09-23 10:10:59</time>
      </trkpt>
      <trkpt lat="48.98658" lon="0.2571">
        <ele>109</ele>
        <time>2018-09-23 10:11:01</time>
      </trkpt>
      <trkpt lat="48.98668" lon="0.25708">
        <ele>105</ele>
        <time>2018-09-23 10:11:03</time>
      </trkpt>
      <trkpt lat="48.98678" lon="0.25706">
        <ele>104</ele>
        <time>2018-09-23 10:11:05</time>
      </trkpt>
      <trkpt lat="48.98687" lon="0.25704">
        <ele>103</ele>
        <time>2018-09-23 10:11:07</time>
      </trkpt>
      <trkpt lat="48.98692" lon="0.25703">
        <ele>103</ele>
        <time>2018-09-23 10:11:08</time>
      </trkpt>
      <trkpt lat="48.98697" lon="0.25702">
        <ele>103</ele>
        <time>2018-09-23 10:11:09</time>
      </trkpt>
      <trkpt lat="48.98707" lon="0.257">
        <ele>104</ele>
        <time>2018-09-23 10:11:11</time>
      </trkpt>
      <trkpt lat="48.98712" lon="0.25699">
        <ele>104</ele>
        <time>2018-09-23 10:11:12</time>
      </trkpt>
      <trkpt lat="48.98721" lon="0.25698">
        <ele>104</ele>
        <time>2018-09-23 10:11:14</time>
      </trkpt>
      <trkpt lat="48.98726" lon="0.25698">
        <ele>103</ele>
        <time>2018-09-23 10:11:15</time>
      </trkpt>
      <trkpt lat="48.98736" lon="0.25698">
        <ele>104</ele>
        <time>2018-09-23 10:11:17</time>
      </trkpt>
      <trkpt lat="48.9874" lon="0.25698">
        <ele>105</ele>
        <time>2018-09-23 10:11:18</time>
      </trkpt>
      <trkpt lat="48.98745" lon="0.25698">
        <ele>106</ele>
        <time>2018-09-23 10:11:19</time>
      </trkpt>
      <trkpt lat="48.98755" lon="0.25697">
        <ele>106</ele>
        <time>2018-09-23 10:11:21</time>
      </trkpt>
      <trkpt lat="48.98764" lon="0.25698">
        <ele>105</ele>
        <time>2018-09-23 10:11:23</time>
      </trkpt>
      <trkpt lat="48.98773" lon="0.25698">
        <ele>105</ele>
        <time>2018-09-23 10:11:25</time>
      </trkpt>
      <trkpt lat="48.98778" lon="0.25698">
        <ele>105</ele>
        <time>2018-09-23 10:11:26</time>
      </trkpt>
      <trkpt lat="48.98783" lon="0.25697">
        <ele>105</ele>
        <time>2018-09-23 10:11:27</time>
      </trkpt>
      <trkpt lat="48.98793" lon="0.25697">
        <ele>103</ele>
        <time>2018-09-23 10:11:29</time>
      </trkpt>
      <trkpt lat="48.98798" lon="0.25696">
        <ele>102</ele>
        <time>2018-09-23 10:11:30</time>
      </trkpt>
      <trkpt lat="48.98808" lon="0.25698">
        <ele>102</ele>
        <time>2018-09-23 10:11:32</time>
      </trkpt>
      <trkpt lat="48.98813" lon="0.25699">
        <ele>102</ele>
        <time>2018-09-23 10:11:33</time>
      </trkpt>
      <trkpt lat="48.98824" lon="0.25699">
        <ele>102</ele>
        <time>2018-09-23 10:11:35</time>
      </trkpt>
      <trkpt lat="48.98834" lon="0.25698">
        <ele>102</ele>
        <time>2018-09-23 10:11:37</time>
      </trkpt>
      <trkpt lat="48.98845" lon="0.25698">
        <ele>101</ele>
        <time>2018-09-23 10:11:39</time>
      </trkpt>
      <trkpt lat="48.98855" lon="0.25696">
        <ele>101</ele>
        <time>2018-09-23 10:11:41</time>
      </trkpt>
      <trkpt lat="48.98865" lon="0.25694">
        <ele>100</ele>
        <time>2018-09-23 10:11:43</time>
      </trkpt>
      <trkpt lat="48.98875" lon="0.25691">
        <ele>99</ele>
        <time>2018-09-23 10:11:45</time>
      </trkpt>
      <trkpt lat="48.98885" lon="0.25689">
        <ele>99</ele>
        <time>2018-09-23 10:11:47</time>
      </trkpt>
      <trkpt lat="48.98895" lon="0.25687">
        <ele>99</ele>
        <time>2018-09-23 10:11:49</time>
      </trkpt>
      <trkpt lat="48.98903" lon="0.25682">
        <ele>99</ele>
        <time>2018-09-23 10:11:51</time>
      </trkpt>
      <trkpt lat="48.98908" lon="0.25672">
        <ele>100</ele>
        <time>2018-09-23 10:11:53</time>
      </trkpt>
      <trkpt lat="48.98907" lon="0.25659">
        <ele>100</ele>
        <time>2018-09-23 10:11:55</time>
      </trkpt>
      <trkpt lat="48.98905" lon="0.25646">
        <ele>101</ele>
        <time>2018-09-23 10:11:57</time>
      </trkpt>
      <trkpt lat="48.98904" lon="0.25634">
        <ele>102</ele>
        <time>2018-09-23 10:11:59</time>
      </trkpt>
      <trkpt lat="48.98904" lon="0.25628">
        <ele>102</ele>
        <time>2018-09-23 10:12:00</time>
      </trkpt>
      <trkpt lat="48.98903" lon="0.25616">
        <ele>102</ele>
        <time>2018-09-23 10:12:02</time>
      </trkpt>
      <trkpt lat="48.98902" lon="0.2561">
        <ele>103</ele>
        <time>2018-09-23 10:12:03</time>
      </trkpt>
      <trkpt lat="48.98901" lon="0.256">
        <ele>103</ele>
        <time>2018-09-23 10:12:05</time>
      </trkpt>
      <trkpt lat="48.98901" lon="0.25595">
        <ele>103</ele>
        <time>2018-09-23 10:12:06</time>
      </trkpt>
      <trkpt lat="48.98903" lon="0.25587">
        <ele>105</ele>
        <time>2018-09-23 10:12:08</time>
      </trkpt>
      <trkpt lat="48.98905" lon="0.25585">
        <ele>105</ele>
        <time>2018-09-23 10:12:09</time>
      </trkpt>
      <trkpt lat="48.9891" lon="0.25585">
        <ele>105</ele>
        <time>2018-09-23 10:12:11</time>
      </trkpt>
      <trkpt lat="48.98916" lon="0.25588">
        <ele>106</ele>
        <time>2018-09-23 10:12:13</time>
      </trkpt>
      <trkpt lat="48.98919" lon="0.2559">
        <ele>105</ele>
        <time>2018-09-23 10:12:14</time>
      </trkpt>
      <trkpt lat="48.98923" lon="0.25592">
        <ele>106</ele>
        <time>2018-09-23 10:12:15</time>
      </trkpt>
      <trkpt lat="48.98931" lon="0.25595">
        <ele>105</ele>
        <time>2018-09-23 10:12:17</time>
      </trkpt>
      <trkpt lat="48.98942" lon="0.25598">
        <ele>103</ele>
        <time>2018-09-23 10:12:19</time>
      </trkpt>
      <trkpt lat="48.98954" lon="0.25601">
        <ele>102</ele>
        <time>2018-09-23 10:12:21</time>
      </trkpt>
      <trkpt lat="48.98966" lon="0.25603">
        <ele>101</ele>
        <time>2018-09-23 10:12:23</time>
      </trkpt>
      <trkpt lat="48.9898" lon="0.25605">
        <ele>100</ele>
        <time>2018-09-23 10:12:25</time>
      </trkpt>
      <trkpt lat="48.98993" lon="0.25604">
        <ele>99</ele>
        <time>2018-09-23 10:12:27</time>
      </trkpt>
      <trkpt lat="48.99003" lon="0.25603">
        <ele>98</ele>
        <time>2018-09-23 10:12:29</time>
      </trkpt>
      <trkpt lat="48.9901" lon="0.25603">
        <ele>97</ele>
        <time>2018-09-23 10:12:31</time>
      </trkpt>
      <trkpt lat="48.99014" lon="0.25604">
        <ele>97</ele>
        <time>2018-09-23 10:12:33</time>
      </trkpt>
      <trkpt lat="48.99019" lon="0.25601">
        <ele>96</ele>
        <time>2018-09-23 10:12:35</time>
      </trkpt>
      <trkpt lat="48.99026" lon="0.25595">
        <ele>96</ele>
        <time>2018-09-23 10:12:37</time>
      </trkpt>
      <trkpt lat="48.99032" lon="0.25587">
        <ele>97</ele>
        <time>2018-09-23 10:12:39</time>
      </trkpt>
      <trkpt lat="48.99038" lon="0.25576">
        <ele>98</ele>
        <time>2018-09-23 10:12:41</time>
      </trkpt>
      <trkpt lat="48.99043" lon="0.25565">
        <ele>99</ele>
        <time>2018-09-23 10:12:43</time>
      </trkpt>
      <trkpt lat="48.99049" lon="0.25554">
        <ele>99</ele>
        <time>2018-09-23 10:12:45</time>
      </trkpt>
      <trkpt lat="48.99055" lon="0.25543">
        <ele>100</ele>
        <time>2018-09-23 10:12:47</time>
      </trkpt>
      <trkpt lat="48.99062" lon="0.25534">
        <ele>100</ele>
        <time>2018-09-23 10:12:49</time>
      </trkpt>
      <trkpt lat="48.99067" lon="0.25526">
        <ele>101</ele>
        <time>2018-09-23 10:12:51</time>
      </trkpt>
      <trkpt lat="48.99073" lon="0.25517">
        <ele>101</ele>
        <time>2018-09-23 10:12:53</time>
      </trkpt>
      <trkpt lat="48.9908" lon="0.25507">
        <ele>102</ele>
        <time>2018-09-23 10:12:55</time>
      </trkpt>
      <trkpt lat="48.99087" lon="0.25497">
        <ele>102</ele>
        <time>2018-09-23 10:12:57</time>
      </trkpt>
      <trkpt lat="48.99094" lon="0.25486">
        <ele>103</ele>
        <time>2018-09-23 10:12:59</time>
      </trkpt>
      <trkpt lat="48.99101" lon="0.25476">
        <ele>103</ele>
        <time>2018-09-23 10:13:01</time>
      </trkpt>
      <trkpt lat="48.99108" lon="0.25466">
        <ele>104</ele>
        <time>2018-09-23 10:13:03</time>
      </trkpt>
      <trkpt lat="48.99115" lon="0.25456">
        <ele>104</ele>
        <time>2018-09-23 10:13:05</time>
      </trkpt>
      <trkpt lat="48.99123" lon="0.25446">
        <ele>105</ele>
        <time>2018-09-23 10:13:07</time>
      </trkpt>
      <trkpt lat="48.99126" lon="0.25441">
        <ele>105</ele>
        <time>2018-09-23 10:13:08</time>
      </trkpt>
      <trkpt lat="48.9913" lon="0.25435">
        <ele>106</ele>
        <time>2018-09-23 10:13:09</time>
      </trkpt>
      <trkpt lat="48.99137" lon="0.25425">
        <ele>106</ele>
        <time>2018-09-23 10:13:11</time>
      </trkpt>
      <trkpt lat="48.99145" lon="0.25414">
        <ele>107</ele>
        <time>2018-09-23 10:13:13</time>
      </trkpt>
      <trkpt lat="48.99152" lon="0.25404">
        <ele>107</ele>
        <time>2018-09-23 10:13:15</time>
      </trkpt>
      <trkpt lat="48.99159" lon="0.25394">
        <ele>108</ele>
        <time>2018-09-23 10:13:17</time>
      </trkpt>
      <trkpt lat="48.99162" lon="0.25389">
        <ele>108</ele>
        <time>2018-09-23 10:13:18</time>
      </trkpt>
      <trkpt lat="48.99169" lon="0.25379">
        <ele>108</ele>
        <time>2018-09-23 10:13:20</time>
      </trkpt>
      <trkpt lat="48.99172" lon="0.25374">
        <ele>109</ele>
        <time>2018-09-23 10:13:21</time>
      </trkpt>
      <trkpt lat="48.99179" lon="0.25365">
        <ele>109</ele>
        <time>2018-09-23 10:13:23</time>
      </trkpt>
      <trkpt lat="48.99185" lon="0.25356">
        <ele>109</ele>
        <time>2018-09-23 10:13:25</time>
      </trkpt>
      <trkpt lat="48.9919" lon="0.25346">
        <ele>110</ele>
        <time>2018-09-23 10:13:27</time>
      </trkpt>
      <trkpt lat="48.99193" lon="0.25332">
        <ele>110</ele>
        <time>2018-09-23 10:13:29</time>
      </trkpt>
      <trkpt lat="48.99196" lon="0.25319">
        <ele>110</ele>
        <time>2018-09-23 10:13:31</time>
      </trkpt>
      <trkpt lat="48.99199" lon="0.25307">
        <ele>111</ele>
        <time>2018-09-23 10:13:33</time>
      </trkpt>
      <trkpt lat="48.99202" lon="0.25297">
        <ele>111</ele>
        <time>2018-09-23 10:13:35</time>
      </trkpt>
      <trkpt lat="48.99203" lon="0.25285">
        <ele>111</ele>
        <time>2018-09-23 10:13:37</time>
      </trkpt>
      <trkpt lat="48.99204" lon="0.2528">
        <ele>112</ele>
        <time>2018-09-23 10:13:38</time>
      </trkpt>
      <trkpt lat="48.99204" lon="0.25275">
        <ele>112</ele>
        <time>2018-09-23 10:13:39</time>
      </trkpt>
      <trkpt lat="48.99204" lon="0.25264">
        <ele>113</ele>
        <time>2018-09-23 10:13:41</time>
      </trkpt>
      <trkpt lat="48.99204" lon="0.25253">
        <ele>114</ele>
        <time>2018-09-23 10:13:43</time>
      </trkpt>
      <trkpt lat="48.99205" lon="0.25243">
        <ele>115</ele>
        <time>2018-09-23 10:13:45</time>
      </trkpt>
      <trkpt lat="48.99203" lon="0.25232">
        <ele>115</ele>
        <time>2018-09-23 10:13:47</time>
      </trkpt>
      <trkpt lat="48.992" lon="0.25223">
        <ele>116</ele>
        <time>2018-09-23 10:13:49</time>
      </trkpt>
      <trkpt lat="48.99196" lon="0.25213">
        <ele>117</ele>
        <time>2018-09-23 10:13:51</time>
      </trkpt>
      <trkpt lat="48.99193" lon="0.25203">
        <ele>117</ele>
        <time>2018-09-23 10:13:53</time>
      </trkpt>
      <trkpt lat="48.99191" lon="0.25193">
        <ele>118</ele>
        <time>2018-09-23 10:13:55</time>
      </trkpt>
      <trkpt lat="48.99189" lon="0.25181">
        <ele>119</ele>
        <time>2018-09-23 10:13:57</time>
      </trkpt>
      <trkpt lat="48.99186" lon="0.25171">
        <ele>120</ele>
        <time>2018-09-23 10:13:59</time>
      </trkpt>
      <trkpt lat="48.99184" lon="0.2516">
        <ele>121</ele>
        <time>2018-09-23 10:14:01</time>
      </trkpt>
      <trkpt lat="48.99183" lon="0.25155">
        <ele>121</ele>
        <time>2018-09-23 10:14:02</time>
      </trkpt>
      <trkpt lat="48.99183" lon="0.2515">
        <ele>121</ele>
        <time>2018-09-23 10:14:03</time>
      </trkpt>
      <trkpt lat="48.99182" lon="0.25139">
        <ele>122</ele>
        <time>2018-09-23 10:14:05</time>
      </trkpt>
      <trkpt lat="48.99182" lon="0.25134">
        <ele>122</ele>
        <time>2018-09-23 10:14:06</time>
      </trkpt>
      <trkpt lat="48.9918" lon="0.25124">
        <ele>123</ele>
        <time>2018-09-23 10:14:08</time>
      </trkpt>
      <trkpt lat="48.99179" lon="0.25119">
        <ele>123</ele>
        <time>2018-09-23 10:14:09</time>
      </trkpt>
      <trkpt lat="48.99177" lon="0.25108">
        <ele>124</ele>
        <time>2018-09-23 10:14:11</time>
      </trkpt>
      <trkpt lat="48.99175" lon="0.25098">
        <ele>125</ele>
        <time>2018-09-23 10:14:13</time>
      </trkpt>
      <trkpt lat="48.99173" lon="0.25087">
        <ele>126</ele>
        <time>2018-09-23 10:14:15</time>
      </trkpt>
      <trkpt lat="48.99172" lon="0.25082">
        <ele>126</ele>
        <time>2018-09-23 10:14:16</time>
      </trkpt>
      <trkpt lat="48.99171" lon="0.25072">
        <ele>127</ele>
        <time>2018-09-23 10:14:18</time>
      </trkpt>
      <trkpt lat="48.99168" lon="0.25062">
        <ele>128</ele>
        <time>2018-09-23 10:14:20</time>
      </trkpt>
      <trkpt lat="48.99166" lon="0.25057">
        <ele>128</ele>
        <time>2018-09-23 10:14:21</time>
      </trkpt>
      <trkpt lat="48.99163" lon="0.25047">
        <ele>129</ele>
        <time>2018-09-23 10:14:23</time>
      </trkpt>
      <trkpt lat="48.9916" lon="0.25037">
        <ele>130</ele>
        <time>2018-09-23 10:14:25</time>
      </trkpt>
      <trkpt lat="48.99155" lon="0.25028">
        <ele>130</ele>
        <time>2018-09-23 10:14:27</time>
      </trkpt>
      <trkpt lat="48.99151" lon="0.25019">
        <ele>131</ele>
        <time>2018-09-23 10:14:29</time>
      </trkpt>
      <trkpt lat="48.99148" lon="0.2501">
        <ele>132</ele>
        <time>2018-09-23 10:14:31</time>
      </trkpt>
      <trkpt lat="48.99144" lon="0.25001">
        <ele>133</ele>
        <time>2018-09-23 10:14:33</time>
      </trkpt>
      <trkpt lat="48.99141" lon="0.24992">
        <ele>134</ele>
        <time>2018-09-23 10:14:35</time>
      </trkpt>
      <trkpt lat="48.99138" lon="0.24984">
        <ele>134</ele>
        <time>2018-09-23 10:14:37</time>
      </trkpt>
      <trkpt lat="48.99135" lon="0.24975">
        <ele>135</ele>
        <time>2018-09-23 10:14:39</time>
      </trkpt>
      <trkpt lat="48.99132" lon="0.24968">
        <ele>136</ele>
        <time>2018-09-23 10:14:41</time>
      </trkpt>
      <trkpt lat="48.9913" lon="0.24964">
        <ele>136</ele>
        <time>2018-09-23 10:14:42</time>
      </trkpt>
      <trkpt lat="48.99124" lon="0.24955">
        <ele>137</ele>
        <time>2018-09-23 10:14:44</time>
      </trkpt>
      <trkpt lat="48.99122" lon="0.24951">
        <ele>137</ele>
        <time>2018-09-23 10:14:45</time>
      </trkpt>
      <trkpt lat="48.99117" lon="0.24944">
        <ele>138</ele>
        <time>2018-09-23 10:14:47</time>
      </trkpt>
      <trkpt lat="48.99113" lon="0.24937">
        <ele>139</ele>
        <time>2018-09-23 10:14:49</time>
      </trkpt>
      <trkpt lat="48.99108" lon="0.24928">
        <ele>139</ele>
        <time>2018-09-23 10:14:51</time>
      </trkpt>
      <trkpt lat="48.99103" lon="0.24919">
        <ele>140</ele>
        <time>2018-09-23 10:14:53</time>
      </trkpt>
      <trkpt lat="48.99098" lon="0.24912">
        <ele>141</ele>
        <time>2018-09-23 10:14:55</time>
      </trkpt>
      <trkpt lat="48.99096" lon="0.24907">
        <ele>141</ele>
        <time>2018-09-23 10:14:56</time>
      </trkpt>
      <trkpt lat="48.99095" lon="0.24904">
        <ele>141</ele>
        <time>2018-09-23 10:14:57</time>
      </trkpt>
      <trkpt lat="48.99091" lon="0.24896">
        <ele>142</ele>
        <time>2018-09-23 10:14:59</time>
      </trkpt>
      <trkpt lat="48.99087" lon="0.24889">
        <ele>143</ele>
        <time>2018-09-23 10:15:01</time>
      </trkpt>
      <trkpt lat="48.99082" lon="0.2488">
        <ele>144</ele>
        <time>2018-09-23 10:15:03</time>
      </trkpt>
      <trkpt lat="48.99077" lon="0.24871">
        <ele>144</ele>
        <time>2018-09-23 10:15:05</time>
      </trkpt>
      <trkpt lat="48.99071" lon="0.24863">
        <ele>145</ele>
        <time>2018-09-23 10:15:07</time>
      </trkpt>
      <trkpt lat="48.99062" lon="0.24853">
        <ele>145</ele>
        <time>2018-09-23 10:15:09</time>
      </trkpt>
      <trkpt lat="48.99058" lon="0.24847">
        <ele>146</ele>
        <time>2018-09-23 10:15:11</time>
      </trkpt>
      <trkpt lat="48.99053" lon="0.24838">
        <ele>147</ele>
        <time>2018-09-23 10:15:13</time>
      </trkpt>
      <trkpt lat="48.99049" lon="0.24827">
        <ele>148</ele>
        <time>2018-09-23 10:15:15</time>
      </trkpt>
      <trkpt lat="48.99045" lon="0.2482">
        <ele>148</ele>
        <time>2018-09-23 10:15:17</time>
      </trkpt>
      <trkpt lat="48.99042" lon="0.24815">
        <ele>149</ele>
        <time>2018-09-23 10:15:19</time>
      </trkpt>
      <trkpt lat="48.99041" lon="0.24811">
        <ele>150</ele>
        <time>2018-09-23 10:15:21</time>
      </trkpt>
      <trkpt lat="48.99037" lon="0.24806">
        <ele>150</ele>
        <time>2018-09-23 10:15:23</time>
      </trkpt>
      <trkpt lat="48.99033" lon="0.24802">
        <ele>151</ele>
        <time>2018-09-23 10:15:25</time>
      </trkpt>
      <trkpt lat="48.9903" lon="0.24799">
        <ele>152</ele>
        <time>2018-09-23 10:15:27</time>
      </trkpt>
      <trkpt lat="48.99026" lon="0.24795">
        <ele>152</ele>
        <time>2018-09-23 10:15:29</time>
      </trkpt>
      <trkpt lat="48.99024" lon="0.24795">
        <ele>153</ele>
        <time>2018-09-23 10:15:31</time>
      </trkpt>
      <trkpt lat="48.99022" lon="0.24794">
        <ele>153</ele>
        <time>2018-09-23 10:15:33</time>
      </trkpt>
      <trkpt lat="48.99022" lon="0.24793">
        <ele>154</ele>
        <time>2018-09-23 10:15:35</time>
      </trkpt>
      <trkpt lat="48.99011" lon="0.24789">
        <ele>154</ele>
        <time>2018-09-23 10:15:37</time>
      </trkpt>
      <trkpt lat="48.99008" lon="0.24787">
        <ele>154</ele>
        <time>2018-09-23 10:15:39</time>
      </trkpt>
      <trkpt lat="48.99006" lon="0.24785">
        <ele>154</ele>
        <time>2018-09-23 10:15:41</time>
      </trkpt>
      <trkpt lat="48.99003" lon="0.24783">
        <ele>154</ele>
        <time>2018-09-23 10:15:43</time>
      </trkpt>
      <trkpt lat="48.99002" lon="0.24782">
        <ele>154</ele>
        <time>2018-09-23 10:15:45</time>
      </trkpt>
      <trkpt lat="48.98999" lon="0.2478">
        <ele>154</ele>
        <time>2018-09-23 10:15:47</time>
      </trkpt>
      <trkpt lat="48.98996" lon="0.24779">
        <ele>154</ele>
        <time>2018-09-23 10:15:48</time>
      </trkpt>
      <trkpt lat="48.98993" lon="0.24777">
        <ele>155</ele>
        <time>2018-09-23 10:15:50</time>
      </trkpt>
      <trkpt lat="48.98991" lon="0.24776">
        <ele>155</ele>
        <time>2018-09-23 10:15:51</time>
      </trkpt>
      <trkpt lat="48.98987" lon="0.24772">
        <ele>155</ele>
        <time>2018-09-23 10:15:53</time>
      </trkpt>
      <trkpt lat="48.98983" lon="0.24771">
        <ele>155</ele>
        <time>2018-09-23 10:15:55</time>
      </trkpt>
      <trkpt lat="48.9898" lon="0.24769">
        <ele>156</ele>
        <time>2018-09-23 10:15:56</time>
      </trkpt>
      <trkpt lat="48.98978" lon="0.24767">
        <ele>156</ele>
        <time>2018-09-23 10:15:57</time>
      </trkpt>
      <trkpt lat="48.98976" lon="0.24765">
        <ele>156</ele>
        <time>2018-09-23 10:15:59</time>
      </trkpt>
      <trkpt lat="48.98975" lon="0.24766">
        <ele>156</ele>
        <time>2018-09-23 10:16:01</time>
      </trkpt>
      <trkpt lat="48.98975" lon="0.24764">
        <ele>156</ele>
        <time>2018-09-23 10:16:03</time>
      </trkpt>
      <trkpt lat="48.98964" lon="0.24758">
        <ele>158</ele>
        <time>2018-09-23 10:16:04</time>
      </trkpt>
      <trkpt lat="48.98961" lon="0.24756">
        <ele>158</ele>
        <time>2018-09-23 10:16:05</time>
      </trkpt>
      <trkpt lat="48.98957" lon="0.24755">
        <ele>158</ele>
        <time>2018-09-23 10:16:06</time>
      </trkpt>
      <trkpt lat="48.98953" lon="0.24752">
        <ele>158</ele>
        <time>2018-09-23 10:16:08</time>
      </trkpt>
      <trkpt lat="48.9895" lon="0.24749">
        <ele>158</ele>
        <time>2018-09-23 10:16:10</time>
      </trkpt>
      <trkpt lat="48.98948" lon="0.24746">
        <ele>158</ele>
        <time>2018-09-23 10:16:12</time>
      </trkpt>
      <trkpt lat="48.98947" lon="0.24744">
        <ele>158</ele>
        <time>2018-09-23 10:16:14</time>
      </trkpt>
      <trkpt lat="48.98947" lon="0.24745">
        <ele>158</ele>
        <time>2018-09-23 10:16:16</time>
      </trkpt>
      <trkpt lat="48.98938" lon="0.24739">
        <ele>159</ele>
        <time>2018-09-23 10:16:18</time>
      </trkpt>
      <trkpt lat="48.98931" lon="0.24732">
        <ele>162</ele>
        <time>2018-09-23 10:16:45</time>
      </trkpt>
      <trkpt lat="48.9893" lon="0.24731">
        <ele>162</ele>
        <time>2018-09-23 10:16:47</time>
      </trkpt>
      <trkpt lat="48.98928" lon="0.24729">
        <ele>162</ele>
        <time>2018-09-23 10:16:49</time>
      </trkpt>
      <trkpt lat="48.98927" lon="0.24727">
        <ele>162</ele>
        <time>2018-09-23 10:16:50</time>
      </trkpt>
      <trkpt lat="48.98926" lon="0.24726">
        <ele>162</ele>
        <time>2018-09-23 10:16:52</time>
      </trkpt>
      <trkpt lat="48.98925" lon="0.24725">
        <ele>162</ele>
        <time>2018-09-23 10:16:53</time>
      </trkpt>
      <trkpt lat="48.98924" lon="0.24722">
        <ele>162</ele>
        <time>2018-09-23 10:16:55</time>
      </trkpt>
      <trkpt lat="48.98923" lon="0.2472">
        <ele>162</ele>
        <time>2018-09-23 10:16:56</time>
      </trkpt>
      <trkpt lat="48.98922" lon="0.24719">
        <ele>163</ele>
        <time>2018-09-23 10:16:57</time>
      </trkpt>
      <trkpt lat="48.98921" lon="0.24718">
        <ele>163</ele>
        <time>2018-09-23 10:16:59</time>
      </trkpt>
      <trkpt lat="48.98921" lon="0.24716">
        <ele>163</ele>
        <time>2018-09-23 10:17:01</time>
      </trkpt>
      <trkpt lat="48.98921" lon="0.24715">
        <ele>163</ele>
        <time>2018-09-23 10:17:02</time>
      </trkpt>
      <trkpt lat="48.9892" lon="0.24713">
        <ele>163</ele>
        <time>2018-09-23 10:17:04</time>
      </trkpt>
      <trkpt lat="48.9892" lon="0.24711">
        <ele>163</ele>
        <time>2018-09-23 10:17:06</time>
      </trkpt>
      <trkpt lat="48.9892" lon="0.24709">
        <ele>163</ele>
        <time>2018-09-23 10:17:08</time>
      </trkpt>
      <trkpt lat="48.9892" lon="0.24707">
        <ele>164</ele>
        <time>2018-09-23 10:17:10</time>
      </trkpt>
      <trkpt lat="48.98919" lon="0.24705">
        <ele>164</ele>
        <time>2018-09-23 10:17:12</time>
      </trkpt>
      <trkpt lat="48.98918" lon="0.24701">
        <ele>164</ele>
        <time>2018-09-23 10:17:14</time>
      </trkpt>
      <trkpt lat="48.98918" lon="0.24699">
        <ele>164</ele>
        <time>2018-09-23 10:17:16</time>
      </trkpt>
      <trkpt lat="48.98918" lon="0.24697">
        <ele>164</ele>
        <time>2018-09-23 10:17:18</time>
      </trkpt>
      <trkpt lat="48.98917" lon="0.24695">
        <ele>164</ele>
        <time>2018-09-23 10:17:20</time>
      </trkpt>
      <trkpt lat="48.98917" lon="0.24694">
        <ele>165</ele>
        <time>2018-09-23 10:17:22</time>
      </trkpt>
      <trkpt lat="48.98916" lon="0.24692">
        <ele>165</ele>
        <time>2018-09-23 10:17:24</time>
      </trkpt>
      <trkpt lat="48.98916" lon="0.2469">
        <ele>165</ele>
        <time>2018-09-23 10:17:26</time>
      </trkpt>
      <trkpt lat="48.98915" lon="0.24689">
        <ele>166</ele>
        <time>2018-09-23 10:17:28</time>
      </trkpt>
      <trkpt lat="48.98915" lon="0.24689">
        <ele>166</ele>
        <time>2018-09-23 10:17:29</time>
      </trkpt>
      <trkpt lat="48.98916" lon="0.24676">
        <ele>166</ele>
        <time>2018-09-23 10:17:30</time>
      </trkpt>
      <trkpt lat="48.98919" lon="0.2467">
        <ele>166</ele>
        <time>2018-09-23 10:17:32</time>
      </trkpt>
      <trkpt lat="48.98923" lon="0.24665">
        <ele>166</ele>
        <time>2018-09-23 10:17:34</time>
      </trkpt>
      <trkpt lat="48.98927" lon="0.24662">
        <ele>167</ele>
        <time>2018-09-23 10:17:36</time>
      </trkpt>
      <trkpt lat="48.98929" lon="0.24661">
        <ele>167</ele>
        <time>2018-09-23 10:17:37</time>
      </trkpt>
      <trkpt lat="48.98933" lon="0.24656">
        <ele>167</ele>
        <time>2018-09-23 10:17:39</time>
      </trkpt>
      <trkpt lat="48.98939" lon="0.24652">
        <ele>167</ele>
        <time>2018-09-23 10:17:41</time>
      </trkpt>
      <trkpt lat="48.98942" lon="0.2465">
        <ele>167</ele>
        <time>2018-09-23 10:17:42</time>
      </trkpt>
      <trkpt lat="48.98944" lon="0.24649">
        <ele>167</ele>
        <time>2018-09-23 10:17:43</time>
      </trkpt>
      <trkpt lat="48.9895" lon="0.24646">
        <ele>167</ele>
        <time>2018-09-23 10:17:45</time>
      </trkpt>
      <trkpt lat="48.98952" lon="0.24644">
        <ele>168</ele>
        <time>2018-09-23 10:17:46</time>
      </trkpt>
      <trkpt lat="48.98956" lon="0.24639">
        <ele>168</ele>
        <time>2018-09-23 10:17:48</time>
      </trkpt>
      <trkpt lat="48.98961" lon="0.24632">
        <ele>169</ele>
        <time>2018-09-23 10:17:50</time>
      </trkpt>
      <trkpt lat="48.98965" lon="0.24628">
        <ele>169</ele>
        <time>2018-09-23 10:17:52</time>
      </trkpt>
      <trkpt lat="48.9897" lon="0.24626">
        <ele>170</ele>
        <time>2018-09-23 10:17:54</time>
      </trkpt>
      <trkpt lat="48.98974" lon="0.24623">
        <ele>170</ele>
        <time>2018-09-23 10:17:56</time>
      </trkpt>
      <trkpt lat="48.9898" lon="0.2462">
        <ele>171</ele>
        <time>2018-09-23 10:17:58</time>
      </trkpt>
      <trkpt lat="48.98986" lon="0.24617">
        <ele>171</ele>
        <time>2018-09-23 10:18:00</time>
      </trkpt>
      <trkpt lat="48.98988" lon="0.24615">
        <ele>172</ele>
        <time>2018-09-23 10:18:01</time>
      </trkpt>
      <trkpt lat="48.98996" lon="0.24608">
        <ele>172</ele>
        <time>2018-09-23 10:18:03</time>
      </trkpt>
      <trkpt lat="48.99001" lon="0.246">
        <ele>173</ele>
        <time>2018-09-23 10:18:05</time>
      </trkpt>
      <trkpt lat="48.99005" lon="0.24593">
        <ele>174</ele>
        <time>2018-09-23 10:18:07</time>
      </trkpt>
      <trkpt lat="48.99005" lon="0.24589">
        <ele>174</ele>
        <time>2018-09-23 10:18:08</time>
      </trkpt>
      <trkpt lat="48.99006" lon="0.24581">
        <ele>175</ele>
        <time>2018-09-23 10:18:10</time>
      </trkpt>
      <trkpt lat="48.99006" lon="0.24573">
        <ele>176</ele>
        <time>2018-09-23 10:18:12</time>
      </trkpt>
      <trkpt lat="48.99006" lon="0.24566">
        <ele>177</ele>
        <time>2018-09-23 10:18:14</time>
      </trkpt>
      <trkpt lat="48.99005" lon="0.2456">
        <ele>178</ele>
        <time>2018-09-23 10:18:16</time>
      </trkpt>
      <trkpt lat="48.99004" lon="0.24551">
        <ele>179</ele>
        <time>2018-09-23 10:18:18</time>
      </trkpt>
      <trkpt lat="48.99005" lon="0.24544">
        <ele>179</ele>
        <time>2018-09-23 10:18:20</time>
      </trkpt>
      <trkpt lat="48.99006" lon="0.24538">
        <ele>181</ele>
        <time>2018-09-23 10:18:22</time>
      </trkpt>
      <trkpt lat="48.99006" lon="0.24536">
        <ele>181</ele>
        <time>2018-09-23 10:18:23</time>
      </trkpt>
      <trkpt lat="48.99009" lon="0.24531">
        <ele>182</ele>
        <time>2018-09-23 10:18:25</time>
      </trkpt>
      <trkpt lat="48.9901" lon="0.24529">
        <ele>182</ele>
        <time>2018-09-23 10:18:26</time>
      </trkpt>
      <trkpt lat="48.99012" lon="0.24525">
        <ele>183</ele>
        <time>2018-09-23 10:18:28</time>
      </trkpt>
      <trkpt lat="48.99012" lon="0.24524">
        <ele>183</ele>
        <time>2018-09-23 10:18:29</time>
      </trkpt>
      <trkpt lat="48.99012" lon="0.24523">
        <ele>183</ele>
        <time>2018-09-23 10:18:31</time>
      </trkpt>
      <trkpt lat="48.99013" lon="0.24522">
        <ele>183</ele>
        <time>2018-09-23 10:18:32</time>
      </trkpt>
      <trkpt lat="48.99021" lon="0.24505">
        <ele>186</ele>
        <time>2018-09-23 10:18:35</time>
      </trkpt>
      <trkpt lat="48.99024" lon="0.24506">
        <ele>186</ele>
        <time>2018-09-23 10:18:36</time>
      </trkpt>
      <trkpt lat="48.9903" lon="0.24505">
        <ele>186</ele>
        <time>2018-09-23 10:18:38</time>
      </trkpt>
      <trkpt lat="48.99034" lon="0.24505">
        <ele>186</ele>
        <time>2018-09-23 10:18:39</time>
      </trkpt>
      <trkpt lat="48.99037" lon="0.24505">
        <ele>186</ele>
        <time>2018-09-23 10:18:40</time>
      </trkpt>
      <trkpt lat="48.99042" lon="0.24502">
        <ele>186</ele>
        <time>2018-09-23 10:18:42</time>
      </trkpt>
      <trkpt lat="48.99042" lon="0.24499">
        <ele>186</ele>
        <time>2018-09-23 10:18:43</time>
      </trkpt>
      <trkpt lat="48.99043" lon="0.24491">
        <ele>186</ele>
        <time>2018-09-23 10:18:45</time>
      </trkpt>
      <trkpt lat="48.99043" lon="0.24487">
        <ele>187</ele>
        <time>2018-09-23 10:18:46</time>
      </trkpt>
      <trkpt lat="48.99045" lon="0.24478">
        <ele>188</ele>
        <time>2018-09-23 10:18:48</time>
      </trkpt>
      <trkpt lat="48.99047" lon="0.2447">
        <ele>188</ele>
        <time>2018-09-23 10:18:50</time>
      </trkpt>
      <trkpt lat="48.99046" lon="0.24461">
        <ele>188</ele>
        <time>2018-09-23 10:18:52</time>
      </trkpt>
      <trkpt lat="48.99045" lon="0.24453">
        <ele>189</ele>
        <time>2018-09-23 10:18:54</time>
      </trkpt>
      <trkpt lat="48.99045" lon="0.24443">
        <ele>190</ele>
        <time>2018-09-23 10:18:56</time>
      </trkpt>
      <trkpt lat="48.99045" lon="0.24434">
        <ele>190</ele>
        <time>2018-09-23 10:18:58</time>
      </trkpt>
      <trkpt lat="48.99045" lon="0.24429">
        <ele>190</ele>
        <time>2018-09-23 10:18:59</time>
      </trkpt>
      <trkpt lat="48.99044" lon="0.24419">
        <ele>190</ele>
        <time>2018-09-23 10:19:01</time>
      </trkpt>
      <trkpt lat="48.99044" lon="0.24408">
        <ele>191</ele>
        <time>2018-09-23 10:19:03</time>
      </trkpt>
      <trkpt lat="48.99043" lon="0.24404">
        <ele>191</ele>
        <time>2018-09-23 10:19:04</time>
      </trkpt>
      <trkpt lat="48.99042" lon="0.24394">
        <ele>191</ele>
        <time>2018-09-23 10:19:06</time>
      </trkpt>
      <trkpt lat="48.99043" lon="0.24381">
        <ele>191</ele>
        <time>2018-09-23 10:19:08</time>
      </trkpt>
      <trkpt lat="48.99043" lon="0.24373">
        <ele>191</ele>
        <time>2018-09-23 10:19:10</time>
      </trkpt>
      <trkpt lat="48.99043" lon="0.24362">
        <ele>190</ele>
        <time>2018-09-23 10:19:12</time>
      </trkpt>
      <trkpt lat="48.99041" lon="0.24351">
        <ele>189</ele>
        <time>2018-09-23 10:19:14</time>
      </trkpt>
      <trkpt lat="48.99041" lon="0.24347">
        <ele>189</ele>
        <time>2018-09-23 10:19:15</time>
      </trkpt>
      <trkpt lat="48.9904" lon="0.24342">
        <ele>189</ele>
        <time>2018-09-23 10:19:16</time>
      </trkpt>
      <trkpt lat="48.99038" lon="0.24331">
        <ele>188</ele>
        <time>2018-09-23 10:19:18</time>
      </trkpt>
      <trkpt lat="48.99038" lon="0.24325">
        <ele>188</ele>
        <time>2018-09-23 10:19:19</time>
      </trkpt>
      <trkpt lat="48.99036" lon="0.24315">
        <ele>188</ele>
        <time>2018-09-23 10:19:21</time>
      </trkpt>
      <trkpt lat="48.99035" lon="0.24309">
        <ele>188</ele>
        <time>2018-09-23 10:19:22</time>
      </trkpt>
      <trkpt lat="48.99034" lon="0.24299">
        <ele>187</ele>
        <time>2018-09-23 10:19:24</time>
      </trkpt>
      <trkpt lat="48.99033" lon="0.24287">
        <ele>187</ele>
        <time>2018-09-23 10:19:26</time>
      </trkpt>
      <trkpt lat="48.99032" lon="0.24281">
        <ele>187</ele>
        <time>2018-09-23 10:19:27</time>
      </trkpt>
      <trkpt lat="48.9903" lon="0.24268">
        <ele>187</ele>
        <time>2018-09-23 10:19:29</time>
      </trkpt>
      <trkpt lat="48.99028" lon="0.24256">
        <ele>186</ele>
        <time>2018-09-23 10:19:31</time>
      </trkpt>
      <trkpt lat="48.99026" lon="0.24244">
        <ele>186</ele>
        <time>2018-09-23 10:19:33</time>
      </trkpt>
      <trkpt lat="48.99024" lon="0.24231">
        <ele>185</ele>
        <time>2018-09-23 10:19:35</time>
      </trkpt>
      <trkpt lat="48.99023" lon="0.24225">
        <ele>185</ele>
        <time>2018-09-23 10:19:36</time>
      </trkpt>
      <trkpt lat="48.99021" lon="0.24212">
        <ele>185</ele>
        <time>2018-09-23 10:19:38</time>
      </trkpt>
      <trkpt lat="48.99019" lon="0.24198">
        <ele>184</ele>
        <time>2018-09-23 10:19:40</time>
      </trkpt>
      <trkpt lat="48.99017" lon="0.24186">
        <ele>184</ele>
        <time>2018-09-23 10:19:42</time>
      </trkpt>
      <trkpt lat="48.99016" lon="0.24176">
        <ele>184</ele>
        <time>2018-09-23 10:19:44</time>
      </trkpt>
      <trkpt lat="48.99015" lon="0.2417">
        <ele>184</ele>
        <time>2018-09-23 10:19:45</time>
      </trkpt>
      <trkpt lat="48.99014" lon="0.24164">
        <ele>185</ele>
        <time>2018-09-23 10:19:46</time>
      </trkpt>
      <trkpt lat="48.99013" lon="0.24154">
        <ele>185</ele>
        <time>2018-09-23 10:19:48</time>
      </trkpt>
      <trkpt lat="48.99013" lon="0.24148">
        <ele>185</ele>
        <time>2018-09-23 10:19:49</time>
      </trkpt>
      <trkpt lat="48.99012" lon="0.24139">
        <ele>185</ele>
        <time>2018-09-23 10:19:51</time>
      </trkpt>
      <trkpt lat="48.99012" lon="0.24134">
        <ele>185</ele>
        <time>2018-09-23 10:19:52</time>
      </trkpt>
      <trkpt lat="48.99012" lon="0.24123">
        <ele>185</ele>
        <time>2018-09-23 10:19:54</time>
      </trkpt>
      <trkpt lat="48.99011" lon="0.24112">
        <ele>185</ele>
        <time>2018-09-23 10:19:56</time>
      </trkpt>
      <trkpt lat="48.9901" lon="0.24101">
        <ele>186</ele>
        <time>2018-09-23 10:19:58</time>
      </trkpt>
      <trkpt lat="48.9901" lon="0.24091">
        <ele>186</ele>
        <time>2018-09-23 10:20:00</time>
      </trkpt>
      <trkpt lat="48.99009" lon="0.24082">
        <ele>186</ele>
        <time>2018-09-23 10:20:02</time>
      </trkpt>
      <trkpt lat="48.99009" lon="0.24074">
        <ele>185</ele>
        <time>2018-09-23 10:20:04</time>
      </trkpt>
      <trkpt lat="48.99008" lon="0.24066">
        <ele>185</ele>
        <time>2018-09-23 10:20:06</time>
      </trkpt>
      <trkpt lat="48.99008" lon="0.24057">
        <ele>185</ele>
        <time>2018-09-23 10:20:08</time>
      </trkpt>
      <trkpt lat="48.99007" lon="0.24046">
        <ele>185</ele>
        <time>2018-09-23 10:20:10</time>
      </trkpt>
      <trkpt lat="48.99007" lon="0.24033">
        <ele>185</ele>
        <time>2018-09-23 10:20:12</time>
      </trkpt>
      <trkpt lat="48.99007" lon="0.24021">
        <ele>185</ele>
        <time>2018-09-23 10:20:14</time>
      </trkpt>
      <trkpt lat="48.99006" lon="0.24007">
        <ele>185</ele>
        <time>2018-09-23 10:20:16</time>
      </trkpt>
      <trkpt lat="48.99005" lon="0.23995">
        <ele>185</ele>
        <time>2018-09-23 10:20:18</time>
      </trkpt>
      <trkpt lat="48.99004" lon="0.23989">
        <ele>185</ele>
        <time>2018-09-23 10:20:19</time>
      </trkpt>
      <trkpt lat="48.99004" lon="0.23977">
        <ele>185</ele>
        <time>2018-09-23 10:20:21</time>
      </trkpt>
      <trkpt lat="48.99003" lon="0.23971">
        <ele>184</ele>
        <time>2018-09-23 10:20:22</time>
      </trkpt>
      <trkpt lat="48.99003" lon="0.23958">
        <ele>184</ele>
        <time>2018-09-23 10:20:24</time>
      </trkpt>
      <trkpt lat="48.99002" lon="0.23944">
        <ele>184</ele>
        <time>2018-09-23 10:20:26</time>
      </trkpt>
      <trkpt lat="48.99002" lon="0.23932">
        <ele>184</ele>
        <time>2018-09-23 10:20:28</time>
      </trkpt>
      <trkpt lat="48.99002" lon="0.23924">
        <ele>184</ele>
        <time>2018-09-23 10:20:30</time>
      </trkpt>
      <trkpt lat="48.99003" lon="0.23918">
        <ele>183</ele>
        <time>2018-09-23 10:20:32</time>
      </trkpt>
      <trkpt lat="48.99003" lon="0.23915">
        <ele>183</ele>
        <time>2018-09-23 10:20:33</time>
      </trkpt>
      <trkpt lat="48.99002" lon="0.23906">
        <ele>183</ele>
        <time>2018-09-23 10:20:35</time>
      </trkpt>
      <trkpt lat="48.99002" lon="0.23901">
        <ele>182</ele>
        <time>2018-09-23 10:20:36</time>
      </trkpt>
      <trkpt lat="48.99004" lon="0.23891">
        <ele>182</ele>
        <time>2018-09-23 10:20:38</time>
      </trkpt>
      <trkpt lat="48.99008" lon="0.23881">
        <ele>182</ele>
        <time>2018-09-23 10:20:40</time>
      </trkpt>
      <trkpt lat="48.99012" lon="0.23871">
        <ele>182</ele>
        <time>2018-09-23 10:20:42</time>
      </trkpt>
      <trkpt lat="48.99016" lon="0.23858">
        <ele>181</ele>
        <time>2018-09-23 10:20:44</time>
      </trkpt>
      <trkpt lat="48.9902" lon="0.23845">
        <ele>181</ele>
        <time>2018-09-23 10:20:46</time>
      </trkpt>
      <trkpt lat="48.99023" lon="0.23838">
        <ele>181</ele>
        <time>2018-09-23 10:20:47</time>
      </trkpt>
      <trkpt lat="48.99026" lon="0.23825">
        <ele>181</ele>
        <time>2018-09-23 10:20:49</time>
      </trkpt>
      <trkpt lat="48.99029" lon="0.2382">
        <ele>181</ele>
        <time>2018-09-23 10:20:50</time>
      </trkpt>
      <trkpt lat="48.99034" lon="0.2381">
        <ele>181</ele>
        <time>2018-09-23 10:20:52</time>
      </trkpt>
      <trkpt lat="48.9904" lon="0.23801">
        <ele>180</ele>
        <time>2018-09-23 10:20:54</time>
      </trkpt>
      <trkpt lat="48.99047" lon="0.23793">
        <ele>180</ele>
        <time>2018-09-23 10:20:56</time>
      </trkpt>
      <trkpt lat="48.99053" lon="0.23781">
        <ele>181</ele>
        <time>2018-09-23 10:20:58</time>
      </trkpt>
      <trkpt lat="48.9906" lon="0.2377">
        <ele>180</ele>
        <time>2018-09-23 10:21:00</time>
      </trkpt>
      <trkpt lat="48.99063" lon="0.23764">
        <ele>181</ele>
        <time>2018-09-23 10:21:01</time>
      </trkpt>
      <trkpt lat="48.9907" lon="0.23752">
        <ele>181</ele>
        <time>2018-09-23 10:21:03</time>
      </trkpt>
      <trkpt lat="48.99073" lon="0.23746">
        <ele>181</ele>
        <time>2018-09-23 10:21:04</time>
      </trkpt>
      <trkpt lat="48.99078" lon="0.23734">
        <ele>181</ele>
        <time>2018-09-23 10:21:06</time>
      </trkpt>
      <trkpt lat="48.99083" lon="0.2372">
        <ele>181</ele>
        <time>2018-09-23 10:21:08</time>
      </trkpt>
      <trkpt lat="48.9909" lon="0.23705">
        <ele>182</ele>
        <time>2018-09-23 10:21:10</time>
      </trkpt>
      <trkpt lat="48.99097" lon="0.23686">
        <ele>182</ele>
        <time>2018-09-23 10:21:12</time>
      </trkpt>
      <trkpt lat="48.99104" lon="0.23672">
        <ele>182</ele>
        <time>2018-09-23 10:21:14</time>
      </trkpt>
      <trkpt lat="48.9911" lon="0.2366">
        <ele>182</ele>
        <time>2018-09-23 10:21:16</time>
      </trkpt>
      <trkpt lat="48.99114" lon="0.2365">
        <ele>183</ele>
        <time>2018-09-23 10:21:18</time>
      </trkpt>
      <trkpt lat="48.99119" lon="0.23641">
        <ele>183</ele>
        <time>2018-09-23 10:21:20</time>
      </trkpt>
      <trkpt lat="48.99122" lon="0.23632">
        <ele>182</ele>
        <time>2018-09-23 10:21:22</time>
      </trkpt>
      <trkpt lat="48.99127" lon="0.23623">
        <ele>182</ele>
        <time>2018-09-23 10:21:24</time>
      </trkpt>
      <trkpt lat="48.99133" lon="0.23612">
        <ele>183</ele>
        <time>2018-09-23 10:21:26</time>
      </trkpt>
      <trkpt lat="48.99136" lon="0.23597">
        <ele>184</ele>
        <time>2018-09-23 10:21:28</time>
      </trkpt>
      <trkpt lat="48.99141" lon="0.23586">
        <ele>184</ele>
        <time>2018-09-23 10:21:30</time>
      </trkpt>
      <trkpt lat="48.99142" lon="0.23584">
        <ele>184</ele>
        <time>2018-09-23 10:21:31</time>
      </trkpt>
      <trkpt lat="48.99142" lon="0.23583">
        <ele>184</ele>
        <time>2018-09-23 10:21:33</time>
      </trkpt>
      <trkpt lat="48.99144" lon="0.23586">
        <ele>184</ele>
        <time>2018-09-23 10:21:34</time>
      </trkpt>
      <trkpt lat="48.99145" lon="0.23588">
        <ele>184</ele>
        <time>2018-09-23 10:21:36</time>
      </trkpt>
      <trkpt lat="48.99145" lon="0.23589">
        <ele>184</ele>
        <time>2018-09-23 10:21:37</time>
      </trkpt>
      <trkpt lat="48.99147" lon="0.23592">
        <ele>184</ele>
        <time>2018-09-23 10:21:39</time>
      </trkpt>
      <trkpt lat="48.9915" lon="0.23596">
        <ele>184</ele>
        <time>2018-09-23 10:21:41</time>
      </trkpt>
      <trkpt lat="48.99154" lon="0.23602">
        <ele>184</ele>
        <time>2018-09-23 10:21:43</time>
      </trkpt>
      <trkpt lat="48.9916" lon="0.23608">
        <ele>185</ele>
        <time>2018-09-23 10:21:45</time>
      </trkpt>
      <trkpt lat="48.99166" lon="0.23615">
        <ele>185</ele>
        <time>2018-09-23 10:21:47</time>
      </trkpt>
      <trkpt lat="48.99172" lon="0.23622">
        <ele>185</ele>
        <time>2018-09-23 10:21:49</time>
      </trkpt>
      <trkpt lat="48.99178" lon="0.2363">
        <ele>184</ele>
        <time>2018-09-23 10:21:51</time>
      </trkpt>
      <trkpt lat="48.99185" lon="0.2364">
        <ele>184</ele>
        <time>2018-09-23 10:21:53</time>
      </trkpt>
      <trkpt lat="48.99193" lon="0.23651">
        <ele>185</ele>
        <time>2018-09-23 10:21:55</time>
      </trkpt>
      <trkpt lat="48.99196" lon="0.23656">
        <ele>185</ele>
        <time>2018-09-23 10:21:56</time>
      </trkpt>
      <trkpt lat="48.99203" lon="0.23666">
        <ele>184</ele>
        <time>2018-09-23 10:21:58</time>
      </trkpt>
      <trkpt lat="48.99207" lon="0.23672">
        <ele>184</ele>
        <time>2018-09-23 10:21:59</time>
      </trkpt>
      <trkpt lat="48.99216" lon="0.23683">
        <ele>184</ele>
        <time>2018-09-23 10:22:01</time>
      </trkpt>
      <trkpt lat="48.99227" lon="0.23695">
        <ele>184</ele>
        <time>2018-09-23 10:22:03</time>
      </trkpt>
      <trkpt lat="48.99241" lon="0.2371">
        <ele>184</ele>
        <time>2018-09-23 10:22:05</time>
      </trkpt>
      <trkpt lat="48.99248" lon="0.2372">
        <ele>183</ele>
        <time>2018-09-23 10:22:07</time>
      </trkpt>
      <trkpt lat="48.99252" lon="0.23726">
        <ele>183</ele>
        <time>2018-09-23 10:22:09</time>
      </trkpt>
      <trkpt lat="48.99254" lon="0.23728">
        <ele>183</ele>
        <time>2018-09-23 10:22:10</time>
      </trkpt>
      <trkpt lat="48.99259" lon="0.23734">
        <ele>183</ele>
        <time>2018-09-23 10:22:12</time>
      </trkpt>
      <trkpt lat="48.99261" lon="0.23737">
        <ele>182</ele>
        <time>2018-09-23 10:22:13</time>
      </trkpt>
      <trkpt lat="48.99266" lon="0.23742">
        <ele>183</ele>
        <time>2018-09-23 10:22:15</time>
      </trkpt>
      <trkpt lat="48.99269" lon="0.23747">
        <ele>183</ele>
        <time>2018-09-23 10:22:17</time>
      </trkpt>
      <trkpt lat="48.99272" lon="0.2375">
        <ele>183</ele>
        <time>2018-09-23 10:22:19</time>
      </trkpt>
      <trkpt lat="48.99277" lon="0.23752">
        <ele>183</ele>
        <time>2018-09-23 10:22:21</time>
      </trkpt>
      <trkpt lat="48.99285" lon="0.23757">
        <ele>181</ele>
        <time>2018-09-23 10:22:23</time>
      </trkpt>
      <trkpt lat="48.99291" lon="0.2376">
        <ele>181</ele>
        <time>2018-09-23 10:22:25</time>
      </trkpt>
      <trkpt lat="48.99298" lon="0.23763">
        <ele>180</ele>
        <time>2018-09-23 10:22:27</time>
      </trkpt>
      <trkpt lat="48.99301" lon="0.23764">
        <ele>180</ele>
        <time>2018-09-23 10:22:28</time>
      </trkpt>
      <trkpt lat="48.99304" lon="0.23766">
        <ele>179</ele>
        <time>2018-09-23 10:22:29</time>
      </trkpt>
      <trkpt lat="48.99313" lon="0.23771">
        <ele>179</ele>
        <time>2018-09-23 10:22:31</time>
      </trkpt>
      <trkpt lat="48.99322" lon="0.23775">
        <ele>178</ele>
        <time>2018-09-23 10:22:33</time>
      </trkpt>
      <trkpt lat="48.9933" lon="0.23778">
        <ele>178</ele>
        <time>2018-09-23 10:22:35</time>
      </trkpt>
      <trkpt lat="48.99339" lon="0.23782">
        <ele>178</ele>
        <time>2018-09-23 10:22:37</time>
      </trkpt>
      <trkpt lat="48.99346" lon="0.23785">
        <ele>177</ele>
        <time>2018-09-23 10:22:39</time>
      </trkpt>
      <trkpt lat="48.99353" lon="0.23788">
        <ele>177</ele>
        <time>2018-09-23 10:22:41</time>
      </trkpt>
      <trkpt lat="48.99355" lon="0.23789">
        <ele>177</ele>
        <time>2018-09-23 10:22:42</time>
      </trkpt>
      <trkpt lat="48.99359" lon="0.23793">
        <ele>177</ele>
        <time>2018-09-23 10:22:44</time>
      </trkpt>
      <trkpt lat="48.99361" lon="0.23795">
        <ele>177</ele>
        <time>2018-09-23 10:22:45</time>
      </trkpt>
      <trkpt lat="48.99363" lon="0.23802">
        <ele>178</ele>
        <time>2018-09-23 10:22:47</time>
      </trkpt>
      <trkpt lat="48.99364" lon="0.23809">
        <ele>178</ele>
        <time>2018-09-23 10:22:49</time>
      </trkpt>
      <trkpt lat="48.99366" lon="0.23817">
        <ele>178</ele>
        <time>2018-09-23 10:22:51</time>
      </trkpt>
      <trkpt lat="48.99368" lon="0.23823">
        <ele>178</ele>
        <time>2018-09-23 10:22:53</time>
      </trkpt>
      <trkpt lat="48.99369" lon="0.2383">
        <ele>178</ele>
        <time>2018-09-23 10:22:55</time>
      </trkpt>
      <trkpt lat="48.9937" lon="0.23835">
        <ele>178</ele>
        <time>2018-09-23 10:22:56</time>
      </trkpt>
      <trkpt lat="48.99371" lon="0.23845">
        <ele>179</ele>
        <time>2018-09-23 10:22:58</time>
      </trkpt>
      <trkpt lat="48.99372" lon="0.23851">
        <ele>179</ele>
        <time>2018-09-23 10:22:59</time>
      </trkpt>
      <trkpt lat="48.99373" lon="0.23866">
        <ele>179</ele>
        <time>2018-09-23 10:23:01</time>
      </trkpt>
      <trkpt lat="48.99376" lon="0.23878">
        <ele>180</ele>
        <time>2018-09-23 10:23:03</time>
      </trkpt>
      <trkpt lat="48.9938" lon="0.23885">
        <ele>180</ele>
        <time>2018-09-23 10:23:05</time>
      </trkpt>
      <trkpt lat="48.99382" lon="0.2389">
        <ele>180</ele>
        <time>2018-09-23 10:23:07</time>
      </trkpt>
      <trkpt lat="48.99383" lon="0.23891">
        <ele>180</ele>
        <time>2018-09-23 10:23:08</time>
      </trkpt>
      <trkpt lat="48.9939" lon="0.23892">
        <ele>182</ele>
        <time>2018-09-23 10:23:12</time>
      </trkpt>
      <trkpt lat="48.99393" lon="0.23892">
        <ele>182</ele>
        <time>2018-09-23 10:23:13</time>
      </trkpt>
      <trkpt lat="48.994" lon="0.23893">
        <ele>183</ele>
        <time>2018-09-23 10:23:15</time>
      </trkpt>
      <trkpt lat="48.99404" lon="0.23894">
        <ele>183</ele>
        <time>2018-09-23 10:23:16</time>
      </trkpt>
      <trkpt lat="48.99412" lon="0.23896">
        <ele>184</ele>
        <time>2018-09-23 10:23:18</time>
      </trkpt>
      <trkpt lat="48.9942" lon="0.23898">
        <ele>185</ele>
        <time>2018-09-23 10:23:20</time>
      </trkpt>
      <trkpt lat="48.99429" lon="0.239">
        <ele>185</ele>
        <time>2018-09-23 10:23:22</time>
      </trkpt>
      <trkpt lat="48.99438" lon="0.239">
        <ele>186</ele>
        <time>2018-09-23 10:23:24</time>
      </trkpt>
      <trkpt lat="48.99445" lon="0.23902">
        <ele>186</ele>
        <time>2018-09-23 10:23:26</time>
      </trkpt>
      <trkpt lat="48.99454" lon="0.23905">
        <ele>187</ele>
        <time>2018-09-23 10:23:28</time>
      </trkpt>
      <trkpt lat="48.99464" lon="0.23908">
        <ele>188</ele>
        <time>2018-09-23 10:23:30</time>
      </trkpt>
      <trkpt lat="48.99473" lon="0.23911">
        <ele>188</ele>
        <time>2018-09-23 10:23:32</time>
      </trkpt>
      <trkpt lat="48.99482" lon="0.23914">
        <ele>188</ele>
        <time>2018-09-23 10:23:34</time>
      </trkpt>
      <trkpt lat="48.99492" lon="0.23917">
        <ele>187</ele>
        <time>2018-09-23 10:23:36</time>
      </trkpt>
      <trkpt lat="48.99502" lon="0.2392">
        <ele>187</ele>
        <time>2018-09-23 10:23:38</time>
      </trkpt>
      <trkpt lat="48.99507" lon="0.23921">
        <ele>187</ele>
        <time>2018-09-23 10:23:39</time>
      </trkpt>
      <trkpt lat="48.99512" lon="0.23923">
        <ele>186</ele>
        <time>2018-09-23 10:23:40</time>
      </trkpt>
      <trkpt lat="48.99521" lon="0.23927">
        <ele>186</ele>
        <time>2018-09-23 10:23:42</time>
      </trkpt>
      <trkpt lat="48.99529" lon="0.23929">
        <ele>186</ele>
        <time>2018-09-23 10:23:44</time>
      </trkpt>
      <trkpt lat="48.99536" lon="0.23931">
        <ele>185</ele>
        <time>2018-09-23 10:23:46</time>
      </trkpt>
      <trkpt lat="48.99542" lon="0.23932">
        <ele>185</ele>
        <time>2018-09-23 10:23:48</time>
      </trkpt>
      <trkpt lat="48.99549" lon="0.23935">
        <ele>185</ele>
        <time>2018-09-23 10:23:50</time>
      </trkpt>
      <trkpt lat="48.99556" lon="0.23938">
        <ele>185</ele>
        <time>2018-09-23 10:23:52</time>
      </trkpt>
      <trkpt lat="48.99564" lon="0.2394">
        <ele>185</ele>
        <time>2018-09-23 10:23:54</time>
      </trkpt>
      <trkpt lat="48.99572" lon="0.23943">
        <ele>185</ele>
        <time>2018-09-23 10:23:56</time>
      </trkpt>
      <trkpt lat="48.99582" lon="0.23948">
        <ele>185</ele>
        <time>2018-09-23 10:23:58</time>
      </trkpt>
      <trkpt lat="48.99591" lon="0.23954">
        <ele>185</ele>
        <time>2018-09-23 10:24:00</time>
      </trkpt>
      <trkpt lat="48.99595" lon="0.23957">
        <ele>184</ele>
        <time>2018-09-23 10:24:01</time>
      </trkpt>
      <trkpt lat="48.99604" lon="0.23958">
        <ele>184</ele>
        <time>2018-09-23 10:24:03</time>
      </trkpt>
      <trkpt lat="48.99609" lon="0.23958">
        <ele>184</ele>
        <time>2018-09-23 10:24:04</time>
      </trkpt>
      <trkpt lat="48.99619" lon="0.2396">
        <ele>184</ele>
        <time>2018-09-23 10:24:06</time>
      </trkpt>
      <trkpt lat="48.99629" lon="0.23962">
        <ele>183</ele>
        <time>2018-09-23 10:24:08</time>
      </trkpt>
      <trkpt lat="48.99638" lon="0.23964">
        <ele>183</ele>
        <time>2018-09-23 10:24:10</time>
      </trkpt>
      <trkpt lat="48.99648" lon="0.23964">
        <ele>182</ele>
        <time>2018-09-23 10:24:12</time>
      </trkpt>
      <trkpt lat="48.99656" lon="0.23966">
        <ele>182</ele>
        <time>2018-09-23 10:24:14</time>
      </trkpt>
      <trkpt lat="48.99665" lon="0.23966">
        <ele>182</ele>
        <time>2018-09-23 10:24:16</time>
      </trkpt>
      <trkpt lat="48.99674" lon="0.23967">
        <ele>181</ele>
        <time>2018-09-23 10:24:18</time>
      </trkpt>
      <trkpt lat="48.99684" lon="0.23968">
        <ele>181</ele>
        <time>2018-09-23 10:24:20</time>
      </trkpt>
      <trkpt lat="48.99694" lon="0.23968">
        <ele>181</ele>
        <time>2018-09-23 10:24:22</time>
      </trkpt>
      <trkpt lat="48.99704" lon="0.23968">
        <ele>181</ele>
        <time>2018-09-23 10:24:24</time>
      </trkpt>
      <trkpt lat="48.99715" lon="0.23969">
        <ele>181</ele>
        <time>2018-09-23 10:24:26</time>
      </trkpt>
      <trkpt lat="48.99725" lon="0.2397">
        <ele>180</ele>
        <time>2018-09-23 10:24:28</time>
      </trkpt>
      <trkpt lat="48.99737" lon="0.2397">
        <ele>181</ele>
        <time>2018-09-23 10:24:30</time>
      </trkpt>
      <trkpt lat="48.99748" lon="0.2397">
        <ele>181</ele>
        <time>2018-09-23 10:24:32</time>
      </trkpt>
      <trkpt lat="48.99759" lon="0.23971">
        <ele>181</ele>
        <time>2018-09-23 10:24:34</time>
      </trkpt>
      <trkpt lat="48.99769" lon="0.23971">
        <ele>182</ele>
        <time>2018-09-23 10:24:36</time>
      </trkpt>
      <trkpt lat="48.99779" lon="0.23972">
        <ele>182</ele>
        <time>2018-09-23 10:24:38</time>
      </trkpt>
      <trkpt lat="48.9979" lon="0.23973">
        <ele>181</ele>
        <time>2018-09-23 10:24:40</time>
      </trkpt>
      <trkpt lat="48.99799" lon="0.23974">
        <ele>180</ele>
        <time>2018-09-23 10:24:42</time>
      </trkpt>
      <trkpt lat="48.99805" lon="0.23978">
        <ele>180</ele>
        <time>2018-09-23 10:24:44</time>
      </trkpt>
      <trkpt lat="48.99809" lon="0.23981">
        <ele>180</ele>
        <time>2018-09-23 10:24:46</time>
      </trkpt>
      <trkpt lat="48.99813" lon="0.2398">
        <ele>180</ele>
        <time>2018-09-23 10:24:48</time>
      </trkpt>
      <trkpt lat="48.99815" lon="0.2398">
        <ele>180</ele>
        <time>2018-09-23 10:24:50</time>
      </trkpt>
      <trkpt lat="48.99818" lon="0.23981">
        <ele>180</ele>
        <time>2018-09-23 10:24:52</time>
      </trkpt>
      <trkpt lat="48.9982" lon="0.23981">
        <ele>180</ele>
        <time>2018-09-23 10:24:54</time>
      </trkpt>
      <trkpt lat="48.99822" lon="0.23982">
        <ele>180</ele>
        <time>2018-09-23 10:24:56</time>
      </trkpt>
      <trkpt lat="48.99823" lon="0.23982">
        <ele>180</ele>
        <time>2018-09-23 10:24:57</time>
      </trkpt>
      <trkpt lat="48.99824" lon="0.23982">
        <ele>180</ele>
        <time>2018-09-23 10:24:58</time>
      </trkpt>
      <trkpt lat="48.99825" lon="0.2398">
        <ele>180</ele>
        <time>2018-09-23 10:25:00</time>
      </trkpt>
      <trkpt lat="48.99824" lon="0.23979">
        <ele>180</ele>
        <time>2018-09-23 10:25:02</time>
      </trkpt>
      <trkpt lat="48.99818" lon="0.23978">
        <ele>181</ele>
        <time>2018-09-23 10:25:04</time>
      </trkpt>
      <trkpt lat="48.99815" lon="0.23979">
        <ele>181</ele>
        <time>2018-09-23 10:25:05</time>
      </trkpt>
      <trkpt lat="48.99811" lon="0.2398">
        <ele>181</ele>
        <time>2018-09-23 10:25:07</time>
      </trkpt>
      <trkpt lat="48.99807" lon="0.23978">
        <ele>181</ele>
        <time>2018-09-23 10:25:09</time>
      </trkpt>
      <trkpt lat="48.99804" lon="0.23972">
        <ele>181</ele>
        <time>2018-09-23 10:25:11</time>
      </trkpt>
      <trkpt lat="48.998" lon="0.23962">
        <ele>182</ele>
        <time>2018-09-23 10:25:13</time>
      </trkpt>
      <trkpt lat="48.99796" lon="0.2395">
        <ele>182</ele>
        <time>2018-09-23 10:25:15</time>
      </trkpt>
      <trkpt lat="48.99792" lon="0.23938">
        <ele>182</ele>
        <time>2018-09-23 10:25:17</time>
      </trkpt>
      <trkpt lat="48.9979" lon="0.23924">
        <ele>182</ele>
        <time>2018-09-23 10:25:19</time>
      </trkpt>
      <trkpt lat="48.99788" lon="0.2391">
        <ele>182</ele>
        <time>2018-09-23 10:25:21</time>
      </trkpt>
      <trkpt lat="48.99786" lon="0.23895">
        <ele>182</ele>
        <time>2018-09-23 10:25:23</time>
      </trkpt>
      <trkpt lat="48.99785" lon="0.2388">
        <ele>182</ele>
        <time>2018-09-23 10:25:25</time>
      </trkpt>
      <trkpt lat="48.99784" lon="0.23864">
        <ele>182</ele>
        <time>2018-09-23 10:25:27</time>
      </trkpt>
      <trkpt lat="48.99784" lon="0.23849">
        <ele>182</ele>
        <time>2018-09-23 10:25:29</time>
      </trkpt>
      <trkpt lat="48.99783" lon="0.23834">
        <ele>182</ele>
        <time>2018-09-23 10:25:31</time>
      </trkpt>
      <trkpt lat="48.99783" lon="0.23826">
        <ele>182</ele>
        <time>2018-09-23 10:25:32</time>
      </trkpt>
      <trkpt lat="48.99783" lon="0.2381">
        <ele>182</ele>
        <time>2018-09-23 10:25:34</time>
      </trkpt>
      <trkpt lat="48.99783" lon="0.23802">
        <ele>182</ele>
        <time>2018-09-23 10:25:35</time>
      </trkpt>
      <trkpt lat="48.99783" lon="0.23785">
        <ele>183</ele>
        <time>2018-09-23 10:25:37</time>
      </trkpt>
      <trkpt lat="48.99783" lon="0.23769">
        <ele>183</ele>
        <time>2018-09-23 10:25:39</time>
      </trkpt>
      <trkpt lat="48.99783" lon="0.23752">
        <ele>183</ele>
        <time>2018-09-23 10:25:41</time>
      </trkpt>
      <trkpt lat="48.99784" lon="0.23735">
        <ele>183</ele>
        <time>2018-09-23 10:25:43</time>
      </trkpt>
      <trkpt lat="48.99785" lon="0.23718">
        <ele>182</ele>
        <time>2018-09-23 10:25:45</time>
      </trkpt>
      <trkpt lat="48.99787" lon="0.23707">
        <ele>182</ele>
        <time>2018-09-23 10:25:47</time>
      </trkpt>
      <trkpt lat="48.99787" lon="0.23705">
        <ele>182</ele>
        <time>2018-09-23 10:25:49</time>
      </trkpt>
      <trkpt lat="48.99787" lon="0.23705">
        <ele>182</ele>
        <time>2018-09-23 10:25:50</time>
      </trkpt>
      <trkpt lat="48.99787" lon="0.23705">
        <ele>182</ele>
        <time>2018-09-23 10:25:52</time>
      </trkpt>
      <trkpt lat="48.99788" lon="0.23693">
        <ele>181</ele>
        <time>2018-09-23 10:25:55</time>
      </trkpt>
      <trkpt lat="48.9979" lon="0.23682">
        <ele>181</ele>
        <time>2018-09-23 10:25:57</time>
      </trkpt>
      <trkpt lat="48.99793" lon="0.23668">
        <ele>181</ele>
        <time>2018-09-23 10:25:59</time>
      </trkpt>
      <trkpt lat="48.99796" lon="0.23653">
        <ele>180</ele>
        <time>2018-09-23 10:26:01</time>
      </trkpt>
      <trkpt lat="48.998" lon="0.23639">
        <ele>180</ele>
        <time>2018-09-23 10:26:03</time>
      </trkpt>
      <trkpt lat="48.99804" lon="0.23622">
        <ele>180</ele>
        <time>2018-09-23 10:26:05</time>
      </trkpt>
      <trkpt lat="48.99806" lon="0.23606">
        <ele>179</ele>
        <time>2018-09-23 10:26:07</time>
      </trkpt>
      <trkpt lat="48.99807" lon="0.23589">
        <ele>179</ele>
        <time>2018-09-23 10:26:09</time>
      </trkpt>
      <trkpt lat="48.99809" lon="0.2357">
        <ele>179</ele>
        <time>2018-09-23 10:26:11</time>
      </trkpt>
      <trkpt lat="48.99812" lon="0.23552">
        <ele>178</ele>
        <time>2018-09-23 10:26:13</time>
      </trkpt>
      <trkpt lat="48.99815" lon="0.23533">
        <ele>178</ele>
        <time>2018-09-23 10:26:15</time>
      </trkpt>
      <trkpt lat="48.99819" lon="0.23515">
        <ele>177</ele>
        <time>2018-09-23 10:26:17</time>
      </trkpt>
      <trkpt lat="48.99822" lon="0.23501">
        <ele>177</ele>
        <time>2018-09-23 10:26:19</time>
      </trkpt>
      <trkpt lat="48.99824" lon="0.2349">
        <ele>176</ele>
        <time>2018-09-23 10:26:21</time>
      </trkpt>
      <trkpt lat="48.99825" lon="0.2348">
        <ele>175</ele>
        <time>2018-09-23 10:26:23</time>
      </trkpt>
      <trkpt lat="48.99827" lon="0.23471">
        <ele>175</ele>
        <time>2018-09-23 10:26:25</time>
      </trkpt>
      <trkpt lat="48.99829" lon="0.23462">
        <ele>174</ele>
        <time>2018-09-23 10:26:27</time>
      </trkpt>
      <trkpt lat="48.99831" lon="0.23453">
        <ele>173</ele>
        <time>2018-09-23 10:26:29</time>
      </trkpt>
      <trkpt lat="48.99834" lon="0.23443">
        <ele>171</ele>
        <time>2018-09-23 10:26:31</time>
      </trkpt>
      <trkpt lat="48.99837" lon="0.23434">
        <ele>170</ele>
        <time>2018-09-23 10:26:33</time>
      </trkpt>
      <trkpt lat="48.9984" lon="0.23425">
        <ele>169</ele>
        <time>2018-09-23 10:26:35</time>
      </trkpt>
      <trkpt lat="48.99842" lon="0.23418">
        <ele>168</ele>
        <time>2018-09-23 10:26:37</time>
      </trkpt>
      <trkpt lat="48.99844" lon="0.23413">
        <ele>168</ele>
        <time>2018-09-23 10:26:39</time>
      </trkpt>
      <trkpt lat="48.99845" lon="0.23407">
        <ele>167</ele>
        <time>2018-09-23 10:26:41</time>
      </trkpt>
      <trkpt lat="48.99847" lon="0.23401">
        <ele>166</ele>
        <time>2018-09-23 10:26:43</time>
      </trkpt>
      <trkpt lat="48.99849" lon="0.23395">
        <ele>166</ele>
        <time>2018-09-23 10:26:45</time>
      </trkpt>
      <trkpt lat="48.99851" lon="0.23389">
        <ele>166</ele>
        <time>2018-09-23 10:26:47</time>
      </trkpt>
      <trkpt lat="48.99854" lon="0.23385">
        <ele>166</ele>
        <time>2018-09-23 10:26:49</time>
      </trkpt>
      <trkpt lat="48.99858" lon="0.23379">
        <ele>165</ele>
        <time>2018-09-23 10:26:51</time>
      </trkpt>
      <trkpt lat="48.99861" lon="0.23373">
        <ele>164</ele>
        <time>2018-09-23 10:26:53</time>
      </trkpt>
      <trkpt lat="48.99865" lon="0.23367">
        <ele>163</ele>
        <time>2018-09-23 10:26:55</time>
      </trkpt>
      <trkpt lat="48.99869" lon="0.2336">
        <ele>162</ele>
        <time>2018-09-23 10:26:57</time>
      </trkpt>
      <trkpt lat="48.99872" lon="0.23355">
        <ele>161</ele>
        <time>2018-09-23 10:26:59</time>
      </trkpt>
      <trkpt lat="48.99875" lon="0.23351">
        <ele>159</ele>
        <time>2018-09-23 10:27:01</time>
      </trkpt>
      <trkpt lat="48.99879" lon="0.23345">
        <ele>158</ele>
        <time>2018-09-23 10:27:03</time>
      </trkpt>
      <trkpt lat="48.99884" lon="0.23339">
        <ele>156</ele>
        <time>2018-09-23 10:27:05</time>
      </trkpt>
      <trkpt lat="48.99889" lon="0.23333">
        <ele>156</ele>
        <time>2018-09-23 10:27:07</time>
      </trkpt>
      <trkpt lat="48.99896" lon="0.23325">
        <ele>155</ele>
        <time>2018-09-23 10:27:09</time>
      </trkpt>
      <trkpt lat="48.99902" lon="0.2332">
        <ele>155</ele>
        <time>2018-09-23 10:27:11</time>
      </trkpt>
      <trkpt lat="48.99907" lon="0.23316">
        <ele>153</ele>
        <time>2018-09-23 10:27:13</time>
      </trkpt>
      <trkpt lat="48.99913" lon="0.23311">
        <ele>151</ele>
        <time>2018-09-23 10:27:15</time>
      </trkpt>
      <trkpt lat="48.99918" lon="0.23306">
        <ele>151</ele>
        <time>2018-09-23 10:27:17</time>
      </trkpt>
      <trkpt lat="48.99922" lon="0.23301">
        <ele>150</ele>
        <time>2018-09-23 10:27:19</time>
      </trkpt>
      <trkpt lat="48.99925" lon="0.23298">
        <ele>149</ele>
        <time>2018-09-23 10:27:21</time>
      </trkpt>
      <trkpt lat="48.9993" lon="0.23293">
        <ele>148</ele>
        <time>2018-09-23 10:27:23</time>
      </trkpt>
      <trkpt lat="48.99936" lon="0.23286">
        <ele>148</ele>
        <time>2018-09-23 10:27:25</time>
      </trkpt>
      <trkpt lat="48.99942" lon="0.23282">
        <ele>147</ele>
        <time>2018-09-23 10:27:27</time>
      </trkpt>
      <trkpt lat="48.99947" lon="0.23279">
        <ele>146</ele>
        <time>2018-09-23 10:27:29</time>
      </trkpt>
      <trkpt lat="48.99953" lon="0.23275">
        <ele>147</ele>
        <time>2018-09-23 10:27:31</time>
      </trkpt>
      <trkpt lat="48.9996" lon="0.23271">
        <ele>147</ele>
        <time>2018-09-23 10:27:33</time>
      </trkpt>
      <trkpt lat="48.99965" lon="0.23267">
        <ele>148</ele>
        <time>2018-09-23 10:27:35</time>
      </trkpt>
      <trkpt lat="48.99969" lon="0.23263">
        <ele>148</ele>
        <time>2018-09-23 10:27:37</time>
      </trkpt>
      <trkpt lat="48.99973" lon="0.23259">
        <ele>149</ele>
        <time>2018-09-23 10:27:39</time>
      </trkpt>
      <trkpt lat="48.99978" lon="0.23253">
        <ele>150</ele>
        <time>2018-09-23 10:27:41</time>
      </trkpt>
      <trkpt lat="48.99983" lon="0.23248">
        <ele>150</ele>
        <time>2018-09-23 10:27:43</time>
      </trkpt>
      <trkpt lat="48.99988" lon="0.23242">
        <ele>152</ele>
        <time>2018-09-23 10:27:45</time>
      </trkpt>
      <trkpt lat="48.99993" lon="0.23235">
        <ele>153</ele>
        <time>2018-09-23 10:27:47</time>
      </trkpt>
      <trkpt lat="48.99996" lon="0.23229">
        <ele>154</ele>
        <time>2018-09-23 10:27:49</time>
      </trkpt>
      <trkpt lat="49" lon="0.23224">
        <ele>155</ele>
        <time>2018-09-23 10:27:51</time>
      </trkpt>
      <trkpt lat="49.00002" lon="0.23219">
        <ele>156</ele>
        <time>2018-09-23 10:27:53</time>
      </trkpt>
      <trkpt lat="49.00005" lon="0.23214">
        <ele>156</ele>
        <time>2018-09-23 10:27:55</time>
      </trkpt>
      <trkpt lat="49.00006" lon="0.23207">
        <ele>157</ele>
        <time>2018-09-23 10:27:57</time>
      </trkpt>
      <trkpt lat="49.00006" lon="0.23199">
        <ele>158</ele>
        <time>2018-09-23 10:27:59</time>
      </trkpt>
      <trkpt lat="49.00007" lon="0.23193">
        <ele>158</ele>
        <time>2018-09-23 10:28:01</time>
      </trkpt>
      <trkpt lat="49.00007" lon="0.2319">
        <ele>159</ele>
        <time>2018-09-23 10:28:02</time>
      </trkpt>
      <trkpt lat="49.00008" lon="0.23182">
        <ele>160</ele>
        <time>2018-09-23 10:28:04</time>
      </trkpt>
      <trkpt lat="49.00008" lon="0.23178">
        <ele>160</ele>
        <time>2018-09-23 10:28:05</time>
      </trkpt>
      <trkpt lat="49.00009" lon="0.23171">
        <ele>161</ele>
        <time>2018-09-23 10:28:07</time>
      </trkpt>
      <trkpt lat="49.00009" lon="0.23163">
        <ele>162</ele>
        <time>2018-09-23 10:28:09</time>
      </trkpt>
      <trkpt lat="49.00009" lon="0.23152">
        <ele>163</ele>
        <time>2018-09-23 10:28:11</time>
      </trkpt>
      <trkpt lat="49.0001" lon="0.23144">
        <ele>164</ele>
        <time>2018-09-23 10:28:13</time>
      </trkpt>
      <trkpt lat="49.0001" lon="0.23137">
        <ele>166</ele>
        <time>2018-09-23 10:28:15</time>
      </trkpt>
      <trkpt lat="49.00009" lon="0.2313">
        <ele>167</ele>
        <time>2018-09-23 10:28:17</time>
      </trkpt>
      <trkpt lat="49.00009" lon="0.23123">
        <ele>168</ele>
        <time>2018-09-23 10:28:19</time>
      </trkpt>
      <trkpt lat="49.00009" lon="0.23118">
        <ele>169</ele>
        <time>2018-09-23 10:28:21</time>
      </trkpt>
      <trkpt lat="49.00009" lon="0.23113">
        <ele>169</ele>
        <time>2018-09-23 10:28:23</time>
      </trkpt>
      <trkpt lat="49.00009" lon="0.23107">
        <ele>170</ele>
        <time>2018-09-23 10:28:25</time>
      </trkpt>
      <trkpt lat="49.00009" lon="0.23103">
        <ele>171</ele>
        <time>2018-09-23 10:28:27</time>
      </trkpt>
      <trkpt lat="49.00009" lon="0.231">
        <ele>171</ele>
        <time>2018-09-23 10:28:28</time>
      </trkpt>
      <trkpt lat="49.0001" lon="0.23097">
        <ele>172</ele>
        <time>2018-09-23 10:28:29</time>
      </trkpt>
      <trkpt lat="49.00011" lon="0.23091">
        <ele>173</ele>
        <time>2018-09-23 10:28:31</time>
      </trkpt>
      <trkpt lat="49.0001" lon="0.23084">
        <ele>174</ele>
        <time>2018-09-23 10:28:33</time>
      </trkpt>
      <trkpt lat="49.0001" lon="0.23076">
        <ele>175</ele>
        <time>2018-09-23 10:28:35</time>
      </trkpt>
      <trkpt lat="49.0001" lon="0.23069">
        <ele>176</ele>
        <time>2018-09-23 10:28:37</time>
      </trkpt>
      <trkpt lat="49.0001" lon="0.23062">
        <ele>178</ele>
        <time>2018-09-23 10:28:39</time>
      </trkpt>
      <trkpt lat="49.00011" lon="0.23052">
        <ele>178</ele>
        <time>2018-09-23 10:28:41</time>
      </trkpt>
      <trkpt lat="49.00012" lon="0.23043">
        <ele>179</ele>
        <time>2018-09-23 10:28:43</time>
      </trkpt>
      <trkpt lat="49.00013" lon="0.23033">
        <ele>180</ele>
        <time>2018-09-23 10:28:45</time>
      </trkpt>
      <trkpt lat="49.00013" lon="0.23024">
        <ele>182</ele>
        <time>2018-09-23 10:28:47</time>
      </trkpt>
      <trkpt lat="49.00014" lon="0.23016">
        <ele>183</ele>
        <time>2018-09-23 10:28:49</time>
      </trkpt>
      <trkpt lat="49.00014" lon="0.23006">
        <ele>184</ele>
        <time>2018-09-23 10:28:51</time>
      </trkpt>
      <trkpt lat="49.00014" lon="0.22998">
        <ele>184</ele>
        <time>2018-09-23 10:28:53</time>
      </trkpt>
      <trkpt lat="49.00015" lon="0.22991">
        <ele>184</ele>
        <time>2018-09-23 10:28:55</time>
      </trkpt>
      <trkpt lat="49.00014" lon="0.22983">
        <ele>184</ele>
        <time>2018-09-23 10:28:57</time>
      </trkpt>
      <trkpt lat="49.00014" lon="0.22978">
        <ele>184</ele>
        <time>2018-09-23 10:28:58</time>
      </trkpt>
      <trkpt lat="49.00014" lon="0.22974">
        <ele>185</ele>
        <time>2018-09-23 10:28:59</time>
      </trkpt>
      <trkpt lat="49.00014" lon="0.22965">
        <ele>185</ele>
        <time>2018-09-23 10:29:01</time>
      </trkpt>
      <trkpt lat="49.00014" lon="0.22956">
        <ele>185</ele>
        <time>2018-09-23 10:29:03</time>
      </trkpt>
      <trkpt lat="49.00014" lon="0.22948">
        <ele>185</ele>
        <time>2018-09-23 10:29:05</time>
      </trkpt>
      <trkpt lat="49.00015" lon="0.2294">
        <ele>185</ele>
        <time>2018-09-23 10:29:07</time>
      </trkpt>
      <trkpt lat="49.00015" lon="0.22932">
        <ele>185</ele>
        <time>2018-09-23 10:29:09</time>
      </trkpt>
      <trkpt lat="49.00016" lon="0.22924">
        <ele>185</ele>
        <time>2018-09-23 10:29:11</time>
      </trkpt>
      <trkpt lat="49.00016" lon="0.22913">
        <ele>185</ele>
        <time>2018-09-23 10:29:13</time>
      </trkpt>
      <trkpt lat="49.00017" lon="0.22903">
        <ele>185</ele>
        <time>2018-09-23 10:29:15</time>
      </trkpt>
      <trkpt lat="49.00017" lon="0.22891">
        <ele>185</ele>
        <time>2018-09-23 10:29:17</time>
      </trkpt>
      <trkpt lat="49.00017" lon="0.22881">
        <ele>185</ele>
        <time>2018-09-23 10:29:19</time>
      </trkpt>
      <trkpt lat="49.00017" lon="0.22869">
        <ele>184</ele>
        <time>2018-09-23 10:29:21</time>
      </trkpt>
      <trkpt lat="49.00018" lon="0.2286">
        <ele>183</ele>
        <time>2018-09-23 10:29:23</time>
      </trkpt>
      <trkpt lat="49.00019" lon="0.22851">
        <ele>183</ele>
        <time>2018-09-23 10:29:25</time>
      </trkpt>
      <trkpt lat="49.00019" lon="0.22846">
        <ele>183</ele>
        <time>2018-09-23 10:29:26</time>
      </trkpt>
      <trkpt lat="49.0002" lon="0.22837">
        <ele>184</ele>
        <time>2018-09-23 10:29:28</time>
      </trkpt>
      <trkpt lat="49.0002" lon="0.22832">
        <ele>184</ele>
        <time>2018-09-23 10:29:29</time>
      </trkpt>
      <trkpt lat="49.00021" lon="0.22822">
        <ele>185</ele>
        <time>2018-09-23 10:29:31</time>
      </trkpt>
      <trkpt lat="49.00021" lon="0.22812">
        <ele>185</ele>
        <time>2018-09-23 10:29:33</time>
      </trkpt>
      <trkpt lat="49.00021" lon="0.22801">
        <ele>185</ele>
        <time>2018-09-23 10:29:35</time>
      </trkpt>
      <trkpt lat="49.00021" lon="0.22789">
        <ele>186</ele>
        <time>2018-09-23 10:29:37</time>
      </trkpt>
      <trkpt lat="49.00021" lon="0.22779">
        <ele>186</ele>
        <time>2018-09-23 10:29:39</time>
      </trkpt>
      <trkpt lat="49.00021" lon="0.22769">
        <ele>186</ele>
        <time>2018-09-23 10:29:41</time>
      </trkpt>
      <trkpt lat="49.00021" lon="0.22758">
        <ele>186</ele>
        <time>2018-09-23 10:29:43</time>
      </trkpt>
      <trkpt lat="49.00021" lon="0.22752">
        <ele>186</ele>
        <time>2018-09-23 10:29:44</time>
      </trkpt>
      <trkpt lat="49.00021" lon="0.22741">
        <ele>186</ele>
        <time>2018-09-23 10:29:46</time>
      </trkpt>
      <trkpt lat="49.00021" lon="0.22736">
        <ele>185</ele>
        <time>2018-09-23 10:29:47</time>
      </trkpt>
      <trkpt lat="49.00021" lon="0.22725">
        <ele>185</ele>
        <time>2018-09-23 10:29:49</time>
      </trkpt>
      <trkpt lat="49.00021" lon="0.22715">
        <ele>185</ele>
        <time>2018-09-23 10:29:51</time>
      </trkpt>
      <trkpt lat="49.0002" lon="0.22705">
        <ele>184</ele>
        <time>2018-09-23 10:29:53</time>
      </trkpt>
      <trkpt lat="49.0002" lon="0.22695">
        <ele>184</ele>
        <time>2018-09-23 10:29:55</time>
      </trkpt>
      <trkpt lat="49.00019" lon="0.22685">
        <ele>185</ele>
        <time>2018-09-23 10:29:57</time>
      </trkpt>
      <trkpt lat="49.00018" lon="0.22674">
        <ele>184</ele>
        <time>2018-09-23 10:29:59</time>
      </trkpt>
      <trkpt lat="49.00017" lon="0.22663">
        <ele>184</ele>
        <time>2018-09-23 10:30:01</time>
      </trkpt>
      <trkpt lat="49.00015" lon="0.22652">
        <ele>183</ele>
        <time>2018-09-23 10:30:03</time>
      </trkpt>
      <trkpt lat="49.00015" lon="0.22647">
        <ele>183</ele>
        <time>2018-09-23 10:30:04</time>
      </trkpt>
      <trkpt lat="49.00014" lon="0.22642">
        <ele>183</ele>
        <time>2018-09-23 10:30:05</time>
      </trkpt>
      <trkpt lat="49.00012" lon="0.22631">
        <ele>184</ele>
        <time>2018-09-23 10:30:07</time>
      </trkpt>
      <trkpt lat="49.00012" lon="0.22625">
        <ele>184</ele>
        <time>2018-09-23 10:30:08</time>
      </trkpt>
      <trkpt lat="49.0001" lon="0.22615">
        <ele>184</ele>
        <time>2018-09-23 10:30:10</time>
      </trkpt>
      <trkpt lat="49.00009" lon="0.2261">
        <ele>184</ele>
        <time>2018-09-23 10:30:11</time>
      </trkpt>
      <trkpt lat="49.00008" lon="0.226">
        <ele>183</ele>
        <time>2018-09-23 10:30:13</time>
      </trkpt>
      <trkpt lat="49.00005" lon="0.22588">
        <ele>184</ele>
        <time>2018-09-23 10:30:15</time>
      </trkpt>
      <trkpt lat="49.00003" lon="0.22577">
        <ele>184</ele>
        <time>2018-09-23 10:30:17</time>
      </trkpt>
      <trkpt lat="49.00001" lon="0.22569">
        <ele>184</ele>
        <time>2018-09-23 10:30:19</time>
      </trkpt>
      <trkpt lat="49" lon="0.22562">
        <ele>184</ele>
        <time>2018-09-23 10:30:21</time>
      </trkpt>
      <trkpt lat="48.99997" lon="0.22552">
        <ele>184</ele>
        <time>2018-09-23 10:30:23</time>
      </trkpt>
      <trkpt lat="48.99994" lon="0.22543">
        <ele>185</ele>
        <time>2018-09-23 10:30:25</time>
      </trkpt>
      <trkpt lat="48.99991" lon="0.22534">
        <ele>185</ele>
        <time>2018-09-23 10:30:27</time>
      </trkpt>
      <trkpt lat="48.99988" lon="0.22526">
        <ele>186</ele>
        <time>2018-09-23 10:30:29</time>
      </trkpt>
      <trkpt lat="48.99985" lon="0.22518">
        <ele>186</ele>
        <time>2018-09-23 10:30:31</time>
      </trkpt>
      <trkpt lat="48.99983" lon="0.22508">
        <ele>186</ele>
        <time>2018-09-23 10:30:33</time>
      </trkpt>
      <trkpt lat="48.9998" lon="0.225">
        <ele>187</ele>
        <time>2018-09-23 10:30:35</time>
      </trkpt>
      <trkpt lat="48.99976" lon="0.2249">
        <ele>187</ele>
        <time>2018-09-23 10:30:37</time>
      </trkpt>
      <trkpt lat="48.99973" lon="0.22481">
        <ele>187</ele>
        <time>2018-09-23 10:30:39</time>
      </trkpt>
      <trkpt lat="48.99971" lon="0.22476">
        <ele>186</ele>
        <time>2018-09-23 10:30:40</time>
      </trkpt>
      <trkpt lat="48.99969" lon="0.22472">
        <ele>185</ele>
        <time>2018-09-23 10:30:41</time>
      </trkpt>
      <trkpt lat="48.99965" lon="0.22463">
        <ele>185</ele>
        <time>2018-09-23 10:30:43</time>
      </trkpt>
      <trkpt lat="48.9996" lon="0.22456">
        <ele>185</ele>
        <time>2018-09-23 10:30:45</time>
      </trkpt>
      <trkpt lat="48.99955" lon="0.22449">
        <ele>185</ele>
        <time>2018-09-23 10:30:47</time>
      </trkpt>
      <trkpt lat="48.9995" lon="0.2244">
        <ele>186</ele>
        <time>2018-09-23 10:30:49</time>
      </trkpt>
      <trkpt lat="48.99947" lon="0.22431">
        <ele>185</ele>
        <time>2018-09-23 10:30:51</time>
      </trkpt>
      <trkpt lat="48.99944" lon="0.2242">
        <ele>185</ele>
        <time>2018-09-23 10:30:53</time>
      </trkpt>
      <trkpt lat="48.99942" lon="0.2241">
        <ele>185</ele>
        <time>2018-09-23 10:30:55</time>
      </trkpt>
      <trkpt lat="48.9994" lon="0.22399">
        <ele>185</ele>
        <time>2018-09-23 10:30:57</time>
      </trkpt>
      <trkpt lat="48.99938" lon="0.22388">
        <ele>186</ele>
        <time>2018-09-23 10:30:59</time>
      </trkpt>
      <trkpt lat="48.99936" lon="0.22377">
        <ele>186</ele>
        <time>2018-09-23 10:31:01</time>
      </trkpt>
      <trkpt lat="48.99933" lon="0.22369">
        <ele>185</ele>
        <time>2018-09-23 10:31:03</time>
      </trkpt>
      <trkpt lat="48.99931" lon="0.22367">
        <ele>186</ele>
        <time>2018-09-23 10:31:04</time>
      </trkpt>
      <trkpt lat="48.99928" lon="0.22366">
        <ele>186</ele>
        <time>2018-09-23 10:31:05</time>
      </trkpt>
      <trkpt lat="48.99923" lon="0.22366">
        <ele>186</ele>
        <time>2018-09-23 10:31:07</time>
      </trkpt>
      <trkpt lat="48.99917" lon="0.22366">
        <ele>186</ele>
        <time>2018-09-23 10:31:09</time>
      </trkpt>
      <trkpt lat="48.99911" lon="0.22368">
        <ele>186</ele>
        <time>2018-09-23 10:31:11</time>
      </trkpt>
      <trkpt lat="48.99905" lon="0.22369">
        <ele>186</ele>
        <time>2018-09-23 10:31:13</time>
      </trkpt>
      <trkpt lat="48.99898" lon="0.22371">
        <ele>187</ele>
        <time>2018-09-23 10:31:15</time>
      </trkpt>
      <trkpt lat="48.9989" lon="0.22371">
        <ele>187</ele>
        <time>2018-09-23 10:31:17</time>
      </trkpt>
      <trkpt lat="48.99883" lon="0.22372">
        <ele>187</ele>
        <time>2018-09-23 10:31:19</time>
      </trkpt>
      <trkpt lat="48.99877" lon="0.22373">
        <ele>187</ele>
        <time>2018-09-23 10:31:21</time>
      </trkpt>
      <trkpt lat="48.9987" lon="0.22375">
        <ele>187</ele>
        <time>2018-09-23 10:31:23</time>
      </trkpt>
      <trkpt lat="48.99862" lon="0.22376">
        <ele>186</ele>
        <time>2018-09-23 10:31:25</time>
      </trkpt>
      <trkpt lat="48.99858" lon="0.22377">
        <ele>186</ele>
        <time>2018-09-23 10:31:26</time>
      </trkpt>
      <trkpt lat="48.99853" lon="0.22378">
        <ele>185</ele>
        <time>2018-09-23 10:31:28</time>
      </trkpt>
      <trkpt lat="48.99849" lon="0.22378">
        <ele>185</ele>
        <time>2018-09-23 10:31:30</time>
      </trkpt>
      <trkpt lat="48.99845" lon="0.22377">
        <ele>186</ele>
        <time>2018-09-23 10:31:32</time>
      </trkpt>
      <trkpt lat="48.99844" lon="0.22372">
        <ele>185</ele>
        <time>2018-09-23 10:31:34</time>
      </trkpt>
      <trkpt lat="48.99843" lon="0.22368">
        <ele>185</ele>
        <time>2018-09-23 10:31:35</time>
      </trkpt>
      <trkpt lat="48.99843" lon="0.22356">
        <ele>185</ele>
        <time>2018-09-23 10:31:37</time>
      </trkpt>
      <trkpt lat="48.99841" lon="0.22344">
        <ele>184</ele>
        <time>2018-09-23 10:31:39</time>
      </trkpt>
      <trkpt lat="48.9984" lon="0.22331">
        <ele>183</ele>
        <time>2018-09-23 10:31:41</time>
      </trkpt>
      <trkpt lat="48.9984" lon="0.22318">
        <ele>182</ele>
        <time>2018-09-23 10:31:43</time>
      </trkpt>
      <trkpt lat="48.9984" lon="0.22311">
        <ele>182</ele>
        <time>2018-09-23 10:31:44</time>
      </trkpt>
      <trkpt lat="48.99839" lon="0.22304">
        <ele>181</ele>
        <time>2018-09-23 10:31:45</time>
      </trkpt>
      <trkpt lat="48.99839" lon="0.22288">
        <ele>180</ele>
        <time>2018-09-23 10:31:47</time>
      </trkpt>
      <trkpt lat="48.99838" lon="0.2227">
        <ele>180</ele>
        <time>2018-09-23 10:31:49</time>
      </trkpt>
      <trkpt lat="48.99837" lon="0.22251">
        <ele>180</ele>
        <time>2018-09-23 10:31:51</time>
      </trkpt>
      <trkpt lat="48.99834" lon="0.22233">
        <ele>180</ele>
        <time>2018-09-23 10:31:53</time>
      </trkpt>
      <trkpt lat="48.99831" lon="0.22216">
        <ele>181</ele>
        <time>2018-09-23 10:31:55</time>
      </trkpt>
      <trkpt lat="48.99829" lon="0.22198">
        <ele>180</ele>
        <time>2018-09-23 10:31:57</time>
      </trkpt>
      <trkpt lat="48.99827" lon="0.2218">
        <ele>180</ele>
        <time>2018-09-23 10:31:59</time>
      </trkpt>
      <trkpt lat="48.99824" lon="0.22161">
        <ele>180</ele>
        <time>2018-09-23 10:32:01</time>
      </trkpt>
      <trkpt lat="48.99822" lon="0.22143">
        <ele>181</ele>
        <time>2018-09-23 10:32:03</time>
      </trkpt>
      <trkpt lat="48.99819" lon="0.22124">
        <ele>182</ele>
        <time>2018-09-23 10:32:05</time>
      </trkpt>
      <trkpt lat="48.99816" lon="0.22106">
        <ele>183</ele>
        <time>2018-09-23 10:32:07</time>
      </trkpt>
      <trkpt lat="48.99814" lon="0.22088">
        <ele>183</ele>
        <time>2018-09-23 10:32:09</time>
      </trkpt>
      <trkpt lat="48.99812" lon="0.22069">
        <ele>183</ele>
        <time>2018-09-23 10:32:11</time>
      </trkpt>
      <trkpt lat="48.99811" lon="0.2205">
        <ele>183</ele>
        <time>2018-09-23 10:32:13</time>
      </trkpt>
      <trkpt lat="48.9981" lon="0.22031">
        <ele>184</ele>
        <time>2018-09-23 10:32:15</time>
      </trkpt>
      <trkpt lat="48.99808" lon="0.22013">
        <ele>183</ele>
        <time>2018-09-23 10:32:17</time>
      </trkpt>
      <trkpt lat="48.99808" lon="0.21996">
        <ele>183</ele>
        <time>2018-09-23 10:32:19</time>
      </trkpt>
      <trkpt lat="48.99808" lon="0.21981">
        <ele>183</ele>
        <time>2018-09-23 10:32:21</time>
      </trkpt>
      <trkpt lat="48.99806" lon="0.21974">
        <ele>184</ele>
        <time>2018-09-23 10:32:23</time>
      </trkpt>
      <trkpt lat="48.99807" lon="0.21968">
        <ele>185</ele>
        <time>2018-09-23 10:32:25</time>
      </trkpt>
      <trkpt lat="48.99807" lon="0.21959">
        <ele>186</ele>
        <time>2018-09-23 10:32:27</time>
      </trkpt>
      <trkpt lat="48.99808" lon="0.21948">
        <ele>186</ele>
        <time>2018-09-23 10:32:29</time>
      </trkpt>
      <trkpt lat="48.9981" lon="0.21934">
        <ele>185</ele>
        <time>2018-09-23 10:32:31</time>
      </trkpt>
      <trkpt lat="48.99813" lon="0.21919">
        <ele>185</ele>
        <time>2018-09-23 10:32:33</time>
      </trkpt>
      <trkpt lat="48.99817" lon="0.21903">
        <ele>184</ele>
        <time>2018-09-23 10:32:35</time>
      </trkpt>
      <trkpt lat="48.99819" lon="0.21887">
        <ele>184</ele>
        <time>2018-09-23 10:32:37</time>
      </trkpt>
      <trkpt lat="48.99819" lon="0.21871">
        <ele>183</ele>
        <time>2018-09-23 10:32:39</time>
      </trkpt>
      <trkpt lat="48.99819" lon="0.21858">
        <ele>182</ele>
        <time>2018-09-23 10:32:41</time>
      </trkpt>
      <trkpt lat="48.99819" lon="0.21846">
        <ele>183</ele>
        <time>2018-09-23 10:32:43</time>
      </trkpt>
      <trkpt lat="48.99818" lon="0.21834">
        <ele>183</ele>
        <time>2018-09-23 10:32:45</time>
      </trkpt>
      <trkpt lat="48.99815" lon="0.21823">
        <ele>182</ele>
        <time>2018-09-23 10:32:47</time>
      </trkpt>
      <trkpt lat="48.99812" lon="0.21811">
        <ele>183</ele>
        <time>2018-09-23 10:32:49</time>
      </trkpt>
      <trkpt lat="48.99806" lon="0.218">
        <ele>182</ele>
        <time>2018-09-23 10:32:51</time>
      </trkpt>
      <trkpt lat="48.99801" lon="0.21789">
        <ele>182</ele>
        <time>2018-09-23 10:32:53</time>
      </trkpt>
      <trkpt lat="48.99795" lon="0.21778">
        <ele>182</ele>
        <time>2018-09-23 10:32:55</time>
      </trkpt>
      <trkpt lat="48.9979" lon="0.21767">
        <ele>182</ele>
        <time>2018-09-23 10:32:57</time>
      </trkpt>
      <trkpt lat="48.99785" lon="0.21756">
        <ele>181</ele>
        <time>2018-09-23 10:32:59</time>
      </trkpt>
      <trkpt lat="48.99781" lon="0.21746">
        <ele>182</ele>
        <time>2018-09-23 10:33:01</time>
      </trkpt>
      <trkpt lat="48.99778" lon="0.21737">
        <ele>181</ele>
        <time>2018-09-23 10:33:03</time>
      </trkpt>
      <trkpt lat="48.99774" lon="0.21727">
        <ele>181</ele>
        <time>2018-09-23 10:33:05</time>
      </trkpt>
      <trkpt lat="48.9977" lon="0.21718">
        <ele>181</ele>
        <time>2018-09-23 10:33:07</time>
      </trkpt>
      <trkpt lat="48.99767" lon="0.21708">
        <ele>181</ele>
        <time>2018-09-23 10:33:09</time>
      </trkpt>
      <trkpt lat="48.99763" lon="0.21698">
        <ele>180</ele>
        <time>2018-09-23 10:33:11</time>
      </trkpt>
      <trkpt lat="48.99759" lon="0.21688">
        <ele>180</ele>
        <time>2018-09-23 10:33:13</time>
      </trkpt>
      <trkpt lat="48.99755" lon="0.21678">
        <ele>180</ele>
        <time>2018-09-23 10:33:15</time>
      </trkpt>
      <trkpt lat="48.99752" lon="0.21667">
        <ele>180</ele>
        <time>2018-09-23 10:33:17</time>
      </trkpt>
      <trkpt lat="48.99748" lon="0.21655">
        <ele>180</ele>
        <time>2018-09-23 10:33:19</time>
      </trkpt>
      <trkpt lat="48.99745" lon="0.21643">
        <ele>180</ele>
        <time>2018-09-23 10:33:21</time>
      </trkpt>
      <trkpt lat="48.9974" lon="0.21631">
        <ele>180</ele>
        <time>2018-09-23 10:33:23</time>
      </trkpt>
      <trkpt lat="48.99737" lon="0.2162">
        <ele>180</ele>
        <time>2018-09-23 10:33:25</time>
      </trkpt>
      <trkpt lat="48.99734" lon="0.21609">
        <ele>180</ele>
        <time>2018-09-23 10:33:27</time>
      </trkpt>
      <trkpt lat="48.9973" lon="0.21598">
        <ele>180</ele>
        <time>2018-09-23 10:33:29</time>
      </trkpt>
      <trkpt lat="48.99728" lon="0.21586">
        <ele>180</ele>
        <time>2018-09-23 10:33:31</time>
      </trkpt>
      <trkpt lat="48.99726" lon="0.21575">
        <ele>180</ele>
        <time>2018-09-23 10:33:33</time>
      </trkpt>
      <trkpt lat="48.99725" lon="0.21562">
        <ele>180</ele>
        <time>2018-09-23 10:33:35</time>
      </trkpt>
      <trkpt lat="48.99724" lon="0.21548">
        <ele>180</ele>
        <time>2018-09-23 10:33:37</time>
      </trkpt>
      <trkpt lat="48.99723" lon="0.21535">
        <ele>180</ele>
        <time>2018-09-23 10:33:39</time>
      </trkpt>
      <trkpt lat="48.99722" lon="0.21523">
        <ele>181</ele>
        <time>2018-09-23 10:33:41</time>
      </trkpt>
      <trkpt lat="48.99722" lon="0.2151">
        <ele>182</ele>
        <time>2018-09-23 10:33:43</time>
      </trkpt>
      <trkpt lat="48.99722" lon="0.21497">
        <ele>183</ele>
        <time>2018-09-23 10:33:45</time>
      </trkpt>
      <trkpt lat="48.99723" lon="0.21491">
        <ele>183</ele>
        <time>2018-09-23 10:33:46</time>
      </trkpt>
      <trkpt lat="48.99724" lon="0.2148">
        <ele>183</ele>
        <time>2018-09-23 10:33:48</time>
      </trkpt>
      <trkpt lat="48.99724" lon="0.21475">
        <ele>183</ele>
        <time>2018-09-23 10:33:49</time>
      </trkpt>
      <trkpt lat="48.99726" lon="0.21464">
        <ele>184</ele>
        <time>2018-09-23 10:33:51</time>
      </trkpt>
      <trkpt lat="48.99726" lon="0.21451">
        <ele>184</ele>
        <time>2018-09-23 10:33:53</time>
      </trkpt>
      <trkpt lat="48.99727" lon="0.21438">
        <ele>185</ele>
        <time>2018-09-23 10:33:55</time>
      </trkpt>
      <trkpt lat="48.99727" lon="0.21426">
        <ele>185</ele>
        <time>2018-09-23 10:33:57</time>
      </trkpt>
      <trkpt lat="48.99728" lon="0.21414">
        <ele>185</ele>
        <time>2018-09-23 10:33:59</time>
      </trkpt>
      <trkpt lat="48.99729" lon="0.21401">
        <ele>186</ele>
        <time>2018-09-23 10:34:01</time>
      </trkpt>
      <trkpt lat="48.9973" lon="0.21388">
        <ele>185</ele>
        <time>2018-09-23 10:34:03</time>
      </trkpt>
      <trkpt lat="48.99732" lon="0.21376">
        <ele>185</ele>
        <time>2018-09-23 10:34:05</time>
      </trkpt>
      <trkpt lat="48.99734" lon="0.21364">
        <ele>185</ele>
        <time>2018-09-23 10:34:07</time>
      </trkpt>
      <trkpt lat="48.99736" lon="0.21351">
        <ele>186</ele>
        <time>2018-09-23 10:34:09</time>
      </trkpt>
      <trkpt lat="48.99738" lon="0.2134">
        <ele>186</ele>
        <time>2018-09-23 10:34:11</time>
      </trkpt>
      <trkpt lat="48.99741" lon="0.21329">
        <ele>187</ele>
        <time>2018-09-23 10:34:13</time>
      </trkpt>
      <trkpt lat="48.99744" lon="0.21319">
        <ele>187</ele>
        <time>2018-09-23 10:34:15</time>
      </trkpt>
      <trkpt lat="48.99748" lon="0.21308">
        <ele>187</ele>
        <time>2018-09-23 10:34:17</time>
      </trkpt>
      <trkpt lat="48.99752" lon="0.21296">
        <ele>187</ele>
        <time>2018-09-23 10:34:19</time>
      </trkpt>
      <trkpt lat="48.99756" lon="0.21284">
        <ele>187</ele>
        <time>2018-09-23 10:34:21</time>
      </trkpt>
      <trkpt lat="48.99761" lon="0.21271">
        <ele>187</ele>
        <time>2018-09-23 10:34:23</time>
      </trkpt>
      <trkpt lat="48.99763" lon="0.21258">
        <ele>187</ele>
        <time>2018-09-23 10:34:25</time>
      </trkpt>
      <trkpt lat="48.99766" lon="0.21244">
        <ele>187</ele>
        <time>2018-09-23 10:34:27</time>
      </trkpt>
      <trkpt lat="48.99769" lon="0.21231">
        <ele>187</ele>
        <time>2018-09-23 10:34:29</time>
      </trkpt>
      <trkpt lat="48.99771" lon="0.21218">
        <ele>187</ele>
        <time>2018-09-23 10:34:31</time>
      </trkpt>
      <trkpt lat="48.99773" lon="0.21205">
        <ele>187</ele>
        <time>2018-09-23 10:34:33</time>
      </trkpt>
      <trkpt lat="48.99775" lon="0.21191">
        <ele>186</ele>
        <time>2018-09-23 10:34:35</time>
      </trkpt>
      <trkpt lat="48.99776" lon="0.21177">
        <ele>187</ele>
        <time>2018-09-23 10:34:37</time>
      </trkpt>
      <trkpt lat="48.99778" lon="0.21163">
        <ele>187</ele>
        <time>2018-09-23 10:34:39</time>
      </trkpt>
      <trkpt lat="48.9978" lon="0.21149">
        <ele>187</ele>
        <time>2018-09-23 10:34:41</time>
      </trkpt>
      <trkpt lat="48.99782" lon="0.21136">
        <ele>187</ele>
        <time>2018-09-23 10:34:43</time>
      </trkpt>
      <trkpt lat="48.99784" lon="0.21129">
        <ele>187</ele>
        <time>2018-09-23 10:34:44</time>
      </trkpt>
      <trkpt lat="48.99786" lon="0.21116">
        <ele>187</ele>
        <time>2018-09-23 10:34:46</time>
      </trkpt>
      <trkpt lat="48.99788" lon="0.21109">
        <ele>187</ele>
        <time>2018-09-23 10:34:47</time>
      </trkpt>
      <trkpt lat="48.9979" lon="0.21096">
        <ele>187</ele>
        <time>2018-09-23 10:34:49</time>
      </trkpt>
      <trkpt lat="48.99793" lon="0.21083">
        <ele>187</ele>
        <time>2018-09-23 10:34:51</time>
      </trkpt>
      <trkpt lat="48.99795" lon="0.21071">
        <ele>187</ele>
        <time>2018-09-23 10:34:53</time>
      </trkpt>
      <trkpt lat="48.99798" lon="0.21061">
        <ele>186</ele>
        <time>2018-09-23 10:34:55</time>
      </trkpt>
      <trkpt lat="48.99797" lon="0.21053">
        <ele>186</ele>
        <time>2018-09-23 10:34:57</time>
      </trkpt>
      <trkpt lat="48.99794" lon="0.21046">
        <ele>186</ele>
        <time>2018-09-23 10:34:59</time>
      </trkpt>
      <trkpt lat="48.99791" lon="0.21041">
        <ele>185</ele>
        <time>2018-09-23 10:35:01</time>
      </trkpt>
      <trkpt lat="48.99787" lon="0.21034">
        <ele>185</ele>
        <time>2018-09-23 10:35:03</time>
      </trkpt>
      <trkpt lat="48.99785" lon="0.21031">
        <ele>185</ele>
        <time>2018-09-23 10:35:04</time>
      </trkpt>
      <trkpt lat="48.99783" lon="0.21027">
        <ele>185</ele>
        <time>2018-09-23 10:35:05</time>
      </trkpt>
      <trkpt lat="48.99778" lon="0.2102">
        <ele>186</ele>
        <time>2018-09-23 10:35:07</time>
      </trkpt>
      <trkpt lat="48.99773" lon="0.21014">
        <ele>186</ele>
        <time>2018-09-23 10:35:09</time>
      </trkpt>
      <trkpt lat="48.99768" lon="0.21008">
        <ele>186</ele>
        <time>2018-09-23 10:35:11</time>
      </trkpt>
      <trkpt lat="48.99763" lon="0.21001">
        <ele>187</ele>
        <time>2018-09-23 10:35:13</time>
      </trkpt>
      <trkpt lat="48.99758" lon="0.20994">
        <ele>187</ele>
        <time>2018-09-23 10:35:15</time>
      </trkpt>
      <trkpt lat="48.99755" lon="0.20991">
        <ele>187</ele>
        <time>2018-09-23 10:35:16</time>
      </trkpt>
      <trkpt lat="48.99752" lon="0.20988">
        <ele>187</ele>
        <time>2018-09-23 10:35:17</time>
      </trkpt>
      <trkpt lat="48.99747" lon="0.20981">
        <ele>188</ele>
        <time>2018-09-23 10:35:19</time>
      </trkpt>
      <trkpt lat="48.9974" lon="0.20975">
        <ele>187</ele>
        <time>2018-09-23 10:35:21</time>
      </trkpt>
      <trkpt lat="48.99733" lon="0.20968">
        <ele>187</ele>
        <time>2018-09-23 10:35:23</time>
      </trkpt>
      <trkpt lat="48.99726" lon="0.20959">
        <ele>187</ele>
        <time>2018-09-23 10:35:25</time>
      </trkpt>
      <trkpt lat="48.99718" lon="0.20949">
        <ele>186</ele>
        <time>2018-09-23 10:35:27</time>
      </trkpt>
      <trkpt lat="48.99711" lon="0.20941">
        <ele>186</ele>
        <time>2018-09-23 10:35:29</time>
      </trkpt>
      <trkpt lat="48.99704" lon="0.20933">
        <ele>185</ele>
        <time>2018-09-23 10:35:31</time>
      </trkpt>
      <trkpt lat="48.99697" lon="0.20926">
        <ele>185</ele>
        <time>2018-09-23 10:35:33</time>
      </trkpt>
      <trkpt lat="48.9969" lon="0.2092">
        <ele>185</ele>
        <time>2018-09-23 10:35:35</time>
      </trkpt>
      <trkpt lat="48.99685" lon="0.20913">
        <ele>185</ele>
        <time>2018-09-23 10:35:37</time>
      </trkpt>
      <trkpt lat="48.9968" lon="0.20908">
        <ele>185</ele>
        <time>2018-09-23 10:35:39</time>
      </trkpt>
      <trkpt lat="48.99676" lon="0.20903">
        <ele>185</ele>
        <time>2018-09-23 10:35:41</time>
      </trkpt>
      <trkpt lat="48.99672" lon="0.209">
        <ele>185</ele>
        <time>2018-09-23 10:35:43</time>
      </trkpt>
      <trkpt lat="48.99668" lon="0.20899">
        <ele>186</ele>
        <time>2018-09-23 10:35:45</time>
      </trkpt>
      <trkpt lat="48.99667" lon="0.20899">
        <ele>185</ele>
        <time>2018-09-23 10:35:46</time>
      </trkpt>
      <trkpt lat="48.99667" lon="0.20898">
        <ele>185</ele>
        <time>2018-09-23 10:35:47</time>
      </trkpt>
      <trkpt lat="48.99666" lon="0.20898">
        <ele>185</ele>
        <time>2018-09-23 10:35:49</time>
      </trkpt>
      <trkpt lat="48.99659" lon="0.20891">
        <ele>184</ele>
        <time>2018-09-23 10:35:51</time>
      </trkpt>
      <trkpt lat="48.99656" lon="0.20883">
        <ele>183</ele>
        <time>2018-09-23 10:35:53</time>
      </trkpt>
      <trkpt lat="48.99656" lon="0.20873">
        <ele>184</ele>
        <time>2018-09-23 10:35:55</time>
      </trkpt>
      <trkpt lat="48.99656" lon="0.20867">
        <ele>184</ele>
        <time>2018-09-23 10:35:56</time>
      </trkpt>
      <trkpt lat="48.99657" lon="0.20856">
        <ele>184</ele>
        <time>2018-09-23 10:35:58</time>
      </trkpt>
      <trkpt lat="48.99658" lon="0.20851">
        <ele>184</ele>
        <time>2018-09-23 10:35:59</time>
      </trkpt>
      <trkpt lat="48.99659" lon="0.2084">
        <ele>184</ele>
        <time>2018-09-23 10:36:01</time>
      </trkpt>
      <trkpt lat="48.99659" lon="0.20829">
        <ele>184</ele>
        <time>2018-09-23 10:36:03</time>
      </trkpt>
      <trkpt lat="48.99659" lon="0.20817">
        <ele>184</ele>
        <time>2018-09-23 10:36:05</time>
      </trkpt>
      <trkpt lat="48.9966" lon="0.20805">
        <ele>184</ele>
        <time>2018-09-23 10:36:07</time>
      </trkpt>
      <trkpt lat="48.9966" lon="0.20793">
        <ele>185</ele>
        <time>2018-09-23 10:36:09</time>
      </trkpt>
      <trkpt lat="48.99659" lon="0.20782">
        <ele>185</ele>
        <time>2018-09-23 10:36:11</time>
      </trkpt>
      <trkpt lat="48.99658" lon="0.2077">
        <ele>185</ele>
        <time>2018-09-23 10:36:13</time>
      </trkpt>
      <trkpt lat="48.99658" lon="0.20764">
        <ele>185</ele>
        <time>2018-09-23 10:36:14</time>
      </trkpt>
      <trkpt lat="48.99658" lon="0.20753">
        <ele>185</ele>
        <time>2018-09-23 10:36:16</time>
      </trkpt>
      <trkpt lat="48.99657" lon="0.20748">
        <ele>185</ele>
        <time>2018-09-23 10:36:17</time>
      </trkpt>
      <trkpt lat="48.99655" lon="0.20738">
        <ele>185</ele>
        <time>2018-09-23 10:36:19</time>
      </trkpt>
      <trkpt lat="48.99655" lon="0.20727">
        <ele>185</ele>
        <time>2018-09-23 10:36:21</time>
      </trkpt>
      <trkpt lat="48.99654" lon="0.20721">
        <ele>184</ele>
        <time>2018-09-23 10:36:22</time>
      </trkpt>
      <trkpt lat="48.99653" lon="0.20715">
        <ele>184</ele>
        <time>2018-09-23 10:36:23</time>
      </trkpt>
      <trkpt lat="48.9965" lon="0.20704">
        <ele>183</ele>
        <time>2018-09-23 10:36:25</time>
      </trkpt>
      <trkpt lat="48.99646" lon="0.20693">
        <ele>183</ele>
        <time>2018-09-23 10:36:27</time>
      </trkpt>
      <trkpt lat="48.99642" lon="0.20683">
        <ele>183</ele>
        <time>2018-09-23 10:36:29</time>
      </trkpt>
      <trkpt lat="48.99639" lon="0.20672">
        <ele>182</ele>
        <time>2018-09-23 10:36:31</time>
      </trkpt>
      <trkpt lat="48.99637" lon="0.20668">
        <ele>182</ele>
        <time>2018-09-23 10:36:32</time>
      </trkpt>
      <trkpt lat="48.99633" lon="0.20659">
        <ele>182</ele>
        <time>2018-09-23 10:36:34</time>
      </trkpt>
      <trkpt lat="48.99629" lon="0.2065">
        <ele>182</ele>
        <time>2018-09-23 10:36:36</time>
      </trkpt>
      <trkpt lat="48.99624" lon="0.20641">
        <ele>183</ele>
        <time>2018-09-23 10:36:38</time>
      </trkpt>
      <trkpt lat="48.99622" lon="0.20636">
        <ele>183</ele>
        <time>2018-09-23 10:36:39</time>
      </trkpt>
      <trkpt lat="48.99618" lon="0.20627">
        <ele>183</ele>
        <time>2018-09-23 10:36:41</time>
      </trkpt>
      <trkpt lat="48.99613" lon="0.20618">
        <ele>183</ele>
        <time>2018-09-23 10:36:43</time>
      </trkpt>
      <trkpt lat="48.99607" lon="0.20608">
        <ele>184</ele>
        <time>2018-09-23 10:36:45</time>
      </trkpt>
      <trkpt lat="48.99605" lon="0.20603">
        <ele>184</ele>
        <time>2018-09-23 10:36:46</time>
      </trkpt>
      <trkpt lat="48.99603" lon="0.20598">
        <ele>184</ele>
        <time>2018-09-23 10:36:47</time>
      </trkpt>
      <trkpt lat="48.996" lon="0.20591">
        <ele>184</ele>
        <time>2018-09-23 10:36:49</time>
      </trkpt>
      <trkpt lat="48.99599" lon="0.20585">
        <ele>185</ele>
        <time>2018-09-23 10:36:51</time>
      </trkpt>
      <trkpt lat="48.99599" lon="0.20585">
        <ele>185</ele>
        <time>2018-09-23 10:36:53</time>
      </trkpt>
      <trkpt lat="48.99599" lon="0.20584">
        <ele>185</ele>
        <time>2018-09-23 10:36:55</time>
      </trkpt>
      <trkpt lat="48.99596" lon="0.20571">
        <ele>184</ele>
        <time>2018-09-23 10:36:56</time>
      </trkpt>
      <trkpt lat="48.99594" lon="0.20563">
        <ele>184</ele>
        <time>2018-09-23 10:36:58</time>
      </trkpt>
      <trkpt lat="48.99592" lon="0.20553">
        <ele>185</ele>
        <time>2018-09-23 10:37:00</time>
      </trkpt>
      <trkpt lat="48.99591" lon="0.20543">
        <ele>185</ele>
        <time>2018-09-23 10:37:02</time>
      </trkpt>
      <trkpt lat="48.99591" lon="0.20533">
        <ele>185</ele>
        <time>2018-09-23 10:37:04</time>
      </trkpt>
      <trkpt lat="48.9959" lon="0.20524">
        <ele>184</ele>
        <time>2018-09-23 10:37:06</time>
      </trkpt>
      <trkpt lat="48.99589" lon="0.20515">
        <ele>184</ele>
        <time>2018-09-23 10:37:08</time>
      </trkpt>
      <trkpt lat="48.99588" lon="0.20509">
        <ele>183</ele>
        <time>2018-09-23 10:37:10</time>
      </trkpt>
      <trkpt lat="48.99587" lon="0.20508">
        <ele>183</ele>
        <time>2018-09-23 10:37:12</time>
      </trkpt>
      <trkpt lat="48.99587" lon="0.20508">
        <ele>184</ele>
        <time>2018-09-23 10:37:14</time>
      </trkpt>
      <trkpt lat="48.99585" lon="0.20499">
        <ele>183</ele>
        <time>2018-09-23 10:37:15</time>
      </trkpt>
      <trkpt lat="48.99583" lon="0.20489">
        <ele>183</ele>
        <time>2018-09-23 10:37:17</time>
      </trkpt>
      <trkpt lat="48.99582" lon="0.20479">
        <ele>183</ele>
        <time>2018-09-23 10:37:19</time>
      </trkpt>
      <trkpt lat="48.9958" lon="0.20468">
        <ele>183</ele>
        <time>2018-09-23 10:37:21</time>
      </trkpt>
      <trkpt lat="48.99579" lon="0.20456">
        <ele>183</ele>
        <time>2018-09-23 10:37:23</time>
      </trkpt>
      <trkpt lat="48.99578" lon="0.20446">
        <ele>183</ele>
        <time>2018-09-23 10:37:25</time>
      </trkpt>
      <trkpt lat="48.99578" lon="0.2044">
        <ele>183</ele>
        <time>2018-09-23 10:37:26</time>
      </trkpt>
      <trkpt lat="48.99575" lon="0.20429">
        <ele>182</ele>
        <time>2018-09-23 10:37:28</time>
      </trkpt>
      <trkpt lat="48.99574" lon="0.20424">
        <ele>183</ele>
        <time>2018-09-23 10:37:29</time>
      </trkpt>
      <trkpt lat="48.99572" lon="0.20413">
        <ele>183</ele>
        <time>2018-09-23 10:37:31</time>
      </trkpt>
      <trkpt lat="48.99569" lon="0.20403">
        <ele>183</ele>
        <time>2018-09-23 10:37:33</time>
      </trkpt>
      <trkpt lat="48.99568" lon="0.20393">
        <ele>183</ele>
        <time>2018-09-23 10:37:35</time>
      </trkpt>
      <trkpt lat="48.99567" lon="0.20384">
        <ele>183</ele>
        <time>2018-09-23 10:37:37</time>
      </trkpt>
      <trkpt lat="48.99566" lon="0.20376">
        <ele>183</ele>
        <time>2018-09-23 10:37:39</time>
      </trkpt>
      <trkpt lat="48.99564" lon="0.20366">
        <ele>182</ele>
        <time>2018-09-23 10:37:41</time>
      </trkpt>
      <trkpt lat="48.99562" lon="0.20355">
        <ele>181</ele>
        <time>2018-09-23 10:37:43</time>
      </trkpt>
      <trkpt lat="48.9956" lon="0.20343">
        <ele>182</ele>
        <time>2018-09-23 10:37:45</time>
      </trkpt>
      <trkpt lat="48.99558" lon="0.20333">
        <ele>183</ele>
        <time>2018-09-23 10:37:47</time>
      </trkpt>
      <trkpt lat="48.99558" lon="0.20323">
        <ele>182</ele>
        <time>2018-09-23 10:37:49</time>
      </trkpt>
      <trkpt lat="48.99557" lon="0.20314">
        <ele>182</ele>
        <time>2018-09-23 10:37:51</time>
      </trkpt>
      <trkpt lat="48.99556" lon="0.20304">
        <ele>181</ele>
        <time>2018-09-23 10:37:53</time>
      </trkpt>
      <trkpt lat="48.99555" lon="0.20294">
        <ele>180</ele>
        <time>2018-09-23 10:37:55</time>
      </trkpt>
      <trkpt lat="48.99553" lon="0.20284">
        <ele>180</ele>
        <time>2018-09-23 10:37:57</time>
      </trkpt>
      <trkpt lat="48.99551" lon="0.20275">
        <ele>179</ele>
        <time>2018-09-23 10:37:59</time>
      </trkpt>
      <trkpt lat="48.9955" lon="0.20265">
        <ele>179</ele>
        <time>2018-09-23 10:38:01</time>
      </trkpt>
      <trkpt lat="48.99549" lon="0.20256">
        <ele>179</ele>
        <time>2018-09-23 10:38:03</time>
      </trkpt>
      <trkpt lat="48.99548" lon="0.20244">
        <ele>180</ele>
        <time>2018-09-23 10:38:05</time>
      </trkpt>
      <trkpt lat="48.99546" lon="0.20235">
        <ele>180</ele>
        <time>2018-09-23 10:38:07</time>
      </trkpt>
      <trkpt lat="48.99544" lon="0.20225">
        <ele>180</ele>
        <time>2018-09-23 10:38:09</time>
      </trkpt>
      <trkpt lat="48.99541" lon="0.20214">
        <ele>181</ele>
        <time>2018-09-23 10:38:11</time>
      </trkpt>
      <trkpt lat="48.99537" lon="0.20205">
        <ele>182</ele>
        <time>2018-09-23 10:38:13</time>
      </trkpt>
      <trkpt lat="48.99533" lon="0.20197">
        <ele>182</ele>
        <time>2018-09-23 10:38:15</time>
      </trkpt>
      <trkpt lat="48.99532" lon="0.20193">
        <ele>183</ele>
        <time>2018-09-23 10:38:16</time>
      </trkpt>
      <trkpt lat="48.99531" lon="0.20188">
        <ele>182</ele>
        <time>2018-09-23 10:38:17</time>
      </trkpt>
      <trkpt lat="48.99527" lon="0.2018">
        <ele>182</ele>
        <time>2018-09-23 10:38:19</time>
      </trkpt>
      <trkpt lat="48.99525" lon="0.20177">
        <ele>181</ele>
        <time>2018-09-23 10:38:20</time>
      </trkpt>
      <trkpt lat="48.99523" lon="0.20173">
        <ele>180</ele>
        <time>2018-09-23 10:38:21</time>
      </trkpt>
      <trkpt lat="48.9952" lon="0.2017">
        <ele>180</ele>
        <time>2018-09-23 10:38:23</time>
      </trkpt>
      <trkpt lat="48.99519" lon="0.20169">
        <ele>180</ele>
        <time>2018-09-23 10:38:25</time>
      </trkpt>
      <trkpt lat="48.99514" lon="0.20164">
        <ele>181</ele>
        <time>2018-09-23 10:38:28</time>
      </trkpt>
      <trkpt lat="48.99513" lon="0.20163">
        <ele>181</ele>
        <time>2018-09-23 10:38:30</time>
      </trkpt>
      <trkpt lat="48.99508" lon="0.20158">
        <ele>183</ele>
        <time>2018-09-23 10:38:33</time>
      </trkpt>
      <trkpt lat="48.99508" lon="0.20156">
        <ele>183</ele>
        <time>2018-09-23 10:38:35</time>
      </trkpt>
      <trkpt lat="48.99507" lon="0.20154">
        <ele>183</ele>
        <time>2018-09-23 10:38:37</time>
      </trkpt>
      <trkpt lat="48.99506" lon="0.20152">
        <ele>183</ele>
        <time>2018-09-23 10:38:39</time>
      </trkpt>
      <trkpt lat="48.99505" lon="0.20151">
        <ele>183</ele>
        <time>2018-09-23 10:38:41</time>
      </trkpt>
      <trkpt lat="48.99503" lon="0.20149">
        <ele>183</ele>
        <time>2018-09-23 10:38:43</time>
      </trkpt>
      <trkpt lat="48.99502" lon="0.20147">
        <ele>183</ele>
        <time>2018-09-23 10:38:45</time>
      </trkpt>
      <trkpt lat="48.99501" lon="0.20146">
        <ele>184</ele>
        <time>2018-09-23 10:38:47</time>
      </trkpt>
      <trkpt lat="48.99501" lon="0.20146">
        <ele>184</ele>
        <time>2018-09-23 10:38:49</time>
      </trkpt>
      <trkpt lat="48.99495" lon="0.20132">
        <ele>184</ele>
        <time>2018-09-23 10:38:52</time>
      </trkpt>
      <trkpt lat="48.99493" lon="0.20129">
        <ele>184</ele>
        <time>2018-09-23 10:38:54</time>
      </trkpt>
      <trkpt lat="48.9949" lon="0.20125">
        <ele>183</ele>
        <time>2018-09-23 10:38:56</time>
      </trkpt>
      <trkpt lat="48.99488" lon="0.20122">
        <ele>183</ele>
        <time>2018-09-23 10:38:58</time>
      </trkpt>
      <trkpt lat="48.99485" lon="0.20116">
        <ele>183</ele>
        <time>2018-09-23 10:39:00</time>
      </trkpt>
      <trkpt lat="48.99482" lon="0.20109">
        <ele>183</ele>
        <time>2018-09-23 10:39:02</time>
      </trkpt>
      <trkpt lat="48.99477" lon="0.20101">
        <ele>182</ele>
        <time>2018-09-23 10:39:04</time>
      </trkpt>
      <trkpt lat="48.99472" lon="0.20094">
        <ele>182</ele>
        <time>2018-09-23 10:39:06</time>
      </trkpt>
      <trkpt lat="48.99468" lon="0.20087">
        <ele>182</ele>
        <time>2018-09-23 10:39:08</time>
      </trkpt>
      <trkpt lat="48.99464" lon="0.2008">
        <ele>181</ele>
        <time>2018-09-23 10:39:10</time>
      </trkpt>
      <trkpt lat="48.99461" lon="0.20074">
        <ele>181</ele>
        <time>2018-09-23 10:39:12</time>
      </trkpt>
      <trkpt lat="48.99458" lon="0.20066">
        <ele>180</ele>
        <time>2018-09-23 10:39:14</time>
      </trkpt>
      <trkpt lat="48.99453" lon="0.20058">
        <ele>178</ele>
        <time>2018-09-23 10:39:16</time>
      </trkpt>
      <trkpt lat="48.99449" lon="0.20049">
        <ele>178</ele>
        <time>2018-09-23 10:39:18</time>
      </trkpt>
      <trkpt lat="48.99444" lon="0.20039">
        <ele>177</ele>
        <time>2018-09-23 10:39:20</time>
      </trkpt>
      <trkpt lat="48.99438" lon="0.20029">
        <ele>176</ele>
        <time>2018-09-23 10:39:22</time>
      </trkpt>
      <trkpt lat="48.99433" lon="0.20018">
        <ele>175</ele>
        <time>2018-09-23 10:39:24</time>
      </trkpt>
      <trkpt lat="48.99428" lon="0.20005">
        <ele>174</ele>
        <time>2018-09-23 10:39:26</time>
      </trkpt>
      <trkpt lat="48.99422" lon="0.19991">
        <ele>174</ele>
        <time>2018-09-23 10:39:28</time>
      </trkpt>
      <trkpt lat="48.99418" lon="0.19982">
        <ele>174</ele>
        <time>2018-09-23 10:39:30</time>
      </trkpt>
      <trkpt lat="48.99414" lon="0.19973">
        <ele>174</ele>
        <time>2018-09-23 10:39:32</time>
      </trkpt>
      <trkpt lat="48.9941" lon="0.19967">
        <ele>173</ele>
        <time>2018-09-23 10:39:34</time>
      </trkpt>
      <trkpt lat="48.99407" lon="0.19957">
        <ele>172</ele>
        <time>2018-09-23 10:39:36</time>
      </trkpt>
      <trkpt lat="48.99406" lon="0.19943">
        <ele>173</ele>
        <time>2018-09-23 10:39:38</time>
      </trkpt>
      <trkpt lat="48.99404" lon="0.19925">
        <ele>173</ele>
        <time>2018-09-23 10:39:40</time>
      </trkpt>
      <trkpt lat="48.99402" lon="0.19907">
        <ele>174</ele>
        <time>2018-09-23 10:39:42</time>
      </trkpt>
      <trkpt lat="48.99402" lon="0.19888">
        <ele>173</ele>
        <time>2018-09-23 10:39:44</time>
      </trkpt>
      <trkpt lat="48.99401" lon="0.1987">
        <ele>173</ele>
        <time>2018-09-23 10:39:46</time>
      </trkpt>
      <trkpt lat="48.99401" lon="0.19852">
        <ele>172</ele>
        <time>2018-09-23 10:39:48</time>
      </trkpt>
      <trkpt lat="48.99401" lon="0.19835">
        <ele>172</ele>
        <time>2018-09-23 10:39:50</time>
      </trkpt>
      <trkpt lat="48.99402" lon="0.19817">
        <ele>171</ele>
        <time>2018-09-23 10:39:52</time>
      </trkpt>
      <trkpt lat="48.99401" lon="0.19799">
        <ele>171</ele>
        <time>2018-09-23 10:39:54</time>
      </trkpt>
      <trkpt lat="48.99399" lon="0.19779">
        <ele>171</ele>
        <time>2018-09-23 10:39:56</time>
      </trkpt>
      <trkpt lat="48.99396" lon="0.19761">
        <ele>170</ele>
        <time>2018-09-23 10:39:58</time>
      </trkpt>
      <trkpt lat="48.99394" lon="0.19744">
        <ele>170</ele>
        <time>2018-09-23 10:40:00</time>
      </trkpt>
      <trkpt lat="48.99393" lon="0.19728">
        <ele>170</ele>
        <time>2018-09-23 10:40:02</time>
      </trkpt>
      <trkpt lat="48.99393" lon="0.19712">
        <ele>170</ele>
        <time>2018-09-23 10:40:04</time>
      </trkpt>
      <trkpt lat="48.99396" lon="0.19699">
        <ele>171</ele>
        <time>2018-09-23 10:40:06</time>
      </trkpt>
      <trkpt lat="48.99401" lon="0.19691">
        <ele>172</ele>
        <time>2018-09-23 10:40:08</time>
      </trkpt>
      <trkpt lat="48.99403" lon="0.19684">
        <ele>174</ele>
        <time>2018-09-23 10:40:10</time>
      </trkpt>
      <trkpt lat="48.99404" lon="0.19679">
        <ele>174</ele>
        <time>2018-09-23 10:40:12</time>
      </trkpt>
      <trkpt lat="48.99403" lon="0.19672">
        <ele>174</ele>
        <time>2018-09-23 10:40:14</time>
      </trkpt>
      <trkpt lat="48.99403" lon="0.19661">
        <ele>174</ele>
        <time>2018-09-23 10:40:16</time>
      </trkpt>
      <trkpt lat="48.99405" lon="0.19648">
        <ele>174</ele>
        <time>2018-09-23 10:40:18</time>
      </trkpt>
      <trkpt lat="48.99409" lon="0.19636">
        <ele>175</ele>
        <time>2018-09-23 10:40:20</time>
      </trkpt>
      <trkpt lat="48.99413" lon="0.19625">
        <ele>175</ele>
        <time>2018-09-23 10:40:22</time>
      </trkpt>
      <trkpt lat="48.99417" lon="0.19614">
        <ele>176</ele>
        <time>2018-09-23 10:40:24</time>
      </trkpt>
      <trkpt lat="48.99422" lon="0.19604">
        <ele>175</ele>
        <time>2018-09-23 10:40:26</time>
      </trkpt>
      <trkpt lat="48.99425" lon="0.19594">
        <ele>175</ele>
        <time>2018-09-23 10:40:28</time>
      </trkpt>
      <trkpt lat="48.99429" lon="0.19583">
        <ele>175</ele>
        <time>2018-09-23 10:40:30</time>
      </trkpt>
      <trkpt lat="48.99433" lon="0.1957">
        <ele>175</ele>
        <time>2018-09-23 10:40:32</time>
      </trkpt>
      <trkpt lat="48.99437" lon="0.19558">
        <ele>176</ele>
        <time>2018-09-23 10:40:34</time>
      </trkpt>
      <trkpt lat="48.99441" lon="0.19546">
        <ele>175</ele>
        <time>2018-09-23 10:40:36</time>
      </trkpt>
      <trkpt lat="48.99447" lon="0.19533">
        <ele>176</ele>
        <time>2018-09-23 10:40:38</time>
      </trkpt>
      <trkpt lat="48.99453" lon="0.19521">
        <ele>176</ele>
        <time>2018-09-23 10:40:40</time>
      </trkpt>
      <trkpt lat="48.99459" lon="0.1951">
        <ele>175</ele>
        <time>2018-09-23 10:40:42</time>
      </trkpt>
      <trkpt lat="48.99466" lon="0.19499">
        <ele>175</ele>
        <time>2018-09-23 10:40:44</time>
      </trkpt>
      <trkpt lat="48.99473" lon="0.19489">
        <ele>175</ele>
        <time>2018-09-23 10:40:46</time>
      </trkpt>
      <trkpt lat="48.99478" lon="0.1948">
        <ele>175</ele>
        <time>2018-09-23 10:40:48</time>
      </trkpt>
      <trkpt lat="48.99484" lon="0.1947">
        <ele>175</ele>
        <time>2018-09-23 10:40:50</time>
      </trkpt>
      <trkpt lat="48.99488" lon="0.1946">
        <ele>175</ele>
        <time>2018-09-23 10:40:52</time>
      </trkpt>
      <trkpt lat="48.99491" lon="0.19452">
        <ele>176</ele>
        <time>2018-09-23 10:40:54</time>
      </trkpt>
      <trkpt lat="48.99495" lon="0.19444">
        <ele>177</ele>
        <time>2018-09-23 10:40:56</time>
      </trkpt>
      <trkpt lat="48.99498" lon="0.19437">
        <ele>176</ele>
        <time>2018-09-23 10:40:58</time>
      </trkpt>
      <trkpt lat="48.995" lon="0.19429">
        <ele>176</ele>
        <time>2018-09-23 10:41:00</time>
      </trkpt>
      <trkpt lat="48.99501" lon="0.19423">
        <ele>176</ele>
        <time>2018-09-23 10:41:02</time>
      </trkpt>
      <trkpt lat="48.99504" lon="0.19418">
        <ele>176</ele>
        <time>2018-09-23 10:41:04</time>
      </trkpt>
      <trkpt lat="48.99507" lon="0.19413">
        <ele>176</ele>
        <time>2018-09-23 10:41:06</time>
      </trkpt>
      <trkpt lat="48.99511" lon="0.19406">
        <ele>177</ele>
        <time>2018-09-23 10:41:08</time>
      </trkpt>
      <trkpt lat="48.99516" lon="0.19398">
        <ele>176</ele>
        <time>2018-09-23 10:41:10</time>
      </trkpt>
      <trkpt lat="48.99521" lon="0.1939">
        <ele>177</ele>
        <time>2018-09-23 10:41:12</time>
      </trkpt>
      <trkpt lat="48.99527" lon="0.19382">
        <ele>177</ele>
        <time>2018-09-23 10:41:14</time>
      </trkpt>
      <trkpt lat="48.99534" lon="0.19372">
        <ele>177</ele>
        <time>2018-09-23 10:41:16</time>
      </trkpt>
      <trkpt lat="48.9954" lon="0.19363">
        <ele>177</ele>
        <time>2018-09-23 10:41:18</time>
      </trkpt>
      <trkpt lat="48.99545" lon="0.19358">
        <ele>178</ele>
        <time>2018-09-23 10:41:20</time>
      </trkpt>
      <trkpt lat="48.9955" lon="0.19352">
        <ele>179</ele>
        <time>2018-09-23 10:41:22</time>
      </trkpt>
      <trkpt lat="48.99555" lon="0.19346">
        <ele>179</ele>
        <time>2018-09-23 10:41:24</time>
      </trkpt>
      <trkpt lat="48.99563" lon="0.1934">
        <ele>178</ele>
        <time>2018-09-23 10:41:26</time>
      </trkpt>
      <trkpt lat="48.99572" lon="0.19334">
        <ele>177</ele>
        <time>2018-09-23 10:41:28</time>
      </trkpt>
      <trkpt lat="48.99581" lon="0.19329">
        <ele>176</ele>
        <time>2018-09-23 10:41:30</time>
      </trkpt>
      <trkpt lat="48.99587" lon="0.19327">
        <ele>175</ele>
        <time>2018-09-23 10:41:32</time>
      </trkpt>
      <trkpt lat="48.99593" lon="0.19324">
        <ele>175</ele>
        <time>2018-09-23 10:41:34</time>
      </trkpt>
      <trkpt lat="48.996" lon="0.19317">
        <ele>175</ele>
        <time>2018-09-23 10:41:36</time>
      </trkpt>
      <trkpt lat="48.99606" lon="0.19308">
        <ele>175</ele>
        <time>2018-09-23 10:41:38</time>
      </trkpt>
      <trkpt lat="48.99613" lon="0.19296">
        <ele>175</ele>
        <time>2018-09-23 10:41:40</time>
      </trkpt>
      <trkpt lat="48.99618" lon="0.19284">
        <ele>175</ele>
        <time>2018-09-23 10:41:42</time>
      </trkpt>
      <trkpt lat="48.99624" lon="0.19272">
        <ele>174</ele>
        <time>2018-09-23 10:41:44</time>
      </trkpt>
      <trkpt lat="48.99629" lon="0.1926">
        <ele>173</ele>
        <time>2018-09-23 10:41:46</time>
      </trkpt>
      <trkpt lat="48.99634" lon="0.19248">
        <ele>173</ele>
        <time>2018-09-23 10:41:48</time>
      </trkpt>
      <trkpt lat="48.99639" lon="0.19235">
        <ele>172</ele>
        <time>2018-09-23 10:41:50</time>
      </trkpt>
      <trkpt lat="48.99646" lon="0.19223">
        <ele>172</ele>
        <time>2018-09-23 10:41:52</time>
      </trkpt>
      <trkpt lat="48.99654" lon="0.1921">
        <ele>172</ele>
        <time>2018-09-23 10:41:54</time>
      </trkpt>
      <trkpt lat="48.99661" lon="0.19197">
        <ele>171</ele>
        <time>2018-09-23 10:41:56</time>
      </trkpt>
      <trkpt lat="48.99667" lon="0.19185">
        <ele>172</ele>
        <time>2018-09-23 10:41:58</time>
      </trkpt>
      <trkpt lat="48.99672" lon="0.19173">
        <ele>172</ele>
        <time>2018-09-23 10:42:00</time>
      </trkpt>
      <trkpt lat="48.99674" lon="0.19167">
        <ele>171</ele>
        <time>2018-09-23 10:42:01</time>
      </trkpt>
      <trkpt lat="48.99678" lon="0.19156">
        <ele>171</ele>
        <time>2018-09-23 10:42:03</time>
      </trkpt>
      <trkpt lat="48.9968" lon="0.19151">
        <ele>171</ele>
        <time>2018-09-23 10:42:04</time>
      </trkpt>
      <trkpt lat="48.99683" lon="0.19142">
        <ele>171</ele>
        <time>2018-09-23 10:42:06</time>
      </trkpt>
      <trkpt lat="48.99685" lon="0.19138">
        <ele>171</ele>
        <time>2018-09-23 10:42:07</time>
      </trkpt>
      <trkpt lat="48.99689" lon="0.1913">
        <ele>171</ele>
        <time>2018-09-23 10:42:09</time>
      </trkpt>
      <trkpt lat="48.9969" lon="0.19126">
        <ele>171</ele>
        <time>2018-09-23 10:42:10</time>
      </trkpt>
      <trkpt lat="48.99692" lon="0.19117">
        <ele>172</ele>
        <time>2018-09-23 10:42:12</time>
      </trkpt>
      <trkpt lat="48.99692" lon="0.19112">
        <ele>172</ele>
        <time>2018-09-23 10:42:13</time>
      </trkpt>
      <trkpt lat="48.99692" lon="0.19107">
        <ele>172</ele>
        <time>2018-09-23 10:42:14</time>
      </trkpt>
      <trkpt lat="48.99694" lon="0.19097">
        <ele>172</ele>
        <time>2018-09-23 10:42:16</time>
      </trkpt>
      <trkpt lat="48.99696" lon="0.19089">
        <ele>172</ele>
        <time>2018-09-23 10:42:18</time>
      </trkpt>
      <trkpt lat="48.99698" lon="0.1908">
        <ele>172</ele>
        <time>2018-09-23 10:42:20</time>
      </trkpt>
      <trkpt lat="48.99699" lon="0.19068">
        <ele>172</ele>
        <time>2018-09-23 10:42:22</time>
      </trkpt>
      <trkpt lat="48.99701" lon="0.1906">
        <ele>172</ele>
        <time>2018-09-23 10:42:24</time>
      </trkpt>
      <trkpt lat="48.99701" lon="0.19051">
        <ele>171</ele>
        <time>2018-09-23 10:42:26</time>
      </trkpt>
      <trkpt lat="48.99701" lon="0.1904">
        <ele>171</ele>
        <time>2018-09-23 10:42:28</time>
      </trkpt>
      <trkpt lat="48.99701" lon="0.1903">
        <ele>171</ele>
        <time>2018-09-23 10:42:30</time>
      </trkpt>
      <trkpt lat="48.99702" lon="0.1902">
        <ele>171</ele>
        <time>2018-09-23 10:42:32</time>
      </trkpt>
      <trkpt lat="48.99703" lon="0.19009">
        <ele>171</ele>
        <time>2018-09-23 10:42:34</time>
      </trkpt>
      <trkpt lat="48.99702" lon="0.18998">
        <ele>171</ele>
        <time>2018-09-23 10:42:36</time>
      </trkpt>
      <trkpt lat="48.99702" lon="0.18988">
        <ele>171</ele>
        <time>2018-09-23 10:42:38</time>
      </trkpt>
      <trkpt lat="48.99702" lon="0.18978">
        <ele>172</ele>
        <time>2018-09-23 10:42:40</time>
      </trkpt>
      <trkpt lat="48.99701" lon="0.18966">
        <ele>172</ele>
        <time>2018-09-23 10:42:42</time>
      </trkpt>
      <trkpt lat="48.997" lon="0.1896">
        <ele>172</ele>
        <time>2018-09-23 10:42:43</time>
      </trkpt>
      <trkpt lat="48.997" lon="0.18954">
        <ele>172</ele>
        <time>2018-09-23 10:42:44</time>
      </trkpt>
      <trkpt lat="48.997" lon="0.18943">
        <ele>172</ele>
        <time>2018-09-23 10:42:46</time>
      </trkpt>
      <trkpt lat="48.99699" lon="0.18929">
        <ele>172</ele>
        <time>2018-09-23 10:42:48</time>
      </trkpt>
      <trkpt lat="48.997" lon="0.18918">
        <ele>173</ele>
        <time>2018-09-23 10:42:50</time>
      </trkpt>
      <trkpt lat="48.99699" lon="0.18908">
        <ele>173</ele>
        <time>2018-09-23 10:42:52</time>
      </trkpt>
      <trkpt lat="48.99699" lon="0.18894">
        <ele>174</ele>
        <time>2018-09-23 10:42:54</time>
      </trkpt>
      <trkpt lat="48.99699" lon="0.18882">
        <ele>175</ele>
        <time>2018-09-23 10:42:56</time>
      </trkpt>
      <trkpt lat="48.99698" lon="0.18871">
        <ele>175</ele>
        <time>2018-09-23 10:42:58</time>
      </trkpt>
      <trkpt lat="48.99698" lon="0.18858">
        <ele>176</ele>
        <time>2018-09-23 10:43:00</time>
      </trkpt>
      <trkpt lat="48.99697" lon="0.18844">
        <ele>177</ele>
        <time>2018-09-23 10:43:02</time>
      </trkpt>
      <trkpt lat="48.99697" lon="0.18831">
        <ele>177</ele>
        <time>2018-09-23 10:43:04</time>
      </trkpt>
      <trkpt lat="48.99698" lon="0.18825">
        <ele>177</ele>
        <time>2018-09-23 10:43:05</time>
      </trkpt>
      <trkpt lat="48.99699" lon="0.18812">
        <ele>177</ele>
        <time>2018-09-23 10:43:07</time>
      </trkpt>
      <trkpt lat="48.997" lon="0.18806">
        <ele>177</ele>
        <time>2018-09-23 10:43:08</time>
      </trkpt>
      <trkpt lat="48.99701" lon="0.18793">
        <ele>176</ele>
        <time>2018-09-23 10:43:10</time>
      </trkpt>
      <trkpt lat="48.99702" lon="0.1878">
        <ele>177</ele>
        <time>2018-09-23 10:43:12</time>
      </trkpt>
      <trkpt lat="48.99703" lon="0.18767">
        <ele>177</ele>
        <time>2018-09-23 10:43:14</time>
      </trkpt>
      <trkpt lat="48.99705" lon="0.18754">
        <ele>178</ele>
        <time>2018-09-23 10:43:16</time>
      </trkpt>
      <trkpt lat="48.99706" lon="0.18742">
        <ele>179</ele>
        <time>2018-09-23 10:43:18</time>
      </trkpt>
      <trkpt lat="48.99707" lon="0.1873">
        <ele>178</ele>
        <time>2018-09-23 10:43:20</time>
      </trkpt>
      <trkpt lat="48.99708" lon="0.18717">
        <ele>176</ele>
        <time>2018-09-23 10:43:22</time>
      </trkpt>
      <trkpt lat="48.99708" lon="0.18704">
        <ele>175</ele>
        <time>2018-09-23 10:43:24</time>
      </trkpt>
      <trkpt lat="48.99707" lon="0.18699">
        <ele>175</ele>
        <time>2018-09-23 10:43:25</time>
      </trkpt>
      <trkpt lat="48.99706" lon="0.18686">
        <ele>175</ele>
        <time>2018-09-23 10:43:27</time>
      </trkpt>
      <trkpt lat="48.99706" lon="0.1868">
        <ele>174</ele>
        <time>2018-09-23 10:43:28</time>
      </trkpt>
      <trkpt lat="48.99703" lon="0.18666">
        <ele>174</ele>
        <time>2018-09-23 10:43:30</time>
      </trkpt>
      <trkpt lat="48.997" lon="0.18649">
        <ele>174</ele>
        <time>2018-09-23 10:43:32</time>
      </trkpt>
      <trkpt lat="48.99699" lon="0.18632">
        <ele>173</ele>
        <time>2018-09-23 10:43:34</time>
      </trkpt>
      <trkpt lat="48.99699" lon="0.1862">
        <ele>174</ele>
        <time>2018-09-23 10:43:36</time>
      </trkpt>
      <trkpt lat="48.99699" lon="0.18614">
        <ele>174</ele>
        <time>2018-09-23 10:43:37</time>
      </trkpt>
      <trkpt lat="48.99699" lon="0.18608">
        <ele>174</ele>
        <time>2018-09-23 10:43:38</time>
      </trkpt>
      <trkpt lat="48.997" lon="0.18597">
        <ele>174</ele>
        <time>2018-09-23 10:43:40</time>
      </trkpt>
      <trkpt lat="48.997" lon="0.18585">
        <ele>173</ele>
        <time>2018-09-23 10:43:42</time>
      </trkpt>
      <trkpt lat="48.99699" lon="0.18573">
        <ele>174</ele>
        <time>2018-09-23 10:43:44</time>
      </trkpt>
      <trkpt lat="48.99698" lon="0.18561">
        <ele>173</ele>
        <time>2018-09-23 10:43:46</time>
      </trkpt>
      <trkpt lat="48.997" lon="0.18547">
        <ele>173</ele>
        <time>2018-09-23 10:43:48</time>
      </trkpt>
      <trkpt lat="48.99703" lon="0.18531">
        <ele>173</ele>
        <time>2018-09-23 10:43:50</time>
      </trkpt>
      <trkpt lat="48.99707" lon="0.18516">
        <ele>173</ele>
        <time>2018-09-23 10:43:52</time>
      </trkpt>
      <trkpt lat="48.99712" lon="0.18502">
        <ele>173</ele>
        <time>2018-09-23 10:43:54</time>
      </trkpt>
      <trkpt lat="48.99717" lon="0.18489">
        <ele>173</ele>
        <time>2018-09-23 10:43:56</time>
      </trkpt>
      <trkpt lat="48.99724" lon="0.18477">
        <ele>174</ele>
        <time>2018-09-23 10:43:58</time>
      </trkpt>
      <trkpt lat="48.99731" lon="0.18466">
        <ele>173</ele>
        <time>2018-09-23 10:44:00</time>
      </trkpt>
      <trkpt lat="48.99739" lon="0.18457">
        <ele>173</ele>
        <time>2018-09-23 10:44:02</time>
      </trkpt>
      <trkpt lat="48.99746" lon="0.18446">
        <ele>172</ele>
        <time>2018-09-23 10:44:04</time>
      </trkpt>
      <trkpt lat="48.99755" lon="0.18435">
        <ele>172</ele>
        <time>2018-09-23 10:44:06</time>
      </trkpt>
      <trkpt lat="48.99762" lon="0.18424">
        <ele>172</ele>
        <time>2018-09-23 10:44:08</time>
      </trkpt>
      <trkpt lat="48.99768" lon="0.18412">
        <ele>172</ele>
        <time>2018-09-23 10:44:10</time>
      </trkpt>
      <trkpt lat="48.99774" lon="0.18402">
        <ele>172</ele>
        <time>2018-09-23 10:44:12</time>
      </trkpt>
      <trkpt lat="48.99776" lon="0.18396">
        <ele>172</ele>
        <time>2018-09-23 10:44:13</time>
      </trkpt>
      <trkpt lat="48.99782" lon="0.18384">
        <ele>173</ele>
        <time>2018-09-23 10:44:15</time>
      </trkpt>
      <trkpt lat="48.99787" lon="0.18372">
        <ele>173</ele>
        <time>2018-09-23 10:44:17</time>
      </trkpt>
      <trkpt lat="48.99793" lon="0.18359">
        <ele>173</ele>
        <time>2018-09-23 10:44:19</time>
      </trkpt>
      <trkpt lat="48.99797" lon="0.18353">
        <ele>174</ele>
        <time>2018-09-23 10:44:20</time>
      </trkpt>
      <trkpt lat="48.99804" lon="0.18341">
        <ele>174</ele>
        <time>2018-09-23 10:44:22</time>
      </trkpt>
      <trkpt lat="48.9981" lon="0.18329">
        <ele>174</ele>
        <time>2018-09-23 10:44:24</time>
      </trkpt>
      <trkpt lat="48.99817" lon="0.18317">
        <ele>174</ele>
        <time>2018-09-23 10:44:26</time>
      </trkpt>
      <trkpt lat="48.99824" lon="0.18306">
        <ele>174</ele>
        <time>2018-09-23 10:44:28</time>
      </trkpt>
      <trkpt lat="48.99829" lon="0.18292">
        <ele>175</ele>
        <time>2018-09-23 10:44:30</time>
      </trkpt>
      <trkpt lat="48.99834" lon="0.18278">
        <ele>174</ele>
        <time>2018-09-23 10:44:32</time>
      </trkpt>
      <trkpt lat="48.99838" lon="0.18264">
        <ele>174</ele>
        <time>2018-09-23 10:44:34</time>
      </trkpt>
      <trkpt lat="48.99843" lon="0.1825">
        <ele>174</ele>
        <time>2018-09-23 10:44:36</time>
      </trkpt>
      <trkpt lat="48.99848" lon="0.18236">
        <ele>173</ele>
        <time>2018-09-23 10:44:38</time>
      </trkpt>
      <trkpt lat="48.99854" lon="0.18221">
        <ele>173</ele>
        <time>2018-09-23 10:44:40</time>
      </trkpt>
      <trkpt lat="48.9986" lon="0.18206">
        <ele>173</ele>
        <time>2018-09-23 10:44:42</time>
      </trkpt>
      <trkpt lat="48.99866" lon="0.18191">
        <ele>173</ele>
        <time>2018-09-23 10:44:44</time>
      </trkpt>
      <trkpt lat="48.99873" lon="0.18177">
        <ele>172</ele>
        <time>2018-09-23 10:44:46</time>
      </trkpt>
      <trkpt lat="48.9988" lon="0.18164">
        <ele>172</ele>
        <time>2018-09-23 10:44:48</time>
      </trkpt>
      <trkpt lat="48.99887" lon="0.18151">
        <ele>174</ele>
        <time>2018-09-23 10:44:50</time>
      </trkpt>
      <trkpt lat="48.99894" lon="0.18138">
        <ele>174</ele>
        <time>2018-09-23 10:44:52</time>
      </trkpt>
      <trkpt lat="48.99902" lon="0.18127">
        <ele>173</ele>
        <time>2018-09-23 10:44:54</time>
      </trkpt>
      <trkpt lat="48.9991" lon="0.18115">
        <ele>173</ele>
        <time>2018-09-23 10:44:56</time>
      </trkpt>
      <trkpt lat="48.99917" lon="0.18103">
        <ele>173</ele>
        <time>2018-09-23 10:44:58</time>
      </trkpt>
      <trkpt lat="48.99924" lon="0.1809">
        <ele>173</ele>
        <time>2018-09-23 10:45:00</time>
      </trkpt>
      <trkpt lat="48.99932" lon="0.18078">
        <ele>173</ele>
        <time>2018-09-23 10:45:02</time>
      </trkpt>
      <trkpt lat="48.9994" lon="0.18066">
        <ele>172</ele>
        <time>2018-09-23 10:45:04</time>
      </trkpt>
      <trkpt lat="48.99949" lon="0.18053">
        <ele>172</ele>
        <time>2018-09-23 10:45:06</time>
      </trkpt>
      <trkpt lat="48.99958" lon="0.1804">
        <ele>170</ele>
        <time>2018-09-23 10:45:08</time>
      </trkpt>
      <trkpt lat="48.99968" lon="0.18028">
        <ele>170</ele>
        <time>2018-09-23 10:45:10</time>
      </trkpt>
      <trkpt lat="48.99978" lon="0.18017">
        <ele>169</ele>
        <time>2018-09-23 10:45:12</time>
      </trkpt>
      <trkpt lat="48.99988" lon="0.18006">
        <ele>168</ele>
        <time>2018-09-23 10:45:14</time>
      </trkpt>
      <trkpt lat="48.99997" lon="0.17996">
        <ele>168</ele>
        <time>2018-09-23 10:45:16</time>
      </trkpt>
      <trkpt lat="49.00007" lon="0.17987">
        <ele>167</ele>
        <time>2018-09-23 10:45:18</time>
      </trkpt>
      <trkpt lat="49.00016" lon="0.17976">
        <ele>166</ele>
        <time>2018-09-23 10:45:20</time>
      </trkpt>
      <trkpt lat="49.00025" lon="0.17966">
        <ele>166</ele>
        <time>2018-09-23 10:45:22</time>
      </trkpt>
      <trkpt lat="49.00035" lon="0.17956">
        <ele>165</ele>
        <time>2018-09-23 10:45:24</time>
      </trkpt>
      <trkpt lat="49.00044" lon="0.17945">
        <ele>165</ele>
        <time>2018-09-23 10:45:26</time>
      </trkpt>
      <trkpt lat="49.00052" lon="0.17936">
        <ele>164</ele>
        <time>2018-09-23 10:45:28</time>
      </trkpt>
      <trkpt lat="49.0006" lon="0.17924">
        <ele>165</ele>
        <time>2018-09-23 10:45:30</time>
      </trkpt>
      <trkpt lat="49.00068" lon="0.17912">
        <ele>165</ele>
        <time>2018-09-23 10:45:32</time>
      </trkpt>
      <trkpt lat="49.00077" lon="0.17899">
        <ele>165</ele>
        <time>2018-09-23 10:45:34</time>
      </trkpt>
      <trkpt lat="49.00087" lon="0.17885">
        <ele>165</ele>
        <time>2018-09-23 10:45:36</time>
      </trkpt>
      <trkpt lat="49.00096" lon="0.17871">
        <ele>166</ele>
        <time>2018-09-23 10:45:38</time>
      </trkpt>
      <trkpt lat="49.00105" lon="0.17858">
        <ele>166</ele>
        <time>2018-09-23 10:45:40</time>
      </trkpt>
      <trkpt lat="49.00114" lon="0.17847">
        <ele>166</ele>
        <time>2018-09-23 10:45:42</time>
      </trkpt>
      <trkpt lat="49.00122" lon="0.17835">
        <ele>167</ele>
        <time>2018-09-23 10:45:44</time>
      </trkpt>
      <trkpt lat="49.00129" lon="0.17823">
        <ele>167</ele>
        <time>2018-09-23 10:45:46</time>
      </trkpt>
      <trkpt lat="49.00136" lon="0.17812">
        <ele>168</ele>
        <time>2018-09-23 10:45:48</time>
      </trkpt>
      <trkpt lat="49.00139" lon="0.17806">
        <ele>168</ele>
        <time>2018-09-23 10:45:49</time>
      </trkpt>
      <trkpt lat="49.00141" lon="0.178">
        <ele>168</ele>
        <time>2018-09-23 10:45:50</time>
      </trkpt>
      <trkpt lat="49.00148" lon="0.17789">
        <ele>168</ele>
        <time>2018-09-23 10:45:52</time>
      </trkpt>
      <trkpt lat="49.00155" lon="0.17774">
        <ele>168</ele>
        <time>2018-09-23 10:45:54</time>
      </trkpt>
      <trkpt lat="49.00161" lon="0.17758">
        <ele>167</ele>
        <time>2018-09-23 10:45:56</time>
      </trkpt>
      <trkpt lat="49.00167" lon="0.17742">
        <ele>167</ele>
        <time>2018-09-23 10:45:58</time>
      </trkpt>
      <trkpt lat="49.00172" lon="0.17726">
        <ele>167</ele>
        <time>2018-09-23 10:46:00</time>
      </trkpt>
      <trkpt lat="49.00178" lon="0.17711">
        <ele>166</ele>
        <time>2018-09-23 10:46:02</time>
      </trkpt>
      <trkpt lat="49.00185" lon="0.17696">
        <ele>166</ele>
        <time>2018-09-23 10:46:04</time>
      </trkpt>
      <trkpt lat="49.00192" lon="0.17683">
        <ele>166</ele>
        <time>2018-09-23 10:46:06</time>
      </trkpt>
      <trkpt lat="49.00201" lon="0.17672">
        <ele>166</ele>
        <time>2018-09-23 10:46:08</time>
      </trkpt>
      <trkpt lat="49.00212" lon="0.17662">
        <ele>166</ele>
        <time>2018-09-23 10:46:10</time>
      </trkpt>
      <trkpt lat="49.00222" lon="0.17652">
        <ele>167</ele>
        <time>2018-09-23 10:46:12</time>
      </trkpt>
      <trkpt lat="49.00231" lon="0.17643">
        <ele>167</ele>
        <time>2018-09-23 10:46:14</time>
      </trkpt>
      <trkpt lat="49.0024" lon="0.17634">
        <ele>167</ele>
        <time>2018-09-23 10:46:16</time>
      </trkpt>
      <trkpt lat="49.00249" lon="0.17624">
        <ele>168</ele>
        <time>2018-09-23 10:46:18</time>
      </trkpt>
      <trkpt lat="49.00259" lon="0.17614">
        <ele>168</ele>
        <time>2018-09-23 10:46:20</time>
      </trkpt>
      <trkpt lat="49.00268" lon="0.17603">
        <ele>169</ele>
        <time>2018-09-23 10:46:22</time>
      </trkpt>
      <trkpt lat="49.00278" lon="0.17595">
        <ele>170</ele>
        <time>2018-09-23 10:46:24</time>
      </trkpt>
      <trkpt lat="49.00289" lon="0.17586">
        <ele>170</ele>
        <time>2018-09-23 10:46:26</time>
      </trkpt>
      <trkpt lat="49.00299" lon="0.17577">
        <ele>168</ele>
        <time>2018-09-23 10:46:28</time>
      </trkpt>
      <trkpt lat="49.00308" lon="0.17567">
        <ele>167</ele>
        <time>2018-09-23 10:46:30</time>
      </trkpt>
      <trkpt lat="49.00316" lon="0.17558">
        <ele>166</ele>
        <time>2018-09-23 10:46:32</time>
      </trkpt>
      <trkpt lat="49.00321" lon="0.17552">
        <ele>165</ele>
        <time>2018-09-23 10:46:34</time>
      </trkpt>
      <trkpt lat="49.00326" lon="0.17548">
        <ele>165</ele>
        <time>2018-09-23 10:46:36</time>
      </trkpt>
      <trkpt lat="49.00327" lon="0.17546">
        <ele>165</ele>
        <time>2018-09-23 10:46:37</time>
      </trkpt>
      <trkpt lat="49.00328" lon="0.17546">
        <ele>165</ele>
        <time>2018-09-23 10:46:38</time>
      </trkpt>
      <trkpt lat="49.00328" lon="0.17546">
        <ele>165</ele>
        <time>2018-09-23 10:46:40</time>
      </trkpt>
      <trkpt lat="49.00329" lon="0.17541">
        <ele>163</ele>
        <time>2018-09-23 10:46:41</time>
      </trkpt>
      <trkpt lat="49.00329" lon="0.17541">
        <ele>163</ele>
        <time>2018-09-23 10:46:43</time>
      </trkpt>
      <trkpt lat="49.00333" lon="0.17537">
        <ele>164</ele>
        <time>2018-09-23 10:46:46</time>
      </trkpt>
      <trkpt lat="49.00336" lon="0.17535">
        <ele>165</ele>
        <time>2018-09-23 10:46:48</time>
      </trkpt>
      <trkpt lat="49.00338" lon="0.17534">
        <ele>165</ele>
        <time>2018-09-23 10:46:50</time>
      </trkpt>
      <trkpt lat="49.00339" lon="0.17533">
        <ele>165</ele>
        <time>2018-09-23 10:46:51</time>
      </trkpt>
      <trkpt lat="49.0034" lon="0.17532">
        <ele>165</ele>
        <time>2018-09-23 10:46:52</time>
      </trkpt>
      <trkpt lat="49.00342" lon="0.1753">
        <ele>164</ele>
        <time>2018-09-23 10:46:54</time>
      </trkpt>
      <trkpt lat="49.00343" lon="0.1753">
        <ele>164</ele>
        <time>2018-09-23 10:46:56</time>
      </trkpt>
      <trkpt lat="49.00343" lon="0.17527">
        <ele>164</ele>
        <time>2018-09-23 10:46:59</time>
      </trkpt>
      <trkpt lat="49.00344" lon="0.17516">
        <ele>164</ele>
        <time>2018-09-23 10:47:01</time>
      </trkpt>
      <trkpt lat="49.00344" lon="0.1751">
        <ele>164</ele>
        <time>2018-09-23 10:47:03</time>
      </trkpt>
      <trkpt lat="49.00345" lon="0.17505">
        <ele>164</ele>
        <time>2018-09-23 10:47:05</time>
      </trkpt>
      <trkpt lat="49.00346" lon="0.17499">
        <ele>164</ele>
        <time>2018-09-23 10:47:07</time>
      </trkpt>
      <trkpt lat="49.00348" lon="0.17492">
        <ele>164</ele>
        <time>2018-09-23 10:47:09</time>
      </trkpt>
      <trkpt lat="49.00349" lon="0.17485">
        <ele>163</ele>
        <time>2018-09-23 10:47:11</time>
      </trkpt>
      <trkpt lat="49.0035" lon="0.17478">
        <ele>163</ele>
        <time>2018-09-23 10:47:13</time>
      </trkpt>
      <trkpt lat="49.00352" lon="0.1747">
        <ele>162</ele>
        <time>2018-09-23 10:47:15</time>
      </trkpt>
      <trkpt lat="49.00353" lon="0.17465">
        <ele>162</ele>
        <time>2018-09-23 10:47:17</time>
      </trkpt>
      <trkpt lat="49.00353" lon="0.17464">
        <ele>162</ele>
        <time>2018-09-23 10:47:19</time>
      </trkpt>
      <trkpt lat="49.00353" lon="0.17465">
        <ele>162</ele>
        <time>2018-09-23 10:47:21</time>
      </trkpt>
      <trkpt lat="49.00352" lon="0.1746">
        <ele>163</ele>
        <time>2018-09-23 10:47:22</time>
      </trkpt>
      <trkpt lat="49.00353" lon="0.17458">
        <ele>162</ele>
        <time>2018-09-23 10:47:23</time>
      </trkpt>
      <trkpt lat="49.00353" lon="0.17454">
        <ele>162</ele>
        <time>2018-09-23 10:47:25</time>
      </trkpt>
      <trkpt lat="49.00353" lon="0.17452">
        <ele>162</ele>
        <time>2018-09-23 10:47:26</time>
      </trkpt>
      <trkpt lat="49.00354" lon="0.17447">
        <ele>162</ele>
        <time>2018-09-23 10:47:28</time>
      </trkpt>
      <trkpt lat="49.00355" lon="0.17444">
        <ele>162</ele>
        <time>2018-09-23 10:47:29</time>
      </trkpt>
      <trkpt lat="49.00356" lon="0.17438">
        <ele>161</ele>
        <time>2018-09-23 10:47:31</time>
      </trkpt>
      <trkpt lat="49.00356" lon="0.17435">
        <ele>161</ele>
        <time>2018-09-23 10:47:32</time>
      </trkpt>
      <trkpt lat="49.00358" lon="0.17428">
        <ele>161</ele>
        <time>2018-09-23 10:47:34</time>
      </trkpt>
      <trkpt lat="49.00359" lon="0.1742">
        <ele>161</ele>
        <time>2018-09-23 10:47:36</time>
      </trkpt>
      <trkpt lat="49.0036" lon="0.17411">
        <ele>161</ele>
        <time>2018-09-23 10:47:38</time>
      </trkpt>
      <trkpt lat="49.00362" lon="0.17401">
        <ele>161</ele>
        <time>2018-09-23 10:47:40</time>
      </trkpt>
      <trkpt lat="49.00364" lon="0.17392">
        <ele>161</ele>
        <time>2018-09-23 10:47:42</time>
      </trkpt>
      <trkpt lat="49.00366" lon="0.17382">
        <ele>161</ele>
        <time>2018-09-23 10:47:44</time>
      </trkpt>
      <trkpt lat="49.00368" lon="0.1737">
        <ele>160</ele>
        <time>2018-09-23 10:47:46</time>
      </trkpt>
      <trkpt lat="49.0037" lon="0.17357">
        <ele>160</ele>
        <time>2018-09-23 10:47:48</time>
      </trkpt>
      <trkpt lat="49.00371" lon="0.17342">
        <ele>160</ele>
        <time>2018-09-23 10:47:50</time>
      </trkpt>
      <trkpt lat="49.00373" lon="0.17326">
        <ele>159</ele>
        <time>2018-09-23 10:47:52</time>
      </trkpt>
      <trkpt lat="49.00374" lon="0.17308">
        <ele>159</ele>
        <time>2018-09-23 10:47:54</time>
      </trkpt>
      <trkpt lat="49.00375" lon="0.1729">
        <ele>159</ele>
        <time>2018-09-23 10:47:56</time>
      </trkpt>
      <trkpt lat="49.00377" lon="0.17272">
        <ele>158</ele>
        <time>2018-09-23 10:47:58</time>
      </trkpt>
      <trkpt lat="49.00379" lon="0.17252">
        <ele>157</ele>
        <time>2018-09-23 10:48:00</time>
      </trkpt>
      <trkpt lat="49.00381" lon="0.17232">
        <ele>157</ele>
        <time>2018-09-23 10:48:02</time>
      </trkpt>
      <trkpt lat="49.00383" lon="0.17212">
        <ele>157</ele>
        <time>2018-09-23 10:48:04</time>
      </trkpt>
      <trkpt lat="49.00384" lon="0.17192">
        <ele>156</ele>
        <time>2018-09-23 10:48:06</time>
      </trkpt>
      <trkpt lat="49.00386" lon="0.17171">
        <ele>155</ele>
        <time>2018-09-23 10:48:08</time>
      </trkpt>
      <trkpt lat="49.00388" lon="0.1715">
        <ele>154</ele>
        <time>2018-09-23 10:48:10</time>
      </trkpt>
      <trkpt lat="49.00389" lon="0.17129">
        <ele>154</ele>
        <time>2018-09-23 10:48:12</time>
      </trkpt>
      <trkpt lat="49.0039" lon="0.17118">
        <ele>153</ele>
        <time>2018-09-23 10:48:13</time>
      </trkpt>
      <trkpt lat="49.00391" lon="0.17107">
        <ele>153</ele>
        <time>2018-09-23 10:48:14</time>
      </trkpt>
      <trkpt lat="49.00393" lon="0.17085">
        <ele>152</ele>
        <time>2018-09-23 10:48:16</time>
      </trkpt>
      <trkpt lat="49.00395" lon="0.17063">
        <ele>152</ele>
        <time>2018-09-23 10:48:18</time>
      </trkpt>
      <trkpt lat="49.00397" lon="0.1704">
        <ele>151</ele>
        <time>2018-09-23 10:48:20</time>
      </trkpt>
      <trkpt lat="49.00399" lon="0.17016">
        <ele>150</ele>
        <time>2018-09-23 10:48:22</time>
      </trkpt>
      <trkpt lat="49.004" lon="0.17005">
        <ele>150</ele>
        <time>2018-09-23 10:48:23</time>
      </trkpt>
      <trkpt lat="49.00402" lon="0.16982">
        <ele>149</ele>
        <time>2018-09-23 10:48:25</time>
      </trkpt>
      <trkpt lat="49.00403" lon="0.1697">
        <ele>148</ele>
        <time>2018-09-23 10:48:26</time>
      </trkpt>
      <trkpt lat="49.00405" lon="0.16947">
        <ele>148</ele>
        <time>2018-09-23 10:48:28</time>
      </trkpt>
      <trkpt lat="49.00408" lon="0.16923">
        <ele>147</ele>
        <time>2018-09-23 10:48:30</time>
      </trkpt>
      <trkpt lat="49.00412" lon="0.169">
        <ele>146</ele>
        <time>2018-09-23 10:48:32</time>
      </trkpt>
      <trkpt lat="49.00417" lon="0.16877">
        <ele>145</ele>
        <time>2018-09-23 10:48:34</time>
      </trkpt>
      <trkpt lat="49.00423" lon="0.16854">
        <ele>144</ele>
        <time>2018-09-23 10:48:36</time>
      </trkpt>
      <trkpt lat="49.0043" lon="0.16832">
        <ele>143</ele>
        <time>2018-09-23 10:48:38</time>
      </trkpt>
      <trkpt lat="49.00437" lon="0.16809">
        <ele>142</ele>
        <time>2018-09-23 10:48:40</time>
      </trkpt>
      <trkpt lat="49.00443" lon="0.16785">
        <ele>141</ele>
        <time>2018-09-23 10:48:42</time>
      </trkpt>
      <trkpt lat="49.0045" lon="0.16761">
        <ele>140</ele>
        <time>2018-09-23 10:48:44</time>
      </trkpt>
      <trkpt lat="49.00459" lon="0.16738">
        <ele>139</ele>
        <time>2018-09-23 10:48:46</time>
      </trkpt>
      <trkpt lat="49.00468" lon="0.16714">
        <ele>138</ele>
        <time>2018-09-23 10:48:48</time>
      </trkpt>
      <trkpt lat="49.00473" lon="0.16703">
        <ele>137</ele>
        <time>2018-09-23 10:48:49</time>
      </trkpt>
      <trkpt lat="49.00479" lon="0.16692">
        <ele>137</ele>
        <time>2018-09-23 10:48:50</time>
      </trkpt>
      <trkpt lat="49.0049" lon="0.1667">
        <ele>135</ele>
        <time>2018-09-23 10:48:52</time>
      </trkpt>
      <trkpt lat="49.00503" lon="0.1665">
        <ele>135</ele>
        <time>2018-09-23 10:48:54</time>
      </trkpt>
      <trkpt lat="49.00514" lon="0.16635">
        <ele>136</ele>
        <time>2018-09-23 10:48:56</time>
      </trkpt>
      <trkpt lat="49.00522" lon="0.16625">
        <ele>135</ele>
        <time>2018-09-23 10:48:58</time>
      </trkpt>
      <trkpt lat="49.00528" lon="0.16614">
        <ele>134</ele>
        <time>2018-09-23 10:49:00</time>
      </trkpt>
      <trkpt lat="49.0053" lon="0.16602">
        <ele>134</ele>
        <time>2018-09-23 10:49:02</time>
      </trkpt>
      <trkpt lat="49.0053" lon="0.16589">
        <ele>133</ele>
        <time>2018-09-23 10:49:04</time>
      </trkpt>
      <trkpt lat="49.0053" lon="0.16582">
        <ele>133</ele>
        <time>2018-09-23 10:49:05</time>
      </trkpt>
      <trkpt lat="49.0053" lon="0.16568">
        <ele>133</ele>
        <time>2018-09-23 10:49:07</time>
      </trkpt>
      <trkpt lat="49.00531" lon="0.16561">
        <ele>132</ele>
        <time>2018-09-23 10:49:08</time>
      </trkpt>
      <trkpt lat="49.00533" lon="0.16547">
        <ele>132</ele>
        <time>2018-09-23 10:49:10</time>
      </trkpt>
      <trkpt lat="49.00535" lon="0.16532">
        <ele>131</ele>
        <time>2018-09-23 10:49:12</time>
      </trkpt>
      <trkpt lat="49.00536" lon="0.16517">
        <ele>130</ele>
        <time>2018-09-23 10:49:14</time>
      </trkpt>
      <trkpt lat="49.00536" lon="0.16502">
        <ele>130</ele>
        <time>2018-09-23 10:49:16</time>
      </trkpt>
      <trkpt lat="49.00536" lon="0.1649">
        <ele>129</ele>
        <time>2018-09-23 10:49:18</time>
      </trkpt>
      <trkpt lat="49.00537" lon="0.16479">
        <ele>128</ele>
        <time>2018-09-23 10:49:20</time>
      </trkpt>
      <trkpt lat="49.00539" lon="0.16468">
        <ele>127</ele>
        <time>2018-09-23 10:49:22</time>
      </trkpt>
      <trkpt lat="49.00541" lon="0.16456">
        <ele>126</ele>
        <time>2018-09-23 10:49:24</time>
      </trkpt>
      <trkpt lat="49.00542" lon="0.16442">
        <ele>126</ele>
        <time>2018-09-23 10:49:26</time>
      </trkpt>
      <trkpt lat="49.00545" lon="0.16428">
        <ele>125</ele>
        <time>2018-09-23 10:49:28</time>
      </trkpt>
      <trkpt lat="49.00547" lon="0.16414">
        <ele>124</ele>
        <time>2018-09-23 10:49:30</time>
      </trkpt>
      <trkpt lat="49.00549" lon="0.16398">
        <ele>122</ele>
        <time>2018-09-23 10:49:32</time>
      </trkpt>
      <trkpt lat="49.00553" lon="0.16384">
        <ele>123</ele>
        <time>2018-09-23 10:49:34</time>
      </trkpt>
      <trkpt lat="49.00557" lon="0.16371">
        <ele>123</ele>
        <time>2018-09-23 10:49:36</time>
      </trkpt>
      <trkpt lat="49.00562" lon="0.16357">
        <ele>123</ele>
        <time>2018-09-23 10:49:38</time>
      </trkpt>
      <trkpt lat="49.00568" lon="0.16343">
        <ele>123</ele>
        <time>2018-09-23 10:49:40</time>
      </trkpt>
      <trkpt lat="49.0057" lon="0.16336">
        <ele>124</ele>
        <time>2018-09-23 10:49:41</time>
      </trkpt>
      <trkpt lat="49.00574" lon="0.16323">
        <ele>124</ele>
        <time>2018-09-23 10:49:43</time>
      </trkpt>
      <trkpt lat="49.00576" lon="0.16316">
        <ele>124</ele>
        <time>2018-09-23 10:49:44</time>
      </trkpt>
      <trkpt lat="49.0058" lon="0.16303">
        <ele>124</ele>
        <time>2018-09-23 10:49:46</time>
      </trkpt>
      <trkpt lat="49.00582" lon="0.1629">
        <ele>124</ele>
        <time>2018-09-23 10:49:48</time>
      </trkpt>
      <trkpt lat="49.00584" lon="0.1628">
        <ele>123</ele>
        <time>2018-09-23 10:49:50</time>
      </trkpt>
      <trkpt lat="49.00585" lon="0.16269">
        <ele>122</ele>
        <time>2018-09-23 10:49:52</time>
      </trkpt>
      <trkpt lat="49.00587" lon="0.1626">
        <ele>121</ele>
        <time>2018-09-23 10:49:54</time>
      </trkpt>
      <trkpt lat="49.00588" lon="0.16252">
        <ele>120</ele>
        <time>2018-09-23 10:49:56</time>
      </trkpt>
      <trkpt lat="49.0059" lon="0.16243">
        <ele>119</ele>
        <time>2018-09-23 10:49:58</time>
      </trkpt>
      <trkpt lat="49.0059" lon="0.16232">
        <ele>118</ele>
        <time>2018-09-23 10:50:00</time>
      </trkpt>
      <trkpt lat="49.0059" lon="0.16221">
        <ele>118</ele>
        <time>2018-09-23 10:50:02</time>
      </trkpt>
      <trkpt lat="49.00591" lon="0.1621">
        <ele>118</ele>
        <time>2018-09-23 10:50:04</time>
      </trkpt>
      <trkpt lat="49.00593" lon="0.16198">
        <ele>119</ele>
        <time>2018-09-23 10:50:06</time>
      </trkpt>
      <trkpt lat="49.00593" lon="0.16193">
        <ele>120</ele>
        <time>2018-09-23 10:50:07</time>
      </trkpt>
      <trkpt lat="49.00593" lon="0.16187">
        <ele>120</ele>
        <time>2018-09-23 10:50:08</time>
      </trkpt>
      <trkpt lat="49.00592" lon="0.16176">
        <ele>120</ele>
        <time>2018-09-23 10:50:10</time>
      </trkpt>
      <trkpt lat="49.00592" lon="0.16166">
        <ele>120</ele>
        <time>2018-09-23 10:50:12</time>
      </trkpt>
      <trkpt lat="49.00591" lon="0.16155">
        <ele>120</ele>
        <time>2018-09-23 10:50:14</time>
      </trkpt>
      <trkpt lat="49.00591" lon="0.16145">
        <ele>119</ele>
        <time>2018-09-23 10:50:16</time>
      </trkpt>
      <trkpt lat="49.00592" lon="0.16142">
        <ele>118</ele>
        <time>2018-09-23 10:50:17</time>
      </trkpt>
      <trkpt lat="49.00592" lon="0.16134">
        <ele>118</ele>
        <time>2018-09-23 10:50:19</time>
      </trkpt>
      <trkpt lat="49.00592" lon="0.16131">
        <ele>118</ele>
        <time>2018-09-23 10:50:20</time>
      </trkpt>
      <trkpt lat="49.00592" lon="0.16126">
        <ele>118</ele>
        <time>2018-09-23 10:50:22</time>
      </trkpt>
      <trkpt lat="49.00592" lon="0.16119">
        <ele>117</ele>
        <time>2018-09-23 10:50:24</time>
      </trkpt>
      <trkpt lat="49.00593" lon="0.16111">
        <ele>115</ele>
        <time>2018-09-23 10:50:26</time>
      </trkpt>
      <trkpt lat="49.00593" lon="0.16102">
        <ele>114</ele>
        <time>2018-09-23 10:50:28</time>
      </trkpt>
      <trkpt lat="49.00594" lon="0.16092">
        <ele>113</ele>
        <time>2018-09-23 10:50:30</time>
      </trkpt>
      <trkpt lat="49.00593" lon="0.16078">
        <ele>110</ele>
        <time>2018-09-23 10:50:32</time>
      </trkpt>
      <trkpt lat="49.00593" lon="0.16062">
        <ele>108</ele>
        <time>2018-09-23 10:50:34</time>
      </trkpt>
      <trkpt lat="49.00592" lon="0.1604">
        <ele>105</ele>
        <time>2018-09-23 10:50:36</time>
      </trkpt>
      <trkpt lat="49.00592" lon="0.16017">
        <ele>102</ele>
        <time>2018-09-23 10:50:38</time>
      </trkpt>
      <trkpt lat="49.00592" lon="0.15995">
        <ele>101</ele>
        <time>2018-09-23 10:50:40</time>
      </trkpt>
      <trkpt lat="49.00595" lon="0.15976">
        <ele>99</ele>
        <time>2018-09-23 10:50:42</time>
      </trkpt>
      <trkpt lat="49.00596" lon="0.15964">
        <ele>97</ele>
        <time>2018-09-23 10:50:43</time>
      </trkpt>
      <trkpt lat="49.00598" lon="0.15939">
        <ele>96</ele>
        <time>2018-09-23 10:50:45</time>
      </trkpt>
      <trkpt lat="49.00597" lon="0.15911">
        <ele>93</ele>
        <time>2018-09-23 10:50:47</time>
      </trkpt>
      <trkpt lat="49.00595" lon="0.15883">
        <ele>91</ele>
        <time>2018-09-23 10:50:49</time>
      </trkpt>
      <trkpt lat="49.00594" lon="0.1587">
        <ele>90</ele>
        <time>2018-09-23 10:50:50</time>
      </trkpt>
      <trkpt lat="49.00592" lon="0.15846">
        <ele>88</ele>
        <time>2018-09-23 10:50:52</time>
      </trkpt>
      <trkpt lat="49.00591" lon="0.15821">
        <ele>86</ele>
        <time>2018-09-23 10:50:54</time>
      </trkpt>
      <trkpt lat="49.00591" lon="0.15794">
        <ele>83</ele>
        <time>2018-09-23 10:50:56</time>
      </trkpt>
      <trkpt lat="49.00593" lon="0.15766">
        <ele>82</ele>
        <time>2018-09-23 10:50:58</time>
      </trkpt>
      <trkpt lat="49.00596" lon="0.1574">
        <ele>81</ele>
        <time>2018-09-23 10:51:00</time>
      </trkpt>
      <trkpt lat="49.00598" lon="0.15718">
        <ele>81</ele>
        <time>2018-09-23 10:51:02</time>
      </trkpt>
      <trkpt lat="49.00596" lon="0.15699">
        <ele>80</ele>
        <time>2018-09-23 10:51:04</time>
      </trkpt>
      <trkpt lat="49.00594" lon="0.15683">
        <ele>80</ele>
        <time>2018-09-23 10:51:06</time>
      </trkpt>
      <trkpt lat="49.00594" lon="0.15672">
        <ele>79</ele>
        <time>2018-09-23 10:51:08</time>
      </trkpt>
      <trkpt lat="49.00595" lon="0.15666">
        <ele>78</ele>
        <time>2018-09-23 10:51:10</time>
      </trkpt>
      <trkpt lat="49.00595" lon="0.15664">
        <ele>78</ele>
        <time>2018-09-23 10:51:11</time>
      </trkpt>
      <trkpt lat="49.00596" lon="0.15663">
        <ele>78</ele>
        <time>2018-09-23 10:51:13</time>
      </trkpt>
      <trkpt lat="49.00596" lon="0.15663">
        <ele>78</ele>
        <time>2018-09-23 10:51:14</time>
      </trkpt>
      <trkpt lat="49.00595" lon="0.15652">
        <ele>78</ele>
        <time>2018-09-23 10:51:17</time>
      </trkpt>
      <trkpt lat="49.00594" lon="0.15646">
        <ele>78</ele>
        <time>2018-09-23 10:51:18</time>
      </trkpt>
      <trkpt lat="49.00595" lon="0.15633">
        <ele>79</ele>
        <time>2018-09-23 10:51:20</time>
      </trkpt>
      <trkpt lat="49.00597" lon="0.15619">
        <ele>79</ele>
        <time>2018-09-23 10:51:22</time>
      </trkpt>
      <trkpt lat="49.00599" lon="0.15603">
        <ele>78</ele>
        <time>2018-09-23 10:51:24</time>
      </trkpt>
      <trkpt lat="49.00601" lon="0.15586">
        <ele>78</ele>
        <time>2018-09-23 10:51:26</time>
      </trkpt>
      <trkpt lat="49.00603" lon="0.15568">
        <ele>77</ele>
        <time>2018-09-23 10:51:28</time>
      </trkpt>
      <trkpt lat="49.00605" lon="0.1555">
        <ele>77</ele>
        <time>2018-09-23 10:51:30</time>
      </trkpt>
      <trkpt lat="49.00607" lon="0.15532">
        <ele>76</ele>
        <time>2018-09-23 10:51:32</time>
      </trkpt>
      <trkpt lat="49.00609" lon="0.15514">
        <ele>75</ele>
        <time>2018-09-23 10:51:34</time>
      </trkpt>
      <trkpt lat="49.00611" lon="0.15495">
        <ele>75</ele>
        <time>2018-09-23 10:51:36</time>
      </trkpt>
      <trkpt lat="49.00612" lon="0.15476">
        <ele>74</ele>
        <time>2018-09-23 10:51:38</time>
      </trkpt>
      <trkpt lat="49.00615" lon="0.15457">
        <ele>74</ele>
        <time>2018-09-23 10:51:40</time>
      </trkpt>
      <trkpt lat="49.00618" lon="0.15437">
        <ele>73</ele>
        <time>2018-09-23 10:51:42</time>
      </trkpt>
      <trkpt lat="49.0062" lon="0.15416">
        <ele>71</ele>
        <time>2018-09-23 10:51:44</time>
      </trkpt>
      <trkpt lat="49.00621" lon="0.15395">
        <ele>70</ele>
        <time>2018-09-23 10:51:46</time>
      </trkpt>
      <trkpt lat="49.00621" lon="0.15372">
        <ele>69</ele>
        <time>2018-09-23 10:51:48</time>
      </trkpt>
      <trkpt lat="49.00622" lon="0.15353">
        <ele>67</ele>
        <time>2018-09-23 10:51:50</time>
      </trkpt>
      <trkpt lat="49.00622" lon="0.15343">
        <ele>67</ele>
        <time>2018-09-23 10:51:51</time>
      </trkpt>
      <trkpt lat="49.00622" lon="0.15333">
        <ele>67</ele>
        <time>2018-09-23 10:51:52</time>
      </trkpt>
      <trkpt lat="49.00621" lon="0.15313">
        <ele>65</ele>
        <time>2018-09-23 10:51:54</time>
      </trkpt>
      <trkpt lat="49.00621" lon="0.15291">
        <ele>64</ele>
        <time>2018-09-23 10:51:56</time>
      </trkpt>
      <trkpt lat="49.00621" lon="0.15275">
        <ele>63</ele>
        <time>2018-09-23 10:51:58</time>
      </trkpt>
      <trkpt lat="49.00621" lon="0.15263">
        <ele>62</ele>
        <time>2018-09-23 10:52:00</time>
      </trkpt>
      <trkpt lat="49.00621" lon="0.15249">
        <ele>61</ele>
        <time>2018-09-23 10:52:02</time>
      </trkpt>
      <trkpt lat="49.00621" lon="0.15232">
        <ele>61</ele>
        <time>2018-09-23 10:52:04</time>
      </trkpt>
      <trkpt lat="49.00621" lon="0.15214">
        <ele>60</ele>
        <time>2018-09-23 10:52:06</time>
      </trkpt>
      <trkpt lat="49.0062" lon="0.15196">
        <ele>59</ele>
        <time>2018-09-23 10:52:08</time>
      </trkpt>
      <trkpt lat="49.0062" lon="0.15177">
        <ele>59</ele>
        <time>2018-09-23 10:52:10</time>
      </trkpt>
      <trkpt lat="49.00621" lon="0.15159">
        <ele>59</ele>
        <time>2018-09-23 10:52:12</time>
      </trkpt>
      <trkpt lat="49.00621" lon="0.1514">
        <ele>58</ele>
        <time>2018-09-23 10:52:14</time>
      </trkpt>
      <trkpt lat="49.00622" lon="0.15122">
        <ele>58</ele>
        <time>2018-09-23 10:52:16</time>
      </trkpt>
      <trkpt lat="49.00621" lon="0.15105">
        <ele>58</ele>
        <time>2018-09-23 10:52:18</time>
      </trkpt>
      <trkpt lat="49.0062" lon="0.15096">
        <ele>58</ele>
        <time>2018-09-23 10:52:20</time>
      </trkpt>
      <trkpt lat="49.00621" lon="0.1509">
        <ele>57</ele>
        <time>2018-09-23 10:52:22</time>
      </trkpt>
      <trkpt lat="49.00621" lon="0.15083">
        <ele>58</ele>
        <time>2018-09-23 10:52:24</time>
      </trkpt>
      <trkpt lat="49.00622" lon="0.15077">
        <ele>58</ele>
        <time>2018-09-23 10:52:26</time>
      </trkpt>
      <trkpt lat="49.0062" lon="0.15071">
        <ele>59</ele>
        <time>2018-09-23 10:52:28</time>
      </trkpt>
      <trkpt lat="49.00618" lon="0.15065">
        <ele>59</ele>
        <time>2018-09-23 10:52:30</time>
      </trkpt>
      <trkpt lat="49.00612" lon="0.15059">
        <ele>59</ele>
        <time>2018-09-23 10:52:32</time>
      </trkpt>
      <trkpt lat="49.00605" lon="0.1505">
        <ele>59</ele>
        <time>2018-09-23 10:52:34</time>
      </trkpt>
      <trkpt lat="49.00599" lon="0.15043">
        <ele>59</ele>
        <time>2018-09-23 10:52:36</time>
      </trkpt>
      <trkpt lat="49.00597" lon="0.15037">
        <ele>59</ele>
        <time>2018-09-23 10:52:38</time>
      </trkpt>
      <trkpt lat="49.00593" lon="0.15033">
        <ele>59</ele>
        <time>2018-09-23 10:52:40</time>
      </trkpt>
      <trkpt lat="49.00588" lon="0.15028">
        <ele>59</ele>
        <time>2018-09-23 10:52:42</time>
      </trkpt>
      <trkpt lat="49.00585" lon="0.15024">
        <ele>58</ele>
        <time>2018-09-23 10:52:43</time>
      </trkpt>
      <trkpt lat="49.00579" lon="0.15014">
        <ele>58</ele>
        <time>2018-09-23 10:52:45</time>
      </trkpt>
      <trkpt lat="49.00576" lon="0.1501">
        <ele>58</ele>
        <time>2018-09-23 10:52:46</time>
      </trkpt>
      <trkpt lat="49.0057" lon="0.15003">
        <ele>59</ele>
        <time>2018-09-23 10:52:48</time>
      </trkpt>
      <trkpt lat="49.00566" lon="0.14997">
        <ele>60</ele>
        <time>2018-09-23 10:52:50</time>
      </trkpt>
      <trkpt lat="49.00568" lon="0.14991">
        <ele>60</ele>
        <time>2018-09-23 10:52:51</time>
      </trkpt>
      <trkpt lat="49.00572" lon="0.14982">
        <ele>61</ele>
        <time>2018-09-23 10:52:54</time>
      </trkpt>
      <trkpt lat="49.00578" lon="0.14972">
        <ele>61</ele>
        <time>2018-09-23 10:52:56</time>
      </trkpt>
      <trkpt lat="49.00586" lon="0.14961">
        <ele>61</ele>
        <time>2018-09-23 10:52:58</time>
      </trkpt>
      <trkpt lat="49.00592" lon="0.1495">
        <ele>61</ele>
        <time>2018-09-23 10:53:00</time>
      </trkpt>
      <trkpt lat="49.00592" lon="0.14945">
        <ele>61</ele>
        <time>2018-09-23 10:53:01</time>
      </trkpt>
      <trkpt lat="49.00588" lon="0.14931">
        <ele>63</ele>
        <time>2018-09-23 10:53:03</time>
      </trkpt>
      <trkpt lat="49.00586" lon="0.14925">
        <ele>63</ele>
        <time>2018-09-23 10:53:04</time>
      </trkpt>
      <trkpt lat="49.00587" lon="0.14917">
        <ele>63</ele>
        <time>2018-09-23 10:53:06</time>
      </trkpt>
      <trkpt lat="49.0059" lon="0.14911">
        <ele>63</ele>
        <time>2018-09-23 10:53:08</time>
      </trkpt>
      <trkpt lat="49.00593" lon="0.14904">
        <ele>64</ele>
        <time>2018-09-23 10:53:10</time>
      </trkpt>
      <trkpt lat="49.00597" lon="0.149">
        <ele>64</ele>
        <time>2018-09-23 10:53:12</time>
      </trkpt>
      <trkpt lat="49.006" lon="0.14895">
        <ele>64</ele>
        <time>2018-09-23 10:53:14</time>
      </trkpt>
      <trkpt lat="49.006" lon="0.14893">
        <ele>64</ele>
        <time>2018-09-23 10:53:16</time>
      </trkpt>
    </trkseg>
  </trk>
</gpx>